<?xml version="1.0" encoding="UTF-8" standalone="no" ?>
<gpx xmlns="http://www.topografix.com/GPX/1/1" xmlns:xsi="http://www.w3.org/2001/XMLSchema-instance" xsi:schemaLocation="http://www.topografix.com/GPX/1/1 http://www.topografix.com/GPX/1/1/gpx.xsd" version="1.1" creator="VisuGPX - https://www.visugpx.com">
  <metadata>
    <name>20140704_Vassieux-StJean_48</name>
    <desc><![CDATA[US-CERGY-GTV]]></desc>
  </metadata>
  <trk>
    <name><![CDATA[20140704_Vassieux-StJean_48]]></name>
    <trkseg>
      <trkpt lat="44.89525" lon="5.37009">
        <ele>1097.48</ele>
        <time>2014-07-04T05:53:56Z</time>
      </trkpt>
      <trkpt lat="44.89525" lon="5.37009">
        <ele>1097.48</ele>
        <time>2014-07-04T05:53:57Z</time>
      </trkpt>
      <trkpt lat="44.89524" lon="5.37008">
        <ele>1097.48</ele>
        <time>2014-07-04T05:54:01Z</time>
      </trkpt>
      <trkpt lat="44.89556" lon="5.37058">
        <ele>1088.83</ele>
        <time>2014-07-04T07:09:23Z</time>
      </trkpt>
      <trkpt lat="44.89554" lon="5.37061">
        <ele>1088.35</ele>
        <time>2014-07-04T07:09:24Z</time>
      </trkpt>
      <trkpt lat="44.89526" lon="5.37069">
        <ele>1089.31</ele>
        <time>2014-07-04T07:09:44Z</time>
      </trkpt>
      <trkpt lat="44.89522" lon="5.37072">
        <ele>1085.95</ele>
        <time>2014-07-04T07:10:04Z</time>
      </trkpt>
      <trkpt lat="44.8952" lon="5.37071">
        <ele>1082.58</ele>
        <time>2014-07-04T07:10:22Z</time>
      </trkpt>
      <trkpt lat="44.8952" lon="5.37071">
        <ele>1080.66</ele>
        <time>2014-07-04T07:10:46Z</time>
      </trkpt>
      <trkpt lat="44.89513" lon="5.37074">
        <ele>1080.66</ele>
        <time>2014-07-04T07:11:11Z</time>
      </trkpt>
      <trkpt lat="44.89512" lon="5.37075">
        <ele>1081.62</ele>
        <time>2014-07-04T07:11:20Z</time>
      </trkpt>
      <trkpt lat="44.89511" lon="5.37076">
        <ele>1080.18</ele>
        <time>2014-07-04T07:11:26Z</time>
      </trkpt>
      <trkpt lat="44.89511" lon="5.37078">
        <ele>1080.18</ele>
        <time>2014-07-04T07:11:38Z</time>
      </trkpt>
      <trkpt lat="44.89511" lon="5.37078">
        <ele>1079.7</ele>
        <time>2014-07-04T07:12:08Z</time>
      </trkpt>
      <trkpt lat="44.89509" lon="5.37078">
        <ele>1080.66</ele>
        <time>2014-07-04T07:12:36Z</time>
      </trkpt>
      <trkpt lat="44.8951" lon="5.37077">
        <ele>1079.22</ele>
        <time>2014-07-04T07:12:53Z</time>
      </trkpt>
      <trkpt lat="44.8951" lon="5.37071">
        <ele>1079.22</ele>
        <time>2014-07-04T07:13:18Z</time>
      </trkpt>
      <trkpt lat="44.89509" lon="5.37069">
        <ele>1078.74</ele>
        <time>2014-07-04T07:13:45Z</time>
      </trkpt>
      <trkpt lat="44.8951" lon="5.37069">
        <ele>1078.26</ele>
        <time>2014-07-04T07:14:06Z</time>
      </trkpt>
      <trkpt lat="44.89512" lon="5.37069">
        <ele>1077.78</ele>
        <time>2014-07-04T07:14:34Z</time>
      </trkpt>
      <trkpt lat="44.89513" lon="5.37069">
        <ele>1077.78</ele>
        <time>2014-07-04T07:14:52Z</time>
      </trkpt>
      <trkpt lat="44.89534" lon="5.37065">
        <ele>1077.78</ele>
        <time>2014-07-04T07:15:05Z</time>
      </trkpt>
      <trkpt lat="44.8954" lon="5.37049">
        <ele>1077.78</ele>
        <time>2014-07-04T07:15:10Z</time>
      </trkpt>
      <trkpt lat="44.8954" lon="5.37025">
        <ele>1077.78</ele>
        <time>2014-07-04T07:15:16Z</time>
      </trkpt>
      <trkpt lat="44.8954" lon="5.37002">
        <ele>1078.26</ele>
        <time>2014-07-04T07:15:24Z</time>
      </trkpt>
      <trkpt lat="44.89538" lon="5.36954">
        <ele>1079.22</ele>
        <time>2014-07-04T07:15:38Z</time>
      </trkpt>
      <trkpt lat="44.89537" lon="5.3691">
        <ele>1082.1</ele>
        <time>2014-07-04T07:15:53Z</time>
      </trkpt>
      <trkpt lat="44.89537" lon="5.36858">
        <ele>1082.1</ele>
        <time>2014-07-04T07:16:07Z</time>
      </trkpt>
      <trkpt lat="44.89541" lon="5.36805">
        <ele>1081.14</ele>
        <time>2014-07-04T07:16:16Z</time>
      </trkpt>
      <trkpt lat="44.89541" lon="5.36798">
        <ele>1080.66</ele>
        <time>2014-07-04T07:16:17Z</time>
      </trkpt>
      <trkpt lat="44.89546" lon="5.36742">
        <ele>1080.18</ele>
        <time>2014-07-04T07:16:25Z</time>
      </trkpt>
      <trkpt lat="44.89548" lon="5.36736">
        <ele>1079.7</ele>
        <time>2014-07-04T07:16:26Z</time>
      </trkpt>
      <trkpt lat="44.89559" lon="5.36673">
        <ele>1078.26</ele>
        <time>2014-07-04T07:16:37Z</time>
      </trkpt>
      <trkpt lat="44.89558" lon="5.36598">
        <ele>1078.26</ele>
        <time>2014-07-04T07:16:50Z</time>
      </trkpt>
      <trkpt lat="44.89557" lon="5.3658">
        <ele>1078.74</ele>
        <time>2014-07-04T07:16:55Z</time>
      </trkpt>
      <trkpt lat="44.89556" lon="5.36577">
        <ele>1078.74</ele>
        <time>2014-07-04T07:16:56Z</time>
      </trkpt>
      <trkpt lat="44.89555" lon="5.36574">
        <ele>1078.74</ele>
        <time>2014-07-04T07:16:57Z</time>
      </trkpt>
      <trkpt lat="44.89553" lon="5.36573">
        <ele>1078.74</ele>
        <time>2014-07-04T07:16:58Z</time>
      </trkpt>
      <trkpt lat="44.89551" lon="5.36571">
        <ele>1078.74</ele>
        <time>2014-07-04T07:16:59Z</time>
      </trkpt>
      <trkpt lat="44.89549" lon="5.3657">
        <ele>1078.74</ele>
        <time>2014-07-04T07:17:00Z</time>
      </trkpt>
      <trkpt lat="44.89547" lon="5.36569">
        <ele>1079.22</ele>
        <time>2014-07-04T07:17:01Z</time>
      </trkpt>
      <trkpt lat="44.89545" lon="5.3657">
        <ele>1078.74</ele>
        <time>2014-07-04T07:17:02Z</time>
      </trkpt>
      <trkpt lat="44.89543" lon="5.36571">
        <ele>1078.74</ele>
        <time>2014-07-04T07:17:03Z</time>
      </trkpt>
      <trkpt lat="44.89542" lon="5.36571">
        <ele>1079.22</ele>
        <time>2014-07-04T07:17:04Z</time>
      </trkpt>
      <trkpt lat="44.89534" lon="5.36576">
        <ele>1078.74</ele>
        <time>2014-07-04T07:17:11Z</time>
      </trkpt>
      <trkpt lat="44.89533" lon="5.36576">
        <ele>1078.74</ele>
        <time>2014-07-04T07:17:12Z</time>
      </trkpt>
      <trkpt lat="44.89495" lon="5.36581">
        <ele>1078.74</ele>
        <time>2014-07-04T07:17:26Z</time>
      </trkpt>
      <trkpt lat="44.89446" lon="5.36574">
        <ele>1078.74</ele>
        <time>2014-07-04T07:17:43Z</time>
      </trkpt>
      <trkpt lat="44.89389" lon="5.36553">
        <ele>1077.78</ele>
        <time>2014-07-04T07:18:00Z</time>
      </trkpt>
      <trkpt lat="44.89324" lon="5.36545">
        <ele>1076.81</ele>
        <time>2014-07-04T07:18:17Z</time>
      </trkpt>
      <trkpt lat="44.89262" lon="5.36569">
        <ele>1076.33</ele>
        <time>2014-07-04T07:18:33Z</time>
      </trkpt>
      <trkpt lat="44.89213" lon="5.36583">
        <ele>1076.33</ele>
        <time>2014-07-04T07:18:46Z</time>
      </trkpt>
      <trkpt lat="44.89209" lon="5.36584">
        <ele>1076.33</ele>
        <time>2014-07-04T07:18:47Z</time>
      </trkpt>
      <trkpt lat="44.89147" lon="5.36596">
        <ele>1076.81</ele>
        <time>2014-07-04T07:19:03Z</time>
      </trkpt>
      <trkpt lat="44.891" lon="5.36603">
        <ele>1077.29</ele>
        <time>2014-07-04T07:19:16Z</time>
      </trkpt>
      <trkpt lat="44.89038" lon="5.36603">
        <ele>1077.29</ele>
        <time>2014-07-04T07:19:33Z</time>
      </trkpt>
      <trkpt lat="44.88976" lon="5.36617">
        <ele>1077.78</ele>
        <time>2014-07-04T07:19:51Z</time>
      </trkpt>
      <trkpt lat="44.88918" lon="5.36621">
        <ele>1077.29</ele>
        <time>2014-07-04T07:20:06Z</time>
      </trkpt>
      <trkpt lat="44.88895" lon="5.36622">
        <ele>1077.78</ele>
        <time>2014-07-04T07:20:12Z</time>
      </trkpt>
      <trkpt lat="44.88849" lon="5.36622">
        <ele>1077.78</ele>
        <time>2014-07-04T07:20:25Z</time>
      </trkpt>
      <trkpt lat="44.88793" lon="5.36614">
        <ele>1077.78</ele>
        <time>2014-07-04T07:20:41Z</time>
      </trkpt>
      <trkpt lat="44.88735" lon="5.366">
        <ele>1078.26</ele>
        <time>2014-07-04T07:20:57Z</time>
      </trkpt>
      <trkpt lat="44.88687" lon="5.36598">
        <ele>1078.26</ele>
        <time>2014-07-04T07:21:11Z</time>
      </trkpt>
      <trkpt lat="44.88642" lon="5.36576">
        <ele>1077.78</ele>
        <time>2014-07-04T07:21:26Z</time>
      </trkpt>
      <trkpt lat="44.88588" lon="5.36537">
        <ele>1078.26</ele>
        <time>2014-07-04T07:21:45Z</time>
      </trkpt>
      <trkpt lat="44.8854" lon="5.36509">
        <ele>1078.74</ele>
        <time>2014-07-04T07:22:03Z</time>
      </trkpt>
      <trkpt lat="44.88504" lon="5.36496">
        <ele>1079.7</ele>
        <time>2014-07-04T07:22:18Z</time>
      </trkpt>
      <trkpt lat="44.88463" lon="5.36472">
        <ele>1081.62</ele>
        <time>2014-07-04T07:22:38Z</time>
      </trkpt>
      <trkpt lat="44.8844" lon="5.36442">
        <ele>1084.02</ele>
        <time>2014-07-04T07:22:56Z</time>
      </trkpt>
      <trkpt lat="44.88431" lon="5.36436">
        <ele>1084.02</ele>
        <time>2014-07-04T07:23:01Z</time>
      </trkpt>
      <trkpt lat="44.88429" lon="5.36436">
        <ele>1084.02</ele>
        <time>2014-07-04T07:23:02Z</time>
      </trkpt>
      <trkpt lat="44.88406" lon="5.3643">
        <ele>1086.43</ele>
        <time>2014-07-04T07:23:18Z</time>
      </trkpt>
      <trkpt lat="44.88403" lon="5.36429">
        <ele>1086.43</ele>
        <time>2014-07-04T07:23:20Z</time>
      </trkpt>
      <trkpt lat="44.88402" lon="5.36429">
        <ele>1086.43</ele>
        <time>2014-07-04T07:23:21Z</time>
      </trkpt>
      <trkpt lat="44.88401" lon="5.3643">
        <ele>1086.91</ele>
        <time>2014-07-04T07:23:22Z</time>
      </trkpt>
      <trkpt lat="44.88399" lon="5.36429">
        <ele>1086.91</ele>
        <time>2014-07-04T07:23:23Z</time>
      </trkpt>
      <trkpt lat="44.88398" lon="5.36429">
        <ele>1086.91</ele>
        <time>2014-07-04T07:23:24Z</time>
      </trkpt>
      <trkpt lat="44.88397" lon="5.36428">
        <ele>1087.39</ele>
        <time>2014-07-04T07:23:25Z</time>
      </trkpt>
      <trkpt lat="44.88396" lon="5.36427">
        <ele>1087.39</ele>
        <time>2014-07-04T07:23:26Z</time>
      </trkpt>
      <trkpt lat="44.88395" lon="5.36427">
        <ele>1087.87</ele>
        <time>2014-07-04T07:23:27Z</time>
      </trkpt>
      <trkpt lat="44.88376" lon="5.36424">
        <ele>1089.31</ele>
        <time>2014-07-04T07:23:40Z</time>
      </trkpt>
      <trkpt lat="44.88373" lon="5.36424">
        <ele>1090.27</ele>
        <time>2014-07-04T07:23:42Z</time>
      </trkpt>
      <trkpt lat="44.88372" lon="5.36423">
        <ele>1090.27</ele>
        <time>2014-07-04T07:23:43Z</time>
      </trkpt>
      <trkpt lat="44.88371" lon="5.36423">
        <ele>1090.27</ele>
        <time>2014-07-04T07:23:44Z</time>
      </trkpt>
      <trkpt lat="44.88369" lon="5.36423">
        <ele>1090.75</ele>
        <time>2014-07-04T07:23:45Z</time>
      </trkpt>
      <trkpt lat="44.88368" lon="5.36422">
        <ele>1091.23</ele>
        <time>2014-07-04T07:23:46Z</time>
      </trkpt>
      <trkpt lat="44.88362" lon="5.36422">
        <ele>1091.23</ele>
        <time>2014-07-04T07:23:52Z</time>
      </trkpt>
      <trkpt lat="44.88361" lon="5.36423">
        <ele>1091.71</ele>
        <time>2014-07-04T07:23:53Z</time>
      </trkpt>
      <trkpt lat="44.88359" lon="5.36422">
        <ele>1091.71</ele>
        <time>2014-07-04T07:23:54Z</time>
      </trkpt>
      <trkpt lat="44.88358" lon="5.36422">
        <ele>1092.2</ele>
        <time>2014-07-04T07:23:55Z</time>
      </trkpt>
      <trkpt lat="44.88357" lon="5.36421">
        <ele>1092.2</ele>
        <time>2014-07-04T07:23:56Z</time>
      </trkpt>
      <trkpt lat="44.88356" lon="5.36421">
        <ele>1092.2</ele>
        <time>2014-07-04T07:23:57Z</time>
      </trkpt>
      <trkpt lat="44.88332" lon="5.36418">
        <ele>1093.16</ele>
        <time>2014-07-04T07:24:14Z</time>
      </trkpt>
      <trkpt lat="44.88313" lon="5.36411">
        <ele>1095.56</ele>
        <time>2014-07-04T07:24:28Z</time>
      </trkpt>
      <trkpt lat="44.88286" lon="5.364">
        <ele>1096.04</ele>
        <time>2014-07-04T07:24:43Z</time>
      </trkpt>
      <trkpt lat="44.88262" lon="5.36382">
        <ele>1093.64</ele>
        <time>2014-07-04T07:24:52Z</time>
      </trkpt>
      <trkpt lat="44.88258" lon="5.36379">
        <ele>1093.16</ele>
        <time>2014-07-04T07:24:53Z</time>
      </trkpt>
      <trkpt lat="44.88225" lon="5.36362">
        <ele>1095.08</ele>
        <time>2014-07-04T07:25:04Z</time>
      </trkpt>
      <trkpt lat="44.88199" lon="5.36365">
        <ele>1096.52</ele>
        <time>2014-07-04T07:25:19Z</time>
      </trkpt>
      <trkpt lat="44.88192" lon="5.36368">
        <ele>1097.96</ele>
        <time>2014-07-04T07:25:24Z</time>
      </trkpt>
      <trkpt lat="44.88191" lon="5.36369">
        <ele>1098.44</ele>
        <time>2014-07-04T07:25:25Z</time>
      </trkpt>
      <trkpt lat="44.8819" lon="5.36371">
        <ele>1099.4</ele>
        <time>2014-07-04T07:25:26Z</time>
      </trkpt>
      <trkpt lat="44.88177" lon="5.36385">
        <ele>1097.48</ele>
        <time>2014-07-04T07:25:34Z</time>
      </trkpt>
      <trkpt lat="44.88175" lon="5.36386">
        <ele>1097.48</ele>
        <time>2014-07-04T07:25:35Z</time>
      </trkpt>
      <trkpt lat="44.88174" lon="5.36386">
        <ele>1097.96</ele>
        <time>2014-07-04T07:25:36Z</time>
      </trkpt>
      <trkpt lat="44.88172" lon="5.36386">
        <ele>1097.96</ele>
        <time>2014-07-04T07:25:37Z</time>
      </trkpt>
      <trkpt lat="44.88171" lon="5.36386">
        <ele>1097.96</ele>
        <time>2014-07-04T07:25:38Z</time>
      </trkpt>
      <trkpt lat="44.8817" lon="5.36385">
        <ele>1098.44</ele>
        <time>2014-07-04T07:25:39Z</time>
      </trkpt>
      <trkpt lat="44.88152" lon="5.36386">
        <ele>1099.89</ele>
        <time>2014-07-04T07:25:52Z</time>
      </trkpt>
      <trkpt lat="44.88144" lon="5.36382">
        <ele>1100.85</ele>
        <time>2014-07-04T07:25:59Z</time>
      </trkpt>
      <trkpt lat="44.8814" lon="5.36384">
        <ele>1101.33</ele>
        <time>2014-07-04T07:26:03Z</time>
      </trkpt>
      <trkpt lat="44.88138" lon="5.36385">
        <ele>1101.33</ele>
        <time>2014-07-04T07:26:04Z</time>
      </trkpt>
      <trkpt lat="44.88121" lon="5.36385">
        <ele>1102.77</ele>
        <time>2014-07-04T07:26:16Z</time>
      </trkpt>
      <trkpt lat="44.88119" lon="5.36385">
        <ele>1103.25</ele>
        <time>2014-07-04T07:26:18Z</time>
      </trkpt>
      <trkpt lat="44.88118" lon="5.36385">
        <ele>1103.25</ele>
        <time>2014-07-04T07:26:19Z</time>
      </trkpt>
      <trkpt lat="44.88106" lon="5.36378">
        <ele>1103.73</ele>
        <time>2014-07-04T07:26:29Z</time>
      </trkpt>
      <trkpt lat="44.88105" lon="5.36377">
        <ele>1103.73</ele>
        <time>2014-07-04T07:26:30Z</time>
      </trkpt>
      <trkpt lat="44.88104" lon="5.36376">
        <ele>1104.21</ele>
        <time>2014-07-04T07:26:31Z</time>
      </trkpt>
      <trkpt lat="44.88104" lon="5.36375">
        <ele>1104.69</ele>
        <time>2014-07-04T07:26:32Z</time>
      </trkpt>
      <trkpt lat="44.88102" lon="5.36373">
        <ele>1104.69</ele>
        <time>2014-07-04T07:26:34Z</time>
      </trkpt>
      <trkpt lat="44.88101" lon="5.36372">
        <ele>1105.17</ele>
        <time>2014-07-04T07:26:35Z</time>
      </trkpt>
      <trkpt lat="44.8809" lon="5.36354">
        <ele>1107.1</ele>
        <time>2014-07-04T07:26:47Z</time>
      </trkpt>
      <trkpt lat="44.88089" lon="5.36353">
        <ele>1106.13</ele>
        <time>2014-07-04T07:26:48Z</time>
      </trkpt>
      <trkpt lat="44.88088" lon="5.36351">
        <ele>1106.61</ele>
        <time>2014-07-04T07:26:49Z</time>
      </trkpt>
      <trkpt lat="44.88088" lon="5.3635">
        <ele>1107.1</ele>
        <time>2014-07-04T07:26:50Z</time>
      </trkpt>
      <trkpt lat="44.88087" lon="5.36348">
        <ele>1107.58</ele>
        <time>2014-07-04T07:26:51Z</time>
      </trkpt>
      <trkpt lat="44.88087" lon="5.36347">
        <ele>1107.58</ele>
        <time>2014-07-04T07:26:52Z</time>
      </trkpt>
      <trkpt lat="44.88085" lon="5.36346">
        <ele>1108.06</ele>
        <time>2014-07-04T07:26:53Z</time>
      </trkpt>
      <trkpt lat="44.88084" lon="5.36344">
        <ele>1108.06</ele>
        <time>2014-07-04T07:26:54Z</time>
      </trkpt>
      <trkpt lat="44.88078" lon="5.36338">
        <ele>1108.54</ele>
        <time>2014-07-04T07:27:00Z</time>
      </trkpt>
      <trkpt lat="44.88073" lon="5.36323">
        <ele>1109.5</ele>
        <time>2014-07-04T07:27:10Z</time>
      </trkpt>
      <trkpt lat="44.88072" lon="5.36321">
        <ele>1109.98</ele>
        <time>2014-07-04T07:27:12Z</time>
      </trkpt>
      <trkpt lat="44.88066" lon="5.36308">
        <ele>1111.9</ele>
        <time>2014-07-04T07:27:24Z</time>
      </trkpt>
      <trkpt lat="44.88055" lon="5.36286">
        <ele>1112.86</ele>
        <time>2014-07-04T07:27:38Z</time>
      </trkpt>
      <trkpt lat="44.88055" lon="5.36284">
        <ele>1112.86</ele>
        <time>2014-07-04T07:27:39Z</time>
      </trkpt>
      <trkpt lat="44.88055" lon="5.36282">
        <ele>1113.82</ele>
        <time>2014-07-04T07:27:40Z</time>
      </trkpt>
      <trkpt lat="44.88052" lon="5.36273">
        <ele>1114.31</ele>
        <time>2014-07-04T07:27:47Z</time>
      </trkpt>
      <trkpt lat="44.88052" lon="5.36271">
        <ele>1114.31</ele>
        <time>2014-07-04T07:27:48Z</time>
      </trkpt>
      <trkpt lat="44.8805" lon="5.36266">
        <ele>1114.79</ele>
        <time>2014-07-04T07:27:51Z</time>
      </trkpt>
      <trkpt lat="44.8805" lon="5.36264">
        <ele>1114.79</ele>
        <time>2014-07-04T07:27:52Z</time>
      </trkpt>
      <trkpt lat="44.8805" lon="5.36262">
        <ele>1114.79</ele>
        <time>2014-07-04T07:27:53Z</time>
      </trkpt>
      <trkpt lat="44.88043" lon="5.36249">
        <ele>1115.75</ele>
        <time>2014-07-04T07:28:01Z</time>
      </trkpt>
      <trkpt lat="44.8804" lon="5.36239">
        <ele>1116.71</ele>
        <time>2014-07-04T07:28:07Z</time>
      </trkpt>
      <trkpt lat="44.88036" lon="5.36233">
        <ele>1116.71</ele>
        <time>2014-07-04T07:28:11Z</time>
      </trkpt>
      <trkpt lat="44.8803" lon="5.36224">
        <ele>1118.15</ele>
        <time>2014-07-04T07:28:19Z</time>
      </trkpt>
      <trkpt lat="44.88028" lon="5.3622">
        <ele>1118.15</ele>
        <time>2014-07-04T07:28:22Z</time>
      </trkpt>
      <trkpt lat="44.88027" lon="5.36219">
        <ele>1117.67</ele>
        <time>2014-07-04T07:28:23Z</time>
      </trkpt>
      <trkpt lat="44.88025" lon="5.36211">
        <ele>1118.63</ele>
        <time>2014-07-04T07:28:28Z</time>
      </trkpt>
      <trkpt lat="44.88022" lon="5.36205">
        <ele>1118.15</ele>
        <time>2014-07-04T07:28:43Z</time>
      </trkpt>
      <trkpt lat="44.8802" lon="5.36203">
        <ele>1118.63</ele>
        <time>2014-07-04T07:29:19Z</time>
      </trkpt>
      <trkpt lat="44.88018" lon="5.36201">
        <ele>1118.15</ele>
        <time>2014-07-04T07:29:39Z</time>
      </trkpt>
      <trkpt lat="44.88017" lon="5.36201">
        <ele>1118.15</ele>
        <time>2014-07-04T07:29:40Z</time>
      </trkpt>
      <trkpt lat="44.88015" lon="5.36202">
        <ele>1118.63</ele>
        <time>2014-07-04T07:29:41Z</time>
      </trkpt>
      <trkpt lat="44.88014" lon="5.36202">
        <ele>1118.63</ele>
        <time>2014-07-04T07:29:42Z</time>
      </trkpt>
      <trkpt lat="44.88012" lon="5.36203">
        <ele>1118.15</ele>
        <time>2014-07-04T07:29:43Z</time>
      </trkpt>
      <trkpt lat="44.8801" lon="5.36203">
        <ele>1118.63</ele>
        <time>2014-07-04T07:29:44Z</time>
      </trkpt>
      <trkpt lat="44.88009" lon="5.36203">
        <ele>1118.63</ele>
        <time>2014-07-04T07:29:45Z</time>
      </trkpt>
      <trkpt lat="44.88007" lon="5.36204">
        <ele>1118.15</ele>
        <time>2014-07-04T07:29:46Z</time>
      </trkpt>
      <trkpt lat="44.88005" lon="5.36204">
        <ele>1118.63</ele>
        <time>2014-07-04T07:29:47Z</time>
      </trkpt>
      <trkpt lat="44.88003" lon="5.36205">
        <ele>1118.63</ele>
        <time>2014-07-04T07:29:48Z</time>
      </trkpt>
      <trkpt lat="44.88002" lon="5.36206">
        <ele>1118.15</ele>
        <time>2014-07-04T07:29:49Z</time>
      </trkpt>
      <trkpt lat="44.88" lon="5.36208">
        <ele>1118.15</ele>
        <time>2014-07-04T07:29:50Z</time>
      </trkpt>
      <trkpt lat="44.87967" lon="5.36223">
        <ele>1118.15</ele>
        <time>2014-07-04T07:30:04Z</time>
      </trkpt>
      <trkpt lat="44.87928" lon="5.36214">
        <ele>1119.59</ele>
        <time>2014-07-04T07:30:20Z</time>
      </trkpt>
      <trkpt lat="44.87902" lon="5.36201">
        <ele>1121.03</ele>
        <time>2014-07-04T07:30:32Z</time>
      </trkpt>
      <trkpt lat="44.87886" lon="5.36181">
        <ele>1122</ele>
        <time>2014-07-04T07:30:42Z</time>
      </trkpt>
      <trkpt lat="44.87852" lon="5.36167">
        <ele>1122.96</ele>
        <time>2014-07-04T07:30:58Z</time>
      </trkpt>
      <trkpt lat="44.87812" lon="5.36146">
        <ele>1123.44</ele>
        <time>2014-07-04T07:31:16Z</time>
      </trkpt>
      <trkpt lat="44.87779" lon="5.36127">
        <ele>1124.88</ele>
        <time>2014-07-04T07:31:32Z</time>
      </trkpt>
      <trkpt lat="44.87774" lon="5.36121">
        <ele>1125.84</ele>
        <time>2014-07-04T07:31:36Z</time>
      </trkpt>
      <trkpt lat="44.87774" lon="5.36119">
        <ele>1126.32</ele>
        <time>2014-07-04T07:31:37Z</time>
      </trkpt>
      <trkpt lat="44.87774" lon="5.36117">
        <ele>1127.76</ele>
        <time>2014-07-04T07:31:38Z</time>
      </trkpt>
      <trkpt lat="44.87775" lon="5.36116">
        <ele>1127.76</ele>
        <time>2014-07-04T07:31:39Z</time>
      </trkpt>
      <trkpt lat="44.87775" lon="5.36114">
        <ele>1128.24</ele>
        <time>2014-07-04T07:31:40Z</time>
      </trkpt>
      <trkpt lat="44.87776" lon="5.36112">
        <ele>1127.76</ele>
        <time>2014-07-04T07:31:41Z</time>
      </trkpt>
      <trkpt lat="44.87776" lon="5.36111">
        <ele>1128.24</ele>
        <time>2014-07-04T07:31:42Z</time>
      </trkpt>
      <trkpt lat="44.87775" lon="5.36109">
        <ele>1126.8</ele>
        <time>2014-07-04T07:31:43Z</time>
      </trkpt>
      <trkpt lat="44.87773" lon="5.36108">
        <ele>1125.84</ele>
        <time>2014-07-04T07:31:44Z</time>
      </trkpt>
      <trkpt lat="44.87772" lon="5.36107">
        <ele>1126.32</ele>
        <time>2014-07-04T07:31:45Z</time>
      </trkpt>
      <trkpt lat="44.8777" lon="5.36107">
        <ele>1126.32</ele>
        <time>2014-07-04T07:31:46Z</time>
      </trkpt>
      <trkpt lat="44.87769" lon="5.36106">
        <ele>1125.84</ele>
        <time>2014-07-04T07:31:47Z</time>
      </trkpt>
      <trkpt lat="44.87742" lon="5.36088">
        <ele>1126.8</ele>
        <time>2014-07-04T07:32:01Z</time>
      </trkpt>
      <trkpt lat="44.8771" lon="5.36075">
        <ele>1127.76</ele>
        <time>2014-07-04T07:32:17Z</time>
      </trkpt>
      <trkpt lat="44.8768" lon="5.3606">
        <ele>1129.21</ele>
        <time>2014-07-04T07:32:33Z</time>
      </trkpt>
      <trkpt lat="44.87652" lon="5.36039">
        <ele>1131.13</ele>
        <time>2014-07-04T07:32:49Z</time>
      </trkpt>
      <trkpt lat="44.87625" lon="5.36028">
        <ele>1133.05</ele>
        <time>2014-07-04T07:33:04Z</time>
      </trkpt>
      <trkpt lat="44.87597" lon="5.36019">
        <ele>1134.97</ele>
        <time>2014-07-04T07:33:19Z</time>
      </trkpt>
      <trkpt lat="44.87564" lon="5.36008">
        <ele>1134.97</ele>
        <time>2014-07-04T07:33:37Z</time>
      </trkpt>
      <trkpt lat="44.87538" lon="5.35993">
        <ele>1136.9</ele>
        <time>2014-07-04T07:33:53Z</time>
      </trkpt>
      <trkpt lat="44.87519" lon="5.35976">
        <ele>1137.86</ele>
        <time>2014-07-04T07:34:07Z</time>
      </trkpt>
      <trkpt lat="44.87504" lon="5.35961">
        <ele>1140.26</ele>
        <time>2014-07-04T07:34:19Z</time>
      </trkpt>
      <trkpt lat="44.87481" lon="5.35949">
        <ele>1140.74</ele>
        <time>2014-07-04T07:34:34Z</time>
      </trkpt>
      <trkpt lat="44.8748" lon="5.35948">
        <ele>1141.22</ele>
        <time>2014-07-04T07:34:35Z</time>
      </trkpt>
      <trkpt lat="44.87478" lon="5.35946">
        <ele>1141.22</ele>
        <time>2014-07-04T07:34:36Z</time>
      </trkpt>
      <trkpt lat="44.87477" lon="5.35945">
        <ele>1141.22</ele>
        <time>2014-07-04T07:34:37Z</time>
      </trkpt>
      <trkpt lat="44.87475" lon="5.35944">
        <ele>1141.22</ele>
        <time>2014-07-04T07:34:38Z</time>
      </trkpt>
      <trkpt lat="44.87473" lon="5.35943">
        <ele>1141.22</ele>
        <time>2014-07-04T07:34:39Z</time>
      </trkpt>
      <trkpt lat="44.87472" lon="5.35941">
        <ele>1141.7</ele>
        <time>2014-07-04T07:34:40Z</time>
      </trkpt>
      <trkpt lat="44.8747" lon="5.3594">
        <ele>1141.7</ele>
        <time>2014-07-04T07:34:41Z</time>
      </trkpt>
      <trkpt lat="44.87469" lon="5.35938">
        <ele>1142.18</ele>
        <time>2014-07-04T07:34:42Z</time>
      </trkpt>
      <trkpt lat="44.87466" lon="5.35937">
        <ele>1142.18</ele>
        <time>2014-07-04T07:34:46Z</time>
      </trkpt>
      <trkpt lat="44.87453" lon="5.35929">
        <ele>1142.66</ele>
        <time>2014-07-04T07:34:55Z</time>
      </trkpt>
      <trkpt lat="44.87452" lon="5.35928">
        <ele>1142.66</ele>
        <time>2014-07-04T07:34:56Z</time>
      </trkpt>
      <trkpt lat="44.87451" lon="5.35927">
        <ele>1143.14</ele>
        <time>2014-07-04T07:34:57Z</time>
      </trkpt>
      <trkpt lat="44.87434" lon="5.35911">
        <ele>1144.59</ele>
        <time>2014-07-04T07:35:14Z</time>
      </trkpt>
      <trkpt lat="44.87413" lon="5.35896">
        <ele>1145.55</ele>
        <time>2014-07-04T07:35:26Z</time>
      </trkpt>
      <trkpt lat="44.87411" lon="5.35895">
        <ele>1145.55</ele>
        <time>2014-07-04T07:35:27Z</time>
      </trkpt>
      <trkpt lat="44.87409" lon="5.35894">
        <ele>1146.03</ele>
        <time>2014-07-04T07:35:28Z</time>
      </trkpt>
      <trkpt lat="44.87407" lon="5.35894">
        <ele>1146.03</ele>
        <time>2014-07-04T07:35:29Z</time>
      </trkpt>
      <trkpt lat="44.87405" lon="5.35894">
        <ele>1146.03</ele>
        <time>2014-07-04T07:35:30Z</time>
      </trkpt>
      <trkpt lat="44.87376" lon="5.35881">
        <ele>1147.47</ele>
        <time>2014-07-04T07:35:46Z</time>
      </trkpt>
      <trkpt lat="44.87353" lon="5.35876">
        <ele>1147.47</ele>
        <time>2014-07-04T07:35:58Z</time>
      </trkpt>
      <trkpt lat="44.87346" lon="5.35871">
        <ele>1147.95</ele>
        <time>2014-07-04T07:36:06Z</time>
      </trkpt>
      <trkpt lat="44.87344" lon="5.3587">
        <ele>1148.43</ele>
        <time>2014-07-04T07:36:07Z</time>
      </trkpt>
      <trkpt lat="44.87342" lon="5.35869">
        <ele>1148.43</ele>
        <time>2014-07-04T07:36:08Z</time>
      </trkpt>
      <trkpt lat="44.87317" lon="5.35858">
        <ele>1149.87</ele>
        <time>2014-07-04T07:36:20Z</time>
      </trkpt>
      <trkpt lat="44.87291" lon="5.35848">
        <ele>1150.84</ele>
        <time>2014-07-04T07:36:33Z</time>
      </trkpt>
      <trkpt lat="44.87279" lon="5.35843">
        <ele>1151.8</ele>
        <time>2014-07-04T07:36:41Z</time>
      </trkpt>
      <trkpt lat="44.87278" lon="5.35841">
        <ele>1151.8</ele>
        <time>2014-07-04T07:36:42Z</time>
      </trkpt>
      <trkpt lat="44.87252" lon="5.35827">
        <ele>1153.24</ele>
        <time>2014-07-04T07:36:58Z</time>
      </trkpt>
      <trkpt lat="44.87225" lon="5.35812">
        <ele>1155.64</ele>
        <time>2014-07-04T07:37:14Z</time>
      </trkpt>
      <trkpt lat="44.87203" lon="5.35799">
        <ele>1156.6</ele>
        <time>2014-07-04T07:37:28Z</time>
      </trkpt>
      <trkpt lat="44.87182" lon="5.35787">
        <ele>1157.56</ele>
        <time>2014-07-04T07:37:40Z</time>
      </trkpt>
      <trkpt lat="44.87158" lon="5.3578">
        <ele>1159.01</ele>
        <time>2014-07-04T07:37:53Z</time>
      </trkpt>
      <trkpt lat="44.87156" lon="5.3578">
        <ele>1158.53</ele>
        <time>2014-07-04T07:37:54Z</time>
      </trkpt>
      <trkpt lat="44.87154" lon="5.35779">
        <ele>1159.01</ele>
        <time>2014-07-04T07:37:55Z</time>
      </trkpt>
      <trkpt lat="44.87147" lon="5.35776">
        <ele>1158.53</ele>
        <time>2014-07-04T07:38:00Z</time>
      </trkpt>
      <trkpt lat="44.87132" lon="5.35748">
        <ele>1159.97</ele>
        <time>2014-07-04T07:38:14Z</time>
      </trkpt>
      <trkpt lat="44.87113" lon="5.35722">
        <ele>1162.37</ele>
        <time>2014-07-04T07:38:28Z</time>
      </trkpt>
      <trkpt lat="44.87101" lon="5.35711">
        <ele>1163.33</ele>
        <time>2014-07-04T07:38:36Z</time>
      </trkpt>
      <trkpt lat="44.871" lon="5.3571">
        <ele>1162.85</ele>
        <time>2014-07-04T07:38:37Z</time>
      </trkpt>
      <trkpt lat="44.87098" lon="5.35708">
        <ele>1162.85</ele>
        <time>2014-07-04T07:38:38Z</time>
      </trkpt>
      <trkpt lat="44.87073" lon="5.35684">
        <ele>1163.81</ele>
        <time>2014-07-04T07:38:55Z</time>
      </trkpt>
      <trkpt lat="44.87069" lon="5.35679">
        <ele>1164.77</ele>
        <time>2014-07-04T07:38:58Z</time>
      </trkpt>
      <trkpt lat="44.87068" lon="5.35678">
        <ele>1164.29</ele>
        <time>2014-07-04T07:38:59Z</time>
      </trkpt>
      <trkpt lat="44.87066" lon="5.35676">
        <ele>1164.29</ele>
        <time>2014-07-04T07:39:00Z</time>
      </trkpt>
      <trkpt lat="44.87065" lon="5.35675">
        <ele>1164.77</ele>
        <time>2014-07-04T07:39:01Z</time>
      </trkpt>
      <trkpt lat="44.87063" lon="5.35673">
        <ele>1164.77</ele>
        <time>2014-07-04T07:39:02Z</time>
      </trkpt>
      <trkpt lat="44.87061" lon="5.35672">
        <ele>1164.29</ele>
        <time>2014-07-04T07:39:03Z</time>
      </trkpt>
      <trkpt lat="44.87042" lon="5.35655">
        <ele>1167.66</ele>
        <time>2014-07-04T07:39:14Z</time>
      </trkpt>
      <trkpt lat="44.87018" lon="5.35641">
        <ele>1169.1</ele>
        <time>2014-07-04T07:39:30Z</time>
      </trkpt>
      <trkpt lat="44.87016" lon="5.35639">
        <ele>1169.1</ele>
        <time>2014-07-04T07:39:45Z</time>
      </trkpt>
      <trkpt lat="44.87016" lon="5.35639">
        <ele>1169.58</ele>
        <time>2014-07-04T07:40:02Z</time>
      </trkpt>
      <trkpt lat="44.87015" lon="5.3564">
        <ele>1169.58</ele>
        <time>2014-07-04T07:40:32Z</time>
      </trkpt>
      <trkpt lat="44.87015" lon="5.35639">
        <ele>1169.58</ele>
        <time>2014-07-04T07:41:00Z</time>
      </trkpt>
      <trkpt lat="44.87015" lon="5.35639">
        <ele>1169.58</ele>
        <time>2014-07-04T07:41:07Z</time>
      </trkpt>
      <trkpt lat="44.87014" lon="5.3564">
        <ele>1170.06</ele>
        <time>2014-07-04T07:41:08Z</time>
      </trkpt>
      <trkpt lat="44.87011" lon="5.3564">
        <ele>1170.06</ele>
        <time>2014-07-04T07:41:21Z</time>
      </trkpt>
      <trkpt lat="44.87012" lon="5.3564">
        <ele>1170.06</ele>
        <time>2014-07-04T07:41:40Z</time>
      </trkpt>
      <trkpt lat="44.87012" lon="5.3564">
        <ele>1170.54</ele>
        <time>2014-07-04T07:42:04Z</time>
      </trkpt>
      <trkpt lat="44.87011" lon="5.3564">
        <ele>1170.06</ele>
        <time>2014-07-04T07:42:29Z</time>
      </trkpt>
      <trkpt lat="44.8701" lon="5.35641">
        <ele>1171.02</ele>
        <time>2014-07-04T07:42:52Z</time>
      </trkpt>
      <trkpt lat="44.8701" lon="5.3564">
        <ele>1169.58</ele>
        <time>2014-07-04T07:43:16Z</time>
      </trkpt>
      <trkpt lat="44.8701" lon="5.35641">
        <ele>1171.02</ele>
        <time>2014-07-04T07:43:40Z</time>
      </trkpt>
      <trkpt lat="44.87011" lon="5.35642">
        <ele>1170.54</ele>
        <time>2014-07-04T07:44:04Z</time>
      </trkpt>
      <trkpt lat="44.8701" lon="5.35644">
        <ele>1170.06</ele>
        <time>2014-07-04T07:44:05Z</time>
      </trkpt>
      <trkpt lat="44.8701" lon="5.35647">
        <ele>1170.06</ele>
        <time>2014-07-04T07:44:06Z</time>
      </trkpt>
      <trkpt lat="44.8701" lon="5.35651">
        <ele>1169.58</ele>
        <time>2014-07-04T07:44:07Z</time>
      </trkpt>
      <trkpt lat="44.8701" lon="5.35656">
        <ele>1169.1</ele>
        <time>2014-07-04T07:44:08Z</time>
      </trkpt>
      <trkpt lat="44.8701" lon="5.35661">
        <ele>1169.1</ele>
        <time>2014-07-04T07:44:09Z</time>
      </trkpt>
      <trkpt lat="44.87009" lon="5.35667">
        <ele>1168.62</ele>
        <time>2014-07-04T07:44:10Z</time>
      </trkpt>
      <trkpt lat="44.87009" lon="5.35674">
        <ele>1168.14</ele>
        <time>2014-07-04T07:44:11Z</time>
      </trkpt>
      <trkpt lat="44.8701" lon="5.35681">
        <ele>1168.14</ele>
        <time>2014-07-04T07:44:12Z</time>
      </trkpt>
      <trkpt lat="44.87017" lon="5.35743">
        <ele>1164.77</ele>
        <time>2014-07-04T07:44:19Z</time>
      </trkpt>
      <trkpt lat="44.8702" lon="5.35762">
        <ele>1163.81</ele>
        <time>2014-07-04T07:44:21Z</time>
      </trkpt>
      <trkpt lat="44.87026" lon="5.35809">
        <ele>1160.93</ele>
        <time>2014-07-04T07:44:25Z</time>
      </trkpt>
      <trkpt lat="44.87033" lon="5.35865">
        <ele>1157.08</ele>
        <time>2014-07-04T07:44:29Z</time>
      </trkpt>
      <trkpt lat="44.87045" lon="5.35943">
        <ele>1153.72</ele>
        <time>2014-07-04T07:44:34Z</time>
      </trkpt>
      <trkpt lat="44.87052" lon="5.35997">
        <ele>1149.87</ele>
        <time>2014-07-04T07:44:38Z</time>
      </trkpt>
      <trkpt lat="44.87059" lon="5.36048">
        <ele>1148.43</ele>
        <time>2014-07-04T07:44:45Z</time>
      </trkpt>
      <trkpt lat="44.87064" lon="5.36079">
        <ele>1147.47</ele>
        <time>2014-07-04T07:44:49Z</time>
      </trkpt>
      <trkpt lat="44.87063" lon="5.36086">
        <ele>1146.99</ele>
        <time>2014-07-04T07:44:50Z</time>
      </trkpt>
      <trkpt lat="44.8706" lon="5.36093">
        <ele>1146.03</ele>
        <time>2014-07-04T07:44:51Z</time>
      </trkpt>
      <trkpt lat="44.87055" lon="5.36097">
        <ele>1145.55</ele>
        <time>2014-07-04T07:44:52Z</time>
      </trkpt>
      <trkpt lat="44.87049" lon="5.36098">
        <ele>1146.03</ele>
        <time>2014-07-04T07:44:53Z</time>
      </trkpt>
      <trkpt lat="44.87045" lon="5.36098">
        <ele>1145.55</ele>
        <time>2014-07-04T07:44:54Z</time>
      </trkpt>
      <trkpt lat="44.8704" lon="5.36097">
        <ele>1146.99</ele>
        <time>2014-07-04T07:44:55Z</time>
      </trkpt>
      <trkpt lat="44.87036" lon="5.36097">
        <ele>1145.55</ele>
        <time>2014-07-04T07:44:56Z</time>
      </trkpt>
      <trkpt lat="44.86992" lon="5.36087">
        <ele>1146.51</ele>
        <time>2014-07-04T07:45:08Z</time>
      </trkpt>
      <trkpt lat="44.86954" lon="5.36038">
        <ele>1146.99</ele>
        <time>2014-07-04T07:45:23Z</time>
      </trkpt>
      <trkpt lat="44.8692" lon="5.35983">
        <ele>1147.47</ele>
        <time>2014-07-04T07:45:41Z</time>
      </trkpt>
      <trkpt lat="44.8689" lon="5.35929">
        <ele>1148.43</ele>
        <time>2014-07-04T07:45:59Z</time>
      </trkpt>
      <trkpt lat="44.86873" lon="5.35881">
        <ele>1149.39</ele>
        <time>2014-07-04T07:46:14Z</time>
      </trkpt>
      <trkpt lat="44.86851" lon="5.35823">
        <ele>1149.87</ele>
        <time>2014-07-04T07:46:32Z</time>
      </trkpt>
      <trkpt lat="44.86824" lon="5.35778">
        <ele>1152.28</ele>
        <time>2014-07-04T07:46:49Z</time>
      </trkpt>
      <trkpt lat="44.86797" lon="5.35761">
        <ele>1154.2</ele>
        <time>2014-07-04T07:47:03Z</time>
      </trkpt>
      <trkpt lat="44.86773" lon="5.35757">
        <ele>1155.64</ele>
        <time>2014-07-04T07:47:15Z</time>
      </trkpt>
      <trkpt lat="44.86746" lon="5.35756">
        <ele>1158.05</ele>
        <time>2014-07-04T07:47:29Z</time>
      </trkpt>
      <trkpt lat="44.86718" lon="5.35755">
        <ele>1159.97</ele>
        <time>2014-07-04T07:47:43Z</time>
      </trkpt>
      <trkpt lat="44.86707" lon="5.35753">
        <ele>1160.93</ele>
        <time>2014-07-04T07:47:48Z</time>
      </trkpt>
      <trkpt lat="44.86703" lon="5.35754">
        <ele>1161.41</ele>
        <time>2014-07-04T07:47:51Z</time>
      </trkpt>
      <trkpt lat="44.86676" lon="5.35754">
        <ele>1163.81</ele>
        <time>2014-07-04T07:48:05Z</time>
      </trkpt>
      <trkpt lat="44.86665" lon="5.35757">
        <ele>1163.81</ele>
        <time>2014-07-04T07:48:11Z</time>
      </trkpt>
      <trkpt lat="44.86664" lon="5.35757">
        <ele>1163.81</ele>
        <time>2014-07-04T07:48:12Z</time>
      </trkpt>
      <trkpt lat="44.86662" lon="5.35758">
        <ele>1163.81</ele>
        <time>2014-07-04T07:48:13Z</time>
      </trkpt>
      <trkpt lat="44.86661" lon="5.35758">
        <ele>1164.29</ele>
        <time>2014-07-04T07:48:14Z</time>
      </trkpt>
      <trkpt lat="44.86659" lon="5.35758">
        <ele>1164.29</ele>
        <time>2014-07-04T07:48:15Z</time>
      </trkpt>
      <trkpt lat="44.86658" lon="5.35758">
        <ele>1164.29</ele>
        <time>2014-07-04T07:48:16Z</time>
      </trkpt>
      <trkpt lat="44.86656" lon="5.35758">
        <ele>1164.77</ele>
        <time>2014-07-04T07:48:17Z</time>
      </trkpt>
      <trkpt lat="44.8663" lon="5.35756">
        <ele>1166.22</ele>
        <time>2014-07-04T07:48:32Z</time>
      </trkpt>
      <trkpt lat="44.86605" lon="5.35746">
        <ele>1168.62</ele>
        <time>2014-07-04T07:48:49Z</time>
      </trkpt>
      <trkpt lat="44.86585" lon="5.35741">
        <ele>1170.06</ele>
        <time>2014-07-04T07:49:02Z</time>
      </trkpt>
      <trkpt lat="44.86563" lon="5.35745">
        <ele>1171.98</ele>
        <time>2014-07-04T07:49:18Z</time>
      </trkpt>
      <trkpt lat="44.86541" lon="5.35742">
        <ele>1173.91</ele>
        <time>2014-07-04T07:49:32Z</time>
      </trkpt>
      <trkpt lat="44.8652" lon="5.35735">
        <ele>1175.35</ele>
        <time>2014-07-04T07:49:47Z</time>
      </trkpt>
      <trkpt lat="44.86511" lon="5.35731">
        <ele>1176.79</ele>
        <time>2014-07-04T07:49:55Z</time>
      </trkpt>
      <trkpt lat="44.86505" lon="5.35729">
        <ele>1177.27</ele>
        <time>2014-07-04T07:50:00Z</time>
      </trkpt>
      <trkpt lat="44.86504" lon="5.35728">
        <ele>1177.27</ele>
        <time>2014-07-04T07:50:01Z</time>
      </trkpt>
      <trkpt lat="44.86498" lon="5.35726">
        <ele>1177.75</ele>
        <time>2014-07-04T07:50:06Z</time>
      </trkpt>
      <trkpt lat="44.86485" lon="5.35725">
        <ele>1179.67</ele>
        <time>2014-07-04T07:50:17Z</time>
      </trkpt>
      <trkpt lat="44.86478" lon="5.35724">
        <ele>1180.16</ele>
        <time>2014-07-04T07:50:21Z</time>
      </trkpt>
      <trkpt lat="44.86477" lon="5.35724">
        <ele>1180.16</ele>
        <time>2014-07-04T07:50:22Z</time>
      </trkpt>
      <trkpt lat="44.86476" lon="5.35723">
        <ele>1180.64</ele>
        <time>2014-07-04T07:50:23Z</time>
      </trkpt>
      <trkpt lat="44.86456" lon="5.35719">
        <ele>1183.04</ele>
        <time>2014-07-04T07:50:39Z</time>
      </trkpt>
      <trkpt lat="44.8644" lon="5.35717">
        <ele>1184.96</ele>
        <time>2014-07-04T07:50:52Z</time>
      </trkpt>
      <trkpt lat="44.86424" lon="5.35714">
        <ele>1186.88</ele>
        <time>2014-07-04T07:51:03Z</time>
      </trkpt>
      <trkpt lat="44.86421" lon="5.35713">
        <ele>1187.37</ele>
        <time>2014-07-04T07:51:05Z</time>
      </trkpt>
      <trkpt lat="44.8642" lon="5.35712">
        <ele>1187.37</ele>
        <time>2014-07-04T07:51:06Z</time>
      </trkpt>
      <trkpt lat="44.86419" lon="5.35712">
        <ele>1186.88</ele>
        <time>2014-07-04T07:51:07Z</time>
      </trkpt>
      <trkpt lat="44.86417" lon="5.35711">
        <ele>1186.4</ele>
        <time>2014-07-04T07:51:08Z</time>
      </trkpt>
      <trkpt lat="44.86416" lon="5.3571">
        <ele>1186.88</ele>
        <time>2014-07-04T07:51:09Z</time>
      </trkpt>
      <trkpt lat="44.86414" lon="5.35709">
        <ele>1186.88</ele>
        <time>2014-07-04T07:51:11Z</time>
      </trkpt>
      <trkpt lat="44.86412" lon="5.35709">
        <ele>1186.88</ele>
        <time>2014-07-04T07:51:12Z</time>
      </trkpt>
      <trkpt lat="44.86412" lon="5.3571">
        <ele>1187.85</ele>
        <time>2014-07-04T07:51:13Z</time>
      </trkpt>
      <trkpt lat="44.86409" lon="5.3571">
        <ele>1187.85</ele>
        <time>2014-07-04T07:51:15Z</time>
      </trkpt>
      <trkpt lat="44.86394" lon="5.35706">
        <ele>1189.77</ele>
        <time>2014-07-04T07:51:28Z</time>
      </trkpt>
      <trkpt lat="44.86384" lon="5.35704">
        <ele>1191.21</ele>
        <time>2014-07-04T07:51:40Z</time>
      </trkpt>
      <trkpt lat="44.86374" lon="5.35702">
        <ele>1192.65</ele>
        <time>2014-07-04T07:51:48Z</time>
      </trkpt>
      <trkpt lat="44.86372" lon="5.35701">
        <ele>1192.65</ele>
        <time>2014-07-04T07:51:49Z</time>
      </trkpt>
      <trkpt lat="44.86371" lon="5.357">
        <ele>1192.65</ele>
        <time>2014-07-04T07:51:50Z</time>
      </trkpt>
      <trkpt lat="44.86367" lon="5.35699">
        <ele>1193.61</ele>
        <time>2014-07-04T07:51:53Z</time>
      </trkpt>
      <trkpt lat="44.86366" lon="5.35699">
        <ele>1193.61</ele>
        <time>2014-07-04T07:51:54Z</time>
      </trkpt>
      <trkpt lat="44.86365" lon="5.35698">
        <ele>1194.09</ele>
        <time>2014-07-04T07:51:55Z</time>
      </trkpt>
      <trkpt lat="44.86364" lon="5.35698">
        <ele>1193.61</ele>
        <time>2014-07-04T07:51:56Z</time>
      </trkpt>
      <trkpt lat="44.86363" lon="5.35696">
        <ele>1194.09</ele>
        <time>2014-07-04T07:51:57Z</time>
      </trkpt>
      <trkpt lat="44.86362" lon="5.35695">
        <ele>1194.09</ele>
        <time>2014-07-04T07:51:58Z</time>
      </trkpt>
      <trkpt lat="44.8636" lon="5.35694">
        <ele>1194.58</ele>
        <time>2014-07-04T07:52:00Z</time>
      </trkpt>
      <trkpt lat="44.86359" lon="5.35694">
        <ele>1194.58</ele>
        <time>2014-07-04T07:52:01Z</time>
      </trkpt>
      <trkpt lat="44.86358" lon="5.35693">
        <ele>1194.58</ele>
        <time>2014-07-04T07:52:02Z</time>
      </trkpt>
      <trkpt lat="44.86346" lon="5.35685">
        <ele>1196.98</ele>
        <time>2014-07-04T07:52:15Z</time>
      </trkpt>
      <trkpt lat="44.86337" lon="5.35679">
        <ele>1197.94</ele>
        <time>2014-07-04T07:52:23Z</time>
      </trkpt>
      <trkpt lat="44.8633" lon="5.35672">
        <ele>1199.38</ele>
        <time>2014-07-04T07:52:29Z</time>
      </trkpt>
      <trkpt lat="44.8633" lon="5.35671">
        <ele>1199.38</ele>
        <time>2014-07-04T07:52:30Z</time>
      </trkpt>
      <trkpt lat="44.86329" lon="5.35671">
        <ele>1199.38</ele>
        <time>2014-07-04T07:52:31Z</time>
      </trkpt>
      <trkpt lat="44.86327" lon="5.3567">
        <ele>1199.38</ele>
        <time>2014-07-04T07:52:32Z</time>
      </trkpt>
      <trkpt lat="44.86326" lon="5.35669">
        <ele>1199.86</ele>
        <time>2014-07-04T07:52:33Z</time>
      </trkpt>
      <trkpt lat="44.86325" lon="5.35668">
        <ele>1199.38</ele>
        <time>2014-07-04T07:52:34Z</time>
      </trkpt>
      <trkpt lat="44.86324" lon="5.35667">
        <ele>1199.86</ele>
        <time>2014-07-04T07:52:35Z</time>
      </trkpt>
      <trkpt lat="44.86323" lon="5.35666">
        <ele>1200.34</ele>
        <time>2014-07-04T07:52:36Z</time>
      </trkpt>
      <trkpt lat="44.86321" lon="5.35664">
        <ele>1200.34</ele>
        <time>2014-07-04T07:52:38Z</time>
      </trkpt>
      <trkpt lat="44.8632" lon="5.35663">
        <ele>1200.34</ele>
        <time>2014-07-04T07:52:39Z</time>
      </trkpt>
      <trkpt lat="44.86319" lon="5.35662">
        <ele>1200.82</ele>
        <time>2014-07-04T07:52:40Z</time>
      </trkpt>
      <trkpt lat="44.86302" lon="5.35649">
        <ele>1202.27</ele>
        <time>2014-07-04T07:52:56Z</time>
      </trkpt>
      <trkpt lat="44.863" lon="5.35646">
        <ele>1203.23</ele>
        <time>2014-07-04T07:52:59Z</time>
      </trkpt>
      <trkpt lat="44.86299" lon="5.35645">
        <ele>1203.71</ele>
        <time>2014-07-04T07:53:00Z</time>
      </trkpt>
      <trkpt lat="44.86297" lon="5.35644">
        <ele>1203.71</ele>
        <time>2014-07-04T07:53:01Z</time>
      </trkpt>
      <trkpt lat="44.86296" lon="5.35643">
        <ele>1204.19</ele>
        <time>2014-07-04T07:53:02Z</time>
      </trkpt>
      <trkpt lat="44.86295" lon="5.35642">
        <ele>1204.19</ele>
        <time>2014-07-04T07:53:03Z</time>
      </trkpt>
      <trkpt lat="44.86284" lon="5.35629">
        <ele>1206.11</ele>
        <time>2014-07-04T07:53:16Z</time>
      </trkpt>
      <trkpt lat="44.8628" lon="5.35626">
        <ele>1206.11</ele>
        <time>2014-07-04T07:53:19Z</time>
      </trkpt>
      <trkpt lat="44.86273" lon="5.35618">
        <ele>1208.51</ele>
        <time>2014-07-04T07:53:28Z</time>
      </trkpt>
      <trkpt lat="44.86267" lon="5.3561">
        <ele>1209.96</ele>
        <time>2014-07-04T07:53:35Z</time>
      </trkpt>
      <trkpt lat="44.86261" lon="5.35602">
        <ele>1210.44</ele>
        <time>2014-07-04T07:53:43Z</time>
      </trkpt>
      <trkpt lat="44.86255" lon="5.35594">
        <ele>1211.88</ele>
        <time>2014-07-04T07:53:54Z</time>
      </trkpt>
      <trkpt lat="44.86245" lon="5.35585">
        <ele>1213.32</ele>
        <time>2014-07-04T07:54:04Z</time>
      </trkpt>
      <trkpt lat="44.86238" lon="5.35576">
        <ele>1215.24</ele>
        <time>2014-07-04T07:54:15Z</time>
      </trkpt>
      <trkpt lat="44.8623" lon="5.35566">
        <ele>1216.21</ele>
        <time>2014-07-04T07:54:26Z</time>
      </trkpt>
      <trkpt lat="44.86214" lon="5.35553">
        <ele>1217.65</ele>
        <time>2014-07-04T07:54:37Z</time>
      </trkpt>
      <trkpt lat="44.86203" lon="5.35543">
        <ele>1220.05</ele>
        <time>2014-07-04T07:54:50Z</time>
      </trkpt>
      <trkpt lat="44.86191" lon="5.35534">
        <ele>1221.49</ele>
        <time>2014-07-04T07:55:01Z</time>
      </trkpt>
      <trkpt lat="44.86183" lon="5.35527">
        <ele>1221.97</ele>
        <time>2014-07-04T07:55:08Z</time>
      </trkpt>
      <trkpt lat="44.86181" lon="5.35526">
        <ele>1221.97</ele>
        <time>2014-07-04T07:55:09Z</time>
      </trkpt>
      <trkpt lat="44.86175" lon="5.35523">
        <ele>1223.42</ele>
        <time>2014-07-04T07:55:19Z</time>
      </trkpt>
      <trkpt lat="44.86172" lon="5.3552">
        <ele>1224.86</ele>
        <time>2014-07-04T07:55:25Z</time>
      </trkpt>
      <trkpt lat="44.86164" lon="5.35514">
        <ele>1225.82</ele>
        <time>2014-07-04T07:55:35Z</time>
      </trkpt>
      <trkpt lat="44.86155" lon="5.3551">
        <ele>1228.22</ele>
        <time>2014-07-04T07:55:45Z</time>
      </trkpt>
      <trkpt lat="44.86133" lon="5.35497">
        <ele>1229.18</ele>
        <time>2014-07-04T07:55:57Z</time>
      </trkpt>
      <trkpt lat="44.86119" lon="5.35496">
        <ele>1231.11</ele>
        <time>2014-07-04T07:56:09Z</time>
      </trkpt>
      <trkpt lat="44.86118" lon="5.35496">
        <ele>1231.11</ele>
        <time>2014-07-04T07:56:10Z</time>
      </trkpt>
      <trkpt lat="44.86103" lon="5.3549">
        <ele>1232.55</ele>
        <time>2014-07-04T07:56:23Z</time>
      </trkpt>
      <trkpt lat="44.86093" lon="5.35487">
        <ele>1234.47</ele>
        <time>2014-07-04T07:56:34Z</time>
      </trkpt>
      <trkpt lat="44.86084" lon="5.35485">
        <ele>1235.91</ele>
        <time>2014-07-04T07:56:42Z</time>
      </trkpt>
      <trkpt lat="44.86072" lon="5.3548">
        <ele>1237.35</ele>
        <time>2014-07-04T07:56:54Z</time>
      </trkpt>
      <trkpt lat="44.86061" lon="5.35476">
        <ele>1239.28</ele>
        <time>2014-07-04T07:57:06Z</time>
      </trkpt>
      <trkpt lat="44.86047" lon="5.35474">
        <ele>1241.2</ele>
        <time>2014-07-04T07:57:18Z</time>
      </trkpt>
      <trkpt lat="44.86033" lon="5.35471">
        <ele>1242.64</ele>
        <time>2014-07-04T07:57:29Z</time>
      </trkpt>
      <trkpt lat="44.86022" lon="5.35471">
        <ele>1244.08</ele>
        <time>2014-07-04T07:57:41Z</time>
      </trkpt>
      <trkpt lat="44.8602" lon="5.35472">
        <ele>1244.56</ele>
        <time>2014-07-04T07:57:42Z</time>
      </trkpt>
      <trkpt lat="44.86004" lon="5.35479">
        <ele>1246.01</ele>
        <time>2014-07-04T07:57:53Z</time>
      </trkpt>
      <trkpt lat="44.85991" lon="5.35484">
        <ele>1247.45</ele>
        <time>2014-07-04T07:58:05Z</time>
      </trkpt>
      <trkpt lat="44.8599" lon="5.35484">
        <ele>1247.93</ele>
        <time>2014-07-04T07:58:06Z</time>
      </trkpt>
      <trkpt lat="44.85984" lon="5.35487">
        <ele>1247.93</ele>
        <time>2014-07-04T07:58:12Z</time>
      </trkpt>
      <trkpt lat="44.85978" lon="5.35489">
        <ele>1248.89</ele>
        <time>2014-07-04T07:58:17Z</time>
      </trkpt>
      <trkpt lat="44.85977" lon="5.3549">
        <ele>1248.41</ele>
        <time>2014-07-04T07:58:18Z</time>
      </trkpt>
      <trkpt lat="44.85972" lon="5.35491">
        <ele>1249.37</ele>
        <time>2014-07-04T07:58:22Z</time>
      </trkpt>
      <trkpt lat="44.8597" lon="5.35491">
        <ele>1249.37</ele>
        <time>2014-07-04T07:58:23Z</time>
      </trkpt>
      <trkpt lat="44.85968" lon="5.35492">
        <ele>1248.89</ele>
        <time>2014-07-04T07:58:24Z</time>
      </trkpt>
      <trkpt lat="44.85967" lon="5.35492">
        <ele>1249.37</ele>
        <time>2014-07-04T07:58:25Z</time>
      </trkpt>
      <trkpt lat="44.85965" lon="5.35493">
        <ele>1249.37</ele>
        <time>2014-07-04T07:58:26Z</time>
      </trkpt>
      <trkpt lat="44.85947" lon="5.35498">
        <ele>1250.33</ele>
        <time>2014-07-04T07:58:40Z</time>
      </trkpt>
      <trkpt lat="44.85928" lon="5.355">
        <ele>1251.29</ele>
        <time>2014-07-04T07:58:54Z</time>
      </trkpt>
      <trkpt lat="44.85931" lon="5.355">
        <ele>1250.81</ele>
        <time>2014-07-04T07:59:18Z</time>
      </trkpt>
      <trkpt lat="44.85932" lon="5.35501">
        <ele>1251.29</ele>
        <time>2014-07-04T07:59:48Z</time>
      </trkpt>
      <trkpt lat="44.85931" lon="5.35501">
        <ele>1251.29</ele>
        <time>2014-07-04T08:00:14Z</time>
      </trkpt>
      <trkpt lat="44.8593" lon="5.35501">
        <ele>1251.77</ele>
        <time>2014-07-04T08:00:33Z</time>
      </trkpt>
      <trkpt lat="44.8593" lon="5.35503">
        <ele>1251.77</ele>
        <time>2014-07-04T08:01:00Z</time>
      </trkpt>
      <trkpt lat="44.8593" lon="5.35503">
        <ele>1250.81</ele>
        <time>2014-07-04T08:01:24Z</time>
      </trkpt>
      <trkpt lat="44.85929" lon="5.35504">
        <ele>1251.29</ele>
        <time>2014-07-04T08:01:43Z</time>
      </trkpt>
      <trkpt lat="44.85927" lon="5.35504">
        <ele>1251.29</ele>
        <time>2014-07-04T08:02:19Z</time>
      </trkpt>
      <trkpt lat="44.85926" lon="5.35505">
        <ele>1251.29</ele>
        <time>2014-07-04T08:02:51Z</time>
      </trkpt>
      <trkpt lat="44.85926" lon="5.35505">
        <ele>1250.81</ele>
        <time>2014-07-04T08:03:28Z</time>
      </trkpt>
      <trkpt lat="44.85927" lon="5.35505">
        <ele>1251.29</ele>
        <time>2014-07-04T08:03:59Z</time>
      </trkpt>
      <trkpt lat="44.85928" lon="5.35505">
        <ele>1250.81</ele>
        <time>2014-07-04T08:04:26Z</time>
      </trkpt>
      <trkpt lat="44.85929" lon="5.35506">
        <ele>1249.85</ele>
        <time>2014-07-04T08:04:57Z</time>
      </trkpt>
      <trkpt lat="44.85929" lon="5.35505">
        <ele>1253.7</ele>
        <time>2014-07-04T08:05:04Z</time>
      </trkpt>
      <trkpt lat="44.85929" lon="5.35505">
        <ele>1250.81</ele>
        <time>2014-07-04T08:05:06Z</time>
      </trkpt>
      <trkpt lat="44.85929" lon="5.35505">
        <ele>1252.25</ele>
        <time>2014-07-04T08:05:29Z</time>
      </trkpt>
      <trkpt lat="44.85929" lon="5.35506">
        <ele>1251.29</ele>
        <time>2014-07-04T08:05:40Z</time>
      </trkpt>
      <trkpt lat="44.85928" lon="5.35507">
        <ele>1251.77</ele>
        <time>2014-07-04T08:05:59Z</time>
      </trkpt>
      <trkpt lat="44.85928" lon="5.35508">
        <ele>1252.74</ele>
        <time>2014-07-04T08:06:29Z</time>
      </trkpt>
      <trkpt lat="44.85928" lon="5.35508">
        <ele>1254.18</ele>
        <time>2014-07-04T08:06:46Z</time>
      </trkpt>
      <trkpt lat="44.85928" lon="5.35508">
        <ele>1252.25</ele>
        <time>2014-07-04T08:06:48Z</time>
      </trkpt>
      <trkpt lat="44.85928" lon="5.35508">
        <ele>1252.74</ele>
        <time>2014-07-04T08:07:13Z</time>
      </trkpt>
      <trkpt lat="44.85929" lon="5.35509">
        <ele>1252.74</ele>
        <time>2014-07-04T08:07:40Z</time>
      </trkpt>
      <trkpt lat="44.8593" lon="5.35508">
        <ele>1252.74</ele>
        <time>2014-07-04T08:07:44Z</time>
      </trkpt>
      <trkpt lat="44.85931" lon="5.35507">
        <ele>1252.25</ele>
        <time>2014-07-04T08:07:45Z</time>
      </trkpt>
      <trkpt lat="44.85931" lon="5.35504">
        <ele>1252.74</ele>
        <time>2014-07-04T08:07:46Z</time>
      </trkpt>
      <trkpt lat="44.8593" lon="5.35497">
        <ele>1253.22</ele>
        <time>2014-07-04T08:07:52Z</time>
      </trkpt>
      <trkpt lat="44.8592" lon="5.35493">
        <ele>1254.18</ele>
        <time>2014-07-04T08:08:01Z</time>
      </trkpt>
      <trkpt lat="44.85913" lon="5.35488">
        <ele>1254.66</ele>
        <time>2014-07-04T08:08:08Z</time>
      </trkpt>
      <trkpt lat="44.85912" lon="5.35487">
        <ele>1255.14</ele>
        <time>2014-07-04T08:08:09Z</time>
      </trkpt>
      <trkpt lat="44.8591" lon="5.35487">
        <ele>1255.14</ele>
        <time>2014-07-04T08:08:10Z</time>
      </trkpt>
      <trkpt lat="44.85909" lon="5.35486">
        <ele>1255.14</ele>
        <time>2014-07-04T08:08:11Z</time>
      </trkpt>
      <trkpt lat="44.85908" lon="5.35485">
        <ele>1255.14</ele>
        <time>2014-07-04T08:08:12Z</time>
      </trkpt>
      <trkpt lat="44.85907" lon="5.35484">
        <ele>1255.14</ele>
        <time>2014-07-04T08:08:13Z</time>
      </trkpt>
      <trkpt lat="44.85906" lon="5.35483">
        <ele>1255.14</ele>
        <time>2014-07-04T08:08:14Z</time>
      </trkpt>
      <trkpt lat="44.85893" lon="5.35467">
        <ele>1256.1</ele>
        <time>2014-07-04T08:08:27Z</time>
      </trkpt>
      <trkpt lat="44.85892" lon="5.35464">
        <ele>1257.06</ele>
        <time>2014-07-04T08:08:29Z</time>
      </trkpt>
      <trkpt lat="44.85891" lon="5.35455">
        <ele>1257.54</ele>
        <time>2014-07-04T08:08:34Z</time>
      </trkpt>
      <trkpt lat="44.85891" lon="5.35452">
        <ele>1257.54</ele>
        <time>2014-07-04T08:08:36Z</time>
      </trkpt>
      <trkpt lat="44.8589" lon="5.35448">
        <ele>1257.54</ele>
        <time>2014-07-04T08:08:38Z</time>
      </trkpt>
      <trkpt lat="44.85889" lon="5.35446">
        <ele>1258.02</ele>
        <time>2014-07-04T08:08:39Z</time>
      </trkpt>
      <trkpt lat="44.85888" lon="5.35444">
        <ele>1257.54</ele>
        <time>2014-07-04T08:08:40Z</time>
      </trkpt>
      <trkpt lat="44.85888" lon="5.35442">
        <ele>1258.02</ele>
        <time>2014-07-04T08:08:41Z</time>
      </trkpt>
      <trkpt lat="44.85888" lon="5.3544">
        <ele>1258.02</ele>
        <time>2014-07-04T08:08:42Z</time>
      </trkpt>
      <trkpt lat="44.85885" lon="5.35433">
        <ele>1258.5</ele>
        <time>2014-07-04T08:08:47Z</time>
      </trkpt>
      <trkpt lat="44.85882" lon="5.35428">
        <ele>1258.5</ele>
        <time>2014-07-04T08:08:48Z</time>
      </trkpt>
      <trkpt lat="44.85879" lon="5.354">
        <ele>1259.94</ele>
        <time>2014-07-04T08:09:00Z</time>
      </trkpt>
      <trkpt lat="44.85877" lon="5.35388">
        <ele>1261.39</ele>
        <time>2014-07-04T08:09:05Z</time>
      </trkpt>
      <trkpt lat="44.85876" lon="5.35384">
        <ele>1261.39</ele>
        <time>2014-07-04T08:09:06Z</time>
      </trkpt>
      <trkpt lat="44.85875" lon="5.35381">
        <ele>1261.39</ele>
        <time>2014-07-04T08:09:07Z</time>
      </trkpt>
      <trkpt lat="44.85874" lon="5.35378">
        <ele>1260.91</ele>
        <time>2014-07-04T08:09:08Z</time>
      </trkpt>
      <trkpt lat="44.85873" lon="5.35375">
        <ele>1261.39</ele>
        <time>2014-07-04T08:09:09Z</time>
      </trkpt>
      <trkpt lat="44.85873" lon="5.35372">
        <ele>1260.91</ele>
        <time>2014-07-04T08:09:10Z</time>
      </trkpt>
      <trkpt lat="44.85873" lon="5.3537">
        <ele>1261.39</ele>
        <time>2014-07-04T08:09:11Z</time>
      </trkpt>
      <trkpt lat="44.85873" lon="5.35367">
        <ele>1261.39</ele>
        <time>2014-07-04T08:09:12Z</time>
      </trkpt>
      <trkpt lat="44.85873" lon="5.35365">
        <ele>1261.39</ele>
        <time>2014-07-04T08:09:13Z</time>
      </trkpt>
      <trkpt lat="44.85874" lon="5.35362">
        <ele>1261.39</ele>
        <time>2014-07-04T08:09:15Z</time>
      </trkpt>
      <trkpt lat="44.85875" lon="5.35355">
        <ele>1262.35</ele>
        <time>2014-07-04T08:09:19Z</time>
      </trkpt>
      <trkpt lat="44.85874" lon="5.35353">
        <ele>1262.35</ele>
        <time>2014-07-04T08:09:20Z</time>
      </trkpt>
      <trkpt lat="44.85874" lon="5.3535">
        <ele>1262.35</ele>
        <time>2014-07-04T08:09:21Z</time>
      </trkpt>
      <trkpt lat="44.85871" lon="5.35336">
        <ele>1262.35</ele>
        <time>2014-07-04T08:09:26Z</time>
      </trkpt>
      <trkpt lat="44.85872" lon="5.35333">
        <ele>1262.35</ele>
        <time>2014-07-04T08:09:28Z</time>
      </trkpt>
      <trkpt lat="44.85873" lon="5.35331">
        <ele>1262.35</ele>
        <time>2014-07-04T08:09:29Z</time>
      </trkpt>
      <trkpt lat="44.85875" lon="5.35317">
        <ele>1263.79</ele>
        <time>2014-07-04T08:09:37Z</time>
      </trkpt>
      <trkpt lat="44.85873" lon="5.35306">
        <ele>1263.79</ele>
        <time>2014-07-04T08:09:43Z</time>
      </trkpt>
      <trkpt lat="44.85872" lon="5.35294">
        <ele>1264.27</ele>
        <time>2014-07-04T08:09:50Z</time>
      </trkpt>
      <trkpt lat="44.85872" lon="5.35277">
        <ele>1265.71</ele>
        <time>2014-07-04T08:10:02Z</time>
      </trkpt>
      <trkpt lat="44.85865" lon="5.3526">
        <ele>1266.19</ele>
        <time>2014-07-04T08:10:06Z</time>
      </trkpt>
      <trkpt lat="44.85865" lon="5.35257">
        <ele>1265.71</ele>
        <time>2014-07-04T08:10:07Z</time>
      </trkpt>
      <trkpt lat="44.85864" lon="5.35253">
        <ele>1266.19</ele>
        <time>2014-07-04T08:10:08Z</time>
      </trkpt>
      <trkpt lat="44.85863" lon="5.3525">
        <ele>1266.19</ele>
        <time>2014-07-04T08:10:09Z</time>
      </trkpt>
      <trkpt lat="44.85862" lon="5.35247">
        <ele>1266.19</ele>
        <time>2014-07-04T08:10:10Z</time>
      </trkpt>
      <trkpt lat="44.85854" lon="5.35229">
        <ele>1266.67</ele>
        <time>2014-07-04T08:10:14Z</time>
      </trkpt>
      <trkpt lat="44.85854" lon="5.35226">
        <ele>1266.19</ele>
        <time>2014-07-04T08:10:15Z</time>
      </trkpt>
      <trkpt lat="44.85853" lon="5.35218">
        <ele>1266.19</ele>
        <time>2014-07-04T08:10:17Z</time>
      </trkpt>
      <trkpt lat="44.85854" lon="5.35215">
        <ele>1266.19</ele>
        <time>2014-07-04T08:10:18Z</time>
      </trkpt>
      <trkpt lat="44.85854" lon="5.352">
        <ele>1266.19</ele>
        <time>2014-07-04T08:10:22Z</time>
      </trkpt>
      <trkpt lat="44.8586" lon="5.3517">
        <ele>1267.16</ele>
        <time>2014-07-04T08:10:33Z</time>
      </trkpt>
      <trkpt lat="44.85863" lon="5.35143">
        <ele>1268.12</ele>
        <time>2014-07-04T08:10:44Z</time>
      </trkpt>
      <trkpt lat="44.85864" lon="5.3512">
        <ele>1269.08</ele>
        <time>2014-07-04T08:10:56Z</time>
      </trkpt>
      <trkpt lat="44.85875" lon="5.35103">
        <ele>1271.48</ele>
        <time>2014-07-04T08:11:09Z</time>
      </trkpt>
      <trkpt lat="44.85885" lon="5.3509">
        <ele>1272.92</ele>
        <time>2014-07-04T08:11:18Z</time>
      </trkpt>
      <trkpt lat="44.8589" lon="5.35084">
        <ele>1273.4</ele>
        <time>2014-07-04T08:11:22Z</time>
      </trkpt>
      <trkpt lat="44.85891" lon="5.35083">
        <ele>1272.92</ele>
        <time>2014-07-04T08:11:23Z</time>
      </trkpt>
      <trkpt lat="44.85893" lon="5.35082">
        <ele>1272.92</ele>
        <time>2014-07-04T08:11:24Z</time>
      </trkpt>
      <trkpt lat="44.85902" lon="5.35068">
        <ele>1273.88</ele>
        <time>2014-07-04T08:11:32Z</time>
      </trkpt>
      <trkpt lat="44.85911" lon="5.35045">
        <ele>1275.33</ele>
        <time>2014-07-04T08:11:44Z</time>
      </trkpt>
      <trkpt lat="44.85911" lon="5.35043">
        <ele>1275.33</ele>
        <time>2014-07-04T08:11:45Z</time>
      </trkpt>
      <trkpt lat="44.85916" lon="5.35029">
        <ele>1275.33</ele>
        <time>2014-07-04T08:11:52Z</time>
      </trkpt>
      <trkpt lat="44.85917" lon="5.35028">
        <ele>1275.33</ele>
        <time>2014-07-04T08:11:53Z</time>
      </trkpt>
      <trkpt lat="44.85919" lon="5.35026">
        <ele>1275.81</ele>
        <time>2014-07-04T08:11:54Z</time>
      </trkpt>
      <trkpt lat="44.85934" lon="5.35003">
        <ele>1277.25</ele>
        <time>2014-07-04T08:12:08Z</time>
      </trkpt>
      <trkpt lat="44.85938" lon="5.34998">
        <ele>1277.73</ele>
        <time>2014-07-04T08:12:12Z</time>
      </trkpt>
      <trkpt lat="44.85941" lon="5.34994">
        <ele>1278.69</ele>
        <time>2014-07-04T08:12:16Z</time>
      </trkpt>
      <trkpt lat="44.85944" lon="5.3499">
        <ele>1279.17</ele>
        <time>2014-07-04T08:12:19Z</time>
      </trkpt>
      <trkpt lat="44.85945" lon="5.34988">
        <ele>1279.17</ele>
        <time>2014-07-04T08:12:21Z</time>
      </trkpt>
      <trkpt lat="44.85946" lon="5.34987">
        <ele>1279.65</ele>
        <time>2014-07-04T08:12:22Z</time>
      </trkpt>
      <trkpt lat="44.85947" lon="5.34985">
        <ele>1279.65</ele>
        <time>2014-07-04T08:12:23Z</time>
      </trkpt>
      <trkpt lat="44.85948" lon="5.34982">
        <ele>1280.13</ele>
        <time>2014-07-04T08:12:25Z</time>
      </trkpt>
      <trkpt lat="44.85949" lon="5.3498">
        <ele>1280.61</ele>
        <time>2014-07-04T08:12:26Z</time>
      </trkpt>
      <trkpt lat="44.85954" lon="5.34972">
        <ele>1280.61</ele>
        <time>2014-07-04T08:12:31Z</time>
      </trkpt>
      <trkpt lat="44.85955" lon="5.34969">
        <ele>1281.57</ele>
        <time>2014-07-04T08:12:33Z</time>
      </trkpt>
      <trkpt lat="44.85961" lon="5.34963">
        <ele>1281.57</ele>
        <time>2014-07-04T08:12:38Z</time>
      </trkpt>
      <trkpt lat="44.85964" lon="5.34959">
        <ele>1282.06</ele>
        <time>2014-07-04T08:12:41Z</time>
      </trkpt>
      <trkpt lat="44.85964" lon="5.34957">
        <ele>1282.54</ele>
        <time>2014-07-04T08:12:42Z</time>
      </trkpt>
      <trkpt lat="44.85965" lon="5.34954">
        <ele>1283.02</ele>
        <time>2014-07-04T08:12:44Z</time>
      </trkpt>
      <trkpt lat="44.85966" lon="5.34952">
        <ele>1283.02</ele>
        <time>2014-07-04T08:12:45Z</time>
      </trkpt>
      <trkpt lat="44.85966" lon="5.34951">
        <ele>1283.5</ele>
        <time>2014-07-04T08:12:46Z</time>
      </trkpt>
      <trkpt lat="44.85967" lon="5.34949">
        <ele>1283.5</ele>
        <time>2014-07-04T08:12:47Z</time>
      </trkpt>
      <trkpt lat="44.85967" lon="5.34947">
        <ele>1283.98</ele>
        <time>2014-07-04T08:12:48Z</time>
      </trkpt>
      <trkpt lat="44.85968" lon="5.34946">
        <ele>1283.98</ele>
        <time>2014-07-04T08:12:49Z</time>
      </trkpt>
      <trkpt lat="44.8597" lon="5.34939">
        <ele>1284.94</ele>
        <time>2014-07-04T08:12:53Z</time>
      </trkpt>
      <trkpt lat="44.85971" lon="5.34938">
        <ele>1284.94</ele>
        <time>2014-07-04T08:12:54Z</time>
      </trkpt>
      <trkpt lat="44.85972" lon="5.34935">
        <ele>1285.42</ele>
        <time>2014-07-04T08:12:56Z</time>
      </trkpt>
      <trkpt lat="44.85973" lon="5.34933">
        <ele>1285.42</ele>
        <time>2014-07-04T08:12:58Z</time>
      </trkpt>
      <trkpt lat="44.8598" lon="5.34917">
        <ele>1287.34</ele>
        <time>2014-07-04T08:13:11Z</time>
      </trkpt>
      <trkpt lat="44.8599" lon="5.34897">
        <ele>1289.27</ele>
        <time>2014-07-04T08:13:26Z</time>
      </trkpt>
      <trkpt lat="44.85993" lon="5.34892">
        <ele>1290.23</ele>
        <time>2014-07-04T08:13:31Z</time>
      </trkpt>
      <trkpt lat="44.85994" lon="5.3489">
        <ele>1290.71</ele>
        <time>2014-07-04T08:13:32Z</time>
      </trkpt>
      <trkpt lat="44.85995" lon="5.34889">
        <ele>1291.19</ele>
        <time>2014-07-04T08:13:33Z</time>
      </trkpt>
      <trkpt lat="44.86005" lon="5.3488">
        <ele>1292.15</ele>
        <time>2014-07-04T08:13:44Z</time>
      </trkpt>
      <trkpt lat="44.86012" lon="5.34872">
        <ele>1294.55</ele>
        <time>2014-07-04T08:13:58Z</time>
      </trkpt>
      <trkpt lat="44.86018" lon="5.34869">
        <ele>1295.51</ele>
        <time>2014-07-04T08:14:03Z</time>
      </trkpt>
      <trkpt lat="44.86031" lon="5.34864">
        <ele>1295.99</ele>
        <time>2014-07-04T08:14:15Z</time>
      </trkpt>
      <trkpt lat="44.86032" lon="5.34857">
        <ele>1296.96</ele>
        <time>2014-07-04T08:14:20Z</time>
      </trkpt>
      <trkpt lat="44.86035" lon="5.34854">
        <ele>1297.44</ele>
        <time>2014-07-04T08:14:23Z</time>
      </trkpt>
      <trkpt lat="44.86037" lon="5.34854">
        <ele>1297.44</ele>
        <time>2014-07-04T08:14:24Z</time>
      </trkpt>
      <trkpt lat="44.86039" lon="5.34858">
        <ele>1296.96</ele>
        <time>2014-07-04T08:14:34Z</time>
      </trkpt>
      <trkpt lat="44.86039" lon="5.3486">
        <ele>1297.44</ele>
        <time>2014-07-04T08:14:52Z</time>
      </trkpt>
      <trkpt lat="44.86039" lon="5.3486">
        <ele>1297.44</ele>
        <time>2014-07-04T08:15:15Z</time>
      </trkpt>
      <trkpt lat="44.86038" lon="5.3486">
        <ele>1296.96</ele>
        <time>2014-07-04T08:15:30Z</time>
      </trkpt>
      <trkpt lat="44.86037" lon="5.34859">
        <ele>1296.96</ele>
        <time>2014-07-04T08:15:31Z</time>
      </trkpt>
      <trkpt lat="44.86037" lon="5.34857">
        <ele>1296.96</ele>
        <time>2014-07-04T08:15:32Z</time>
      </trkpt>
      <trkpt lat="44.86036" lon="5.34855">
        <ele>1296.96</ele>
        <time>2014-07-04T08:15:33Z</time>
      </trkpt>
      <trkpt lat="44.86037" lon="5.34849">
        <ele>1297.44</ele>
        <time>2014-07-04T08:15:38Z</time>
      </trkpt>
      <trkpt lat="44.86034" lon="5.34847">
        <ele>1297.44</ele>
        <time>2014-07-04T08:15:41Z</time>
      </trkpt>
      <trkpt lat="44.86032" lon="5.34846">
        <ele>1297.44</ele>
        <time>2014-07-04T08:15:42Z</time>
      </trkpt>
      <trkpt lat="44.86028" lon="5.34845">
        <ele>1297.92</ele>
        <time>2014-07-04T08:15:47Z</time>
      </trkpt>
      <trkpt lat="44.86027" lon="5.34844">
        <ele>1297.44</ele>
        <time>2014-07-04T08:15:48Z</time>
      </trkpt>
      <trkpt lat="44.86026" lon="5.34845">
        <ele>1297.92</ele>
        <time>2014-07-04T08:15:49Z</time>
      </trkpt>
      <trkpt lat="44.86021" lon="5.34843">
        <ele>1298.4</ele>
        <time>2014-07-04T08:15:55Z</time>
      </trkpt>
      <trkpt lat="44.86019" lon="5.34843">
        <ele>1298.4</ele>
        <time>2014-07-04T08:15:57Z</time>
      </trkpt>
      <trkpt lat="44.86012" lon="5.3484">
        <ele>1299.84</ele>
        <time>2014-07-04T08:16:08Z</time>
      </trkpt>
      <trkpt lat="44.86012" lon="5.3484">
        <ele>1299.36</ele>
        <time>2014-07-04T08:16:09Z</time>
      </trkpt>
      <trkpt lat="44.86004" lon="5.34835">
        <ele>1300.32</ele>
        <time>2014-07-04T08:16:19Z</time>
      </trkpt>
      <trkpt lat="44.85993" lon="5.34828">
        <ele>1301.76</ele>
        <time>2014-07-04T08:16:31Z</time>
      </trkpt>
      <trkpt lat="44.85989" lon="5.34827">
        <ele>1302.24</ele>
        <time>2014-07-04T08:16:34Z</time>
      </trkpt>
      <trkpt lat="44.85976" lon="5.34822">
        <ele>1302.72</ele>
        <time>2014-07-04T08:16:44Z</time>
      </trkpt>
      <trkpt lat="44.85962" lon="5.34817">
        <ele>1304.17</ele>
        <time>2014-07-04T08:16:54Z</time>
      </trkpt>
      <trkpt lat="44.85945" lon="5.3481">
        <ele>1305.13</ele>
        <time>2014-07-04T08:17:07Z</time>
      </trkpt>
      <trkpt lat="44.85938" lon="5.34803">
        <ele>1305.13</ele>
        <time>2014-07-04T08:17:14Z</time>
      </trkpt>
      <trkpt lat="44.85929" lon="5.34791">
        <ele>1307.53</ele>
        <time>2014-07-04T08:17:25Z</time>
      </trkpt>
      <trkpt lat="44.85926" lon="5.34786">
        <ele>1307.05</ele>
        <time>2014-07-04T08:17:28Z</time>
      </trkpt>
      <trkpt lat="44.85913" lon="5.34776">
        <ele>1308.01</ele>
        <time>2014-07-04T08:17:36Z</time>
      </trkpt>
      <trkpt lat="44.85904" lon="5.34771">
        <ele>1308.97</ele>
        <time>2014-07-04T08:17:47Z</time>
      </trkpt>
      <trkpt lat="44.8589" lon="5.34765">
        <ele>1310.9</ele>
        <time>2014-07-04T08:17:58Z</time>
      </trkpt>
      <trkpt lat="44.85887" lon="5.34763">
        <ele>1311.38</ele>
        <time>2014-07-04T08:18:01Z</time>
      </trkpt>
      <trkpt lat="44.8587" lon="5.34754">
        <ele>1312.82</ele>
        <time>2014-07-04T08:18:14Z</time>
      </trkpt>
      <trkpt lat="44.85866" lon="5.34749">
        <ele>1314.26</ele>
        <time>2014-07-04T08:18:22Z</time>
      </trkpt>
      <trkpt lat="44.85859" lon="5.34745">
        <ele>1314.74</ele>
        <time>2014-07-04T08:18:29Z</time>
      </trkpt>
      <trkpt lat="44.85847" lon="5.34735">
        <ele>1316.18</ele>
        <time>2014-07-04T08:18:39Z</time>
      </trkpt>
      <trkpt lat="44.85843" lon="5.3473">
        <ele>1317.14</ele>
        <time>2014-07-04T08:18:46Z</time>
      </trkpt>
      <trkpt lat="44.8583" lon="5.3472">
        <ele>1319.07</ele>
        <time>2014-07-04T08:18:59Z</time>
      </trkpt>
      <trkpt lat="44.85818" lon="5.34713">
        <ele>1320.03</ele>
        <time>2014-07-04T08:19:11Z</time>
      </trkpt>
      <trkpt lat="44.85814" lon="5.3471">
        <ele>1320.99</ele>
        <time>2014-07-04T08:19:15Z</time>
      </trkpt>
      <trkpt lat="44.85806" lon="5.34703">
        <ele>1321.95</ele>
        <time>2014-07-04T08:19:21Z</time>
      </trkpt>
      <trkpt lat="44.85796" lon="5.34693">
        <ele>1322.91</ele>
        <time>2014-07-04T08:19:32Z</time>
      </trkpt>
      <trkpt lat="44.85795" lon="5.34692">
        <ele>1322.91</ele>
        <time>2014-07-04T08:19:34Z</time>
      </trkpt>
      <trkpt lat="44.85784" lon="5.34684">
        <ele>1324.83</ele>
        <time>2014-07-04T08:19:45Z</time>
      </trkpt>
      <trkpt lat="44.85782" lon="5.3468">
        <ele>1325.31</ele>
        <time>2014-07-04T08:19:50Z</time>
      </trkpt>
      <trkpt lat="44.85769" lon="5.34672">
        <ele>1326.76</ele>
        <time>2014-07-04T08:20:01Z</time>
      </trkpt>
      <trkpt lat="44.85754" lon="5.34662">
        <ele>1327.72</ele>
        <time>2014-07-04T08:20:12Z</time>
      </trkpt>
      <trkpt lat="44.85744" lon="5.34652">
        <ele>1328.2</ele>
        <time>2014-07-04T08:20:24Z</time>
      </trkpt>
      <trkpt lat="44.85741" lon="5.34647">
        <ele>1328.2</ele>
        <time>2014-07-04T08:20:28Z</time>
      </trkpt>
      <trkpt lat="44.85728" lon="5.34634">
        <ele>1329.64</ele>
        <time>2014-07-04T08:20:38Z</time>
      </trkpt>
      <trkpt lat="44.85715" lon="5.3462">
        <ele>1330.12</ele>
        <time>2014-07-04T08:20:48Z</time>
      </trkpt>
      <trkpt lat="44.85703" lon="5.34604">
        <ele>1331.56</ele>
        <time>2014-07-04T08:21:00Z</time>
      </trkpt>
      <trkpt lat="44.85695" lon="5.34592">
        <ele>1332.04</ele>
        <time>2014-07-04T08:21:11Z</time>
      </trkpt>
      <trkpt lat="44.85682" lon="5.34581">
        <ele>1333.49</ele>
        <time>2014-07-04T08:21:22Z</time>
      </trkpt>
      <trkpt lat="44.8567" lon="5.34568">
        <ele>1334.93</ele>
        <time>2014-07-04T08:21:32Z</time>
      </trkpt>
      <trkpt lat="44.85668" lon="5.34566">
        <ele>1334.93</ele>
        <time>2014-07-04T08:21:34Z</time>
      </trkpt>
      <trkpt lat="44.85665" lon="5.34563">
        <ele>1335.41</ele>
        <time>2014-07-04T08:21:36Z</time>
      </trkpt>
      <trkpt lat="44.85651" lon="5.34549">
        <ele>1337.33</ele>
        <time>2014-07-04T08:21:49Z</time>
      </trkpt>
      <trkpt lat="44.85641" lon="5.3454">
        <ele>1339.25</ele>
        <time>2014-07-04T08:22:00Z</time>
      </trkpt>
      <trkpt lat="44.85628" lon="5.34528">
        <ele>1340.7</ele>
        <time>2014-07-04T08:22:11Z</time>
      </trkpt>
      <trkpt lat="44.85621" lon="5.34513">
        <ele>1342.14</ele>
        <time>2014-07-04T08:22:24Z</time>
      </trkpt>
      <trkpt lat="44.85615" lon="5.34501">
        <ele>1343.1</ele>
        <time>2014-07-04T08:22:36Z</time>
      </trkpt>
      <trkpt lat="44.85601" lon="5.34488">
        <ele>1345.02</ele>
        <time>2014-07-04T08:22:47Z</time>
      </trkpt>
      <trkpt lat="44.8559" lon="5.34479">
        <ele>1346.46</ele>
        <time>2014-07-04T08:22:59Z</time>
      </trkpt>
      <trkpt lat="44.8558" lon="5.34469">
        <ele>1346.46</ele>
        <time>2014-07-04T08:23:11Z</time>
      </trkpt>
      <trkpt lat="44.85568" lon="5.34461">
        <ele>1345.98</ele>
        <time>2014-07-04T08:23:21Z</time>
      </trkpt>
      <trkpt lat="44.85566" lon="5.34459">
        <ele>1346.46</ele>
        <time>2014-07-04T08:23:23Z</time>
      </trkpt>
      <trkpt lat="44.85555" lon="5.34447">
        <ele>1346.94</ele>
        <time>2014-07-04T08:23:36Z</time>
      </trkpt>
      <trkpt lat="44.85553" lon="5.34446">
        <ele>1346.94</ele>
        <time>2014-07-04T08:23:48Z</time>
      </trkpt>
      <trkpt lat="44.85555" lon="5.34445">
        <ele>1346.46</ele>
        <time>2014-07-04T08:24:14Z</time>
      </trkpt>
      <trkpt lat="44.85554" lon="5.34447">
        <ele>1347.43</ele>
        <time>2014-07-04T08:24:42Z</time>
      </trkpt>
      <trkpt lat="44.8555" lon="5.34446">
        <ele>1346.94</ele>
        <time>2014-07-04T08:25:15Z</time>
      </trkpt>
      <trkpt lat="44.8555" lon="5.34444">
        <ele>1346.94</ele>
        <time>2014-07-04T08:25:47Z</time>
      </trkpt>
      <trkpt lat="44.85551" lon="5.34444">
        <ele>1346.94</ele>
        <time>2014-07-04T08:26:19Z</time>
      </trkpt>
      <trkpt lat="44.85551" lon="5.34443">
        <ele>1347.43</ele>
        <time>2014-07-04T08:26:49Z</time>
      </trkpt>
      <trkpt lat="44.85549" lon="5.34442">
        <ele>1347.91</ele>
        <time>2014-07-04T08:27:19Z</time>
      </trkpt>
      <trkpt lat="44.85548" lon="5.34442">
        <ele>1348.39</ele>
        <time>2014-07-04T08:27:45Z</time>
      </trkpt>
      <trkpt lat="44.85541" lon="5.34437">
        <ele>1348.39</ele>
        <time>2014-07-04T08:27:58Z</time>
      </trkpt>
      <trkpt lat="44.8554" lon="5.34437">
        <ele>1348.39</ele>
        <time>2014-07-04T08:27:59Z</time>
      </trkpt>
      <trkpt lat="44.85524" lon="5.34426">
        <ele>1348.39</ele>
        <time>2014-07-04T08:28:11Z</time>
      </trkpt>
      <trkpt lat="44.85504" lon="5.3442">
        <ele>1349.35</ele>
        <time>2014-07-04T08:28:21Z</time>
      </trkpt>
      <trkpt lat="44.8549" lon="5.34423">
        <ele>1349.83</ele>
        <time>2014-07-04T08:28:28Z</time>
      </trkpt>
      <trkpt lat="44.85472" lon="5.34422">
        <ele>1350.79</ele>
        <time>2014-07-04T08:28:41Z</time>
      </trkpt>
      <trkpt lat="44.8546" lon="5.34414">
        <ele>1353.19</ele>
        <time>2014-07-04T08:28:54Z</time>
      </trkpt>
      <trkpt lat="44.85452" lon="5.34412">
        <ele>1353.19</ele>
        <time>2014-07-04T08:28:59Z</time>
      </trkpt>
      <trkpt lat="44.85437" lon="5.34405">
        <ele>1355.6</ele>
        <time>2014-07-04T08:29:12Z</time>
      </trkpt>
      <trkpt lat="44.85425" lon="5.34402">
        <ele>1358.48</ele>
        <time>2014-07-04T08:29:25Z</time>
      </trkpt>
      <trkpt lat="44.85414" lon="5.34396">
        <ele>1360.4</ele>
        <time>2014-07-04T08:29:37Z</time>
      </trkpt>
      <trkpt lat="44.85413" lon="5.34396">
        <ele>1360.4</ele>
        <time>2014-07-04T08:29:38Z</time>
      </trkpt>
      <trkpt lat="44.85407" lon="5.34393">
        <ele>1362.33</ele>
        <time>2014-07-04T08:29:47Z</time>
      </trkpt>
      <trkpt lat="44.85399" lon="5.3439">
        <ele>1362.81</ele>
        <time>2014-07-04T08:29:52Z</time>
      </trkpt>
      <trkpt lat="44.85393" lon="5.34384">
        <ele>1363.77</ele>
        <time>2014-07-04T08:29:59Z</time>
      </trkpt>
      <trkpt lat="44.85381" lon="5.34373">
        <ele>1365.69</ele>
        <time>2014-07-04T08:30:11Z</time>
      </trkpt>
      <trkpt lat="44.85372" lon="5.34368">
        <ele>1367.61</ele>
        <time>2014-07-04T08:30:21Z</time>
      </trkpt>
      <trkpt lat="44.8537" lon="5.34366">
        <ele>1368.57</ele>
        <time>2014-07-04T08:30:23Z</time>
      </trkpt>
      <trkpt lat="44.85354" lon="5.34354">
        <ele>1370.5</ele>
        <time>2014-07-04T08:30:38Z</time>
      </trkpt>
      <trkpt lat="44.8535" lon="5.34351">
        <ele>1370.98</ele>
        <time>2014-07-04T08:30:41Z</time>
      </trkpt>
      <trkpt lat="44.85338" lon="5.34343">
        <ele>1372.42</ele>
        <time>2014-07-04T08:30:55Z</time>
      </trkpt>
      <trkpt lat="44.85335" lon="5.34341">
        <ele>1372.9</ele>
        <time>2014-07-04T08:30:58Z</time>
      </trkpt>
      <trkpt lat="44.85332" lon="5.3434">
        <ele>1372.9</ele>
        <time>2014-07-04T08:31:01Z</time>
      </trkpt>
      <trkpt lat="44.8532" lon="5.34336">
        <ele>1374.34</ele>
        <time>2014-07-04T08:31:12Z</time>
      </trkpt>
      <trkpt lat="44.85309" lon="5.34327">
        <ele>1376.75</ele>
        <time>2014-07-04T08:31:27Z</time>
      </trkpt>
      <trkpt lat="44.85308" lon="5.34327">
        <ele>1378.19</ele>
        <time>2014-07-04T08:31:31Z</time>
      </trkpt>
      <trkpt lat="44.85296" lon="5.34321">
        <ele>1379.63</ele>
        <time>2014-07-04T08:31:41Z</time>
      </trkpt>
      <trkpt lat="44.85284" lon="5.34319">
        <ele>1381.07</ele>
        <time>2014-07-04T08:31:50Z</time>
      </trkpt>
      <trkpt lat="44.85282" lon="5.34317">
        <ele>1381.07</ele>
        <time>2014-07-04T08:31:52Z</time>
      </trkpt>
      <trkpt lat="44.85268" lon="5.34312">
        <ele>1383.47</ele>
        <time>2014-07-04T08:32:05Z</time>
      </trkpt>
      <trkpt lat="44.85263" lon="5.34305">
        <ele>1384.44</ele>
        <time>2014-07-04T08:32:13Z</time>
      </trkpt>
      <trkpt lat="44.85259" lon="5.34293">
        <ele>1385.4</ele>
        <time>2014-07-04T08:32:21Z</time>
      </trkpt>
      <trkpt lat="44.85259" lon="5.34289">
        <ele>1385.4</ele>
        <time>2014-07-04T08:32:23Z</time>
      </trkpt>
      <trkpt lat="44.85267" lon="5.34279">
        <ele>1386.36</ele>
        <time>2014-07-04T08:32:33Z</time>
      </trkpt>
      <trkpt lat="44.85274" lon="5.34276">
        <ele>1386.36</ele>
        <time>2014-07-04T08:32:40Z</time>
      </trkpt>
      <trkpt lat="44.85289" lon="5.34266">
        <ele>1385.88</ele>
        <time>2014-07-04T08:32:52Z</time>
      </trkpt>
      <trkpt lat="44.85309" lon="5.34263">
        <ele>1386.84</ele>
        <time>2014-07-04T08:33:03Z</time>
      </trkpt>
      <trkpt lat="44.85328" lon="5.34259">
        <ele>1387.32</ele>
        <time>2014-07-04T08:33:15Z</time>
      </trkpt>
      <trkpt lat="44.85339" lon="5.34256">
        <ele>1387.8</ele>
        <time>2014-07-04T08:33:22Z</time>
      </trkpt>
      <trkpt lat="44.85342" lon="5.34256">
        <ele>1387.8</ele>
        <time>2014-07-04T08:33:24Z</time>
      </trkpt>
      <trkpt lat="44.85348" lon="5.34255">
        <ele>1388.28</ele>
        <time>2014-07-04T08:33:28Z</time>
      </trkpt>
      <trkpt lat="44.85362" lon="5.34255">
        <ele>1388.76</ele>
        <time>2014-07-04T08:33:37Z</time>
      </trkpt>
      <trkpt lat="44.85389" lon="5.34257">
        <ele>1388.76</ele>
        <time>2014-07-04T08:33:50Z</time>
      </trkpt>
      <trkpt lat="44.8542" lon="5.34266">
        <ele>1387.8</ele>
        <time>2014-07-04T08:34:00Z</time>
      </trkpt>
      <trkpt lat="44.8546" lon="5.34268">
        <ele>1387.8</ele>
        <time>2014-07-04T08:34:11Z</time>
      </trkpt>
      <trkpt lat="44.85494" lon="5.34268">
        <ele>1385.4</ele>
        <time>2014-07-04T08:34:21Z</time>
      </trkpt>
      <trkpt lat="44.85521" lon="5.34276">
        <ele>1383.47</ele>
        <time>2014-07-04T08:34:31Z</time>
      </trkpt>
      <trkpt lat="44.85535" lon="5.34291">
        <ele>1384.44</ele>
        <time>2014-07-04T08:34:38Z</time>
      </trkpt>
      <trkpt lat="44.85537" lon="5.34293">
        <ele>1384.44</ele>
        <time>2014-07-04T08:34:39Z</time>
      </trkpt>
      <trkpt lat="44.85545" lon="5.34301">
        <ele>1384.92</ele>
        <time>2014-07-04T08:34:43Z</time>
      </trkpt>
      <trkpt lat="44.85548" lon="5.34303">
        <ele>1385.4</ele>
        <time>2014-07-04T08:34:44Z</time>
      </trkpt>
      <trkpt lat="44.85551" lon="5.34305">
        <ele>1385.4</ele>
        <time>2014-07-04T08:34:45Z</time>
      </trkpt>
      <trkpt lat="44.85553" lon="5.34307">
        <ele>1385.88</ele>
        <time>2014-07-04T08:34:46Z</time>
      </trkpt>
      <trkpt lat="44.85583" lon="5.34331">
        <ele>1385.88</ele>
        <time>2014-07-04T08:34:58Z</time>
      </trkpt>
      <trkpt lat="44.85616" lon="5.34349">
        <ele>1386.84</ele>
        <time>2014-07-04T08:35:12Z</time>
      </trkpt>
      <trkpt lat="44.85652" lon="5.34357">
        <ele>1387.8</ele>
        <time>2014-07-04T08:35:27Z</time>
      </trkpt>
      <trkpt lat="44.85681" lon="5.34361">
        <ele>1388.76</ele>
        <time>2014-07-04T08:35:40Z</time>
      </trkpt>
      <trkpt lat="44.85684" lon="5.34362">
        <ele>1389.72</ele>
        <time>2014-07-04T08:35:44Z</time>
      </trkpt>
      <trkpt lat="44.85685" lon="5.34362">
        <ele>1389.72</ele>
        <time>2014-07-04T08:35:45Z</time>
      </trkpt>
      <trkpt lat="44.85692" lon="5.34364">
        <ele>1390.2</ele>
        <time>2014-07-04T08:35:51Z</time>
      </trkpt>
      <trkpt lat="44.85694" lon="5.34364">
        <ele>1390.2</ele>
        <time>2014-07-04T08:35:52Z</time>
      </trkpt>
      <trkpt lat="44.85695" lon="5.34364">
        <ele>1390.2</ele>
        <time>2014-07-04T08:35:53Z</time>
      </trkpt>
      <trkpt lat="44.85712" lon="5.34362">
        <ele>1391.65</ele>
        <time>2014-07-04T08:36:07Z</time>
      </trkpt>
      <trkpt lat="44.85731" lon="5.34358">
        <ele>1394.53</ele>
        <time>2014-07-04T08:36:21Z</time>
      </trkpt>
      <trkpt lat="44.85749" lon="5.3435">
        <ele>1395.97</ele>
        <time>2014-07-04T08:36:35Z</time>
      </trkpt>
      <trkpt lat="44.8575" lon="5.34349">
        <ele>1396.45</ele>
        <time>2014-07-04T08:36:36Z</time>
      </trkpt>
      <trkpt lat="44.85752" lon="5.34348">
        <ele>1396.45</ele>
        <time>2014-07-04T08:36:37Z</time>
      </trkpt>
      <trkpt lat="44.85754" lon="5.34347">
        <ele>1396.45</ele>
        <time>2014-07-04T08:36:39Z</time>
      </trkpt>
      <trkpt lat="44.85755" lon="5.34347">
        <ele>1396.45</ele>
        <time>2014-07-04T08:36:40Z</time>
      </trkpt>
      <trkpt lat="44.85756" lon="5.34346">
        <ele>1396.45</ele>
        <time>2014-07-04T08:36:41Z</time>
      </trkpt>
      <trkpt lat="44.85767" lon="5.34341">
        <ele>1397.41</ele>
        <time>2014-07-04T08:36:50Z</time>
      </trkpt>
      <trkpt lat="44.85774" lon="5.3434">
        <ele>1398.86</ele>
        <time>2014-07-04T08:36:56Z</time>
      </trkpt>
      <trkpt lat="44.8578" lon="5.3434">
        <ele>1399.34</ele>
        <time>2014-07-04T08:37:00Z</time>
      </trkpt>
      <trkpt lat="44.85791" lon="5.34339">
        <ele>1401.26</ele>
        <time>2014-07-04T08:37:10Z</time>
      </trkpt>
      <trkpt lat="44.85797" lon="5.34342">
        <ele>1401.26</ele>
        <time>2014-07-04T08:37:15Z</time>
      </trkpt>
      <trkpt lat="44.858" lon="5.34344">
        <ele>1402.22</ele>
        <time>2014-07-04T08:37:18Z</time>
      </trkpt>
      <trkpt lat="44.85825" lon="5.34351">
        <ele>1402.22</ele>
        <time>2014-07-04T08:37:32Z</time>
      </trkpt>
      <trkpt lat="44.8585" lon="5.34356">
        <ele>1403.66</ele>
        <time>2014-07-04T08:37:44Z</time>
      </trkpt>
      <trkpt lat="44.85869" lon="5.34353">
        <ele>1404.62</ele>
        <time>2014-07-04T08:37:54Z</time>
      </trkpt>
      <trkpt lat="44.8589" lon="5.34345">
        <ele>1405.58</ele>
        <time>2014-07-04T08:38:06Z</time>
      </trkpt>
      <trkpt lat="44.85908" lon="5.34333">
        <ele>1407.51</ele>
        <time>2014-07-04T08:38:18Z</time>
      </trkpt>
      <trkpt lat="44.8592" lon="5.34326">
        <ele>1408.95</ele>
        <time>2014-07-04T08:38:25Z</time>
      </trkpt>
      <trkpt lat="44.85924" lon="5.34323">
        <ele>1409.91</ele>
        <time>2014-07-04T08:38:28Z</time>
      </trkpt>
      <trkpt lat="44.85925" lon="5.34322">
        <ele>1409.91</ele>
        <time>2014-07-04T08:38:29Z</time>
      </trkpt>
      <trkpt lat="44.85946" lon="5.34313">
        <ele>1410.39</ele>
        <time>2014-07-04T08:38:40Z</time>
      </trkpt>
      <trkpt lat="44.85967" lon="5.34308">
        <ele>1411.35</ele>
        <time>2014-07-04T08:38:52Z</time>
      </trkpt>
      <trkpt lat="44.85989" lon="5.34304">
        <ele>1411.35</ele>
        <time>2014-07-04T08:39:02Z</time>
      </trkpt>
      <trkpt lat="44.86016" lon="5.34298">
        <ele>1411.83</ele>
        <time>2014-07-04T08:39:13Z</time>
      </trkpt>
      <trkpt lat="44.86043" lon="5.34296">
        <ele>1412.79</ele>
        <time>2014-07-04T08:39:25Z</time>
      </trkpt>
      <trkpt lat="44.86054" lon="5.34295">
        <ele>1414.24</ele>
        <time>2014-07-04T08:39:31Z</time>
      </trkpt>
      <trkpt lat="44.86056" lon="5.34295">
        <ele>1413.76</ele>
        <time>2014-07-04T08:39:32Z</time>
      </trkpt>
      <trkpt lat="44.86058" lon="5.34295">
        <ele>1414.24</ele>
        <time>2014-07-04T08:39:33Z</time>
      </trkpt>
      <trkpt lat="44.8606" lon="5.34294">
        <ele>1414.24</ele>
        <time>2014-07-04T08:39:34Z</time>
      </trkpt>
      <trkpt lat="44.86061" lon="5.34294">
        <ele>1414.24</ele>
        <time>2014-07-04T08:39:35Z</time>
      </trkpt>
      <trkpt lat="44.86062" lon="5.34294">
        <ele>1414.72</ele>
        <time>2014-07-04T08:39:36Z</time>
      </trkpt>
      <trkpt lat="44.86071" lon="5.34295">
        <ele>1415.68</ele>
        <time>2014-07-04T08:39:41Z</time>
      </trkpt>
      <trkpt lat="44.86072" lon="5.34294">
        <ele>1415.68</ele>
        <time>2014-07-04T08:39:42Z</time>
      </trkpt>
      <trkpt lat="44.86074" lon="5.34294">
        <ele>1416.16</ele>
        <time>2014-07-04T08:39:43Z</time>
      </trkpt>
      <trkpt lat="44.86076" lon="5.34295">
        <ele>1416.16</ele>
        <time>2014-07-04T08:39:44Z</time>
      </trkpt>
      <trkpt lat="44.86077" lon="5.34295">
        <ele>1416.64</ele>
        <time>2014-07-04T08:39:45Z</time>
      </trkpt>
      <trkpt lat="44.86078" lon="5.34295">
        <ele>1416.64</ele>
        <time>2014-07-04T08:39:46Z</time>
      </trkpt>
      <trkpt lat="44.8608" lon="5.34294">
        <ele>1417.12</ele>
        <time>2014-07-04T08:39:47Z</time>
      </trkpt>
      <trkpt lat="44.86081" lon="5.34294">
        <ele>1417.12</ele>
        <time>2014-07-04T08:39:48Z</time>
      </trkpt>
      <trkpt lat="44.86083" lon="5.34293">
        <ele>1417.12</ele>
        <time>2014-07-04T08:39:49Z</time>
      </trkpt>
      <trkpt lat="44.86084" lon="5.34293">
        <ele>1417.12</ele>
        <time>2014-07-04T08:39:50Z</time>
      </trkpt>
      <trkpt lat="44.86085" lon="5.34293">
        <ele>1417.12</ele>
        <time>2014-07-04T08:39:51Z</time>
      </trkpt>
      <trkpt lat="44.86087" lon="5.34293">
        <ele>1417.6</ele>
        <time>2014-07-04T08:39:52Z</time>
      </trkpt>
      <trkpt lat="44.86092" lon="5.34293">
        <ele>1418.56</ele>
        <time>2014-07-04T08:39:57Z</time>
      </trkpt>
      <trkpt lat="44.86094" lon="5.34294">
        <ele>1418.08</ele>
        <time>2014-07-04T08:39:58Z</time>
      </trkpt>
      <trkpt lat="44.86095" lon="5.34294">
        <ele>1418.56</ele>
        <time>2014-07-04T08:39:59Z</time>
      </trkpt>
      <trkpt lat="44.86097" lon="5.34293">
        <ele>1418.56</ele>
        <time>2014-07-04T08:40:00Z</time>
      </trkpt>
      <trkpt lat="44.86117" lon="5.34291">
        <ele>1420.97</ele>
        <time>2014-07-04T08:40:14Z</time>
      </trkpt>
      <trkpt lat="44.86135" lon="5.34289">
        <ele>1421.93</ele>
        <time>2014-07-04T08:40:28Z</time>
      </trkpt>
      <trkpt lat="44.86139" lon="5.34288">
        <ele>1421.93</ele>
        <time>2014-07-04T08:40:31Z</time>
      </trkpt>
      <trkpt lat="44.86141" lon="5.34288">
        <ele>1422.41</ele>
        <time>2014-07-04T08:40:32Z</time>
      </trkpt>
      <trkpt lat="44.86142" lon="5.34288">
        <ele>1422.89</ele>
        <time>2014-07-04T08:40:33Z</time>
      </trkpt>
      <trkpt lat="44.86144" lon="5.34288">
        <ele>1422.89</ele>
        <time>2014-07-04T08:40:34Z</time>
      </trkpt>
      <trkpt lat="44.86145" lon="5.34288">
        <ele>1422.89</ele>
        <time>2014-07-04T08:40:35Z</time>
      </trkpt>
      <trkpt lat="44.86147" lon="5.34287">
        <ele>1423.37</ele>
        <time>2014-07-04T08:40:36Z</time>
      </trkpt>
      <trkpt lat="44.86164" lon="5.34282">
        <ele>1424.33</ele>
        <time>2014-07-04T08:40:47Z</time>
      </trkpt>
      <trkpt lat="44.86166" lon="5.34282">
        <ele>1424.81</ele>
        <time>2014-07-04T08:40:48Z</time>
      </trkpt>
      <trkpt lat="44.86172" lon="5.34281">
        <ele>1425.29</ele>
        <time>2014-07-04T08:40:53Z</time>
      </trkpt>
      <trkpt lat="44.86173" lon="5.34281">
        <ele>1425.29</ele>
        <time>2014-07-04T08:40:54Z</time>
      </trkpt>
      <trkpt lat="44.86198" lon="5.34281">
        <ele>1425.77</ele>
        <time>2014-07-04T08:41:07Z</time>
      </trkpt>
      <trkpt lat="44.86226" lon="5.34282">
        <ele>1425.77</ele>
        <time>2014-07-04T08:41:18Z</time>
      </trkpt>
      <trkpt lat="44.8623" lon="5.34282">
        <ele>1425.77</ele>
        <time>2014-07-04T08:41:21Z</time>
      </trkpt>
      <trkpt lat="44.86232" lon="5.34282">
        <ele>1425.77</ele>
        <time>2014-07-04T08:41:22Z</time>
      </trkpt>
      <trkpt lat="44.86233" lon="5.34283">
        <ele>1425.77</ele>
        <time>2014-07-04T08:41:23Z</time>
      </trkpt>
      <trkpt lat="44.86236" lon="5.34282">
        <ele>1425.29</ele>
        <time>2014-07-04T08:41:37Z</time>
      </trkpt>
      <trkpt lat="44.86237" lon="5.34282">
        <ele>1425.77</ele>
        <time>2014-07-04T08:41:46Z</time>
      </trkpt>
      <trkpt lat="44.8625" lon="5.34282">
        <ele>1424.33</ele>
        <time>2014-07-04T08:42:13Z</time>
      </trkpt>
      <trkpt lat="44.8627" lon="5.34286">
        <ele>1422.89</ele>
        <time>2014-07-04T08:42:18Z</time>
      </trkpt>
      <trkpt lat="44.86297" lon="5.34294">
        <ele>1420</ele>
        <time>2014-07-04T08:42:23Z</time>
      </trkpt>
      <trkpt lat="44.86317" lon="5.34301">
        <ele>1418.56</ele>
        <time>2014-07-04T08:42:26Z</time>
      </trkpt>
      <trkpt lat="44.86356" lon="5.3432">
        <ele>1414.72</ele>
        <time>2014-07-04T08:42:31Z</time>
      </trkpt>
      <trkpt lat="44.86412" lon="5.34342">
        <ele>1412.79</ele>
        <time>2014-07-04T08:42:39Z</time>
      </trkpt>
      <trkpt lat="44.86445" lon="5.34362">
        <ele>1413.76</ele>
        <time>2014-07-04T08:42:46Z</time>
      </trkpt>
      <trkpt lat="44.86448" lon="5.34363">
        <ele>1413.76</ele>
        <time>2014-07-04T08:42:47Z</time>
      </trkpt>
      <trkpt lat="44.86451" lon="5.34365">
        <ele>1413.28</ele>
        <time>2014-07-04T08:42:48Z</time>
      </trkpt>
      <trkpt lat="44.86459" lon="5.34367">
        <ele>1413.76</ele>
        <time>2014-07-04T08:42:52Z</time>
      </trkpt>
      <trkpt lat="44.86497" lon="5.34384">
        <ele>1415.2</ele>
        <time>2014-07-04T08:43:04Z</time>
      </trkpt>
      <trkpt lat="44.86527" lon="5.34399">
        <ele>1414.24</ele>
        <time>2014-07-04T08:43:15Z</time>
      </trkpt>
      <trkpt lat="44.86567" lon="5.34408">
        <ele>1413.76</ele>
        <time>2014-07-04T08:43:27Z</time>
      </trkpt>
      <trkpt lat="44.86599" lon="5.34414">
        <ele>1413.76</ele>
        <time>2014-07-04T08:43:37Z</time>
      </trkpt>
      <trkpt lat="44.86625" lon="5.34425">
        <ele>1414.72</ele>
        <time>2014-07-04T08:43:47Z</time>
      </trkpt>
      <trkpt lat="44.86652" lon="5.34431">
        <ele>1416.16</ele>
        <time>2014-07-04T08:44:00Z</time>
      </trkpt>
      <trkpt lat="44.86669" lon="5.34432">
        <ele>1417.6</ele>
        <time>2014-07-04T08:44:10Z</time>
      </trkpt>
      <trkpt lat="44.8667" lon="5.34431">
        <ele>1417.6</ele>
        <time>2014-07-04T08:44:11Z</time>
      </trkpt>
      <trkpt lat="44.86671" lon="5.34431">
        <ele>1418.08</ele>
        <time>2014-07-04T08:44:12Z</time>
      </trkpt>
      <trkpt lat="44.86673" lon="5.34431">
        <ele>1418.08</ele>
        <time>2014-07-04T08:44:13Z</time>
      </trkpt>
      <trkpt lat="44.86674" lon="5.34432">
        <ele>1418.08</ele>
        <time>2014-07-04T08:44:14Z</time>
      </trkpt>
      <trkpt lat="44.86676" lon="5.34433">
        <ele>1418.56</ele>
        <time>2014-07-04T08:44:15Z</time>
      </trkpt>
      <trkpt lat="44.86689" lon="5.3444">
        <ele>1420.97</ele>
        <time>2014-07-04T08:44:29Z</time>
      </trkpt>
      <trkpt lat="44.86702" lon="5.34446">
        <ele>1422.89</ele>
        <time>2014-07-04T08:44:42Z</time>
      </trkpt>
      <trkpt lat="44.86708" lon="5.3445">
        <ele>1424.33</ele>
        <time>2014-07-04T08:44:49Z</time>
      </trkpt>
      <trkpt lat="44.86716" lon="5.34449">
        <ele>1426.25</ele>
        <time>2014-07-04T08:44:59Z</time>
      </trkpt>
      <trkpt lat="44.8672" lon="5.34447">
        <ele>1427.21</ele>
        <time>2014-07-04T08:45:16Z</time>
      </trkpt>
      <trkpt lat="44.86727" lon="5.34447">
        <ele>1429.62</ele>
        <time>2014-07-04T08:45:29Z</time>
      </trkpt>
      <trkpt lat="44.86733" lon="5.34447">
        <ele>1430.58</ele>
        <time>2014-07-04T08:45:41Z</time>
      </trkpt>
      <trkpt lat="44.8674" lon="5.34449">
        <ele>1432.02</ele>
        <time>2014-07-04T08:45:55Z</time>
      </trkpt>
      <trkpt lat="44.8675" lon="5.34447">
        <ele>1434.42</ele>
        <time>2014-07-04T08:46:09Z</time>
      </trkpt>
      <trkpt lat="44.86761" lon="5.34451">
        <ele>1435.87</ele>
        <time>2014-07-04T08:46:22Z</time>
      </trkpt>
      <trkpt lat="44.86775" lon="5.3446">
        <ele>1436.35</ele>
        <time>2014-07-04T08:46:34Z</time>
      </trkpt>
      <trkpt lat="44.86787" lon="5.34461">
        <ele>1438.27</ele>
        <time>2014-07-04T08:46:47Z</time>
      </trkpt>
      <trkpt lat="44.86796" lon="5.34464">
        <ele>1438.75</ele>
        <time>2014-07-04T08:46:58Z</time>
      </trkpt>
      <trkpt lat="44.86798" lon="5.34464">
        <ele>1438.75</ele>
        <time>2014-07-04T08:46:59Z</time>
      </trkpt>
      <trkpt lat="44.86799" lon="5.34464">
        <ele>1439.71</ele>
        <time>2014-07-04T08:47:00Z</time>
      </trkpt>
      <trkpt lat="44.86801" lon="5.34464">
        <ele>1439.23</ele>
        <time>2014-07-04T08:47:01Z</time>
      </trkpt>
      <trkpt lat="44.86802" lon="5.34464">
        <ele>1439.23</ele>
        <time>2014-07-04T08:47:02Z</time>
      </trkpt>
      <trkpt lat="44.86803" lon="5.34465">
        <ele>1439.71</ele>
        <time>2014-07-04T08:47:03Z</time>
      </trkpt>
      <trkpt lat="44.86809" lon="5.34465">
        <ele>1439.23</ele>
        <time>2014-07-04T08:47:08Z</time>
      </trkpt>
      <trkpt lat="44.8683" lon="5.34469">
        <ele>1440.19</ele>
        <time>2014-07-04T08:47:21Z</time>
      </trkpt>
      <trkpt lat="44.8685" lon="5.34472">
        <ele>1441.15</ele>
        <time>2014-07-04T08:47:33Z</time>
      </trkpt>
      <trkpt lat="44.86852" lon="5.34472">
        <ele>1441.63</ele>
        <time>2014-07-04T08:47:34Z</time>
      </trkpt>
      <trkpt lat="44.8687" lon="5.34471">
        <ele>1443.56</ele>
        <time>2014-07-04T08:47:48Z</time>
      </trkpt>
      <trkpt lat="44.86883" lon="5.34468">
        <ele>1445</ele>
        <time>2014-07-04T08:47:59Z</time>
      </trkpt>
      <trkpt lat="44.86885" lon="5.34468">
        <ele>1445</ele>
        <time>2014-07-04T08:48:01Z</time>
      </trkpt>
      <trkpt lat="44.86886" lon="5.34468">
        <ele>1445</ele>
        <time>2014-07-04T08:48:02Z</time>
      </trkpt>
      <trkpt lat="44.86888" lon="5.34468">
        <ele>1445</ele>
        <time>2014-07-04T08:48:03Z</time>
      </trkpt>
      <trkpt lat="44.86899" lon="5.34467">
        <ele>1445</ele>
        <time>2014-07-04T08:48:10Z</time>
      </trkpt>
      <trkpt lat="44.86901" lon="5.34467">
        <ele>1445.96</ele>
        <time>2014-07-04T08:48:11Z</time>
      </trkpt>
      <trkpt lat="44.86902" lon="5.34467">
        <ele>1445.48</ele>
        <time>2014-07-04T08:48:12Z</time>
      </trkpt>
      <trkpt lat="44.86904" lon="5.34467">
        <ele>1445.48</ele>
        <time>2014-07-04T08:48:13Z</time>
      </trkpt>
      <trkpt lat="44.86906" lon="5.34467">
        <ele>1445</ele>
        <time>2014-07-04T08:48:14Z</time>
      </trkpt>
      <trkpt lat="44.86907" lon="5.34466">
        <ele>1445.48</ele>
        <time>2014-07-04T08:48:15Z</time>
      </trkpt>
      <trkpt lat="44.86924" lon="5.34461">
        <ele>1446.44</ele>
        <time>2014-07-04T08:48:26Z</time>
      </trkpt>
      <trkpt lat="44.86942" lon="5.34457">
        <ele>1447.88</ele>
        <time>2014-07-04T08:48:38Z</time>
      </trkpt>
      <trkpt lat="44.86943" lon="5.34456">
        <ele>1447.88</ele>
        <time>2014-07-04T08:48:39Z</time>
      </trkpt>
      <trkpt lat="44.86944" lon="5.34455">
        <ele>1447.4</ele>
        <time>2014-07-04T08:48:40Z</time>
      </trkpt>
      <trkpt lat="44.86946" lon="5.34455">
        <ele>1447.88</ele>
        <time>2014-07-04T08:48:41Z</time>
      </trkpt>
      <trkpt lat="44.86959" lon="5.34453">
        <ele>1448.84</ele>
        <time>2014-07-04T08:48:50Z</time>
      </trkpt>
      <trkpt lat="44.86967" lon="5.34452">
        <ele>1449.81</ele>
        <time>2014-07-04T08:48:58Z</time>
      </trkpt>
      <trkpt lat="44.86968" lon="5.34452">
        <ele>1449.81</ele>
        <time>2014-07-04T08:48:59Z</time>
      </trkpt>
      <trkpt lat="44.8697" lon="5.34452">
        <ele>1450.29</ele>
        <time>2014-07-04T08:49:00Z</time>
      </trkpt>
      <trkpt lat="44.86972" lon="5.34451">
        <ele>1449.81</ele>
        <time>2014-07-04T08:49:01Z</time>
      </trkpt>
      <trkpt lat="44.86985" lon="5.34451">
        <ele>1451.73</ele>
        <time>2014-07-04T08:49:12Z</time>
      </trkpt>
      <trkpt lat="44.86994" lon="5.34448">
        <ele>1452.21</ele>
        <time>2014-07-04T08:49:19Z</time>
      </trkpt>
      <trkpt lat="44.86995" lon="5.34448">
        <ele>1452.21</ele>
        <time>2014-07-04T08:49:20Z</time>
      </trkpt>
      <trkpt lat="44.86997" lon="5.34448">
        <ele>1452.21</ele>
        <time>2014-07-04T08:49:21Z</time>
      </trkpt>
      <trkpt lat="44.87019" lon="5.3444">
        <ele>1455.09</ele>
        <time>2014-07-04T08:49:39Z</time>
      </trkpt>
      <trkpt lat="44.8702" lon="5.3444">
        <ele>1455.09</ele>
        <time>2014-07-04T08:49:40Z</time>
      </trkpt>
      <trkpt lat="44.87022" lon="5.3444">
        <ele>1456.05</ele>
        <time>2014-07-04T08:49:41Z</time>
      </trkpt>
      <trkpt lat="44.87023" lon="5.3444">
        <ele>1455.57</ele>
        <time>2014-07-04T08:49:42Z</time>
      </trkpt>
      <trkpt lat="44.87024" lon="5.3444">
        <ele>1455.57</ele>
        <time>2014-07-04T08:49:43Z</time>
      </trkpt>
      <trkpt lat="44.87025" lon="5.34439">
        <ele>1456.05</ele>
        <time>2014-07-04T08:49:44Z</time>
      </trkpt>
      <trkpt lat="44.87027" lon="5.34439">
        <ele>1456.05</ele>
        <time>2014-07-04T08:49:45Z</time>
      </trkpt>
      <trkpt lat="44.8703" lon="5.34437">
        <ele>1457.02</ele>
        <time>2014-07-04T08:49:48Z</time>
      </trkpt>
      <trkpt lat="44.87034" lon="5.34436">
        <ele>1457.02</ele>
        <time>2014-07-04T08:49:51Z</time>
      </trkpt>
      <trkpt lat="44.87035" lon="5.34436">
        <ele>1457.02</ele>
        <time>2014-07-04T08:49:52Z</time>
      </trkpt>
      <trkpt lat="44.87036" lon="5.34435">
        <ele>1457.98</ele>
        <time>2014-07-04T08:49:53Z</time>
      </trkpt>
      <trkpt lat="44.87049" lon="5.3443">
        <ele>1458.94</ele>
        <time>2014-07-04T08:50:05Z</time>
      </trkpt>
      <trkpt lat="44.8705" lon="5.3443">
        <ele>1458.94</ele>
        <time>2014-07-04T08:50:07Z</time>
      </trkpt>
      <trkpt lat="44.87051" lon="5.3443">
        <ele>1459.42</ele>
        <time>2014-07-04T08:50:08Z</time>
      </trkpt>
      <trkpt lat="44.87053" lon="5.34431">
        <ele>1458.94</ele>
        <time>2014-07-04T08:50:09Z</time>
      </trkpt>
      <trkpt lat="44.87054" lon="5.3443">
        <ele>1458.94</ele>
        <time>2014-07-04T08:50:10Z</time>
      </trkpt>
      <trkpt lat="44.87055" lon="5.3443">
        <ele>1459.42</ele>
        <time>2014-07-04T08:50:11Z</time>
      </trkpt>
      <trkpt lat="44.87057" lon="5.34431">
        <ele>1459.42</ele>
        <time>2014-07-04T08:50:12Z</time>
      </trkpt>
      <trkpt lat="44.87062" lon="5.34432">
        <ele>1459.42</ele>
        <time>2014-07-04T08:50:16Z</time>
      </trkpt>
      <trkpt lat="44.87066" lon="5.34434">
        <ele>1459.42</ele>
        <time>2014-07-04T08:50:30Z</time>
      </trkpt>
      <trkpt lat="44.87067" lon="5.34436">
        <ele>1460.38</ele>
        <time>2014-07-04T08:50:54Z</time>
      </trkpt>
      <trkpt lat="44.87067" lon="5.34436">
        <ele>1460.38</ele>
        <time>2014-07-04T08:51:09Z</time>
      </trkpt>
      <trkpt lat="44.8707" lon="5.34437">
        <ele>1460.38</ele>
        <time>2014-07-04T08:51:30Z</time>
      </trkpt>
      <trkpt lat="44.87086" lon="5.34438">
        <ele>1461.34</ele>
        <time>2014-07-04T08:51:42Z</time>
      </trkpt>
      <trkpt lat="44.87092" lon="5.34439">
        <ele>1461.34</ele>
        <time>2014-07-04T08:51:47Z</time>
      </trkpt>
      <trkpt lat="44.87093" lon="5.34438">
        <ele>1461.34</ele>
        <time>2014-07-04T08:51:48Z</time>
      </trkpt>
      <trkpt lat="44.87113" lon="5.3444">
        <ele>1461.82</ele>
        <time>2014-07-04T08:52:01Z</time>
      </trkpt>
      <trkpt lat="44.87125" lon="5.34442">
        <ele>1460.86</ele>
        <time>2014-07-04T08:52:11Z</time>
      </trkpt>
      <trkpt lat="44.87133" lon="5.34442">
        <ele>1461.34</ele>
        <time>2014-07-04T08:52:24Z</time>
      </trkpt>
      <trkpt lat="44.87136" lon="5.34442">
        <ele>1460.38</ele>
        <time>2014-07-04T08:52:37Z</time>
      </trkpt>
      <trkpt lat="44.87138" lon="5.34442">
        <ele>1460.38</ele>
        <time>2014-07-04T08:52:39Z</time>
      </trkpt>
      <trkpt lat="44.8714" lon="5.34441">
        <ele>1460.38</ele>
        <time>2014-07-04T08:52:40Z</time>
      </trkpt>
      <trkpt lat="44.87142" lon="5.34441">
        <ele>1459.9</ele>
        <time>2014-07-04T08:52:41Z</time>
      </trkpt>
      <trkpt lat="44.87156" lon="5.34443">
        <ele>1458.94</ele>
        <time>2014-07-04T08:52:50Z</time>
      </trkpt>
      <trkpt lat="44.87191" lon="5.34441">
        <ele>1456.53</ele>
        <time>2014-07-04T08:53:02Z</time>
      </trkpt>
      <trkpt lat="44.87219" lon="5.34441">
        <ele>1455.57</ele>
        <time>2014-07-04T08:53:11Z</time>
      </trkpt>
      <trkpt lat="44.87228" lon="5.34443">
        <ele>1454.61</ele>
        <time>2014-07-04T08:53:13Z</time>
      </trkpt>
      <trkpt lat="44.87233" lon="5.34443">
        <ele>1454.61</ele>
        <time>2014-07-04T08:53:14Z</time>
      </trkpt>
      <trkpt lat="44.87238" lon="5.34444">
        <ele>1454.13</ele>
        <time>2014-07-04T08:53:15Z</time>
      </trkpt>
      <trkpt lat="44.87243" lon="5.34445">
        <ele>1453.65</ele>
        <time>2014-07-04T08:53:16Z</time>
      </trkpt>
      <trkpt lat="44.87248" lon="5.34446">
        <ele>1454.13</ele>
        <time>2014-07-04T08:53:17Z</time>
      </trkpt>
      <trkpt lat="44.87253" lon="5.34448">
        <ele>1453.17</ele>
        <time>2014-07-04T08:53:18Z</time>
      </trkpt>
      <trkpt lat="44.87258" lon="5.34449">
        <ele>1453.65</ele>
        <time>2014-07-04T08:53:19Z</time>
      </trkpt>
      <trkpt lat="44.87263" lon="5.34449">
        <ele>1453.65</ele>
        <time>2014-07-04T08:53:20Z</time>
      </trkpt>
      <trkpt lat="44.87268" lon="5.34448">
        <ele>1452.69</ele>
        <time>2014-07-04T08:53:21Z</time>
      </trkpt>
      <trkpt lat="44.87272" lon="5.34447">
        <ele>1453.17</ele>
        <time>2014-07-04T08:53:22Z</time>
      </trkpt>
      <trkpt lat="44.87275" lon="5.34447">
        <ele>1452.69</ele>
        <time>2014-07-04T08:53:23Z</time>
      </trkpt>
      <trkpt lat="44.87277" lon="5.34448">
        <ele>1453.17</ele>
        <time>2014-07-04T08:53:24Z</time>
      </trkpt>
      <trkpt lat="44.87282" lon="5.34447">
        <ele>1453.17</ele>
        <time>2014-07-04T08:53:26Z</time>
      </trkpt>
      <trkpt lat="44.87286" lon="5.34447">
        <ele>1453.17</ele>
        <time>2014-07-04T08:53:27Z</time>
      </trkpt>
      <trkpt lat="44.87308" lon="5.3444">
        <ele>1451.73</ele>
        <time>2014-07-04T08:53:33Z</time>
      </trkpt>
      <trkpt lat="44.87336" lon="5.34436">
        <ele>1451.73</ele>
        <time>2014-07-04T08:53:41Z</time>
      </trkpt>
      <trkpt lat="44.87367" lon="5.34441">
        <ele>1450.77</ele>
        <time>2014-07-04T08:53:50Z</time>
      </trkpt>
      <trkpt lat="44.87391" lon="5.34455">
        <ele>1449.32</ele>
        <time>2014-07-04T08:53:58Z</time>
      </trkpt>
      <trkpt lat="44.87394" lon="5.34456">
        <ele>1449.32</ele>
        <time>2014-07-04T08:53:59Z</time>
      </trkpt>
      <trkpt lat="44.87397" lon="5.34458">
        <ele>1449.32</ele>
        <time>2014-07-04T08:54:00Z</time>
      </trkpt>
      <trkpt lat="44.87398" lon="5.3446">
        <ele>1449.32</ele>
        <time>2014-07-04T08:54:01Z</time>
      </trkpt>
      <trkpt lat="44.874" lon="5.34463">
        <ele>1449.81</ele>
        <time>2014-07-04T08:54:02Z</time>
      </trkpt>
      <trkpt lat="44.87401" lon="5.34465">
        <ele>1449.32</ele>
        <time>2014-07-04T08:54:03Z</time>
      </trkpt>
      <trkpt lat="44.87402" lon="5.34468">
        <ele>1450.29</ele>
        <time>2014-07-04T08:54:04Z</time>
      </trkpt>
      <trkpt lat="44.87403" lon="5.34472">
        <ele>1449.81</ele>
        <time>2014-07-04T08:54:05Z</time>
      </trkpt>
      <trkpt lat="44.87404" lon="5.34475">
        <ele>1449.32</ele>
        <time>2014-07-04T08:54:06Z</time>
      </trkpt>
      <trkpt lat="44.87404" lon="5.34477">
        <ele>1449.32</ele>
        <time>2014-07-04T08:54:07Z</time>
      </trkpt>
      <trkpt lat="44.87405" lon="5.3448">
        <ele>1449.32</ele>
        <time>2014-07-04T08:54:08Z</time>
      </trkpt>
      <trkpt lat="44.87409" lon="5.34488">
        <ele>1450.29</ele>
        <time>2014-07-04T08:54:11Z</time>
      </trkpt>
      <trkpt lat="44.8741" lon="5.34491">
        <ele>1450.29</ele>
        <time>2014-07-04T08:54:12Z</time>
      </trkpt>
      <trkpt lat="44.87418" lon="5.3451">
        <ele>1450.77</ele>
        <time>2014-07-04T08:54:21Z</time>
      </trkpt>
      <trkpt lat="44.87438" lon="5.34539">
        <ele>1451.25</ele>
        <time>2014-07-04T08:54:33Z</time>
      </trkpt>
      <trkpt lat="44.87459" lon="5.34545">
        <ele>1451.73</ele>
        <time>2014-07-04T08:54:43Z</time>
      </trkpt>
      <trkpt lat="44.87482" lon="5.34546">
        <ele>1452.69</ele>
        <time>2014-07-04T08:54:55Z</time>
      </trkpt>
      <trkpt lat="44.87484" lon="5.34546">
        <ele>1452.21</ele>
        <time>2014-07-04T08:54:56Z</time>
      </trkpt>
      <trkpt lat="44.87486" lon="5.34546">
        <ele>1452.69</ele>
        <time>2014-07-04T08:54:57Z</time>
      </trkpt>
      <trkpt lat="44.87488" lon="5.34546">
        <ele>1452.69</ele>
        <time>2014-07-04T08:54:58Z</time>
      </trkpt>
      <trkpt lat="44.8749" lon="5.34546">
        <ele>1452.69</ele>
        <time>2014-07-04T08:54:59Z</time>
      </trkpt>
      <trkpt lat="44.87492" lon="5.34547">
        <ele>1453.17</ele>
        <time>2014-07-04T08:55:00Z</time>
      </trkpt>
      <trkpt lat="44.87494" lon="5.34547">
        <ele>1452.69</ele>
        <time>2014-07-04T08:55:01Z</time>
      </trkpt>
      <trkpt lat="44.87496" lon="5.34548">
        <ele>1452.69</ele>
        <time>2014-07-04T08:55:02Z</time>
      </trkpt>
      <trkpt lat="44.87498" lon="5.34549">
        <ele>1452.69</ele>
        <time>2014-07-04T08:55:03Z</time>
      </trkpt>
      <trkpt lat="44.875" lon="5.34549">
        <ele>1453.17</ele>
        <time>2014-07-04T08:55:04Z</time>
      </trkpt>
      <trkpt lat="44.87502" lon="5.34549">
        <ele>1452.69</ele>
        <time>2014-07-04T08:55:05Z</time>
      </trkpt>
      <trkpt lat="44.87503" lon="5.34548">
        <ele>1453.17</ele>
        <time>2014-07-04T08:55:06Z</time>
      </trkpt>
      <trkpt lat="44.87505" lon="5.34549">
        <ele>1453.17</ele>
        <time>2014-07-04T08:55:07Z</time>
      </trkpt>
      <trkpt lat="44.87508" lon="5.34551">
        <ele>1453.17</ele>
        <time>2014-07-04T08:55:09Z</time>
      </trkpt>
      <trkpt lat="44.8751" lon="5.34551">
        <ele>1453.65</ele>
        <time>2014-07-04T08:55:10Z</time>
      </trkpt>
      <trkpt lat="44.87512" lon="5.34551">
        <ele>1453.17</ele>
        <time>2014-07-04T08:55:11Z</time>
      </trkpt>
      <trkpt lat="44.87513" lon="5.3455">
        <ele>1453.65</ele>
        <time>2014-07-04T08:55:12Z</time>
      </trkpt>
      <trkpt lat="44.87521" lon="5.34553">
        <ele>1453.65</ele>
        <time>2014-07-04T08:55:16Z</time>
      </trkpt>
      <trkpt lat="44.87523" lon="5.34552">
        <ele>1454.13</ele>
        <time>2014-07-04T08:55:17Z</time>
      </trkpt>
      <trkpt lat="44.87526" lon="5.34554">
        <ele>1454.13</ele>
        <time>2014-07-04T08:55:19Z</time>
      </trkpt>
      <trkpt lat="44.87545" lon="5.34564">
        <ele>1453.65</ele>
        <time>2014-07-04T08:55:30Z</time>
      </trkpt>
      <trkpt lat="44.87547" lon="5.34565">
        <ele>1454.13</ele>
        <time>2014-07-04T08:55:31Z</time>
      </trkpt>
      <trkpt lat="44.87549" lon="5.34567">
        <ele>1453.65</ele>
        <time>2014-07-04T08:55:32Z</time>
      </trkpt>
      <trkpt lat="44.87552" lon="5.34569">
        <ele>1454.13</ele>
        <time>2014-07-04T08:55:33Z</time>
      </trkpt>
      <trkpt lat="44.87554" lon="5.34571">
        <ele>1454.13</ele>
        <time>2014-07-04T08:55:34Z</time>
      </trkpt>
      <trkpt lat="44.87556" lon="5.34574">
        <ele>1454.13</ele>
        <time>2014-07-04T08:55:35Z</time>
      </trkpt>
      <trkpt lat="44.87557" lon="5.34577">
        <ele>1454.13</ele>
        <time>2014-07-04T08:55:36Z</time>
      </trkpt>
      <trkpt lat="44.87559" lon="5.34579">
        <ele>1454.61</ele>
        <time>2014-07-04T08:55:37Z</time>
      </trkpt>
      <trkpt lat="44.87578" lon="5.34599">
        <ele>1455.09</ele>
        <time>2014-07-04T08:55:47Z</time>
      </trkpt>
      <trkpt lat="44.87608" lon="5.34617">
        <ele>1456.53</ele>
        <time>2014-07-04T08:56:00Z</time>
      </trkpt>
      <trkpt lat="44.87609" lon="5.34619">
        <ele>1456.05</ele>
        <time>2014-07-04T08:56:01Z</time>
      </trkpt>
      <trkpt lat="44.87612" lon="5.3462">
        <ele>1456.53</ele>
        <time>2014-07-04T08:56:02Z</time>
      </trkpt>
      <trkpt lat="44.87636" lon="5.34633">
        <ele>1457.02</ele>
        <time>2014-07-04T08:56:14Z</time>
      </trkpt>
      <trkpt lat="44.87638" lon="5.34633">
        <ele>1457.5</ele>
        <time>2014-07-04T08:56:15Z</time>
      </trkpt>
      <trkpt lat="44.87664" lon="5.34637">
        <ele>1458.46</ele>
        <time>2014-07-04T08:56:29Z</time>
      </trkpt>
      <trkpt lat="44.87687" lon="5.34641">
        <ele>1459.42</ele>
        <time>2014-07-04T08:56:43Z</time>
      </trkpt>
      <trkpt lat="44.87693" lon="5.34642">
        <ele>1459.9</ele>
        <time>2014-07-04T08:56:46Z</time>
      </trkpt>
      <trkpt lat="44.87695" lon="5.34641">
        <ele>1460.38</ele>
        <time>2014-07-04T08:56:47Z</time>
      </trkpt>
      <trkpt lat="44.87696" lon="5.34641">
        <ele>1460.86</ele>
        <time>2014-07-04T08:56:48Z</time>
      </trkpt>
      <trkpt lat="44.87709" lon="5.34642">
        <ele>1462.3</ele>
        <time>2014-07-04T08:56:59Z</time>
      </trkpt>
      <trkpt lat="44.87716" lon="5.34643">
        <ele>1463.26</ele>
        <time>2014-07-04T08:57:05Z</time>
      </trkpt>
      <trkpt lat="44.87717" lon="5.34642">
        <ele>1462.78</ele>
        <time>2014-07-04T08:57:06Z</time>
      </trkpt>
      <trkpt lat="44.87719" lon="5.34642">
        <ele>1463.26</ele>
        <time>2014-07-04T08:57:07Z</time>
      </trkpt>
      <trkpt lat="44.87736" lon="5.34639">
        <ele>1464.71</ele>
        <time>2014-07-04T08:57:20Z</time>
      </trkpt>
      <trkpt lat="44.8775" lon="5.34646">
        <ele>1467.59</ele>
        <time>2014-07-04T08:57:32Z</time>
      </trkpt>
      <trkpt lat="44.87755" lon="5.34652">
        <ele>1469.03</ele>
        <time>2014-07-04T08:57:38Z</time>
      </trkpt>
      <trkpt lat="44.87758" lon="5.34656">
        <ele>1469.03</ele>
        <time>2014-07-04T08:57:41Z</time>
      </trkpt>
      <trkpt lat="44.87772" lon="5.34672">
        <ele>1471.44</ele>
        <time>2014-07-04T08:57:55Z</time>
      </trkpt>
      <trkpt lat="44.87778" lon="5.34673">
        <ele>1471.44</ele>
        <time>2014-07-04T08:58:01Z</time>
      </trkpt>
      <trkpt lat="44.87792" lon="5.34675">
        <ele>1473.36</ele>
        <time>2014-07-04T08:58:14Z</time>
      </trkpt>
      <trkpt lat="44.87804" lon="5.34674">
        <ele>1475.28</ele>
        <time>2014-07-04T08:58:27Z</time>
      </trkpt>
      <trkpt lat="44.87816" lon="5.34678">
        <ele>1477.2</ele>
        <time>2014-07-04T08:58:41Z</time>
      </trkpt>
      <trkpt lat="44.87829" lon="5.34678">
        <ele>1479.13</ele>
        <time>2014-07-04T08:58:53Z</time>
      </trkpt>
      <trkpt lat="44.87836" lon="5.34679">
        <ele>1480.57</ele>
        <time>2014-07-04T08:59:00Z</time>
      </trkpt>
      <trkpt lat="44.87842" lon="5.34681">
        <ele>1480.57</ele>
        <time>2014-07-04T08:59:05Z</time>
      </trkpt>
      <trkpt lat="44.87856" lon="5.34688">
        <ele>1482.97</ele>
        <time>2014-07-04T08:59:18Z</time>
      </trkpt>
      <trkpt lat="44.87859" lon="5.34688">
        <ele>1482.97</ele>
        <time>2014-07-04T08:59:20Z</time>
      </trkpt>
      <trkpt lat="44.8786" lon="5.34688">
        <ele>1483.93</ele>
        <time>2014-07-04T08:59:21Z</time>
      </trkpt>
      <trkpt lat="44.87861" lon="5.34688">
        <ele>1483.45</ele>
        <time>2014-07-04T08:59:22Z</time>
      </trkpt>
      <trkpt lat="44.87872" lon="5.34683">
        <ele>1484.89</ele>
        <time>2014-07-04T08:59:33Z</time>
      </trkpt>
      <trkpt lat="44.87883" lon="5.34684">
        <ele>1486.34</ele>
        <time>2014-07-04T08:59:45Z</time>
      </trkpt>
      <trkpt lat="44.87896" lon="5.34685">
        <ele>1488.74</ele>
        <time>2014-07-04T08:59:58Z</time>
      </trkpt>
      <trkpt lat="44.87898" lon="5.34684">
        <ele>1488.74</ele>
        <time>2014-07-04T08:59:59Z</time>
      </trkpt>
      <trkpt lat="44.87913" lon="5.3469">
        <ele>1491.14</ele>
        <time>2014-07-04T09:00:14Z</time>
      </trkpt>
      <trkpt lat="44.87918" lon="5.34695">
        <ele>1491.62</ele>
        <time>2014-07-04T09:00:19Z</time>
      </trkpt>
      <trkpt lat="44.87932" lon="5.34702">
        <ele>1493.06</ele>
        <time>2014-07-04T09:00:30Z</time>
      </trkpt>
      <trkpt lat="44.87944" lon="5.34706">
        <ele>1494.03</ele>
        <time>2014-07-04T09:00:41Z</time>
      </trkpt>
      <trkpt lat="44.87959" lon="5.34714">
        <ele>1497.39</ele>
        <time>2014-07-04T09:00:56Z</time>
      </trkpt>
      <trkpt lat="44.87977" lon="5.34712">
        <ele>1499.31</ele>
        <time>2014-07-04T09:01:13Z</time>
      </trkpt>
      <trkpt lat="44.87979" lon="5.34713">
        <ele>1499.79</ele>
        <time>2014-07-04T09:01:15Z</time>
      </trkpt>
      <trkpt lat="44.87992" lon="5.34713">
        <ele>1501.24</ele>
        <time>2014-07-04T09:01:30Z</time>
      </trkpt>
      <trkpt lat="44.88007" lon="5.34709">
        <ele>1503.16</ele>
        <time>2014-07-04T09:01:42Z</time>
      </trkpt>
      <trkpt lat="44.88021" lon="5.3471">
        <ele>1504.12</ele>
        <time>2014-07-04T09:01:56Z</time>
      </trkpt>
      <trkpt lat="44.88036" lon="5.34712">
        <ele>1505.56</ele>
        <time>2014-07-04T09:02:10Z</time>
      </trkpt>
      <trkpt lat="44.8804" lon="5.34713">
        <ele>1506.52</ele>
        <time>2014-07-04T09:02:13Z</time>
      </trkpt>
      <trkpt lat="44.88046" lon="5.34713">
        <ele>1507</ele>
        <time>2014-07-04T09:02:17Z</time>
      </trkpt>
      <trkpt lat="44.88059" lon="5.3472">
        <ele>1507.48</ele>
        <time>2014-07-04T09:02:30Z</time>
      </trkpt>
      <trkpt lat="44.88077" lon="5.34726">
        <ele>1509.41</ele>
        <time>2014-07-04T09:02:44Z</time>
      </trkpt>
      <trkpt lat="44.88079" lon="5.34726">
        <ele>1509.89</ele>
        <time>2014-07-04T09:02:46Z</time>
      </trkpt>
      <trkpt lat="44.88081" lon="5.34726">
        <ele>1509.89</ele>
        <time>2014-07-04T09:02:47Z</time>
      </trkpt>
      <trkpt lat="44.88082" lon="5.34726">
        <ele>1509.41</ele>
        <time>2014-07-04T09:02:48Z</time>
      </trkpt>
      <trkpt lat="44.88089" lon="5.34729">
        <ele>1509.89</ele>
        <time>2014-07-04T09:02:54Z</time>
      </trkpt>
      <trkpt lat="44.8809" lon="5.3473">
        <ele>1510.85</ele>
        <time>2014-07-04T09:02:55Z</time>
      </trkpt>
      <trkpt lat="44.88091" lon="5.34731">
        <ele>1510.37</ele>
        <time>2014-07-04T09:02:56Z</time>
      </trkpt>
      <trkpt lat="44.88092" lon="5.34732">
        <ele>1510.85</ele>
        <time>2014-07-04T09:02:57Z</time>
      </trkpt>
      <trkpt lat="44.88093" lon="5.34732">
        <ele>1510.85</ele>
        <time>2014-07-04T09:02:58Z</time>
      </trkpt>
      <trkpt lat="44.88095" lon="5.34733">
        <ele>1510.37</ele>
        <time>2014-07-04T09:02:59Z</time>
      </trkpt>
      <trkpt lat="44.88096" lon="5.34734">
        <ele>1510.37</ele>
        <time>2014-07-04T09:03:00Z</time>
      </trkpt>
      <trkpt lat="44.88115" lon="5.3474">
        <ele>1511.81</ele>
        <time>2014-07-04T09:03:13Z</time>
      </trkpt>
      <trkpt lat="44.88132" lon="5.34746">
        <ele>1514.21</ele>
        <time>2014-07-04T09:03:27Z</time>
      </trkpt>
      <trkpt lat="44.88152" lon="5.34749">
        <ele>1517.1</ele>
        <time>2014-07-04T09:03:41Z</time>
      </trkpt>
      <trkpt lat="44.88164" lon="5.34748">
        <ele>1518.06</ele>
        <time>2014-07-04T09:03:49Z</time>
      </trkpt>
      <trkpt lat="44.88165" lon="5.34748">
        <ele>1518.06</ele>
        <time>2014-07-04T09:03:50Z</time>
      </trkpt>
      <trkpt lat="44.88167" lon="5.34748">
        <ele>1518.54</ele>
        <time>2014-07-04T09:03:51Z</time>
      </trkpt>
      <trkpt lat="44.88168" lon="5.34747">
        <ele>1518.54</ele>
        <time>2014-07-04T09:03:52Z</time>
      </trkpt>
      <trkpt lat="44.88169" lon="5.34747">
        <ele>1519.02</ele>
        <time>2014-07-04T09:03:53Z</time>
      </trkpt>
      <trkpt lat="44.88172" lon="5.34748">
        <ele>1519.02</ele>
        <time>2014-07-04T09:03:55Z</time>
      </trkpt>
      <trkpt lat="44.88173" lon="5.34748">
        <ele>1519.02</ele>
        <time>2014-07-04T09:03:56Z</time>
      </trkpt>
      <trkpt lat="44.8818" lon="5.34748">
        <ele>1519.5</ele>
        <time>2014-07-04T09:04:01Z</time>
      </trkpt>
      <trkpt lat="44.88181" lon="5.34749">
        <ele>1519.98</ele>
        <time>2014-07-04T09:04:02Z</time>
      </trkpt>
      <trkpt lat="44.88182" lon="5.34749">
        <ele>1519.5</ele>
        <time>2014-07-04T09:04:03Z</time>
      </trkpt>
      <trkpt lat="44.88184" lon="5.34749">
        <ele>1519.98</ele>
        <time>2014-07-04T09:04:04Z</time>
      </trkpt>
      <trkpt lat="44.88185" lon="5.34749">
        <ele>1519.98</ele>
        <time>2014-07-04T09:04:05Z</time>
      </trkpt>
      <trkpt lat="44.88187" lon="5.3475">
        <ele>1519.98</ele>
        <time>2014-07-04T09:04:06Z</time>
      </trkpt>
      <trkpt lat="44.88188" lon="5.3475">
        <ele>1520.46</ele>
        <time>2014-07-04T09:04:07Z</time>
      </trkpt>
      <trkpt lat="44.88204" lon="5.34751">
        <ele>1522.87</ele>
        <time>2014-07-04T09:04:21Z</time>
      </trkpt>
      <trkpt lat="44.88209" lon="5.34751">
        <ele>1523.35</ele>
        <time>2014-07-04T09:04:25Z</time>
      </trkpt>
      <trkpt lat="44.88226" lon="5.34751">
        <ele>1524.79</ele>
        <time>2014-07-04T09:04:40Z</time>
      </trkpt>
      <trkpt lat="44.88231" lon="5.34751">
        <ele>1525.75</ele>
        <time>2014-07-04T09:04:45Z</time>
      </trkpt>
      <trkpt lat="44.88233" lon="5.34751">
        <ele>1525.75</ele>
        <time>2014-07-04T09:04:46Z</time>
      </trkpt>
      <trkpt lat="44.88234" lon="5.34752">
        <ele>1525.75</ele>
        <time>2014-07-04T09:04:47Z</time>
      </trkpt>
      <trkpt lat="44.88237" lon="5.34752">
        <ele>1526.23</ele>
        <time>2014-07-04T09:04:50Z</time>
      </trkpt>
      <trkpt lat="44.8825" lon="5.34751">
        <ele>1528.15</ele>
        <time>2014-07-04T09:05:03Z</time>
      </trkpt>
      <trkpt lat="44.88262" lon="5.34753">
        <ele>1529.59</ele>
        <time>2014-07-04T09:05:13Z</time>
      </trkpt>
      <trkpt lat="44.88278" lon="5.34755">
        <ele>1531.52</ele>
        <time>2014-07-04T09:05:27Z</time>
      </trkpt>
      <trkpt lat="44.88282" lon="5.34754">
        <ele>1532</ele>
        <time>2014-07-04T09:05:31Z</time>
      </trkpt>
      <trkpt lat="44.88283" lon="5.34754">
        <ele>1531.52</ele>
        <time>2014-07-04T09:05:32Z</time>
      </trkpt>
      <trkpt lat="44.88284" lon="5.34754">
        <ele>1531.52</ele>
        <time>2014-07-04T09:05:33Z</time>
      </trkpt>
      <trkpt lat="44.88287" lon="5.34755">
        <ele>1532</ele>
        <time>2014-07-04T09:05:36Z</time>
      </trkpt>
      <trkpt lat="44.88288" lon="5.34755">
        <ele>1532</ele>
        <time>2014-07-04T09:05:37Z</time>
      </trkpt>
      <trkpt lat="44.8829" lon="5.34755">
        <ele>1532</ele>
        <time>2014-07-04T09:05:38Z</time>
      </trkpt>
      <trkpt lat="44.883" lon="5.34757">
        <ele>1532.48</ele>
        <time>2014-07-04T09:05:45Z</time>
      </trkpt>
      <trkpt lat="44.88308" lon="5.34759">
        <ele>1532.96</ele>
        <time>2014-07-04T09:05:51Z</time>
      </trkpt>
      <trkpt lat="44.88309" lon="5.34759">
        <ele>1532.96</ele>
        <time>2014-07-04T09:05:52Z</time>
      </trkpt>
      <trkpt lat="44.88322" lon="5.34762">
        <ele>1534.4</ele>
        <time>2014-07-04T09:06:05Z</time>
      </trkpt>
      <trkpt lat="44.88335" lon="5.34762">
        <ele>1535.36</ele>
        <time>2014-07-04T09:06:14Z</time>
      </trkpt>
      <trkpt lat="44.88336" lon="5.34762">
        <ele>1535.36</ele>
        <time>2014-07-04T09:06:15Z</time>
      </trkpt>
      <trkpt lat="44.88347" lon="5.34764">
        <ele>1535.84</ele>
        <time>2014-07-04T09:06:23Z</time>
      </trkpt>
      <trkpt lat="44.88348" lon="5.34765">
        <ele>1535.84</ele>
        <time>2014-07-04T09:06:24Z</time>
      </trkpt>
      <trkpt lat="44.88352" lon="5.34766">
        <ele>1536.8</ele>
        <time>2014-07-04T09:06:27Z</time>
      </trkpt>
      <trkpt lat="44.88353" lon="5.34767">
        <ele>1536.32</ele>
        <time>2014-07-04T09:06:28Z</time>
      </trkpt>
      <trkpt lat="44.88355" lon="5.34767">
        <ele>1535.84</ele>
        <time>2014-07-04T09:06:29Z</time>
      </trkpt>
      <trkpt lat="44.88369" lon="5.34771">
        <ele>1537.77</ele>
        <time>2014-07-04T09:06:42Z</time>
      </trkpt>
      <trkpt lat="44.88378" lon="5.34773">
        <ele>1538.73</ele>
        <time>2014-07-04T09:06:48Z</time>
      </trkpt>
      <trkpt lat="44.88379" lon="5.34773">
        <ele>1538.25</ele>
        <time>2014-07-04T09:06:49Z</time>
      </trkpt>
      <trkpt lat="44.88389" lon="5.34779">
        <ele>1539.69</ele>
        <time>2014-07-04T09:06:56Z</time>
      </trkpt>
      <trkpt lat="44.8839" lon="5.34779">
        <ele>1539.69</ele>
        <time>2014-07-04T09:06:57Z</time>
      </trkpt>
      <trkpt lat="44.88392" lon="5.3478">
        <ele>1539.21</ele>
        <time>2014-07-04T09:06:58Z</time>
      </trkpt>
      <trkpt lat="44.88404" lon="5.34788">
        <ele>1539.69</ele>
        <time>2014-07-04T09:07:09Z</time>
      </trkpt>
      <trkpt lat="44.88419" lon="5.34796">
        <ele>1537.77</ele>
        <time>2014-07-04T09:07:14Z</time>
      </trkpt>
      <trkpt lat="44.88441" lon="5.34808">
        <ele>1534.4</ele>
        <time>2014-07-04T09:07:18Z</time>
      </trkpt>
      <trkpt lat="44.8847" lon="5.34827">
        <ele>1532</ele>
        <time>2014-07-04T09:07:22Z</time>
      </trkpt>
      <trkpt lat="44.8851" lon="5.34849">
        <ele>1534.88</ele>
        <time>2014-07-04T09:07:28Z</time>
      </trkpt>
      <trkpt lat="44.8854" lon="5.34856">
        <ele>1536.8</ele>
        <time>2014-07-04T09:07:37Z</time>
      </trkpt>
      <trkpt lat="44.8857" lon="5.34858">
        <ele>1536.32</ele>
        <time>2014-07-04T09:07:47Z</time>
      </trkpt>
      <trkpt lat="44.88592" lon="5.34868">
        <ele>1536.8</ele>
        <time>2014-07-04T09:07:57Z</time>
      </trkpt>
      <trkpt lat="44.88594" lon="5.34868">
        <ele>1536.8</ele>
        <time>2014-07-04T09:07:58Z</time>
      </trkpt>
      <trkpt lat="44.88596" lon="5.34869">
        <ele>1536.8</ele>
        <time>2014-07-04T09:07:59Z</time>
      </trkpt>
      <trkpt lat="44.88599" lon="5.3487">
        <ele>1537.29</ele>
        <time>2014-07-04T09:08:00Z</time>
      </trkpt>
      <trkpt lat="44.886" lon="5.34871">
        <ele>1537.29</ele>
        <time>2014-07-04T09:08:01Z</time>
      </trkpt>
      <trkpt lat="44.88602" lon="5.34872">
        <ele>1537.29</ele>
        <time>2014-07-04T09:08:02Z</time>
      </trkpt>
      <trkpt lat="44.88604" lon="5.34873">
        <ele>1537.29</ele>
        <time>2014-07-04T09:08:03Z</time>
      </trkpt>
      <trkpt lat="44.88631" lon="5.34876">
        <ele>1539.69</ele>
        <time>2014-07-04T09:08:19Z</time>
      </trkpt>
      <trkpt lat="44.88633" lon="5.34876">
        <ele>1539.69</ele>
        <time>2014-07-04T09:08:20Z</time>
      </trkpt>
      <trkpt lat="44.88652" lon="5.34883">
        <ele>1541.61</ele>
        <time>2014-07-04T09:08:34Z</time>
      </trkpt>
      <trkpt lat="44.88665" lon="5.34884">
        <ele>1544.01</ele>
        <time>2014-07-04T09:08:46Z</time>
      </trkpt>
      <trkpt lat="44.88666" lon="5.34883">
        <ele>1543.53</ele>
        <time>2014-07-04T09:08:47Z</time>
      </trkpt>
      <trkpt lat="44.8867" lon="5.34884">
        <ele>1544.5</ele>
        <time>2014-07-04T09:08:50Z</time>
      </trkpt>
      <trkpt lat="44.88671" lon="5.34885">
        <ele>1544.5</ele>
        <time>2014-07-04T09:08:51Z</time>
      </trkpt>
      <trkpt lat="44.88685" lon="5.34888">
        <ele>1547.38</ele>
        <time>2014-07-04T09:09:04Z</time>
      </trkpt>
      <trkpt lat="44.88691" lon="5.34888">
        <ele>1548.34</ele>
        <time>2014-07-04T09:09:17Z</time>
      </trkpt>
      <trkpt lat="44.88691" lon="5.34893">
        <ele>1547.38</ele>
        <time>2014-07-04T09:09:34Z</time>
      </trkpt>
      <trkpt lat="44.88693" lon="5.34896">
        <ele>1546.9</ele>
        <time>2014-07-04T09:09:55Z</time>
      </trkpt>
      <trkpt lat="44.88693" lon="5.34897">
        <ele>1546.9</ele>
        <time>2014-07-04T09:10:27Z</time>
      </trkpt>
      <trkpt lat="44.88694" lon="5.34896">
        <ele>1547.86</ele>
        <time>2014-07-04T09:10:54Z</time>
      </trkpt>
      <trkpt lat="44.88694" lon="5.34897">
        <ele>1547.86</ele>
        <time>2014-07-04T09:11:18Z</time>
      </trkpt>
      <trkpt lat="44.88695" lon="5.34898">
        <ele>1546.9</ele>
        <time>2014-07-04T09:11:45Z</time>
      </trkpt>
      <trkpt lat="44.88696" lon="5.34899">
        <ele>1547.38</ele>
        <time>2014-07-04T09:12:11Z</time>
      </trkpt>
      <trkpt lat="44.88695" lon="5.34899">
        <ele>1546.9</ele>
        <time>2014-07-04T09:12:36Z</time>
      </trkpt>
      <trkpt lat="44.88694" lon="5.34897">
        <ele>1547.38</ele>
        <time>2014-07-04T09:13:05Z</time>
      </trkpt>
      <trkpt lat="44.88694" lon="5.34896">
        <ele>1547.38</ele>
        <time>2014-07-04T09:13:34Z</time>
      </trkpt>
      <trkpt lat="44.88694" lon="5.34896">
        <ele>1547.86</ele>
        <time>2014-07-04T09:14:09Z</time>
      </trkpt>
      <trkpt lat="44.88694" lon="5.34896">
        <ele>1547.38</ele>
        <time>2014-07-04T09:14:46Z</time>
      </trkpt>
      <trkpt lat="44.88693" lon="5.34894">
        <ele>1547.38</ele>
        <time>2014-07-04T09:15:21Z</time>
      </trkpt>
      <trkpt lat="44.88693" lon="5.34894">
        <ele>1546.9</ele>
        <time>2014-07-04T09:15:52Z</time>
      </trkpt>
      <trkpt lat="44.88692" lon="5.34893">
        <ele>1546.9</ele>
        <time>2014-07-04T09:16:15Z</time>
      </trkpt>
      <trkpt lat="44.88692" lon="5.34892">
        <ele>1547.38</ele>
        <time>2014-07-04T09:16:45Z</time>
      </trkpt>
      <trkpt lat="44.88692" lon="5.34891">
        <ele>1547.38</ele>
        <time>2014-07-04T09:17:03Z</time>
      </trkpt>
      <trkpt lat="44.88694" lon="5.3489">
        <ele>1548.34</ele>
        <time>2014-07-04T09:17:33Z</time>
      </trkpt>
      <trkpt lat="44.88695" lon="5.34889">
        <ele>1546.9</ele>
        <time>2014-07-04T09:17:51Z</time>
      </trkpt>
      <trkpt lat="44.88695" lon="5.34889">
        <ele>1551.71</ele>
        <time>2014-07-04T09:17:53Z</time>
      </trkpt>
      <trkpt lat="44.88695" lon="5.34889">
        <ele>1551.22</ele>
        <time>2014-07-04T09:17:54Z</time>
      </trkpt>
      <trkpt lat="44.88695" lon="5.34889">
        <ele>1547.38</ele>
        <time>2014-07-04T09:17:56Z</time>
      </trkpt>
      <trkpt lat="44.88695" lon="5.34887">
        <ele>1551.22</ele>
        <time>2014-07-04T09:18:11Z</time>
      </trkpt>
      <trkpt lat="44.88695" lon="5.34887">
        <ele>1541.13</ele>
        <time>2014-07-04T09:18:12Z</time>
      </trkpt>
      <trkpt lat="44.88695" lon="5.34887">
        <ele>1542.57</ele>
        <time>2014-07-04T09:18:13Z</time>
      </trkpt>
      <trkpt lat="44.88695" lon="5.34887">
        <ele>1548.82</ele>
        <time>2014-07-04T09:18:14Z</time>
      </trkpt>
      <trkpt lat="44.88695" lon="5.34887">
        <ele>1547.86</ele>
        <time>2014-07-04T09:18:15Z</time>
      </trkpt>
      <trkpt lat="44.88695" lon="5.34887">
        <ele>1551.71</ele>
        <time>2014-07-04T09:18:16Z</time>
      </trkpt>
      <trkpt lat="44.88695" lon="5.34887">
        <ele>1547.38</ele>
        <time>2014-07-04T09:18:18Z</time>
      </trkpt>
      <trkpt lat="44.88695" lon="5.34887">
        <ele>1550.74</ele>
        <time>2014-07-04T09:18:19Z</time>
      </trkpt>
      <trkpt lat="44.88695" lon="5.34886">
        <ele>1549.78</ele>
        <time>2014-07-04T09:18:25Z</time>
      </trkpt>
      <trkpt lat="44.887" lon="5.34888">
        <ele>1549.3</ele>
        <time>2014-07-04T09:18:49Z</time>
      </trkpt>
      <trkpt lat="44.88705" lon="5.34886">
        <ele>1549.78</ele>
        <time>2014-07-04T09:19:01Z</time>
      </trkpt>
      <trkpt lat="44.88718" lon="5.34881">
        <ele>1550.26</ele>
        <time>2014-07-04T09:19:12Z</time>
      </trkpt>
      <trkpt lat="44.88719" lon="5.3488">
        <ele>1550.26</ele>
        <time>2014-07-04T09:19:13Z</time>
      </trkpt>
      <trkpt lat="44.8872" lon="5.3488">
        <ele>1550.74</ele>
        <time>2014-07-04T09:19:14Z</time>
      </trkpt>
      <trkpt lat="44.88722" lon="5.34879">
        <ele>1550.26</ele>
        <time>2014-07-04T09:19:15Z</time>
      </trkpt>
      <trkpt lat="44.88723" lon="5.34879">
        <ele>1550.26</ele>
        <time>2014-07-04T09:19:16Z</time>
      </trkpt>
      <trkpt lat="44.88724" lon="5.34878">
        <ele>1550.26</ele>
        <time>2014-07-04T09:19:17Z</time>
      </trkpt>
      <trkpt lat="44.88726" lon="5.34878">
        <ele>1550.26</ele>
        <time>2014-07-04T09:19:18Z</time>
      </trkpt>
      <trkpt lat="44.8873" lon="5.34877">
        <ele>1550.26</ele>
        <time>2014-07-04T09:19:21Z</time>
      </trkpt>
      <trkpt lat="44.88731" lon="5.34877">
        <ele>1550.74</ele>
        <time>2014-07-04T09:19:22Z</time>
      </trkpt>
      <trkpt lat="44.88733" lon="5.34878">
        <ele>1550.74</ele>
        <time>2014-07-04T09:19:23Z</time>
      </trkpt>
      <trkpt lat="44.88746" lon="5.34876">
        <ele>1551.22</ele>
        <time>2014-07-04T09:19:31Z</time>
      </trkpt>
      <trkpt lat="44.88748" lon="5.34876">
        <ele>1551.22</ele>
        <time>2014-07-04T09:19:32Z</time>
      </trkpt>
      <trkpt lat="44.88749" lon="5.34877">
        <ele>1551.71</ele>
        <time>2014-07-04T09:19:33Z</time>
      </trkpt>
      <trkpt lat="44.88768" lon="5.34883">
        <ele>1551.71</ele>
        <time>2014-07-04T09:19:44Z</time>
      </trkpt>
      <trkpt lat="44.8879" lon="5.34899">
        <ele>1552.19</ele>
        <time>2014-07-04T09:19:58Z</time>
      </trkpt>
      <trkpt lat="44.88792" lon="5.34898">
        <ele>1552.19</ele>
        <time>2014-07-04T09:19:59Z</time>
      </trkpt>
      <trkpt lat="44.88794" lon="5.34899">
        <ele>1552.19</ele>
        <time>2014-07-04T09:20:00Z</time>
      </trkpt>
      <trkpt lat="44.88795" lon="5.34899">
        <ele>1552.67</ele>
        <time>2014-07-04T09:20:01Z</time>
      </trkpt>
      <trkpt lat="44.88797" lon="5.349">
        <ele>1552.67</ele>
        <time>2014-07-04T09:20:02Z</time>
      </trkpt>
      <trkpt lat="44.88801" lon="5.34902">
        <ele>1552.67</ele>
        <time>2014-07-04T09:20:05Z</time>
      </trkpt>
      <trkpt lat="44.88803" lon="5.34902">
        <ele>1553.15</ele>
        <time>2014-07-04T09:20:06Z</time>
      </trkpt>
      <trkpt lat="44.88805" lon="5.34902">
        <ele>1552.67</ele>
        <time>2014-07-04T09:20:07Z</time>
      </trkpt>
      <trkpt lat="44.88806" lon="5.34903">
        <ele>1553.15</ele>
        <time>2014-07-04T09:20:08Z</time>
      </trkpt>
      <trkpt lat="44.88812" lon="5.34906">
        <ele>1553.15</ele>
        <time>2014-07-04T09:20:12Z</time>
      </trkpt>
      <trkpt lat="44.88813" lon="5.34906">
        <ele>1553.63</ele>
        <time>2014-07-04T09:20:13Z</time>
      </trkpt>
      <trkpt lat="44.88815" lon="5.34907">
        <ele>1553.63</ele>
        <time>2014-07-04T09:20:14Z</time>
      </trkpt>
      <trkpt lat="44.88817" lon="5.34907">
        <ele>1553.63</ele>
        <time>2014-07-04T09:20:15Z</time>
      </trkpt>
      <trkpt lat="44.88823" lon="5.34911">
        <ele>1554.11</ele>
        <time>2014-07-04T09:20:20Z</time>
      </trkpt>
      <trkpt lat="44.88825" lon="5.34912">
        <ele>1554.11</ele>
        <time>2014-07-04T09:20:21Z</time>
      </trkpt>
      <trkpt lat="44.88827" lon="5.34912">
        <ele>1553.63</ele>
        <time>2014-07-04T09:20:22Z</time>
      </trkpt>
      <trkpt lat="44.88829" lon="5.34912">
        <ele>1554.11</ele>
        <time>2014-07-04T09:20:23Z</time>
      </trkpt>
      <trkpt lat="44.88832" lon="5.34912">
        <ele>1554.11</ele>
        <time>2014-07-04T09:20:24Z</time>
      </trkpt>
      <trkpt lat="44.88834" lon="5.34913">
        <ele>1553.63</ele>
        <time>2014-07-04T09:20:25Z</time>
      </trkpt>
      <trkpt lat="44.88866" lon="5.34929">
        <ele>1550.74</ele>
        <time>2014-07-04T09:20:36Z</time>
      </trkpt>
      <trkpt lat="44.88884" lon="5.34932">
        <ele>1548.82</ele>
        <time>2014-07-04T09:20:39Z</time>
      </trkpt>
      <trkpt lat="44.88892" lon="5.34934">
        <ele>1548.34</ele>
        <time>2014-07-04T09:20:40Z</time>
      </trkpt>
      <trkpt lat="44.88901" lon="5.34935">
        <ele>1547.86</ele>
        <time>2014-07-04T09:20:41Z</time>
      </trkpt>
      <trkpt lat="44.88908" lon="5.34936">
        <ele>1546.42</ele>
        <time>2014-07-04T09:20:42Z</time>
      </trkpt>
      <trkpt lat="44.88916" lon="5.34937">
        <ele>1545.94</ele>
        <time>2014-07-04T09:20:43Z</time>
      </trkpt>
      <trkpt lat="44.88934" lon="5.3494">
        <ele>1545.94</ele>
        <time>2014-07-04T09:20:45Z</time>
      </trkpt>
      <trkpt lat="44.88942" lon="5.34943">
        <ele>1544.98</ele>
        <time>2014-07-04T09:20:46Z</time>
      </trkpt>
      <trkpt lat="44.88949" lon="5.34947">
        <ele>1544.01</ele>
        <time>2014-07-04T09:20:47Z</time>
      </trkpt>
      <trkpt lat="44.88982" lon="5.34967">
        <ele>1540.65</ele>
        <time>2014-07-04T09:20:51Z</time>
      </trkpt>
      <trkpt lat="44.89059" lon="5.34992">
        <ele>1542.09</ele>
        <time>2014-07-04T09:21:00Z</time>
      </trkpt>
      <trkpt lat="44.89071" lon="5.34996">
        <ele>1543.53</ele>
        <time>2014-07-04T09:21:02Z</time>
      </trkpt>
      <trkpt lat="44.89076" lon="5.34997">
        <ele>1544.01</ele>
        <time>2014-07-04T09:21:03Z</time>
      </trkpt>
      <trkpt lat="44.89099" lon="5.35001">
        <ele>1547.38</ele>
        <time>2014-07-04T09:21:09Z</time>
      </trkpt>
      <trkpt lat="44.89104" lon="5.35002">
        <ele>1546.9</ele>
        <time>2014-07-04T09:21:11Z</time>
      </trkpt>
      <trkpt lat="44.89107" lon="5.35002">
        <ele>1547.38</ele>
        <time>2014-07-04T09:21:12Z</time>
      </trkpt>
      <trkpt lat="44.89119" lon="5.35008">
        <ele>1548.34</ele>
        <time>2014-07-04T09:21:19Z</time>
      </trkpt>
      <trkpt lat="44.89121" lon="5.35008">
        <ele>1548.34</ele>
        <time>2014-07-04T09:21:20Z</time>
      </trkpt>
      <trkpt lat="44.89123" lon="5.35008">
        <ele>1548.82</ele>
        <time>2014-07-04T09:21:21Z</time>
      </trkpt>
      <trkpt lat="44.89146" lon="5.35018">
        <ele>1549.3</ele>
        <time>2014-07-04T09:21:35Z</time>
      </trkpt>
      <trkpt lat="44.89147" lon="5.3502">
        <ele>1548.82</ele>
        <time>2014-07-04T09:21:36Z</time>
      </trkpt>
      <trkpt lat="44.89151" lon="5.35025">
        <ele>1547.38</ele>
        <time>2014-07-04T09:21:38Z</time>
      </trkpt>
      <trkpt lat="44.89152" lon="5.35034">
        <ele>1545.94</ele>
        <time>2014-07-04T09:21:40Z</time>
      </trkpt>
      <trkpt lat="44.89153" lon="5.35042">
        <ele>1544.01</ele>
        <time>2014-07-04T09:21:42Z</time>
      </trkpt>
      <trkpt lat="44.89156" lon="5.35052">
        <ele>1543.05</ele>
        <time>2014-07-04T09:21:43Z</time>
      </trkpt>
      <trkpt lat="44.89161" lon="5.35068">
        <ele>1539.69</ele>
        <time>2014-07-04T09:21:45Z</time>
      </trkpt>
      <trkpt lat="44.89167" lon="5.35079">
        <ele>1537.77</ele>
        <time>2014-07-04T09:21:47Z</time>
      </trkpt>
      <trkpt lat="44.89171" lon="5.35086">
        <ele>1536.8</ele>
        <time>2014-07-04T09:21:48Z</time>
      </trkpt>
      <trkpt lat="44.8918" lon="5.35091">
        <ele>1535.84</ele>
        <time>2014-07-04T09:21:49Z</time>
      </trkpt>
      <trkpt lat="44.89198" lon="5.35094">
        <ele>1535.36</ele>
        <time>2014-07-04T09:21:50Z</time>
      </trkpt>
      <trkpt lat="44.89215" lon="5.35097">
        <ele>1534.88</ele>
        <time>2014-07-04T09:21:51Z</time>
      </trkpt>
      <trkpt lat="44.89229" lon="5.351">
        <ele>1534.4</ele>
        <time>2014-07-04T09:21:52Z</time>
      </trkpt>
      <trkpt lat="44.89242" lon="5.35102">
        <ele>1533.92</ele>
        <time>2014-07-04T09:21:53Z</time>
      </trkpt>
      <trkpt lat="44.89253" lon="5.35104">
        <ele>1533.92</ele>
        <time>2014-07-04T09:21:54Z</time>
      </trkpt>
      <trkpt lat="44.89264" lon="5.35105">
        <ele>1533.44</ele>
        <time>2014-07-04T09:21:55Z</time>
      </trkpt>
      <trkpt lat="44.89411" lon="5.35089">
        <ele>1534.4</ele>
        <time>2014-07-04T09:22:06Z</time>
      </trkpt>
      <trkpt lat="44.89421" lon="5.35087">
        <ele>1534.88</ele>
        <time>2014-07-04T09:22:07Z</time>
      </trkpt>
      <trkpt lat="44.89428" lon="5.35086">
        <ele>1534.4</ele>
        <time>2014-07-04T09:22:08Z</time>
      </trkpt>
      <trkpt lat="44.8945" lon="5.35077">
        <ele>1534.88</ele>
        <time>2014-07-04T09:22:16Z</time>
      </trkpt>
      <trkpt lat="44.89459" lon="5.35071">
        <ele>1534.88</ele>
        <time>2014-07-04T09:22:39Z</time>
      </trkpt>
      <trkpt lat="44.89477" lon="5.35079">
        <ele>1532</ele>
        <time>2014-07-04T09:22:45Z</time>
      </trkpt>
      <trkpt lat="44.89496" lon="5.35088">
        <ele>1527.67</ele>
        <time>2014-07-04T09:22:50Z</time>
      </trkpt>
      <trkpt lat="44.89514" lon="5.35098">
        <ele>1525.75</ele>
        <time>2014-07-04T09:22:53Z</time>
      </trkpt>
      <trkpt lat="44.89526" lon="5.35106">
        <ele>1524.79</ele>
        <time>2014-07-04T09:22:55Z</time>
      </trkpt>
      <trkpt lat="44.89552" lon="5.35127">
        <ele>1520.94</ele>
        <time>2014-07-04T09:22:59Z</time>
      </trkpt>
      <trkpt lat="44.89558" lon="5.35132">
        <ele>1520.94</ele>
        <time>2014-07-04T09:23:00Z</time>
      </trkpt>
      <trkpt lat="44.89568" lon="5.35141">
        <ele>1520.94</ele>
        <time>2014-07-04T09:23:02Z</time>
      </trkpt>
      <trkpt lat="44.89594" lon="5.35168">
        <ele>1519.02</ele>
        <time>2014-07-04T09:23:10Z</time>
      </trkpt>
      <trkpt lat="44.89599" lon="5.35169">
        <ele>1518.54</ele>
        <time>2014-07-04T09:23:11Z</time>
      </trkpt>
      <trkpt lat="44.89604" lon="5.3517">
        <ele>1517.58</ele>
        <time>2014-07-04T09:23:12Z</time>
      </trkpt>
      <trkpt lat="44.89609" lon="5.35171">
        <ele>1517.1</ele>
        <time>2014-07-04T09:23:13Z</time>
      </trkpt>
      <trkpt lat="44.89614" lon="5.35172">
        <ele>1516.62</ele>
        <time>2014-07-04T09:23:14Z</time>
      </trkpt>
      <trkpt lat="44.89618" lon="5.35173">
        <ele>1516.14</ele>
        <time>2014-07-04T09:23:15Z</time>
      </trkpt>
      <trkpt lat="44.8963" lon="5.35174">
        <ele>1515.18</ele>
        <time>2014-07-04T09:23:18Z</time>
      </trkpt>
      <trkpt lat="44.89632" lon="5.35174">
        <ele>1515.18</ele>
        <time>2014-07-04T09:23:19Z</time>
      </trkpt>
      <trkpt lat="44.89635" lon="5.35174">
        <ele>1514.69</ele>
        <time>2014-07-04T09:23:20Z</time>
      </trkpt>
      <trkpt lat="44.89637" lon="5.35173">
        <ele>1514.69</ele>
        <time>2014-07-04T09:23:21Z</time>
      </trkpt>
      <trkpt lat="44.8964" lon="5.35172">
        <ele>1513.73</ele>
        <time>2014-07-04T09:23:22Z</time>
      </trkpt>
      <trkpt lat="44.89641" lon="5.3517">
        <ele>1514.21</ele>
        <time>2014-07-04T09:23:23Z</time>
      </trkpt>
      <trkpt lat="44.89641" lon="5.35168">
        <ele>1514.21</ele>
        <time>2014-07-04T09:23:24Z</time>
      </trkpt>
      <trkpt lat="44.8964" lon="5.35166">
        <ele>1513.73</ele>
        <time>2014-07-04T09:23:25Z</time>
      </trkpt>
      <trkpt lat="44.89639" lon="5.35165">
        <ele>1513.73</ele>
        <time>2014-07-04T09:23:26Z</time>
      </trkpt>
      <trkpt lat="44.89637" lon="5.35162">
        <ele>1513.73</ele>
        <time>2014-07-04T09:23:27Z</time>
      </trkpt>
      <trkpt lat="44.89631" lon="5.35154">
        <ele>1512.29</ele>
        <time>2014-07-04T09:23:29Z</time>
      </trkpt>
      <trkpt lat="44.89629" lon="5.35149">
        <ele>1511.81</ele>
        <time>2014-07-04T09:23:30Z</time>
      </trkpt>
      <trkpt lat="44.89626" lon="5.35144">
        <ele>1511.33</ele>
        <time>2014-07-04T09:23:31Z</time>
      </trkpt>
      <trkpt lat="44.89623" lon="5.35139">
        <ele>1510.37</ele>
        <time>2014-07-04T09:23:32Z</time>
      </trkpt>
      <trkpt lat="44.89621" lon="5.35134">
        <ele>1509.89</ele>
        <time>2014-07-04T09:23:33Z</time>
      </trkpt>
      <trkpt lat="44.89618" lon="5.35128">
        <ele>1509.41</ele>
        <time>2014-07-04T09:23:34Z</time>
      </trkpt>
      <trkpt lat="44.89614" lon="5.35117">
        <ele>1508.45</ele>
        <time>2014-07-04T09:23:36Z</time>
      </trkpt>
      <trkpt lat="44.89611" lon="5.35112">
        <ele>1507.48</ele>
        <time>2014-07-04T09:23:37Z</time>
      </trkpt>
      <trkpt lat="44.89608" lon="5.35107">
        <ele>1506.52</ele>
        <time>2014-07-04T09:23:38Z</time>
      </trkpt>
      <trkpt lat="44.89596" lon="5.35084">
        <ele>1503.64</ele>
        <time>2014-07-04T09:23:42Z</time>
      </trkpt>
      <trkpt lat="44.89589" lon="5.35072">
        <ele>1502.2</ele>
        <time>2014-07-04T09:23:44Z</time>
      </trkpt>
      <trkpt lat="44.89585" lon="5.35068">
        <ele>1502.2</ele>
        <time>2014-07-04T09:23:45Z</time>
      </trkpt>
      <trkpt lat="44.89582" lon="5.35063">
        <ele>1501.72</ele>
        <time>2014-07-04T09:23:46Z</time>
      </trkpt>
      <trkpt lat="44.89578" lon="5.35057">
        <ele>1500.76</ele>
        <time>2014-07-04T09:23:47Z</time>
      </trkpt>
      <trkpt lat="44.89575" lon="5.35051">
        <ele>1500.27</ele>
        <time>2014-07-04T09:23:48Z</time>
      </trkpt>
      <trkpt lat="44.89572" lon="5.35044">
        <ele>1499.79</ele>
        <time>2014-07-04T09:23:49Z</time>
      </trkpt>
      <trkpt lat="44.89568" lon="5.35037">
        <ele>1498.83</ele>
        <time>2014-07-04T09:23:50Z</time>
      </trkpt>
      <trkpt lat="44.89561" lon="5.35023">
        <ele>1497.39</ele>
        <time>2014-07-04T09:23:52Z</time>
      </trkpt>
      <trkpt lat="44.89553" lon="5.3501">
        <ele>1496.43</ele>
        <time>2014-07-04T09:23:54Z</time>
      </trkpt>
      <trkpt lat="44.89546" lon="5.34999">
        <ele>1494.99</ele>
        <time>2014-07-04T09:23:56Z</time>
      </trkpt>
      <trkpt lat="44.89501" lon="5.34944">
        <ele>1492.58</ele>
        <time>2014-07-04T09:24:07Z</time>
      </trkpt>
      <trkpt lat="44.89495" lon="5.34935">
        <ele>1492.1</ele>
        <time>2014-07-04T09:24:09Z</time>
      </trkpt>
      <trkpt lat="44.89491" lon="5.34928">
        <ele>1491.62</ele>
        <time>2014-07-04T09:24:10Z</time>
      </trkpt>
      <trkpt lat="44.89475" lon="5.34899">
        <ele>1490.18</ele>
        <time>2014-07-04T09:24:14Z</time>
      </trkpt>
      <trkpt lat="44.89445" lon="5.34837">
        <ele>1491.62</ele>
        <time>2014-07-04T09:24:24Z</time>
      </trkpt>
      <trkpt lat="44.89423" lon="5.34807">
        <ele>1493.55</ele>
        <time>2014-07-04T09:24:34Z</time>
      </trkpt>
      <trkpt lat="44.89404" lon="5.34788">
        <ele>1494.99</ele>
        <time>2014-07-04T09:24:42Z</time>
      </trkpt>
      <trkpt lat="44.89378" lon="5.3475">
        <ele>1493.55</ele>
        <time>2014-07-04T09:24:53Z</time>
      </trkpt>
      <trkpt lat="44.89373" lon="5.3474">
        <ele>1492.1</ele>
        <time>2014-07-04T09:24:55Z</time>
      </trkpt>
      <trkpt lat="44.89363" lon="5.34718">
        <ele>1488.74</ele>
        <time>2014-07-04T09:24:58Z</time>
      </trkpt>
      <trkpt lat="44.89359" lon="5.3471">
        <ele>1487.78</ele>
        <time>2014-07-04T09:24:59Z</time>
      </trkpt>
      <trkpt lat="44.89354" lon="5.34703">
        <ele>1487.78</ele>
        <time>2014-07-04T09:25:00Z</time>
      </trkpt>
      <trkpt lat="44.89352" lon="5.34696">
        <ele>1487.78</ele>
        <time>2014-07-04T09:25:01Z</time>
      </trkpt>
      <trkpt lat="44.89348" lon="5.34681">
        <ele>1488.26</ele>
        <time>2014-07-04T09:25:04Z</time>
      </trkpt>
      <trkpt lat="44.89348" lon="5.34677">
        <ele>1487.3</ele>
        <time>2014-07-04T09:25:05Z</time>
      </trkpt>
      <trkpt lat="44.89349" lon="5.34675">
        <ele>1487.3</ele>
        <time>2014-07-04T09:25:06Z</time>
      </trkpt>
      <trkpt lat="44.8935" lon="5.34672">
        <ele>1486.34</ele>
        <time>2014-07-04T09:25:07Z</time>
      </trkpt>
      <trkpt lat="44.89351" lon="5.34671">
        <ele>1486.34</ele>
        <time>2014-07-04T09:25:08Z</time>
      </trkpt>
      <trkpt lat="44.89351" lon="5.34668">
        <ele>1485.85</ele>
        <time>2014-07-04T09:25:18Z</time>
      </trkpt>
      <trkpt lat="44.89352" lon="5.34666">
        <ele>1485.85</ele>
        <time>2014-07-04T09:25:35Z</time>
      </trkpt>
      <trkpt lat="44.89356" lon="5.34666">
        <ele>1484.89</ele>
        <time>2014-07-04T09:25:49Z</time>
      </trkpt>
      <trkpt lat="44.89359" lon="5.34667">
        <ele>1484.89</ele>
        <time>2014-07-04T09:25:50Z</time>
      </trkpt>
      <trkpt lat="44.89362" lon="5.34668">
        <ele>1483.93</ele>
        <time>2014-07-04T09:25:51Z</time>
      </trkpt>
      <trkpt lat="44.89365" lon="5.3467">
        <ele>1483.45</ele>
        <time>2014-07-04T09:25:52Z</time>
      </trkpt>
      <trkpt lat="44.89368" lon="5.34672">
        <ele>1482.97</ele>
        <time>2014-07-04T09:25:53Z</time>
      </trkpt>
      <trkpt lat="44.89372" lon="5.34674">
        <ele>1482.97</ele>
        <time>2014-07-04T09:25:54Z</time>
      </trkpt>
      <trkpt lat="44.89375" lon="5.34675">
        <ele>1482.01</ele>
        <time>2014-07-04T09:25:55Z</time>
      </trkpt>
      <trkpt lat="44.89392" lon="5.3469">
        <ele>1479.13</ele>
        <time>2014-07-04T09:26:01Z</time>
      </trkpt>
      <trkpt lat="44.89404" lon="5.34702">
        <ele>1476.72</ele>
        <time>2014-07-04T09:26:06Z</time>
      </trkpt>
      <trkpt lat="44.89407" lon="5.34701">
        <ele>1476.24</ele>
        <time>2014-07-04T09:26:07Z</time>
      </trkpt>
      <trkpt lat="44.8941" lon="5.34703">
        <ele>1475.76</ele>
        <time>2014-07-04T09:26:08Z</time>
      </trkpt>
      <trkpt lat="44.89412" lon="5.34705">
        <ele>1475.28</ele>
        <time>2014-07-04T09:26:09Z</time>
      </trkpt>
      <trkpt lat="44.89413" lon="5.34707">
        <ele>1474.8</ele>
        <time>2014-07-04T09:26:10Z</time>
      </trkpt>
      <trkpt lat="44.89414" lon="5.34711">
        <ele>1473.36</ele>
        <time>2014-07-04T09:26:11Z</time>
      </trkpt>
      <trkpt lat="44.89418" lon="5.34727">
        <ele>1469.99</ele>
        <time>2014-07-04T09:26:14Z</time>
      </trkpt>
      <trkpt lat="44.89418" lon="5.3473">
        <ele>1469.51</ele>
        <time>2014-07-04T09:26:15Z</time>
      </trkpt>
      <trkpt lat="44.89421" lon="5.34735">
        <ele>1468.55</ele>
        <time>2014-07-04T09:26:16Z</time>
      </trkpt>
      <trkpt lat="44.89424" lon="5.34755">
        <ele>1466.15</ele>
        <time>2014-07-04T09:26:21Z</time>
      </trkpt>
      <trkpt lat="44.89422" lon="5.3476">
        <ele>1464.71</ele>
        <time>2014-07-04T09:26:22Z</time>
      </trkpt>
      <trkpt lat="44.89418" lon="5.34785">
        <ele>1461.82</ele>
        <time>2014-07-04T09:26:28Z</time>
      </trkpt>
      <trkpt lat="44.89414" lon="5.34803">
        <ele>1458.46</ele>
        <time>2014-07-04T09:26:34Z</time>
      </trkpt>
      <trkpt lat="44.89414" lon="5.34805">
        <ele>1458.46</ele>
        <time>2014-07-04T09:26:35Z</time>
      </trkpt>
      <trkpt lat="44.89531" lon="5.34786">
        <ele>1455.57</ele>
        <time>2014-07-04T09:26:40Z</time>
      </trkpt>
      <trkpt lat="44.89535" lon="5.34789">
        <ele>1455.09</ele>
        <time>2014-07-04T09:26:41Z</time>
      </trkpt>
      <trkpt lat="44.89538" lon="5.34793">
        <ele>1454.13</ele>
        <time>2014-07-04T09:26:42Z</time>
      </trkpt>
      <trkpt lat="44.89542" lon="5.34795">
        <ele>1454.13</ele>
        <time>2014-07-04T09:26:43Z</time>
      </trkpt>
      <trkpt lat="44.89547" lon="5.34798">
        <ele>1453.17</ele>
        <time>2014-07-04T09:26:44Z</time>
      </trkpt>
      <trkpt lat="44.89551" lon="5.34801">
        <ele>1453.17</ele>
        <time>2014-07-04T09:26:45Z</time>
      </trkpt>
      <trkpt lat="44.89555" lon="5.34803">
        <ele>1452.69</ele>
        <time>2014-07-04T09:26:46Z</time>
      </trkpt>
      <trkpt lat="44.89557" lon="5.34805">
        <ele>1451.73</ele>
        <time>2014-07-04T09:26:47Z</time>
      </trkpt>
      <trkpt lat="44.89559" lon="5.34807">
        <ele>1452.21</ele>
        <time>2014-07-04T09:26:48Z</time>
      </trkpt>
      <trkpt lat="44.89563" lon="5.34808">
        <ele>1451.73</ele>
        <time>2014-07-04T09:26:49Z</time>
      </trkpt>
      <trkpt lat="44.89567" lon="5.34809">
        <ele>1451.25</ele>
        <time>2014-07-04T09:26:50Z</time>
      </trkpt>
      <trkpt lat="44.8957" lon="5.3481">
        <ele>1450.77</ele>
        <time>2014-07-04T09:26:51Z</time>
      </trkpt>
      <trkpt lat="44.89579" lon="5.34816">
        <ele>1450.29</ele>
        <time>2014-07-04T09:26:54Z</time>
      </trkpt>
      <trkpt lat="44.8958" lon="5.34819">
        <ele>1449.81</ele>
        <time>2014-07-04T09:26:55Z</time>
      </trkpt>
      <trkpt lat="44.89582" lon="5.34822">
        <ele>1449.32</ele>
        <time>2014-07-04T09:26:56Z</time>
      </trkpt>
      <trkpt lat="44.89584" lon="5.34824">
        <ele>1449.32</ele>
        <time>2014-07-04T09:26:57Z</time>
      </trkpt>
      <trkpt lat="44.89585" lon="5.34827">
        <ele>1448.84</ele>
        <time>2014-07-04T09:26:58Z</time>
      </trkpt>
      <trkpt lat="44.89587" lon="5.34829">
        <ele>1448.84</ele>
        <time>2014-07-04T09:26:59Z</time>
      </trkpt>
      <trkpt lat="44.89589" lon="5.34831">
        <ele>1448.36</ele>
        <time>2014-07-04T09:27:00Z</time>
      </trkpt>
      <trkpt lat="44.89591" lon="5.34833">
        <ele>1448.36</ele>
        <time>2014-07-04T09:27:01Z</time>
      </trkpt>
      <trkpt lat="44.89607" lon="5.34849">
        <ele>1445.48</ele>
        <time>2014-07-04T09:27:06Z</time>
      </trkpt>
      <trkpt lat="44.89615" lon="5.34856">
        <ele>1444.52</ele>
        <time>2014-07-04T09:27:08Z</time>
      </trkpt>
      <trkpt lat="44.89618" lon="5.34857">
        <ele>1443.56</ele>
        <time>2014-07-04T09:27:09Z</time>
      </trkpt>
      <trkpt lat="44.89622" lon="5.3486">
        <ele>1443.08</ele>
        <time>2014-07-04T09:27:10Z</time>
      </trkpt>
      <trkpt lat="44.89626" lon="5.34863">
        <ele>1443.08</ele>
        <time>2014-07-04T09:27:11Z</time>
      </trkpt>
      <trkpt lat="44.8963" lon="5.34865">
        <ele>1442.11</ele>
        <time>2014-07-04T09:27:12Z</time>
      </trkpt>
      <trkpt lat="44.89633" lon="5.34865">
        <ele>1442.11</ele>
        <time>2014-07-04T09:27:13Z</time>
      </trkpt>
      <trkpt lat="44.89638" lon="5.34865">
        <ele>1441.63</ele>
        <time>2014-07-04T09:27:14Z</time>
      </trkpt>
      <trkpt lat="44.89642" lon="5.34866">
        <ele>1440.67</ele>
        <time>2014-07-04T09:27:15Z</time>
      </trkpt>
      <trkpt lat="44.89647" lon="5.34867">
        <ele>1440.19</ele>
        <time>2014-07-04T09:27:16Z</time>
      </trkpt>
      <trkpt lat="44.89653" lon="5.34868">
        <ele>1439.71</ele>
        <time>2014-07-04T09:27:17Z</time>
      </trkpt>
      <trkpt lat="44.89657" lon="5.34868">
        <ele>1439.71</ele>
        <time>2014-07-04T09:27:18Z</time>
      </trkpt>
      <trkpt lat="44.89662" lon="5.34867">
        <ele>1438.75</ele>
        <time>2014-07-04T09:27:19Z</time>
      </trkpt>
      <trkpt lat="44.89687" lon="5.34868">
        <ele>1436.35</ele>
        <time>2014-07-04T09:27:24Z</time>
      </trkpt>
      <trkpt lat="44.89719" lon="5.34866">
        <ele>1433.46</ele>
        <time>2014-07-04T09:27:32Z</time>
      </trkpt>
      <trkpt lat="44.89724" lon="5.34866">
        <ele>1432.02</ele>
        <time>2014-07-04T09:27:33Z</time>
      </trkpt>
      <trkpt lat="44.89729" lon="5.34865">
        <ele>1432.02</ele>
        <time>2014-07-04T09:27:34Z</time>
      </trkpt>
      <trkpt lat="44.89751" lon="5.34861">
        <ele>1430.1</ele>
        <time>2014-07-04T09:27:40Z</time>
      </trkpt>
      <trkpt lat="44.89755" lon="5.34862">
        <ele>1430.1</ele>
        <time>2014-07-04T09:27:41Z</time>
      </trkpt>
      <trkpt lat="44.89759" lon="5.34862">
        <ele>1429.62</ele>
        <time>2014-07-04T09:27:42Z</time>
      </trkpt>
      <trkpt lat="44.89761" lon="5.34862">
        <ele>1429.62</ele>
        <time>2014-07-04T09:27:43Z</time>
      </trkpt>
      <trkpt lat="44.89765" lon="5.34861">
        <ele>1429.14</ele>
        <time>2014-07-04T09:27:44Z</time>
      </trkpt>
      <trkpt lat="44.89768" lon="5.3486">
        <ele>1428.66</ele>
        <time>2014-07-04T09:27:45Z</time>
      </trkpt>
      <trkpt lat="44.89771" lon="5.34859">
        <ele>1428.18</ele>
        <time>2014-07-04T09:27:46Z</time>
      </trkpt>
      <trkpt lat="44.89773" lon="5.34857">
        <ele>1428.18</ele>
        <time>2014-07-04T09:27:47Z</time>
      </trkpt>
      <trkpt lat="44.89775" lon="5.34856">
        <ele>1427.7</ele>
        <time>2014-07-04T09:27:48Z</time>
      </trkpt>
      <trkpt lat="44.89777" lon="5.34855">
        <ele>1427.21</ele>
        <time>2014-07-04T09:27:49Z</time>
      </trkpt>
      <trkpt lat="44.89779" lon="5.34854">
        <ele>1427.21</ele>
        <time>2014-07-04T09:27:50Z</time>
      </trkpt>
      <trkpt lat="44.89781" lon="5.34852">
        <ele>1426.25</ele>
        <time>2014-07-04T09:27:51Z</time>
      </trkpt>
      <trkpt lat="44.89801" lon="5.34842">
        <ele>1423.85</ele>
        <time>2014-07-04T09:27:58Z</time>
      </trkpt>
      <trkpt lat="44.89806" lon="5.3484">
        <ele>1423.85</ele>
        <time>2014-07-04T09:27:59Z</time>
      </trkpt>
      <trkpt lat="44.89836" lon="5.34837">
        <ele>1420.49</ele>
        <time>2014-07-04T09:28:06Z</time>
      </trkpt>
      <trkpt lat="44.89865" lon="5.34845">
        <ele>1417.12</ele>
        <time>2014-07-04T09:28:13Z</time>
      </trkpt>
      <trkpt lat="44.89869" lon="5.34846">
        <ele>1417.12</ele>
        <time>2014-07-04T09:28:14Z</time>
      </trkpt>
      <trkpt lat="44.89881" lon="5.34851">
        <ele>1415.68</ele>
        <time>2014-07-04T09:28:18Z</time>
      </trkpt>
      <trkpt lat="44.89892" lon="5.34865">
        <ele>1413.76</ele>
        <time>2014-07-04T09:28:23Z</time>
      </trkpt>
      <trkpt lat="44.89908" lon="5.34871">
        <ele>1411.35</ele>
        <time>2014-07-04T09:28:29Z</time>
      </trkpt>
      <trkpt lat="44.89911" lon="5.34873">
        <ele>1410.39</ele>
        <time>2014-07-04T09:28:30Z</time>
      </trkpt>
      <trkpt lat="44.89917" lon="5.34876">
        <ele>1409.91</ele>
        <time>2014-07-04T09:28:32Z</time>
      </trkpt>
      <trkpt lat="44.89919" lon="5.34878">
        <ele>1409.43</ele>
        <time>2014-07-04T09:28:33Z</time>
      </trkpt>
      <trkpt lat="44.89928" lon="5.34882">
        <ele>1408.47</ele>
        <time>2014-07-04T09:28:35Z</time>
      </trkpt>
      <trkpt lat="44.89949" lon="5.34888">
        <ele>1405.1</ele>
        <time>2014-07-04T09:28:42Z</time>
      </trkpt>
      <trkpt lat="44.89989" lon="5.34885">
        <ele>1402.22</ele>
        <time>2014-07-04T09:28:50Z</time>
      </trkpt>
      <trkpt lat="44.90026" lon="5.34882">
        <ele>1398.86</ele>
        <time>2014-07-04T09:28:57Z</time>
      </trkpt>
      <trkpt lat="44.90046" lon="5.34889">
        <ele>1395.49</ele>
        <time>2014-07-04T09:29:05Z</time>
      </trkpt>
      <trkpt lat="44.90051" lon="5.34891">
        <ele>1395.49</ele>
        <time>2014-07-04T09:29:07Z</time>
      </trkpt>
      <trkpt lat="44.90055" lon="5.34891">
        <ele>1394.53</ele>
        <time>2014-07-04T09:29:08Z</time>
      </trkpt>
      <trkpt lat="44.90058" lon="5.34891">
        <ele>1394.53</ele>
        <time>2014-07-04T09:29:09Z</time>
      </trkpt>
      <trkpt lat="44.90061" lon="5.34891">
        <ele>1393.57</ele>
        <time>2014-07-04T09:29:10Z</time>
      </trkpt>
      <trkpt lat="44.90066" lon="5.3489">
        <ele>1393.57</ele>
        <time>2014-07-04T09:29:11Z</time>
      </trkpt>
      <trkpt lat="44.9007" lon="5.34888">
        <ele>1393.57</ele>
        <time>2014-07-04T09:29:12Z</time>
      </trkpt>
      <trkpt lat="44.90087" lon="5.34881">
        <ele>1393.09</ele>
        <time>2014-07-04T09:29:23Z</time>
      </trkpt>
      <trkpt lat="44.90092" lon="5.34879">
        <ele>1392.61</ele>
        <time>2014-07-04T09:29:39Z</time>
      </trkpt>
      <trkpt lat="44.90108" lon="5.3489">
        <ele>1389.72</ele>
        <time>2014-07-04T09:29:47Z</time>
      </trkpt>
      <trkpt lat="44.90112" lon="5.34894">
        <ele>1388.76</ele>
        <time>2014-07-04T09:29:48Z</time>
      </trkpt>
      <trkpt lat="44.90117" lon="5.34901">
        <ele>1387.32</ele>
        <time>2014-07-04T09:29:50Z</time>
      </trkpt>
      <trkpt lat="44.9012" lon="5.34914">
        <ele>1385.88</ele>
        <time>2014-07-04T09:29:53Z</time>
      </trkpt>
      <trkpt lat="44.90121" lon="5.34919">
        <ele>1384.92</ele>
        <time>2014-07-04T09:29:54Z</time>
      </trkpt>
      <trkpt lat="44.90129" lon="5.34943">
        <ele>1382.99</ele>
        <time>2014-07-04T09:30:00Z</time>
      </trkpt>
      <trkpt lat="44.90147" lon="5.34955">
        <ele>1379.15</ele>
        <time>2014-07-04T09:30:07Z</time>
      </trkpt>
      <trkpt lat="44.90149" lon="5.34958">
        <ele>1379.15</ele>
        <time>2014-07-04T09:30:08Z</time>
      </trkpt>
      <trkpt lat="44.90152" lon="5.34961">
        <ele>1378.19</ele>
        <time>2014-07-04T09:30:09Z</time>
      </trkpt>
      <trkpt lat="44.90153" lon="5.34963">
        <ele>1377.71</ele>
        <time>2014-07-04T09:30:10Z</time>
      </trkpt>
      <trkpt lat="44.90159" lon="5.34977">
        <ele>1374.34</ele>
        <time>2014-07-04T09:30:15Z</time>
      </trkpt>
      <trkpt lat="44.90159" lon="5.3498">
        <ele>1374.34</ele>
        <time>2014-07-04T09:30:16Z</time>
      </trkpt>
      <trkpt lat="44.90167" lon="5.34986">
        <ele>1372.9</ele>
        <time>2014-07-04T09:30:18Z</time>
      </trkpt>
      <trkpt lat="44.90188" lon="5.3499">
        <ele>1370.98</ele>
        <time>2014-07-04T09:30:22Z</time>
      </trkpt>
      <trkpt lat="44.90189" lon="5.34991">
        <ele>1370.98</ele>
        <time>2014-07-04T09:30:23Z</time>
      </trkpt>
      <trkpt lat="44.90261" lon="5.34968">
        <ele>1369.05</ele>
        <time>2014-07-04T09:30:26Z</time>
      </trkpt>
      <trkpt lat="44.90264" lon="5.3497">
        <ele>1368.57</ele>
        <time>2014-07-04T09:30:27Z</time>
      </trkpt>
      <trkpt lat="44.90275" lon="5.34978">
        <ele>1367.61</ele>
        <time>2014-07-04T09:30:28Z</time>
      </trkpt>
      <trkpt lat="44.90282" lon="5.34983">
        <ele>1366.65</ele>
        <time>2014-07-04T09:30:29Z</time>
      </trkpt>
      <trkpt lat="44.90289" lon="5.34987">
        <ele>1366.65</ele>
        <time>2014-07-04T09:30:30Z</time>
      </trkpt>
      <trkpt lat="44.90304" lon="5.35002">
        <ele>1365.21</ele>
        <time>2014-07-04T09:30:33Z</time>
      </trkpt>
      <trkpt lat="44.90312" lon="5.35008">
        <ele>1364.73</ele>
        <time>2014-07-04T09:30:35Z</time>
      </trkpt>
      <trkpt lat="44.90326" lon="5.35022">
        <ele>1361.36</ele>
        <time>2014-07-04T09:30:39Z</time>
      </trkpt>
      <trkpt lat="44.90329" lon="5.35028">
        <ele>1360.88</ele>
        <time>2014-07-04T09:30:40Z</time>
      </trkpt>
      <trkpt lat="44.90333" lon="5.35034">
        <ele>1360.4</ele>
        <time>2014-07-04T09:30:41Z</time>
      </trkpt>
      <trkpt lat="44.90351" lon="5.35067">
        <ele>1357.04</ele>
        <time>2014-07-04T09:30:45Z</time>
      </trkpt>
      <trkpt lat="44.90371" lon="5.35105">
        <ele>1354.15</ele>
        <time>2014-07-04T09:30:49Z</time>
      </trkpt>
      <trkpt lat="44.90376" lon="5.35113">
        <ele>1354.15</ele>
        <time>2014-07-04T09:30:50Z</time>
      </trkpt>
      <trkpt lat="44.90381" lon="5.3512">
        <ele>1353.67</ele>
        <time>2014-07-04T09:30:51Z</time>
      </trkpt>
      <trkpt lat="44.90398" lon="5.35138">
        <ele>1352.23</ele>
        <time>2014-07-04T09:30:54Z</time>
      </trkpt>
      <trkpt lat="44.90404" lon="5.35142">
        <ele>1351.75</ele>
        <time>2014-07-04T09:30:55Z</time>
      </trkpt>
      <trkpt lat="44.9041" lon="5.35146">
        <ele>1351.27</ele>
        <time>2014-07-04T09:30:56Z</time>
      </trkpt>
      <trkpt lat="44.90423" lon="5.35151">
        <ele>1350.79</ele>
        <time>2014-07-04T09:30:58Z</time>
      </trkpt>
      <trkpt lat="44.90429" lon="5.35155">
        <ele>1350.31</ele>
        <time>2014-07-04T09:30:59Z</time>
      </trkpt>
      <trkpt lat="44.90457" lon="5.35175">
        <ele>1348.39</ele>
        <time>2014-07-04T09:31:06Z</time>
      </trkpt>
      <trkpt lat="44.90478" lon="5.35192">
        <ele>1346.94</ele>
        <time>2014-07-04T09:31:15Z</time>
      </trkpt>
      <trkpt lat="44.90488" lon="5.35196">
        <ele>1347.43</ele>
        <time>2014-07-04T09:31:19Z</time>
      </trkpt>
      <trkpt lat="44.9049" lon="5.35192">
        <ele>1346.46</ele>
        <time>2014-07-04T09:31:30Z</time>
      </trkpt>
      <trkpt lat="44.9049" lon="5.35191">
        <ele>1346.94</ele>
        <time>2014-07-04T09:31:56Z</time>
      </trkpt>
      <trkpt lat="44.9049" lon="5.35193">
        <ele>1350.79</ele>
        <time>2014-07-04T09:32:11Z</time>
      </trkpt>
      <trkpt lat="44.9049" lon="5.35193">
        <ele>1347.43</ele>
        <time>2014-07-04T09:32:12Z</time>
      </trkpt>
      <trkpt lat="44.90492" lon="5.35192">
        <ele>1347.43</ele>
        <time>2014-07-04T09:32:32Z</time>
      </trkpt>
      <trkpt lat="44.90508" lon="5.35149">
        <ele>1345.02</ele>
        <time>2014-07-04T09:32:45Z</time>
      </trkpt>
      <trkpt lat="44.90509" lon="5.35144">
        <ele>1345.02</ele>
        <time>2014-07-04T09:32:46Z</time>
      </trkpt>
      <trkpt lat="44.90519" lon="5.35115">
        <ele>1346.46</ele>
        <time>2014-07-04T09:32:57Z</time>
      </trkpt>
      <trkpt lat="44.90521" lon="5.3511">
        <ele>1346.94</ele>
        <time>2014-07-04T09:33:00Z</time>
      </trkpt>
      <trkpt lat="44.90528" lon="5.35088">
        <ele>1348.87</ele>
        <time>2014-07-04T09:33:14Z</time>
      </trkpt>
      <trkpt lat="44.90527" lon="5.3507">
        <ele>1349.83</ele>
        <time>2014-07-04T09:33:26Z</time>
      </trkpt>
      <trkpt lat="44.90526" lon="5.35067">
        <ele>1350.31</ele>
        <time>2014-07-04T09:33:28Z</time>
      </trkpt>
      <trkpt lat="44.90525" lon="5.35047">
        <ele>1352.71</ele>
        <time>2014-07-04T09:33:42Z</time>
      </trkpt>
      <trkpt lat="44.90524" lon="5.35038">
        <ele>1353.67</ele>
        <time>2014-07-04T09:33:48Z</time>
      </trkpt>
      <trkpt lat="44.90523" lon="5.35033">
        <ele>1354.15</ele>
        <time>2014-07-04T09:33:52Z</time>
      </trkpt>
      <trkpt lat="44.90522" lon="5.35028">
        <ele>1355.12</ele>
        <time>2014-07-04T09:33:56Z</time>
      </trkpt>
      <trkpt lat="44.90516" lon="5.3501">
        <ele>1356.56</ele>
        <time>2014-07-04T09:34:09Z</time>
      </trkpt>
      <trkpt lat="44.90515" lon="5.34995">
        <ele>1358</ele>
        <time>2014-07-04T09:34:21Z</time>
      </trkpt>
      <trkpt lat="44.90512" lon="5.34976">
        <ele>1359.44</ele>
        <time>2014-07-04T09:34:35Z</time>
      </trkpt>
      <trkpt lat="44.9051" lon="5.34963">
        <ele>1360.4</ele>
        <time>2014-07-04T09:34:45Z</time>
      </trkpt>
      <trkpt lat="44.90507" lon="5.34949">
        <ele>1362.33</ele>
        <time>2014-07-04T09:34:57Z</time>
      </trkpt>
      <trkpt lat="44.90504" lon="5.3493">
        <ele>1363.77</ele>
        <time>2014-07-04T09:35:12Z</time>
      </trkpt>
      <trkpt lat="44.90502" lon="5.34923">
        <ele>1364.25</ele>
        <time>2014-07-04T09:35:17Z</time>
      </trkpt>
      <trkpt lat="44.90502" lon="5.34919">
        <ele>1364.25</ele>
        <time>2014-07-04T09:35:20Z</time>
      </trkpt>
      <trkpt lat="44.90501" lon="5.34911">
        <ele>1364.25</ele>
        <time>2014-07-04T09:35:24Z</time>
      </trkpt>
      <trkpt lat="44.905" lon="5.34899">
        <ele>1364.73</ele>
        <time>2014-07-04T09:35:30Z</time>
      </trkpt>
      <trkpt lat="44.90499" lon="5.34892">
        <ele>1365.21</ele>
        <time>2014-07-04T09:35:33Z</time>
      </trkpt>
      <trkpt lat="44.90498" lon="5.3487">
        <ele>1365.21</ele>
        <time>2014-07-04T09:35:45Z</time>
      </trkpt>
      <trkpt lat="44.90498" lon="5.34849">
        <ele>1367.13</ele>
        <time>2014-07-04T09:35:56Z</time>
      </trkpt>
      <trkpt lat="44.90498" lon="5.34836">
        <ele>1369.54</ele>
        <time>2014-07-04T09:36:11Z</time>
      </trkpt>
      <trkpt lat="44.90498" lon="5.34807">
        <ele>1370.5</ele>
        <time>2014-07-04T09:36:24Z</time>
      </trkpt>
      <trkpt lat="44.90497" lon="5.34805">
        <ele>1370.98</ele>
        <time>2014-07-04T09:36:25Z</time>
      </trkpt>
      <trkpt lat="44.90496" lon="5.34773">
        <ele>1371.46</ele>
        <time>2014-07-04T09:36:37Z</time>
      </trkpt>
      <trkpt lat="44.90491" lon="5.34739">
        <ele>1372.42</ele>
        <time>2014-07-04T09:36:51Z</time>
      </trkpt>
      <trkpt lat="44.90485" lon="5.34707">
        <ele>1373.86</ele>
        <time>2014-07-04T09:37:05Z</time>
      </trkpt>
      <trkpt lat="44.90478" lon="5.34675">
        <ele>1374.82</ele>
        <time>2014-07-04T09:37:19Z</time>
      </trkpt>
      <trkpt lat="44.90477" lon="5.3465">
        <ele>1375.78</ele>
        <time>2014-07-04T09:37:30Z</time>
      </trkpt>
      <trkpt lat="44.90476" lon="5.34633">
        <ele>1378.19</ele>
        <time>2014-07-04T09:37:41Z</time>
      </trkpt>
      <trkpt lat="44.90476" lon="5.34618">
        <ele>1379.15</ele>
        <time>2014-07-04T09:37:50Z</time>
      </trkpt>
      <trkpt lat="44.90476" lon="5.34593">
        <ele>1380.59</ele>
        <time>2014-07-04T09:38:07Z</time>
      </trkpt>
      <trkpt lat="44.90476" lon="5.34585">
        <ele>1381.55</ele>
        <time>2014-07-04T09:38:13Z</time>
      </trkpt>
      <trkpt lat="44.90478" lon="5.34562">
        <ele>1382.51</ele>
        <time>2014-07-04T09:38:27Z</time>
      </trkpt>
      <trkpt lat="44.90476" lon="5.34547">
        <ele>1384.44</ele>
        <time>2014-07-04T09:38:36Z</time>
      </trkpt>
      <trkpt lat="44.90474" lon="5.34543">
        <ele>1384.44</ele>
        <time>2014-07-04T09:38:39Z</time>
      </trkpt>
      <trkpt lat="44.90473" lon="5.34513">
        <ele>1386.84</ele>
        <time>2014-07-04T09:38:56Z</time>
      </trkpt>
      <trkpt lat="44.9047" lon="5.34493">
        <ele>1388.28</ele>
        <time>2014-07-04T09:39:09Z</time>
      </trkpt>
      <trkpt lat="44.90469" lon="5.34472">
        <ele>1389.24</ele>
        <time>2014-07-04T09:39:21Z</time>
      </trkpt>
      <trkpt lat="44.90468" lon="5.34446">
        <ele>1391.17</ele>
        <time>2014-07-04T09:39:36Z</time>
      </trkpt>
      <trkpt lat="44.90468" lon="5.34444">
        <ele>1391.65</ele>
        <time>2014-07-04T09:39:37Z</time>
      </trkpt>
      <trkpt lat="44.90465" lon="5.34424">
        <ele>1393.09</ele>
        <time>2014-07-04T09:39:50Z</time>
      </trkpt>
      <trkpt lat="44.90463" lon="5.34411">
        <ele>1395.49</ele>
        <time>2014-07-04T09:40:00Z</time>
      </trkpt>
      <trkpt lat="44.90462" lon="5.34399">
        <ele>1397.41</ele>
        <time>2014-07-04T09:40:10Z</time>
      </trkpt>
      <trkpt lat="44.90459" lon="5.34382">
        <ele>1399.34</ele>
        <time>2014-07-04T09:40:23Z</time>
      </trkpt>
      <trkpt lat="44.90458" lon="5.34361">
        <ele>1400.78</ele>
        <time>2014-07-04T09:40:36Z</time>
      </trkpt>
      <trkpt lat="44.90456" lon="5.34345">
        <ele>1402.22</ele>
        <time>2014-07-04T09:40:50Z</time>
      </trkpt>
      <trkpt lat="44.90458" lon="5.3433">
        <ele>1403.66</ele>
        <time>2014-07-04T09:41:01Z</time>
      </trkpt>
      <trkpt lat="44.90459" lon="5.34327">
        <ele>1404.14</ele>
        <time>2014-07-04T09:41:03Z</time>
      </trkpt>
      <trkpt lat="44.90459" lon="5.34306">
        <ele>1406.55</ele>
        <time>2014-07-04T09:41:15Z</time>
      </trkpt>
      <trkpt lat="44.90462" lon="5.34294">
        <ele>1408.47</ele>
        <time>2014-07-04T09:41:28Z</time>
      </trkpt>
      <trkpt lat="44.90464" lon="5.34278">
        <ele>1409.91</ele>
        <time>2014-07-04T09:41:40Z</time>
      </trkpt>
      <trkpt lat="44.90466" lon="5.34265">
        <ele>1411.83</ele>
        <time>2014-07-04T09:41:51Z</time>
      </trkpt>
      <trkpt lat="44.90467" lon="5.34258">
        <ele>1412.31</ele>
        <time>2014-07-04T09:41:56Z</time>
      </trkpt>
      <trkpt lat="44.90467" lon="5.34255">
        <ele>1412.79</ele>
        <time>2014-07-04T09:41:58Z</time>
      </trkpt>
      <trkpt lat="44.90473" lon="5.34237">
        <ele>1414.24</ele>
        <time>2014-07-04T09:42:13Z</time>
      </trkpt>
      <trkpt lat="44.90475" lon="5.34219">
        <ele>1415.68</ele>
        <time>2014-07-04T09:42:25Z</time>
      </trkpt>
      <trkpt lat="44.90482" lon="5.342">
        <ele>1418.08</ele>
        <time>2014-07-04T09:42:40Z</time>
      </trkpt>
      <trkpt lat="44.90486" lon="5.3419">
        <ele>1419.52</ele>
        <time>2014-07-04T09:42:47Z</time>
      </trkpt>
      <trkpt lat="44.90488" lon="5.34182">
        <ele>1420.49</ele>
        <time>2014-07-04T09:42:54Z</time>
      </trkpt>
      <trkpt lat="44.90489" lon="5.34174">
        <ele>1420.97</ele>
        <time>2014-07-04T09:43:09Z</time>
      </trkpt>
      <trkpt lat="44.90491" lon="5.34172">
        <ele>1420.97</ele>
        <time>2014-07-04T09:43:33Z</time>
      </trkpt>
      <trkpt lat="44.9049" lon="5.34171">
        <ele>1420</ele>
        <time>2014-07-04T09:44:04Z</time>
      </trkpt>
      <trkpt lat="44.90492" lon="5.3416">
        <ele>1420</ele>
        <time>2014-07-04T09:44:30Z</time>
      </trkpt>
      <trkpt lat="44.90493" lon="5.34146">
        <ele>1419.04</ele>
        <time>2014-07-04T09:44:33Z</time>
      </trkpt>
      <trkpt lat="44.90494" lon="5.34139">
        <ele>1418.56</ele>
        <time>2014-07-04T09:44:34Z</time>
      </trkpt>
      <trkpt lat="44.90499" lon="5.341">
        <ele>1417.6</ele>
        <time>2014-07-04T09:44:40Z</time>
      </trkpt>
      <trkpt lat="44.90501" lon="5.34093">
        <ele>1417.6</ele>
        <time>2014-07-04T09:44:41Z</time>
      </trkpt>
      <trkpt lat="44.90505" lon="5.34042">
        <ele>1416.64</ele>
        <time>2014-07-04T09:44:50Z</time>
      </trkpt>
      <trkpt lat="44.90508" lon="5.34001">
        <ele>1417.6</ele>
        <time>2014-07-04T09:44:59Z</time>
      </trkpt>
      <trkpt lat="44.90512" lon="5.33975">
        <ele>1418.56</ele>
        <time>2014-07-04T09:45:10Z</time>
      </trkpt>
      <trkpt lat="44.90515" lon="5.33951">
        <ele>1418.56</ele>
        <time>2014-07-04T09:45:21Z</time>
      </trkpt>
      <trkpt lat="44.90516" lon="5.33948">
        <ele>1418.56</ele>
        <time>2014-07-04T09:45:23Z</time>
      </trkpt>
      <trkpt lat="44.90516" lon="5.33947">
        <ele>1418.56</ele>
        <time>2014-07-04T09:45:24Z</time>
      </trkpt>
      <trkpt lat="44.90516" lon="5.33945">
        <ele>1418.56</ele>
        <time>2014-07-04T09:45:25Z</time>
      </trkpt>
      <trkpt lat="44.90516" lon="5.33943">
        <ele>1418.56</ele>
        <time>2014-07-04T09:45:26Z</time>
      </trkpt>
      <trkpt lat="44.90516" lon="5.33942">
        <ele>1419.52</ele>
        <time>2014-07-04T09:45:27Z</time>
      </trkpt>
      <trkpt lat="44.90516" lon="5.33921">
        <ele>1421.45</ele>
        <time>2014-07-04T09:45:41Z</time>
      </trkpt>
      <trkpt lat="44.90518" lon="5.33914">
        <ele>1422.41</ele>
        <time>2014-07-04T09:45:45Z</time>
      </trkpt>
      <trkpt lat="44.90519" lon="5.3391">
        <ele>1422.89</ele>
        <time>2014-07-04T09:45:47Z</time>
      </trkpt>
      <trkpt lat="44.90519" lon="5.33907">
        <ele>1423.37</ele>
        <time>2014-07-04T09:45:50Z</time>
      </trkpt>
      <trkpt lat="44.9052" lon="5.33903">
        <ele>1424.33</ele>
        <time>2014-07-04T09:45:52Z</time>
      </trkpt>
      <trkpt lat="44.9052" lon="5.339">
        <ele>1425.29</ele>
        <time>2014-07-04T09:45:54Z</time>
      </trkpt>
      <trkpt lat="44.90524" lon="5.33886">
        <ele>1428.18</ele>
        <time>2014-07-04T09:46:05Z</time>
      </trkpt>
      <trkpt lat="44.9053" lon="5.33867">
        <ele>1429.14</ele>
        <time>2014-07-04T09:46:18Z</time>
      </trkpt>
      <trkpt lat="44.90535" lon="5.33855">
        <ele>1429.62</ele>
        <time>2014-07-04T09:46:28Z</time>
      </trkpt>
      <trkpt lat="44.9054" lon="5.33835">
        <ele>1432.02</ele>
        <time>2014-07-04T09:46:40Z</time>
      </trkpt>
      <trkpt lat="44.90546" lon="5.33814">
        <ele>1432.5</ele>
        <time>2014-07-04T09:46:51Z</time>
      </trkpt>
      <trkpt lat="44.90553" lon="5.33792">
        <ele>1434.42</ele>
        <time>2014-07-04T09:47:03Z</time>
      </trkpt>
      <trkpt lat="44.90554" lon="5.33776">
        <ele>1437.31</ele>
        <time>2014-07-04T09:47:13Z</time>
      </trkpt>
      <trkpt lat="44.90558" lon="5.3375">
        <ele>1438.27</ele>
        <time>2014-07-04T09:47:27Z</time>
      </trkpt>
      <trkpt lat="44.90562" lon="5.3372">
        <ele>1438.75</ele>
        <time>2014-07-04T09:47:43Z</time>
      </trkpt>
      <trkpt lat="44.90564" lon="5.33703">
        <ele>1438.75</ele>
        <time>2014-07-04T09:47:52Z</time>
      </trkpt>
      <trkpt lat="44.90565" lon="5.33702">
        <ele>1438.75</ele>
        <time>2014-07-04T09:47:53Z</time>
      </trkpt>
      <trkpt lat="44.90566" lon="5.33696">
        <ele>1439.71</ele>
        <time>2014-07-04T09:47:57Z</time>
      </trkpt>
      <trkpt lat="44.90567" lon="5.33693">
        <ele>1439.71</ele>
        <time>2014-07-04T09:47:58Z</time>
      </trkpt>
      <trkpt lat="44.90568" lon="5.33685">
        <ele>1438.27</ele>
        <time>2014-07-04T09:48:03Z</time>
      </trkpt>
      <trkpt lat="44.90568" lon="5.33682">
        <ele>1439.71</ele>
        <time>2014-07-04T09:48:05Z</time>
      </trkpt>
      <trkpt lat="44.90569" lon="5.33678">
        <ele>1439.71</ele>
        <time>2014-07-04T09:48:08Z</time>
      </trkpt>
      <trkpt lat="44.9057" lon="5.33666">
        <ele>1439.23</ele>
        <time>2014-07-04T09:48:19Z</time>
      </trkpt>
      <trkpt lat="44.90571" lon="5.33658">
        <ele>1439.71</ele>
        <time>2014-07-04T09:48:25Z</time>
      </trkpt>
      <trkpt lat="44.90572" lon="5.33658">
        <ele>1439.71</ele>
        <time>2014-07-04T09:48:26Z</time>
      </trkpt>
      <trkpt lat="44.90573" lon="5.33659">
        <ele>1439.23</ele>
        <time>2014-07-04T09:48:27Z</time>
      </trkpt>
      <trkpt lat="44.90573" lon="5.33659">
        <ele>1439.23</ele>
        <time>2014-07-04T09:48:28Z</time>
      </trkpt>
      <trkpt lat="44.90575" lon="5.33661">
        <ele>1439.23</ele>
        <time>2014-07-04T09:48:30Z</time>
      </trkpt>
      <trkpt lat="44.90578" lon="5.33662">
        <ele>1438.75</ele>
        <time>2014-07-04T09:48:34Z</time>
      </trkpt>
      <trkpt lat="44.90578" lon="5.33659">
        <ele>1440.19</ele>
        <time>2014-07-04T09:48:36Z</time>
      </trkpt>
      <trkpt lat="44.90577" lon="5.33659">
        <ele>1439.71</ele>
        <time>2014-07-04T09:48:37Z</time>
      </trkpt>
      <trkpt lat="44.90576" lon="5.3366">
        <ele>1439.23</ele>
        <time>2014-07-04T09:48:38Z</time>
      </trkpt>
      <trkpt lat="44.90574" lon="5.3366">
        <ele>1440.19</ele>
        <time>2014-07-04T09:48:39Z</time>
      </trkpt>
      <trkpt lat="44.9057" lon="5.33651">
        <ele>1439.71</ele>
        <time>2014-07-04T09:48:49Z</time>
      </trkpt>
      <trkpt lat="44.9057" lon="5.3365">
        <ele>1439.71</ele>
        <time>2014-07-04T09:48:50Z</time>
      </trkpt>
      <trkpt lat="44.90571" lon="5.33646">
        <ele>1440.19</ele>
        <time>2014-07-04T09:49:03Z</time>
      </trkpt>
      <trkpt lat="44.9057" lon="5.33647">
        <ele>1439.71</ele>
        <time>2014-07-04T09:49:38Z</time>
      </trkpt>
      <trkpt lat="44.90569" lon="5.33641">
        <ele>1440.19</ele>
        <time>2014-07-04T09:50:12Z</time>
      </trkpt>
      <trkpt lat="44.90571" lon="5.33639">
        <ele>1440.67</ele>
        <time>2014-07-04T09:50:48Z</time>
      </trkpt>
      <trkpt lat="44.90573" lon="5.33638">
        <ele>1440.19</ele>
        <time>2014-07-04T09:51:21Z</time>
      </trkpt>
      <trkpt lat="44.90575" lon="5.33638">
        <ele>1440.19</ele>
        <time>2014-07-04T09:51:52Z</time>
      </trkpt>
      <trkpt lat="44.90572" lon="5.33632">
        <ele>1440.19</ele>
        <time>2014-07-04T09:52:31Z</time>
      </trkpt>
      <trkpt lat="44.9057" lon="5.33632">
        <ele>1440.19</ele>
        <time>2014-07-04T09:53:04Z</time>
      </trkpt>
      <trkpt lat="44.90571" lon="5.33634">
        <ele>1439.71</ele>
        <time>2014-07-04T09:53:38Z</time>
      </trkpt>
      <trkpt lat="44.90572" lon="5.33635">
        <ele>1439.71</ele>
        <time>2014-07-04T09:54:14Z</time>
      </trkpt>
      <trkpt lat="44.90572" lon="5.33636">
        <ele>1439.71</ele>
        <time>2014-07-04T09:54:47Z</time>
      </trkpt>
      <trkpt lat="44.90572" lon="5.33633">
        <ele>1440.67</ele>
        <time>2014-07-04T09:55:20Z</time>
      </trkpt>
      <trkpt lat="44.9058" lon="5.33629">
        <ele>1441.63</ele>
        <time>2014-07-04T09:55:33Z</time>
      </trkpt>
      <trkpt lat="44.90584" lon="5.33603">
        <ele>1443.08</ele>
        <time>2014-07-04T09:55:45Z</time>
      </trkpt>
      <trkpt lat="44.9059" lon="5.33571">
        <ele>1443.08</ele>
        <time>2014-07-04T09:55:55Z</time>
      </trkpt>
      <trkpt lat="44.90604" lon="5.33522">
        <ele>1442.11</ele>
        <time>2014-07-04T09:56:07Z</time>
      </trkpt>
      <trkpt lat="44.9062" lon="5.33506">
        <ele>1441.15</ele>
        <time>2014-07-04T09:56:11Z</time>
      </trkpt>
      <trkpt lat="44.90625" lon="5.33503">
        <ele>1440.67</ele>
        <time>2014-07-04T09:56:12Z</time>
      </trkpt>
      <trkpt lat="44.90631" lon="5.335">
        <ele>1440.67</ele>
        <time>2014-07-04T09:56:13Z</time>
      </trkpt>
      <trkpt lat="44.90637" lon="5.33498">
        <ele>1440.67</ele>
        <time>2014-07-04T09:56:14Z</time>
      </trkpt>
      <trkpt lat="44.90644" lon="5.33496">
        <ele>1439.71</ele>
        <time>2014-07-04T09:56:15Z</time>
      </trkpt>
      <trkpt lat="44.90652" lon="5.33496">
        <ele>1438.75</ele>
        <time>2014-07-04T09:56:16Z</time>
      </trkpt>
      <trkpt lat="44.9066" lon="5.33497">
        <ele>1438.27</ele>
        <time>2014-07-04T09:56:17Z</time>
      </trkpt>
      <trkpt lat="44.90667" lon="5.33497">
        <ele>1438.27</ele>
        <time>2014-07-04T09:56:18Z</time>
      </trkpt>
      <trkpt lat="44.90676" lon="5.33497">
        <ele>1437.31</ele>
        <time>2014-07-04T09:56:19Z</time>
      </trkpt>
      <trkpt lat="44.90684" lon="5.33498">
        <ele>1437.31</ele>
        <time>2014-07-04T09:56:20Z</time>
      </trkpt>
      <trkpt lat="44.90702" lon="5.33499">
        <ele>1435.87</ele>
        <time>2014-07-04T09:56:22Z</time>
      </trkpt>
      <trkpt lat="44.90731" lon="5.33497">
        <ele>1433.46</ele>
        <time>2014-07-04T09:56:25Z</time>
      </trkpt>
      <trkpt lat="44.9074" lon="5.33494">
        <ele>1433.46</ele>
        <time>2014-07-04T09:56:26Z</time>
      </trkpt>
      <trkpt lat="44.9075" lon="5.33488">
        <ele>1432.02</ele>
        <time>2014-07-04T09:56:27Z</time>
      </trkpt>
      <trkpt lat="44.90759" lon="5.3348">
        <ele>1431.54</ele>
        <time>2014-07-04T09:56:28Z</time>
      </trkpt>
      <trkpt lat="44.90768" lon="5.33471">
        <ele>1430.1</ele>
        <time>2014-07-04T09:56:29Z</time>
      </trkpt>
      <trkpt lat="44.90777" lon="5.33461">
        <ele>1430.1</ele>
        <time>2014-07-04T09:56:30Z</time>
      </trkpt>
      <trkpt lat="44.90802" lon="5.3343">
        <ele>1428.18</ele>
        <time>2014-07-04T09:56:33Z</time>
      </trkpt>
      <trkpt lat="44.90862" lon="5.33368">
        <ele>1426.25</ele>
        <time>2014-07-04T09:56:40Z</time>
      </trkpt>
      <trkpt lat="44.90869" lon="5.33358">
        <ele>1426.25</ele>
        <time>2014-07-04T09:56:41Z</time>
      </trkpt>
      <trkpt lat="44.90874" lon="5.33346">
        <ele>1426.25</ele>
        <time>2014-07-04T09:56:42Z</time>
      </trkpt>
      <trkpt lat="44.90878" lon="5.33334">
        <ele>1424.33</ele>
        <time>2014-07-04T09:56:43Z</time>
      </trkpt>
      <trkpt lat="44.90881" lon="5.33321">
        <ele>1425.29</ele>
        <time>2014-07-04T09:56:44Z</time>
      </trkpt>
      <trkpt lat="44.90884" lon="5.33307">
        <ele>1423.37</ele>
        <time>2014-07-04T09:56:45Z</time>
      </trkpt>
      <trkpt lat="44.90888" lon="5.33295">
        <ele>1423.37</ele>
        <time>2014-07-04T09:56:46Z</time>
      </trkpt>
      <trkpt lat="44.90893" lon="5.33283">
        <ele>1423.37</ele>
        <time>2014-07-04T09:56:47Z</time>
      </trkpt>
      <trkpt lat="44.90901" lon="5.33274">
        <ele>1423.37</ele>
        <time>2014-07-04T09:56:48Z</time>
      </trkpt>
      <trkpt lat="44.90909" lon="5.33267">
        <ele>1422.41</ele>
        <time>2014-07-04T09:56:49Z</time>
      </trkpt>
      <trkpt lat="44.90919" lon="5.33263">
        <ele>1421.93</ele>
        <time>2014-07-04T09:56:50Z</time>
      </trkpt>
      <trkpt lat="44.90929" lon="5.33262">
        <ele>1421.93</ele>
        <time>2014-07-04T09:56:51Z</time>
      </trkpt>
      <trkpt lat="44.9094" lon="5.33262">
        <ele>1421.45</ele>
        <time>2014-07-04T09:56:52Z</time>
      </trkpt>
      <trkpt lat="44.9095" lon="5.33264">
        <ele>1420.97</ele>
        <time>2014-07-04T09:56:53Z</time>
      </trkpt>
      <trkpt lat="44.90959" lon="5.33266">
        <ele>1421.45</ele>
        <time>2014-07-04T09:56:54Z</time>
      </trkpt>
      <trkpt lat="44.90966" lon="5.33266">
        <ele>1420.97</ele>
        <time>2014-07-04T09:56:55Z</time>
      </trkpt>
      <trkpt lat="44.90973" lon="5.33265">
        <ele>1420.49</ele>
        <time>2014-07-04T09:56:56Z</time>
      </trkpt>
      <trkpt lat="44.9098" lon="5.33262">
        <ele>1420</ele>
        <time>2014-07-04T09:56:57Z</time>
      </trkpt>
      <trkpt lat="44.90986" lon="5.33257">
        <ele>1420</ele>
        <time>2014-07-04T09:56:58Z</time>
      </trkpt>
      <trkpt lat="44.90992" lon="5.3325">
        <ele>1419.52</ele>
        <time>2014-07-04T09:56:59Z</time>
      </trkpt>
      <trkpt lat="44.90997" lon="5.33242">
        <ele>1419.52</ele>
        <time>2014-07-04T09:57:00Z</time>
      </trkpt>
      <trkpt lat="44.91001" lon="5.33233">
        <ele>1419.04</ele>
        <time>2014-07-04T09:57:01Z</time>
      </trkpt>
      <trkpt lat="44.91005" lon="5.33225">
        <ele>1418.56</ele>
        <time>2014-07-04T09:57:02Z</time>
      </trkpt>
      <trkpt lat="44.91013" lon="5.33209">
        <ele>1418.08</ele>
        <time>2014-07-04T09:57:04Z</time>
      </trkpt>
      <trkpt lat="44.91018" lon="5.33201">
        <ele>1417.6</ele>
        <time>2014-07-04T09:57:05Z</time>
      </trkpt>
      <trkpt lat="44.91024" lon="5.33196">
        <ele>1417.12</ele>
        <time>2014-07-04T09:57:06Z</time>
      </trkpt>
      <trkpt lat="44.91031" lon="5.33191">
        <ele>1416.64</ele>
        <time>2014-07-04T09:57:07Z</time>
      </trkpt>
      <trkpt lat="44.91038" lon="5.33188">
        <ele>1417.12</ele>
        <time>2014-07-04T09:57:08Z</time>
      </trkpt>
      <trkpt lat="44.91045" lon="5.33186">
        <ele>1416.64</ele>
        <time>2014-07-04T09:57:09Z</time>
      </trkpt>
      <trkpt lat="44.91051" lon="5.33185">
        <ele>1416.16</ele>
        <time>2014-07-04T09:57:10Z</time>
      </trkpt>
      <trkpt lat="44.91078" lon="5.33175">
        <ele>1416.16</ele>
        <time>2014-07-04T09:57:18Z</time>
      </trkpt>
      <trkpt lat="44.91082" lon="5.33176">
        <ele>1415.2</ele>
        <time>2014-07-04T09:57:20Z</time>
      </trkpt>
      <trkpt lat="44.91084" lon="5.33178">
        <ele>1415.68</ele>
        <time>2014-07-04T09:57:21Z</time>
      </trkpt>
      <trkpt lat="44.91085" lon="5.33181">
        <ele>1415.2</ele>
        <time>2014-07-04T09:57:22Z</time>
      </trkpt>
      <trkpt lat="44.91085" lon="5.33184">
        <ele>1414.72</ele>
        <time>2014-07-04T09:57:23Z</time>
      </trkpt>
      <trkpt lat="44.91084" lon="5.33187">
        <ele>1415.2</ele>
        <time>2014-07-04T09:57:24Z</time>
      </trkpt>
      <trkpt lat="44.91084" lon="5.3319">
        <ele>1415.2</ele>
        <time>2014-07-04T09:57:25Z</time>
      </trkpt>
      <trkpt lat="44.91075" lon="5.33209">
        <ele>1414.24</ele>
        <time>2014-07-04T09:57:29Z</time>
      </trkpt>
      <trkpt lat="44.91064" lon="5.33235">
        <ele>1412.31</ele>
        <time>2014-07-04T09:57:33Z</time>
      </trkpt>
      <trkpt lat="44.91063" lon="5.33243">
        <ele>1411.83</ele>
        <time>2014-07-04T09:57:34Z</time>
      </trkpt>
      <trkpt lat="44.91059" lon="5.33267">
        <ele>1411.83</ele>
        <time>2014-07-04T09:57:37Z</time>
      </trkpt>
      <trkpt lat="44.91059" lon="5.33273">
        <ele>1411.83</ele>
        <time>2014-07-04T09:57:38Z</time>
      </trkpt>
      <trkpt lat="44.91062" lon="5.33323">
        <ele>1411.83</ele>
        <time>2014-07-04T09:57:49Z</time>
      </trkpt>
      <trkpt lat="44.91055" lon="5.33348">
        <ele>1410.39</ele>
        <time>2014-07-04T09:57:55Z</time>
      </trkpt>
      <trkpt lat="44.91054" lon="5.33356">
        <ele>1410.39</ele>
        <time>2014-07-04T09:57:56Z</time>
      </trkpt>
      <trkpt lat="44.91055" lon="5.33365">
        <ele>1410.39</ele>
        <time>2014-07-04T09:57:57Z</time>
      </trkpt>
      <trkpt lat="44.91057" lon="5.33386">
        <ele>1409.91</ele>
        <time>2014-07-04T09:57:59Z</time>
      </trkpt>
      <trkpt lat="44.91059" lon="5.33395">
        <ele>1409.43</ele>
        <time>2014-07-04T09:58:00Z</time>
      </trkpt>
      <trkpt lat="44.91062" lon="5.33403">
        <ele>1409.43</ele>
        <time>2014-07-04T09:58:01Z</time>
      </trkpt>
      <trkpt lat="44.91089" lon="5.33441">
        <ele>1411.35</ele>
        <time>2014-07-04T09:58:11Z</time>
      </trkpt>
      <trkpt lat="44.91128" lon="5.33461">
        <ele>1411.35</ele>
        <time>2014-07-04T09:58:25Z</time>
      </trkpt>
      <trkpt lat="44.91144" lon="5.33467">
        <ele>1410.39</ele>
        <time>2014-07-04T09:58:29Z</time>
      </trkpt>
      <trkpt lat="44.91195" lon="5.33491">
        <ele>1410.87</ele>
        <time>2014-07-04T09:58:42Z</time>
      </trkpt>
      <trkpt lat="44.91242" lon="5.33495">
        <ele>1408.95</ele>
        <time>2014-07-04T09:58:51Z</time>
      </trkpt>
      <trkpt lat="44.91283" lon="5.33481">
        <ele>1408.47</ele>
        <time>2014-07-04T09:58:58Z</time>
      </trkpt>
      <trkpt lat="44.91288" lon="5.3348">
        <ele>1408.95</ele>
        <time>2014-07-04T09:58:59Z</time>
      </trkpt>
      <trkpt lat="44.91293" lon="5.33477">
        <ele>1408.95</ele>
        <time>2014-07-04T09:59:00Z</time>
      </trkpt>
      <trkpt lat="44.91297" lon="5.33475">
        <ele>1408.95</ele>
        <time>2014-07-04T09:59:01Z</time>
      </trkpt>
      <trkpt lat="44.913" lon="5.33473">
        <ele>1408.95</ele>
        <time>2014-07-04T09:59:02Z</time>
      </trkpt>
      <trkpt lat="44.91304" lon="5.33472">
        <ele>1408.95</ele>
        <time>2014-07-04T09:59:03Z</time>
      </trkpt>
      <trkpt lat="44.91309" lon="5.3347">
        <ele>1408.95</ele>
        <time>2014-07-04T09:59:04Z</time>
      </trkpt>
      <trkpt lat="44.91313" lon="5.33468">
        <ele>1408.47</ele>
        <time>2014-07-04T09:59:05Z</time>
      </trkpt>
      <trkpt lat="44.91318" lon="5.33466">
        <ele>1407.99</ele>
        <time>2014-07-04T09:59:06Z</time>
      </trkpt>
      <trkpt lat="44.91323" lon="5.33464">
        <ele>1407.51</ele>
        <time>2014-07-04T09:59:07Z</time>
      </trkpt>
      <trkpt lat="44.91328" lon="5.33463">
        <ele>1407.51</ele>
        <time>2014-07-04T09:59:08Z</time>
      </trkpt>
      <trkpt lat="44.91355" lon="5.3346">
        <ele>1405.58</ele>
        <time>2014-07-04T09:59:12Z</time>
      </trkpt>
      <trkpt lat="44.91363" lon="5.33462">
        <ele>1404.62</ele>
        <time>2014-07-04T09:59:13Z</time>
      </trkpt>
      <trkpt lat="44.91369" lon="5.33464">
        <ele>1404.62</ele>
        <time>2014-07-04T09:59:14Z</time>
      </trkpt>
      <trkpt lat="44.91376" lon="5.33467">
        <ele>1405.1</ele>
        <time>2014-07-04T09:59:15Z</time>
      </trkpt>
      <trkpt lat="44.91381" lon="5.33471">
        <ele>1406.07</ele>
        <time>2014-07-04T09:59:16Z</time>
      </trkpt>
      <trkpt lat="44.91386" lon="5.33473">
        <ele>1406.07</ele>
        <time>2014-07-04T09:59:17Z</time>
      </trkpt>
      <trkpt lat="44.91439" lon="5.33517">
        <ele>1407.51</ele>
        <time>2014-07-04T09:59:31Z</time>
      </trkpt>
      <trkpt lat="44.91474" lon="5.33546">
        <ele>1406.55</ele>
        <time>2014-07-04T09:59:44Z</time>
      </trkpt>
      <trkpt lat="44.91484" lon="5.33557">
        <ele>1405.58</ele>
        <time>2014-07-04T09:59:47Z</time>
      </trkpt>
      <trkpt lat="44.91506" lon="5.33592">
        <ele>1405.1</ele>
        <time>2014-07-04T09:59:54Z</time>
      </trkpt>
      <trkpt lat="44.91515" lon="5.33645">
        <ele>1406.07</ele>
        <time>2014-07-04T10:00:06Z</time>
      </trkpt>
      <trkpt lat="44.91521" lon="5.33674">
        <ele>1407.03</ele>
        <time>2014-07-04T10:00:16Z</time>
      </trkpt>
      <trkpt lat="44.91528" lon="5.33692">
        <ele>1409.91</ele>
        <time>2014-07-04T10:00:29Z</time>
      </trkpt>
      <trkpt lat="44.91533" lon="5.33696">
        <ele>1410.39</ele>
        <time>2014-07-04T10:00:33Z</time>
      </trkpt>
      <trkpt lat="44.91535" lon="5.33697">
        <ele>1411.35</ele>
        <time>2014-07-04T10:00:34Z</time>
      </trkpt>
      <trkpt lat="44.91536" lon="5.33698">
        <ele>1410.87</ele>
        <time>2014-07-04T10:00:35Z</time>
      </trkpt>
      <trkpt lat="44.91537" lon="5.33699">
        <ele>1410.87</ele>
        <time>2014-07-04T10:00:36Z</time>
      </trkpt>
      <trkpt lat="44.91538" lon="5.33699">
        <ele>1411.35</ele>
        <time>2014-07-04T10:00:37Z</time>
      </trkpt>
      <trkpt lat="44.91539" lon="5.33699">
        <ele>1411.35</ele>
        <time>2014-07-04T10:00:38Z</time>
      </trkpt>
      <trkpt lat="44.9154" lon="5.337">
        <ele>1410.87</ele>
        <time>2014-07-04T10:00:39Z</time>
      </trkpt>
      <trkpt lat="44.91541" lon="5.337">
        <ele>1411.35</ele>
        <time>2014-07-04T10:00:40Z</time>
      </trkpt>
      <trkpt lat="44.91542" lon="5.33701">
        <ele>1411.35</ele>
        <time>2014-07-04T10:00:41Z</time>
      </trkpt>
      <trkpt lat="44.91556" lon="5.33711">
        <ele>1411.83</ele>
        <time>2014-07-04T10:00:54Z</time>
      </trkpt>
      <trkpt lat="44.91565" lon="5.33717">
        <ele>1414.24</ele>
        <time>2014-07-04T10:01:06Z</time>
      </trkpt>
      <trkpt lat="44.91577" lon="5.33719">
        <ele>1415.68</ele>
        <time>2014-07-04T10:01:19Z</time>
      </trkpt>
      <trkpt lat="44.9158" lon="5.3372">
        <ele>1415.68</ele>
        <time>2014-07-04T10:01:21Z</time>
      </trkpt>
      <trkpt lat="44.91581" lon="5.33721">
        <ele>1415.68</ele>
        <time>2014-07-04T10:01:22Z</time>
      </trkpt>
      <trkpt lat="44.91584" lon="5.33723">
        <ele>1416.64</ele>
        <time>2014-07-04T10:01:25Z</time>
      </trkpt>
      <trkpt lat="44.91602" lon="5.33724">
        <ele>1417.6</ele>
        <time>2014-07-04T10:01:39Z</time>
      </trkpt>
      <trkpt lat="44.91614" lon="5.3373">
        <ele>1418.56</ele>
        <time>2014-07-04T10:01:52Z</time>
      </trkpt>
      <trkpt lat="44.91627" lon="5.33738">
        <ele>1420.49</ele>
        <time>2014-07-04T10:02:06Z</time>
      </trkpt>
      <trkpt lat="44.9164" lon="5.33741">
        <ele>1422.89</ele>
        <time>2014-07-04T10:02:17Z</time>
      </trkpt>
      <trkpt lat="44.91643" lon="5.33742">
        <ele>1423.37</ele>
        <time>2014-07-04T10:02:20Z</time>
      </trkpt>
      <trkpt lat="44.91657" lon="5.33747">
        <ele>1424.81</ele>
        <time>2014-07-04T10:02:33Z</time>
      </trkpt>
      <trkpt lat="44.91658" lon="5.33749">
        <ele>1425.29</ele>
        <time>2014-07-04T10:02:35Z</time>
      </trkpt>
      <trkpt lat="44.91664" lon="5.33754">
        <ele>1425.77</ele>
        <time>2014-07-04T10:02:43Z</time>
      </trkpt>
      <trkpt lat="44.91664" lon="5.33755">
        <ele>1426.25</ele>
        <time>2014-07-04T10:02:44Z</time>
      </trkpt>
      <trkpt lat="44.91665" lon="5.33758">
        <ele>1426.73</ele>
        <time>2014-07-04T10:02:46Z</time>
      </trkpt>
      <trkpt lat="44.91667" lon="5.33758">
        <ele>1427.21</ele>
        <time>2014-07-04T10:02:48Z</time>
      </trkpt>
      <trkpt lat="44.91669" lon="5.3376">
        <ele>1427.21</ele>
        <time>2014-07-04T10:02:50Z</time>
      </trkpt>
      <trkpt lat="44.91669" lon="5.33762">
        <ele>1427.7</ele>
        <time>2014-07-04T10:02:51Z</time>
      </trkpt>
      <trkpt lat="44.91671" lon="5.33781">
        <ele>1429.62</ele>
        <time>2014-07-04T10:03:05Z</time>
      </trkpt>
      <trkpt lat="44.91671" lon="5.33782">
        <ele>1429.62</ele>
        <time>2014-07-04T10:03:06Z</time>
      </trkpt>
      <trkpt lat="44.91671" lon="5.33784">
        <ele>1429.62</ele>
        <time>2014-07-04T10:03:07Z</time>
      </trkpt>
      <trkpt lat="44.91671" lon="5.33785">
        <ele>1429.62</ele>
        <time>2014-07-04T10:03:08Z</time>
      </trkpt>
      <trkpt lat="44.9167" lon="5.33801">
        <ele>1430.58</ele>
        <time>2014-07-04T10:03:20Z</time>
      </trkpt>
      <trkpt lat="44.91671" lon="5.33802">
        <ele>1430.58</ele>
        <time>2014-07-04T10:03:21Z</time>
      </trkpt>
      <trkpt lat="44.91671" lon="5.33804">
        <ele>1430.58</ele>
        <time>2014-07-04T10:03:22Z</time>
      </trkpt>
      <trkpt lat="44.91671" lon="5.33806">
        <ele>1430.58</ele>
        <time>2014-07-04T10:03:23Z</time>
      </trkpt>
      <trkpt lat="44.91671" lon="5.33808">
        <ele>1431.06</ele>
        <time>2014-07-04T10:03:24Z</time>
      </trkpt>
      <trkpt lat="44.91671" lon="5.33809">
        <ele>1430.58</ele>
        <time>2014-07-04T10:03:25Z</time>
      </trkpt>
      <trkpt lat="44.91671" lon="5.33812">
        <ele>1430.58</ele>
        <time>2014-07-04T10:03:26Z</time>
      </trkpt>
      <trkpt lat="44.91671" lon="5.33814">
        <ele>1430.58</ele>
        <time>2014-07-04T10:03:27Z</time>
      </trkpt>
      <trkpt lat="44.91671" lon="5.33816">
        <ele>1430.1</ele>
        <time>2014-07-04T10:03:28Z</time>
      </trkpt>
      <trkpt lat="44.91671" lon="5.33817">
        <ele>1430.58</ele>
        <time>2014-07-04T10:03:29Z</time>
      </trkpt>
      <trkpt lat="44.91671" lon="5.33855">
        <ele>1430.1</ele>
        <time>2014-07-04T10:03:42Z</time>
      </trkpt>
      <trkpt lat="44.91668" lon="5.33879">
        <ele>1433.46</ele>
        <time>2014-07-04T10:03:54Z</time>
      </trkpt>
      <trkpt lat="44.91665" lon="5.33905">
        <ele>1433.46</ele>
        <time>2014-07-04T10:04:07Z</time>
      </trkpt>
      <trkpt lat="44.91666" lon="5.33907">
        <ele>1433.46</ele>
        <time>2014-07-04T10:04:08Z</time>
      </trkpt>
      <trkpt lat="44.91666" lon="5.33909">
        <ele>1434.42</ele>
        <time>2014-07-04T10:04:09Z</time>
      </trkpt>
      <trkpt lat="44.91666" lon="5.33911">
        <ele>1433.94</ele>
        <time>2014-07-04T10:04:10Z</time>
      </trkpt>
      <trkpt lat="44.91666" lon="5.33913">
        <ele>1434.42</ele>
        <time>2014-07-04T10:04:11Z</time>
      </trkpt>
      <trkpt lat="44.91665" lon="5.33919">
        <ele>1434.42</ele>
        <time>2014-07-04T10:04:15Z</time>
      </trkpt>
      <trkpt lat="44.91666" lon="5.33943">
        <ele>1436.35</ele>
        <time>2014-07-04T10:04:29Z</time>
      </trkpt>
      <trkpt lat="44.91667" lon="5.33966">
        <ele>1437.31</ele>
        <time>2014-07-04T10:04:42Z</time>
      </trkpt>
      <trkpt lat="44.91673" lon="5.33987">
        <ele>1438.27</ele>
        <time>2014-07-04T10:04:52Z</time>
      </trkpt>
      <trkpt lat="44.91673" lon="5.33989">
        <ele>1438.75</ele>
        <time>2014-07-04T10:04:53Z</time>
      </trkpt>
      <trkpt lat="44.91673" lon="5.33991">
        <ele>1439.23</ele>
        <time>2014-07-04T10:04:54Z</time>
      </trkpt>
      <trkpt lat="44.91673" lon="5.33993">
        <ele>1438.75</ele>
        <time>2014-07-04T10:04:55Z</time>
      </trkpt>
      <trkpt lat="44.91673" lon="5.33994">
        <ele>1439.23</ele>
        <time>2014-07-04T10:04:56Z</time>
      </trkpt>
      <trkpt lat="44.91683" lon="5.34017">
        <ele>1439.23</ele>
        <time>2014-07-04T10:05:08Z</time>
      </trkpt>
      <trkpt lat="44.91689" lon="5.34026">
        <ele>1439.23</ele>
        <time>2014-07-04T10:05:12Z</time>
      </trkpt>
      <trkpt lat="44.9169" lon="5.34027">
        <ele>1439.23</ele>
        <time>2014-07-04T10:05:13Z</time>
      </trkpt>
      <trkpt lat="44.91692" lon="5.34029">
        <ele>1438.75</ele>
        <time>2014-07-04T10:05:14Z</time>
      </trkpt>
      <trkpt lat="44.91693" lon="5.3403">
        <ele>1439.71</ele>
        <time>2014-07-04T10:05:15Z</time>
      </trkpt>
      <trkpt lat="44.91695" lon="5.34032">
        <ele>1439.71</ele>
        <time>2014-07-04T10:05:16Z</time>
      </trkpt>
      <trkpt lat="44.91705" lon="5.34057">
        <ele>1441.63</ele>
        <time>2014-07-04T10:05:29Z</time>
      </trkpt>
      <trkpt lat="44.91715" lon="5.34084">
        <ele>1443.08</ele>
        <time>2014-07-04T10:05:42Z</time>
      </trkpt>
      <trkpt lat="44.9173" lon="5.34118">
        <ele>1442.6</ele>
        <time>2014-07-04T10:05:54Z</time>
      </trkpt>
      <trkpt lat="44.91732" lon="5.34124">
        <ele>1442.11</ele>
        <time>2014-07-04T10:05:55Z</time>
      </trkpt>
      <trkpt lat="44.91733" lon="5.34131">
        <ele>1441.15</ele>
        <time>2014-07-04T10:05:56Z</time>
      </trkpt>
      <trkpt lat="44.91747" lon="5.34199">
        <ele>1436.83</ele>
        <time>2014-07-04T10:06:05Z</time>
      </trkpt>
      <trkpt lat="44.91748" lon="5.34205">
        <ele>1440.67</ele>
        <time>2014-07-04T10:06:06Z</time>
      </trkpt>
      <trkpt lat="44.91757" lon="5.3424">
        <ele>1440.67</ele>
        <time>2014-07-04T10:06:17Z</time>
      </trkpt>
      <trkpt lat="44.91758" lon="5.34248">
        <ele>1441.63</ele>
        <time>2014-07-04T10:06:31Z</time>
      </trkpt>
      <trkpt lat="44.91758" lon="5.34248">
        <ele>1442.11</ele>
        <time>2014-07-04T10:06:58Z</time>
      </trkpt>
      <trkpt lat="44.91759" lon="5.34249">
        <ele>1438.27</ele>
        <time>2014-07-04T10:07:07Z</time>
      </trkpt>
      <trkpt lat="44.91759" lon="5.34249">
        <ele>1443.08</ele>
        <time>2014-07-04T10:07:08Z</time>
      </trkpt>
      <trkpt lat="44.91761" lon="5.34248">
        <ele>1441.15</ele>
        <time>2014-07-04T10:07:34Z</time>
      </trkpt>
      <trkpt lat="44.91765" lon="5.34253">
        <ele>1441.15</ele>
        <time>2014-07-04T10:07:55Z</time>
      </trkpt>
      <trkpt lat="44.91766" lon="5.34254">
        <ele>1441.15</ele>
        <time>2014-07-04T10:07:56Z</time>
      </trkpt>
      <trkpt lat="44.91767" lon="5.34256">
        <ele>1441.63</ele>
        <time>2014-07-04T10:07:57Z</time>
      </trkpt>
      <trkpt lat="44.91772" lon="5.34267">
        <ele>1441.63</ele>
        <time>2014-07-04T10:08:04Z</time>
      </trkpt>
      <trkpt lat="44.91772" lon="5.34268">
        <ele>1441.15</ele>
        <time>2014-07-04T10:08:05Z</time>
      </trkpt>
      <trkpt lat="44.91773" lon="5.3427">
        <ele>1441.15</ele>
        <time>2014-07-04T10:08:06Z</time>
      </trkpt>
      <trkpt lat="44.91783" lon="5.34284">
        <ele>1442.11</ele>
        <time>2014-07-04T10:08:18Z</time>
      </trkpt>
      <trkpt lat="44.91801" lon="5.34305">
        <ele>1444.52</ele>
        <time>2014-07-04T10:08:34Z</time>
      </trkpt>
      <trkpt lat="44.91802" lon="5.34306">
        <ele>1444.04</ele>
        <time>2014-07-04T10:08:35Z</time>
      </trkpt>
      <trkpt lat="44.91803" lon="5.34308">
        <ele>1444.52</ele>
        <time>2014-07-04T10:08:36Z</time>
      </trkpt>
      <trkpt lat="44.91804" lon="5.34309">
        <ele>1445</ele>
        <time>2014-07-04T10:08:37Z</time>
      </trkpt>
      <trkpt lat="44.91805" lon="5.3431">
        <ele>1445</ele>
        <time>2014-07-04T10:08:38Z</time>
      </trkpt>
      <trkpt lat="44.91806" lon="5.34311">
        <ele>1445</ele>
        <time>2014-07-04T10:08:39Z</time>
      </trkpt>
      <trkpt lat="44.91807" lon="5.34312">
        <ele>1445.48</ele>
        <time>2014-07-04T10:08:40Z</time>
      </trkpt>
      <trkpt lat="44.91809" lon="5.34313">
        <ele>1445</ele>
        <time>2014-07-04T10:08:41Z</time>
      </trkpt>
      <trkpt lat="44.91811" lon="5.34314">
        <ele>1445</ele>
        <time>2014-07-04T10:08:42Z</time>
      </trkpt>
      <trkpt lat="44.91822" lon="5.34332">
        <ele>1446.92</ele>
        <time>2014-07-04T10:08:54Z</time>
      </trkpt>
      <trkpt lat="44.91823" lon="5.34334">
        <ele>1446.44</ele>
        <time>2014-07-04T10:08:55Z</time>
      </trkpt>
      <trkpt lat="44.91823" lon="5.34336">
        <ele>1446.44</ele>
        <time>2014-07-04T10:08:56Z</time>
      </trkpt>
      <trkpt lat="44.91824" lon="5.34338">
        <ele>1446.44</ele>
        <time>2014-07-04T10:08:57Z</time>
      </trkpt>
      <trkpt lat="44.91825" lon="5.3434">
        <ele>1446.44</ele>
        <time>2014-07-04T10:08:58Z</time>
      </trkpt>
      <trkpt lat="44.91826" lon="5.34342">
        <ele>1445.96</ele>
        <time>2014-07-04T10:08:59Z</time>
      </trkpt>
      <trkpt lat="44.91827" lon="5.34344">
        <ele>1445.96</ele>
        <time>2014-07-04T10:09:00Z</time>
      </trkpt>
      <trkpt lat="44.91828" lon="5.34347">
        <ele>1445.96</ele>
        <time>2014-07-04T10:09:01Z</time>
      </trkpt>
      <trkpt lat="44.91829" lon="5.34349">
        <ele>1446.44</ele>
        <time>2014-07-04T10:09:02Z</time>
      </trkpt>
      <trkpt lat="44.91841" lon="5.34369">
        <ele>1444.52</ele>
        <time>2014-07-04T10:09:07Z</time>
      </trkpt>
      <trkpt lat="44.91845" lon="5.34375">
        <ele>1444.04</ele>
        <time>2014-07-04T10:09:08Z</time>
      </trkpt>
      <trkpt lat="44.9185" lon="5.34381">
        <ele>1443.56</ele>
        <time>2014-07-04T10:09:09Z</time>
      </trkpt>
      <trkpt lat="44.91859" lon="5.34393">
        <ele>1442.6</ele>
        <time>2014-07-04T10:09:11Z</time>
      </trkpt>
      <trkpt lat="44.91862" lon="5.34399">
        <ele>1443.08</ele>
        <time>2014-07-04T10:09:12Z</time>
      </trkpt>
      <trkpt lat="44.91866" lon="5.34405">
        <ele>1443.08</ele>
        <time>2014-07-04T10:09:13Z</time>
      </trkpt>
      <trkpt lat="44.91873" lon="5.34418">
        <ele>1442.6</ele>
        <time>2014-07-04T10:09:15Z</time>
      </trkpt>
      <trkpt lat="44.91882" lon="5.34436">
        <ele>1442.6</ele>
        <time>2014-07-04T10:09:18Z</time>
      </trkpt>
      <trkpt lat="44.91885" lon="5.34441">
        <ele>1442.6</ele>
        <time>2014-07-04T10:09:19Z</time>
      </trkpt>
      <trkpt lat="44.91887" lon="5.34446">
        <ele>1443.08</ele>
        <time>2014-07-04T10:09:20Z</time>
      </trkpt>
      <trkpt lat="44.9189" lon="5.34449">
        <ele>1443.08</ele>
        <time>2014-07-04T10:09:21Z</time>
      </trkpt>
      <trkpt lat="44.91891" lon="5.34452">
        <ele>1443.56</ele>
        <time>2014-07-04T10:09:22Z</time>
      </trkpt>
      <trkpt lat="44.91899" lon="5.34472">
        <ele>1445</ele>
        <time>2014-07-04T10:09:33Z</time>
      </trkpt>
      <trkpt lat="44.919" lon="5.34475">
        <ele>1445.48</ele>
        <time>2014-07-04T10:09:35Z</time>
      </trkpt>
      <trkpt lat="44.919" lon="5.34478">
        <ele>1445.96</ele>
        <time>2014-07-04T10:09:36Z</time>
      </trkpt>
      <trkpt lat="44.91903" lon="5.34501">
        <ele>1448.36</ele>
        <time>2014-07-04T10:09:49Z</time>
      </trkpt>
      <trkpt lat="44.91904" lon="5.34502">
        <ele>1448.36</ele>
        <time>2014-07-04T10:09:50Z</time>
      </trkpt>
      <trkpt lat="44.91904" lon="5.34504">
        <ele>1448.84</ele>
        <time>2014-07-04T10:09:51Z</time>
      </trkpt>
      <trkpt lat="44.91904" lon="5.34505">
        <ele>1448.84</ele>
        <time>2014-07-04T10:09:52Z</time>
      </trkpt>
      <trkpt lat="44.91904" lon="5.34507">
        <ele>1449.32</ele>
        <time>2014-07-04T10:09:53Z</time>
      </trkpt>
      <trkpt lat="44.91904" lon="5.34512">
        <ele>1449.81</ele>
        <time>2014-07-04T10:09:57Z</time>
      </trkpt>
      <trkpt lat="44.91905" lon="5.34513">
        <ele>1449.81</ele>
        <time>2014-07-04T10:09:58Z</time>
      </trkpt>
      <trkpt lat="44.91905" lon="5.34515">
        <ele>1450.29</ele>
        <time>2014-07-04T10:09:59Z</time>
      </trkpt>
      <trkpt lat="44.91905" lon="5.34517">
        <ele>1450.77</ele>
        <time>2014-07-04T10:10:00Z</time>
      </trkpt>
      <trkpt lat="44.91905" lon="5.34519">
        <ele>1450.29</ele>
        <time>2014-07-04T10:10:01Z</time>
      </trkpt>
      <trkpt lat="44.91906" lon="5.3452">
        <ele>1450.77</ele>
        <time>2014-07-04T10:10:02Z</time>
      </trkpt>
      <trkpt lat="44.91908" lon="5.34534">
        <ele>1451.73</ele>
        <time>2014-07-04T10:10:11Z</time>
      </trkpt>
      <trkpt lat="44.91908" lon="5.34536">
        <ele>1452.21</ele>
        <time>2014-07-04T10:10:12Z</time>
      </trkpt>
      <trkpt lat="44.91907" lon="5.3454">
        <ele>1452.69</ele>
        <time>2014-07-04T10:10:15Z</time>
      </trkpt>
      <trkpt lat="44.91907" lon="5.34541">
        <ele>1452.21</ele>
        <time>2014-07-04T10:10:16Z</time>
      </trkpt>
      <trkpt lat="44.91911" lon="5.34554">
        <ele>1453.65</ele>
        <time>2014-07-04T10:10:27Z</time>
      </trkpt>
      <trkpt lat="44.91911" lon="5.34555">
        <ele>1454.13</ele>
        <time>2014-07-04T10:10:28Z</time>
      </trkpt>
      <trkpt lat="44.91912" lon="5.34556">
        <ele>1454.13</ele>
        <time>2014-07-04T10:10:29Z</time>
      </trkpt>
      <trkpt lat="44.91918" lon="5.34563">
        <ele>1454.61</ele>
        <time>2014-07-04T10:10:36Z</time>
      </trkpt>
      <trkpt lat="44.91919" lon="5.34565">
        <ele>1455.09</ele>
        <time>2014-07-04T10:10:37Z</time>
      </trkpt>
      <trkpt lat="44.91921" lon="5.34568">
        <ele>1454.13</ele>
        <time>2014-07-04T10:10:40Z</time>
      </trkpt>
      <trkpt lat="44.91922" lon="5.34569">
        <ele>1454.61</ele>
        <time>2014-07-04T10:10:41Z</time>
      </trkpt>
      <trkpt lat="44.91926" lon="5.34573">
        <ele>1455.09</ele>
        <time>2014-07-04T10:10:45Z</time>
      </trkpt>
      <trkpt lat="44.91927" lon="5.34574">
        <ele>1454.61</ele>
        <time>2014-07-04T10:10:46Z</time>
      </trkpt>
      <trkpt lat="44.91928" lon="5.34575">
        <ele>1455.09</ele>
        <time>2014-07-04T10:10:47Z</time>
      </trkpt>
      <trkpt lat="44.91929" lon="5.34576">
        <ele>1454.61</ele>
        <time>2014-07-04T10:10:48Z</time>
      </trkpt>
      <trkpt lat="44.9193" lon="5.34577">
        <ele>1455.09</ele>
        <time>2014-07-04T10:10:49Z</time>
      </trkpt>
      <trkpt lat="44.91939" lon="5.34594">
        <ele>1457.5</ele>
        <time>2014-07-04T10:11:01Z</time>
      </trkpt>
      <trkpt lat="44.91941" lon="5.34597">
        <ele>1457.5</ele>
        <time>2014-07-04T10:11:04Z</time>
      </trkpt>
      <trkpt lat="44.91946" lon="5.34603">
        <ele>1457.02</ele>
        <time>2014-07-04T10:11:09Z</time>
      </trkpt>
      <trkpt lat="44.91947" lon="5.34604">
        <ele>1458.46</ele>
        <time>2014-07-04T10:11:10Z</time>
      </trkpt>
      <trkpt lat="44.91948" lon="5.34605">
        <ele>1455.09</ele>
        <time>2014-07-04T10:11:11Z</time>
      </trkpt>
      <trkpt lat="44.9195" lon="5.34607">
        <ele>1455.57</ele>
        <time>2014-07-04T10:11:12Z</time>
      </trkpt>
      <trkpt lat="44.9195" lon="5.34608">
        <ele>1456.53</ele>
        <time>2014-07-04T10:11:13Z</time>
      </trkpt>
      <trkpt lat="44.91951" lon="5.3461">
        <ele>1456.05</ele>
        <time>2014-07-04T10:11:14Z</time>
      </trkpt>
      <trkpt lat="44.91965" lon="5.34631">
        <ele>1457.5</ele>
        <time>2014-07-04T10:11:27Z</time>
      </trkpt>
      <trkpt lat="44.91978" lon="5.34656">
        <ele>1457.98</ele>
        <time>2014-07-04T10:11:40Z</time>
      </trkpt>
      <trkpt lat="44.91979" lon="5.34659">
        <ele>1458.46</ele>
        <time>2014-07-04T10:11:42Z</time>
      </trkpt>
      <trkpt lat="44.9198" lon="5.34661">
        <ele>1458.46</ele>
        <time>2014-07-04T10:11:43Z</time>
      </trkpt>
      <trkpt lat="44.9198" lon="5.34662">
        <ele>1458.46</ele>
        <time>2014-07-04T10:11:44Z</time>
      </trkpt>
      <trkpt lat="44.91983" lon="5.34683">
        <ele>1458.94</ele>
        <time>2014-07-04T10:11:55Z</time>
      </trkpt>
      <trkpt lat="44.91984" lon="5.34693">
        <ele>1459.9</ele>
        <time>2014-07-04T10:12:00Z</time>
      </trkpt>
      <trkpt lat="44.91984" lon="5.34695">
        <ele>1459.9</ele>
        <time>2014-07-04T10:12:01Z</time>
      </trkpt>
      <trkpt lat="44.91986" lon="5.34696">
        <ele>1459.42</ele>
        <time>2014-07-04T10:12:02Z</time>
      </trkpt>
      <trkpt lat="44.91987" lon="5.34698">
        <ele>1459.9</ele>
        <time>2014-07-04T10:12:03Z</time>
      </trkpt>
      <trkpt lat="44.91988" lon="5.34699">
        <ele>1459.9</ele>
        <time>2014-07-04T10:12:04Z</time>
      </trkpt>
      <trkpt lat="44.91989" lon="5.34699">
        <ele>1459.9</ele>
        <time>2014-07-04T10:12:05Z</time>
      </trkpt>
      <trkpt lat="44.9199" lon="5.34699">
        <ele>1459.9</ele>
        <time>2014-07-04T10:12:06Z</time>
      </trkpt>
      <trkpt lat="44.91992" lon="5.34699">
        <ele>1459.9</ele>
        <time>2014-07-04T10:12:07Z</time>
      </trkpt>
      <trkpt lat="44.91993" lon="5.347">
        <ele>1459.9</ele>
        <time>2014-07-04T10:12:08Z</time>
      </trkpt>
      <trkpt lat="44.91995" lon="5.347">
        <ele>1460.38</ele>
        <time>2014-07-04T10:12:09Z</time>
      </trkpt>
      <trkpt lat="44.91996" lon="5.347">
        <ele>1460.38</ele>
        <time>2014-07-04T10:12:10Z</time>
      </trkpt>
      <trkpt lat="44.91997" lon="5.34699">
        <ele>1460.38</ele>
        <time>2014-07-04T10:12:11Z</time>
      </trkpt>
      <trkpt lat="44.92015" lon="5.34701">
        <ele>1461.82</ele>
        <time>2014-07-04T10:12:22Z</time>
      </trkpt>
      <trkpt lat="44.92027" lon="5.34706">
        <ele>1462.78</ele>
        <time>2014-07-04T10:12:30Z</time>
      </trkpt>
      <trkpt lat="44.92028" lon="5.34707">
        <ele>1462.78</ele>
        <time>2014-07-04T10:12:31Z</time>
      </trkpt>
      <trkpt lat="44.92045" lon="5.34723">
        <ele>1463.26</ele>
        <time>2014-07-04T10:12:43Z</time>
      </trkpt>
      <trkpt lat="44.92046" lon="5.34724">
        <ele>1463.26</ele>
        <time>2014-07-04T10:12:44Z</time>
      </trkpt>
      <trkpt lat="44.92047" lon="5.34726">
        <ele>1463.26</ele>
        <time>2014-07-04T10:12:45Z</time>
      </trkpt>
      <trkpt lat="44.92049" lon="5.34728">
        <ele>1463.74</ele>
        <time>2014-07-04T10:12:46Z</time>
      </trkpt>
      <trkpt lat="44.92051" lon="5.34729">
        <ele>1463.26</ele>
        <time>2014-07-04T10:12:47Z</time>
      </trkpt>
      <trkpt lat="44.92063" lon="5.34736">
        <ele>1464.23</ele>
        <time>2014-07-04T10:12:54Z</time>
      </trkpt>
      <trkpt lat="44.92072" lon="5.34739">
        <ele>1464.23</ele>
        <time>2014-07-04T10:12:58Z</time>
      </trkpt>
      <trkpt lat="44.9209" lon="5.34741">
        <ele>1465.67</ele>
        <time>2014-07-04T10:13:11Z</time>
      </trkpt>
      <trkpt lat="44.92093" lon="5.34743">
        <ele>1466.63</ele>
        <time>2014-07-04T10:13:14Z</time>
      </trkpt>
      <trkpt lat="44.92095" lon="5.34743">
        <ele>1466.15</ele>
        <time>2014-07-04T10:13:15Z</time>
      </trkpt>
      <trkpt lat="44.92097" lon="5.34744">
        <ele>1466.63</ele>
        <time>2014-07-04T10:13:16Z</time>
      </trkpt>
      <trkpt lat="44.92098" lon="5.34744">
        <ele>1466.15</ele>
        <time>2014-07-04T10:13:17Z</time>
      </trkpt>
      <trkpt lat="44.921" lon="5.34743">
        <ele>1466.15</ele>
        <time>2014-07-04T10:13:18Z</time>
      </trkpt>
      <trkpt lat="44.92102" lon="5.34743">
        <ele>1466.63</ele>
        <time>2014-07-04T10:13:19Z</time>
      </trkpt>
      <trkpt lat="44.92119" lon="5.34747">
        <ele>1467.59</ele>
        <time>2014-07-04T10:13:33Z</time>
      </trkpt>
      <trkpt lat="44.92132" lon="5.34752">
        <ele>1469.03</ele>
        <time>2014-07-04T10:13:45Z</time>
      </trkpt>
      <trkpt lat="44.92142" lon="5.34758">
        <ele>1469.99</ele>
        <time>2014-07-04T10:13:54Z</time>
      </trkpt>
      <trkpt lat="44.9215" lon="5.34765">
        <ele>1471.92</ele>
        <time>2014-07-04T10:14:04Z</time>
      </trkpt>
      <trkpt lat="44.92152" lon="5.34766">
        <ele>1472.4</ele>
        <time>2014-07-04T10:14:05Z</time>
      </trkpt>
      <trkpt lat="44.92155" lon="5.3477">
        <ele>1472.88</ele>
        <time>2014-07-04T10:14:09Z</time>
      </trkpt>
      <trkpt lat="44.92156" lon="5.34771">
        <ele>1473.36</ele>
        <time>2014-07-04T10:14:10Z</time>
      </trkpt>
      <trkpt lat="44.92157" lon="5.34772">
        <ele>1473.36</ele>
        <time>2014-07-04T10:14:11Z</time>
      </trkpt>
      <trkpt lat="44.92159" lon="5.34773">
        <ele>1473.36</ele>
        <time>2014-07-04T10:14:12Z</time>
      </trkpt>
      <trkpt lat="44.92164" lon="5.34783">
        <ele>1474.32</ele>
        <time>2014-07-04T10:14:20Z</time>
      </trkpt>
      <trkpt lat="44.92165" lon="5.34785">
        <ele>1474.32</ele>
        <time>2014-07-04T10:14:21Z</time>
      </trkpt>
      <trkpt lat="44.92166" lon="5.34786">
        <ele>1474.32</ele>
        <time>2014-07-04T10:14:22Z</time>
      </trkpt>
      <trkpt lat="44.92166" lon="5.34789">
        <ele>1474.32</ele>
        <time>2014-07-04T10:14:23Z</time>
      </trkpt>
      <trkpt lat="44.92167" lon="5.34791">
        <ele>1475.76</ele>
        <time>2014-07-04T10:14:24Z</time>
      </trkpt>
      <trkpt lat="44.92169" lon="5.34798">
        <ele>1474.8</ele>
        <time>2014-07-04T10:14:28Z</time>
      </trkpt>
      <trkpt lat="44.92169" lon="5.348">
        <ele>1475.28</ele>
        <time>2014-07-04T10:14:29Z</time>
      </trkpt>
      <trkpt lat="44.92172" lon="5.34823">
        <ele>1475.76</ele>
        <time>2014-07-04T10:14:42Z</time>
      </trkpt>
      <trkpt lat="44.9218" lon="5.34847">
        <ele>1476.24</ele>
        <time>2014-07-04T10:14:55Z</time>
      </trkpt>
      <trkpt lat="44.92181" lon="5.3485">
        <ele>1476.72</ele>
        <time>2014-07-04T10:14:57Z</time>
      </trkpt>
      <trkpt lat="44.92181" lon="5.34852">
        <ele>1476.72</ele>
        <time>2014-07-04T10:14:58Z</time>
      </trkpt>
      <trkpt lat="44.92181" lon="5.34854">
        <ele>1477.2</ele>
        <time>2014-07-04T10:14:59Z</time>
      </trkpt>
      <trkpt lat="44.92182" lon="5.34856">
        <ele>1476.72</ele>
        <time>2014-07-04T10:15:00Z</time>
      </trkpt>
      <trkpt lat="44.92184" lon="5.34858">
        <ele>1477.2</ele>
        <time>2014-07-04T10:15:01Z</time>
      </trkpt>
      <trkpt lat="44.92185" lon="5.3486">
        <ele>1477.2</ele>
        <time>2014-07-04T10:15:02Z</time>
      </trkpt>
      <trkpt lat="44.92187" lon="5.34863">
        <ele>1477.68</ele>
        <time>2014-07-04T10:15:04Z</time>
      </trkpt>
      <trkpt lat="44.92188" lon="5.34865">
        <ele>1478.16</ele>
        <time>2014-07-04T10:15:05Z</time>
      </trkpt>
      <trkpt lat="44.92189" lon="5.34867">
        <ele>1477.68</ele>
        <time>2014-07-04T10:15:06Z</time>
      </trkpt>
      <trkpt lat="44.9219" lon="5.34869">
        <ele>1478.16</ele>
        <time>2014-07-04T10:15:07Z</time>
      </trkpt>
      <trkpt lat="44.92191" lon="5.34871">
        <ele>1478.16</ele>
        <time>2014-07-04T10:15:08Z</time>
      </trkpt>
      <trkpt lat="44.92191" lon="5.34873">
        <ele>1477.68</ele>
        <time>2014-07-04T10:15:09Z</time>
      </trkpt>
      <trkpt lat="44.92192" lon="5.34875">
        <ele>1477.68</ele>
        <time>2014-07-04T10:15:10Z</time>
      </trkpt>
      <trkpt lat="44.92193" lon="5.34876">
        <ele>1478.16</ele>
        <time>2014-07-04T10:15:11Z</time>
      </trkpt>
      <trkpt lat="44.92193" lon="5.34878">
        <ele>1478.16</ele>
        <time>2014-07-04T10:15:12Z</time>
      </trkpt>
      <trkpt lat="44.92194" lon="5.3488">
        <ele>1478.65</ele>
        <time>2014-07-04T10:15:13Z</time>
      </trkpt>
      <trkpt lat="44.92194" lon="5.34882">
        <ele>1479.13</ele>
        <time>2014-07-04T10:15:14Z</time>
      </trkpt>
      <trkpt lat="44.92195" lon="5.34884">
        <ele>1478.65</ele>
        <time>2014-07-04T10:15:15Z</time>
      </trkpt>
      <trkpt lat="44.92196" lon="5.34885">
        <ele>1479.61</ele>
        <time>2014-07-04T10:15:16Z</time>
      </trkpt>
      <trkpt lat="44.92196" lon="5.34888">
        <ele>1478.65</ele>
        <time>2014-07-04T10:15:17Z</time>
      </trkpt>
      <trkpt lat="44.92196" lon="5.3489">
        <ele>1478.65</ele>
        <time>2014-07-04T10:15:18Z</time>
      </trkpt>
      <trkpt lat="44.92199" lon="5.34894">
        <ele>1480.09</ele>
        <time>2014-07-04T10:15:32Z</time>
      </trkpt>
      <trkpt lat="44.92202" lon="5.34892">
        <ele>1479.61</ele>
        <time>2014-07-04T10:16:04Z</time>
      </trkpt>
      <trkpt lat="44.92202" lon="5.34891">
        <ele>1479.61</ele>
        <time>2014-07-04T10:16:34Z</time>
      </trkpt>
      <trkpt lat="44.92202" lon="5.34891">
        <ele>1478.65</ele>
        <time>2014-07-04T10:17:02Z</time>
      </trkpt>
      <trkpt lat="44.92203" lon="5.34894">
        <ele>1479.61</ele>
        <time>2014-07-04T10:17:14Z</time>
      </trkpt>
      <trkpt lat="44.92202" lon="5.34896">
        <ele>1480.09</ele>
        <time>2014-07-04T10:17:15Z</time>
      </trkpt>
      <trkpt lat="44.92202" lon="5.34898">
        <ele>1479.61</ele>
        <time>2014-07-04T10:17:16Z</time>
      </trkpt>
      <trkpt lat="44.92202" lon="5.349">
        <ele>1479.61</ele>
        <time>2014-07-04T10:17:17Z</time>
      </trkpt>
      <trkpt lat="44.92201" lon="5.34902">
        <ele>1480.09</ele>
        <time>2014-07-04T10:17:18Z</time>
      </trkpt>
      <trkpt lat="44.92189" lon="5.3493">
        <ele>1480.57</ele>
        <time>2014-07-04T10:17:28Z</time>
      </trkpt>
      <trkpt lat="44.92183" lon="5.3496">
        <ele>1480.57</ele>
        <time>2014-07-04T10:17:41Z</time>
      </trkpt>
      <trkpt lat="44.92178" lon="5.3499">
        <ele>1481.53</ele>
        <time>2014-07-04T10:17:53Z</time>
      </trkpt>
      <trkpt lat="44.92176" lon="5.35023">
        <ele>1481.53</ele>
        <time>2014-07-04T10:18:05Z</time>
      </trkpt>
      <trkpt lat="44.9218" lon="5.35048">
        <ele>1480.09</ele>
        <time>2014-07-04T10:18:10Z</time>
      </trkpt>
      <trkpt lat="44.92183" lon="5.35052">
        <ele>1480.09</ele>
        <time>2014-07-04T10:18:11Z</time>
      </trkpt>
      <trkpt lat="44.92187" lon="5.35056">
        <ele>1480.09</ele>
        <time>2014-07-04T10:18:12Z</time>
      </trkpt>
      <trkpt lat="44.92191" lon="5.35059">
        <ele>1480.09</ele>
        <time>2014-07-04T10:18:13Z</time>
      </trkpt>
      <trkpt lat="44.92195" lon="5.35061">
        <ele>1479.61</ele>
        <time>2014-07-04T10:18:14Z</time>
      </trkpt>
      <trkpt lat="44.92199" lon="5.35061">
        <ele>1479.13</ele>
        <time>2014-07-04T10:18:15Z</time>
      </trkpt>
      <trkpt lat="44.92204" lon="5.35062">
        <ele>1478.65</ele>
        <time>2014-07-04T10:18:16Z</time>
      </trkpt>
      <trkpt lat="44.9221" lon="5.35063">
        <ele>1478.65</ele>
        <time>2014-07-04T10:18:17Z</time>
      </trkpt>
      <trkpt lat="44.92216" lon="5.35065">
        <ele>1478.16</ele>
        <time>2014-07-04T10:18:18Z</time>
      </trkpt>
      <trkpt lat="44.92222" lon="5.35068">
        <ele>1478.16</ele>
        <time>2014-07-04T10:18:19Z</time>
      </trkpt>
      <trkpt lat="44.92229" lon="5.35071">
        <ele>1477.68</ele>
        <time>2014-07-04T10:18:20Z</time>
      </trkpt>
      <trkpt lat="44.9225" lon="5.35092">
        <ele>1476.24</ele>
        <time>2014-07-04T10:18:24Z</time>
      </trkpt>
      <trkpt lat="44.92254" lon="5.35099">
        <ele>1475.76</ele>
        <time>2014-07-04T10:18:25Z</time>
      </trkpt>
      <trkpt lat="44.92258" lon="5.35107">
        <ele>1475.28</ele>
        <time>2014-07-04T10:18:26Z</time>
      </trkpt>
      <trkpt lat="44.92264" lon="5.35125">
        <ele>1474.32</ele>
        <time>2014-07-04T10:18:28Z</time>
      </trkpt>
      <trkpt lat="44.92265" lon="5.35135">
        <ele>1473.84</ele>
        <time>2014-07-04T10:18:29Z</time>
      </trkpt>
      <trkpt lat="44.92265" lon="5.35144">
        <ele>1473.36</ele>
        <time>2014-07-04T10:18:30Z</time>
      </trkpt>
      <trkpt lat="44.92265" lon="5.35153">
        <ele>1472.88</ele>
        <time>2014-07-04T10:18:31Z</time>
      </trkpt>
      <trkpt lat="44.92265" lon="5.35161">
        <ele>1472.4</ele>
        <time>2014-07-04T10:18:32Z</time>
      </trkpt>
      <trkpt lat="44.92273" lon="5.35189">
        <ele>1470.47</ele>
        <time>2014-07-04T10:18:37Z</time>
      </trkpt>
      <trkpt lat="44.9228" lon="5.35192">
        <ele>1470.47</ele>
        <time>2014-07-04T10:18:38Z</time>
      </trkpt>
      <trkpt lat="44.92285" lon="5.35194">
        <ele>1469.99</ele>
        <time>2014-07-04T10:18:39Z</time>
      </trkpt>
      <trkpt lat="44.92291" lon="5.35195">
        <ele>1469.99</ele>
        <time>2014-07-04T10:18:40Z</time>
      </trkpt>
      <trkpt lat="44.92298" lon="5.35195">
        <ele>1469.51</ele>
        <time>2014-07-04T10:18:41Z</time>
      </trkpt>
      <trkpt lat="44.92303" lon="5.35195">
        <ele>1469.51</ele>
        <time>2014-07-04T10:18:42Z</time>
      </trkpt>
      <trkpt lat="44.92309" lon="5.35197">
        <ele>1468.55</ele>
        <time>2014-07-04T10:18:43Z</time>
      </trkpt>
      <trkpt lat="44.92313" lon="5.352">
        <ele>1468.55</ele>
        <time>2014-07-04T10:18:44Z</time>
      </trkpt>
      <trkpt lat="44.92317" lon="5.35203">
        <ele>1468.55</ele>
        <time>2014-07-04T10:18:45Z</time>
      </trkpt>
      <trkpt lat="44.92319" lon="5.35206">
        <ele>1468.07</ele>
        <time>2014-07-04T10:18:46Z</time>
      </trkpt>
      <trkpt lat="44.92321" lon="5.35208">
        <ele>1467.59</ele>
        <time>2014-07-04T10:18:47Z</time>
      </trkpt>
      <trkpt lat="44.92323" lon="5.35209">
        <ele>1466.63</ele>
        <time>2014-07-04T10:18:50Z</time>
      </trkpt>
      <trkpt lat="44.92313" lon="5.35205">
        <ele>1466.63</ele>
        <time>2014-07-04T10:18:54Z</time>
      </trkpt>
      <trkpt lat="44.92309" lon="5.35205">
        <ele>1467.11</ele>
        <time>2014-07-04T10:18:55Z</time>
      </trkpt>
      <trkpt lat="44.92305" lon="5.35205">
        <ele>1467.11</ele>
        <time>2014-07-04T10:18:56Z</time>
      </trkpt>
      <trkpt lat="44.923" lon="5.35205">
        <ele>1466.63</ele>
        <time>2014-07-04T10:18:57Z</time>
      </trkpt>
      <trkpt lat="44.92296" lon="5.35205">
        <ele>1466.15</ele>
        <time>2014-07-04T10:18:58Z</time>
      </trkpt>
      <trkpt lat="44.92291" lon="5.35205">
        <ele>1466.15</ele>
        <time>2014-07-04T10:18:59Z</time>
      </trkpt>
      <trkpt lat="44.92285" lon="5.35205">
        <ele>1465.19</ele>
        <time>2014-07-04T10:19:00Z</time>
      </trkpt>
      <trkpt lat="44.92279" lon="5.35204">
        <ele>1464.71</ele>
        <time>2014-07-04T10:19:01Z</time>
      </trkpt>
      <trkpt lat="44.92267" lon="5.35203">
        <ele>1464.23</ele>
        <time>2014-07-04T10:19:03Z</time>
      </trkpt>
      <trkpt lat="44.92248" lon="5.35201">
        <ele>1462.3</ele>
        <time>2014-07-04T10:19:06Z</time>
      </trkpt>
      <trkpt lat="44.92242" lon="5.35202">
        <ele>1461.82</ele>
        <time>2014-07-04T10:19:07Z</time>
      </trkpt>
      <trkpt lat="44.92235" lon="5.35203">
        <ele>1461.34</ele>
        <time>2014-07-04T10:19:08Z</time>
      </trkpt>
      <trkpt lat="44.92229" lon="5.35205">
        <ele>1460.86</ele>
        <time>2014-07-04T10:19:09Z</time>
      </trkpt>
      <trkpt lat="44.92221" lon="5.35206">
        <ele>1460.38</ele>
        <time>2014-07-04T10:19:10Z</time>
      </trkpt>
      <trkpt lat="44.92214" lon="5.35206">
        <ele>1460.38</ele>
        <time>2014-07-04T10:19:11Z</time>
      </trkpt>
      <trkpt lat="44.92158" lon="5.35207">
        <ele>1458.46</ele>
        <time>2014-07-04T10:19:18Z</time>
      </trkpt>
      <trkpt lat="44.92142" lon="5.35204">
        <ele>1457.5</ele>
        <time>2014-07-04T10:19:20Z</time>
      </trkpt>
      <trkpt lat="44.92126" lon="5.352">
        <ele>1457.02</ele>
        <time>2014-07-04T10:19:22Z</time>
      </trkpt>
      <trkpt lat="44.92093" lon="5.35195">
        <ele>1456.05</ele>
        <time>2014-07-04T10:19:26Z</time>
      </trkpt>
      <trkpt lat="44.92087" lon="5.35198">
        <ele>1456.05</ele>
        <time>2014-07-04T10:19:27Z</time>
      </trkpt>
      <trkpt lat="44.92081" lon="5.35202">
        <ele>1455.57</ele>
        <time>2014-07-04T10:19:28Z</time>
      </trkpt>
      <trkpt lat="44.92075" lon="5.35208">
        <ele>1455.09</ele>
        <time>2014-07-04T10:19:29Z</time>
      </trkpt>
      <trkpt lat="44.92071" lon="5.35214">
        <ele>1454.61</ele>
        <time>2014-07-04T10:19:30Z</time>
      </trkpt>
      <trkpt lat="44.92067" lon="5.35219">
        <ele>1454.61</ele>
        <time>2014-07-04T10:19:31Z</time>
      </trkpt>
      <trkpt lat="44.92022" lon="5.35288">
        <ele>1451.25</ele>
        <time>2014-07-04T10:19:41Z</time>
      </trkpt>
      <trkpt lat="44.92014" lon="5.35295">
        <ele>1450.77</ele>
        <time>2014-07-04T10:19:42Z</time>
      </trkpt>
      <trkpt lat="44.92006" lon="5.353">
        <ele>1450.77</ele>
        <time>2014-07-04T10:19:43Z</time>
      </trkpt>
      <trkpt lat="44.91998" lon="5.35304">
        <ele>1450.77</ele>
        <time>2014-07-04T10:19:44Z</time>
      </trkpt>
      <trkpt lat="44.91976" lon="5.35313">
        <ele>1450.29</ele>
        <time>2014-07-04T10:19:47Z</time>
      </trkpt>
      <trkpt lat="44.91972" lon="5.35314">
        <ele>1450.29</ele>
        <time>2014-07-04T10:19:48Z</time>
      </trkpt>
      <trkpt lat="44.91968" lon="5.35318">
        <ele>1450.77</ele>
        <time>2014-07-04T10:19:58Z</time>
      </trkpt>
      <trkpt lat="44.91968" lon="5.35318">
        <ele>1450.77</ele>
        <time>2014-07-04T10:20:03Z</time>
      </trkpt>
      <trkpt lat="44.91966" lon="5.35319">
        <ele>1449.81</ele>
        <time>2014-07-04T10:20:04Z</time>
      </trkpt>
      <trkpt lat="44.91966" lon="5.35321">
        <ele>1450.29</ele>
        <time>2014-07-04T10:20:05Z</time>
      </trkpt>
      <trkpt lat="44.91965" lon="5.35322">
        <ele>1450.29</ele>
        <time>2014-07-04T10:20:06Z</time>
      </trkpt>
      <trkpt lat="44.91964" lon="5.35325">
        <ele>1450.29</ele>
        <time>2014-07-04T10:20:07Z</time>
      </trkpt>
      <trkpt lat="44.91964" lon="5.35327">
        <ele>1449.81</ele>
        <time>2014-07-04T10:20:08Z</time>
      </trkpt>
      <trkpt lat="44.91962" lon="5.35331">
        <ele>1450.29</ele>
        <time>2014-07-04T10:20:11Z</time>
      </trkpt>
      <trkpt lat="44.91961" lon="5.35338">
        <ele>1449.81</ele>
        <time>2014-07-04T10:20:13Z</time>
      </trkpt>
      <trkpt lat="44.9196" lon="5.35343">
        <ele>1449.32</ele>
        <time>2014-07-04T10:20:14Z</time>
      </trkpt>
      <trkpt lat="44.91953" lon="5.35386">
        <ele>1448.36</ele>
        <time>2014-07-04T10:20:21Z</time>
      </trkpt>
      <trkpt lat="44.91952" lon="5.35393">
        <ele>1447.88</ele>
        <time>2014-07-04T10:20:22Z</time>
      </trkpt>
      <trkpt lat="44.91949" lon="5.354">
        <ele>1447.4</ele>
        <time>2014-07-04T10:20:23Z</time>
      </trkpt>
      <trkpt lat="44.91937" lon="5.35433">
        <ele>1447.4</ele>
        <time>2014-07-04T10:20:32Z</time>
      </trkpt>
      <trkpt lat="44.91931" lon="5.35448">
        <ele>1447.4</ele>
        <time>2014-07-04T10:20:49Z</time>
      </trkpt>
      <trkpt lat="44.91929" lon="5.35455">
        <ele>1447.4</ele>
        <time>2014-07-04T10:21:05Z</time>
      </trkpt>
      <trkpt lat="44.91928" lon="5.35455">
        <ele>1445.96</ele>
        <time>2014-07-04T10:21:32Z</time>
      </trkpt>
      <trkpt lat="44.91928" lon="5.35455">
        <ele>1443.08</ele>
        <time>2014-07-04T10:21:33Z</time>
      </trkpt>
      <trkpt lat="44.91928" lon="5.35455">
        <ele>1447.88</ele>
        <time>2014-07-04T10:21:34Z</time>
      </trkpt>
      <trkpt lat="44.91928" lon="5.35456">
        <ele>1440.67</ele>
        <time>2014-07-04T10:21:43Z</time>
      </trkpt>
      <trkpt lat="44.91927" lon="5.35456">
        <ele>1445.48</ele>
        <time>2014-07-04T10:21:44Z</time>
      </trkpt>
      <trkpt lat="44.91927" lon="5.35455">
        <ele>1442.11</ele>
        <time>2014-07-04T10:21:48Z</time>
      </trkpt>
      <trkpt lat="44.91927" lon="5.35455">
        <ele>1453.17</ele>
        <time>2014-07-04T10:21:52Z</time>
      </trkpt>
      <trkpt lat="44.91927" lon="5.35455">
        <ele>1445.96</ele>
        <time>2014-07-04T10:21:53Z</time>
      </trkpt>
      <trkpt lat="44.91927" lon="5.35455">
        <ele>1446.44</ele>
        <time>2014-07-04T10:22:12Z</time>
      </trkpt>
      <trkpt lat="44.91927" lon="5.35455">
        <ele>1440.19</ele>
        <time>2014-07-04T10:22:13Z</time>
      </trkpt>
      <trkpt lat="44.91927" lon="5.35455">
        <ele>1445</ele>
        <time>2014-07-04T10:22:14Z</time>
      </trkpt>
      <trkpt lat="44.91927" lon="5.35455">
        <ele>1448.84</ele>
        <time>2014-07-04T10:22:15Z</time>
      </trkpt>
      <trkpt lat="44.91927" lon="5.35455">
        <ele>1448.84</ele>
        <time>2014-07-04T10:22:16Z</time>
      </trkpt>
      <trkpt lat="44.91927" lon="5.35455">
        <ele>1460.38</ele>
        <time>2014-07-04T10:22:17Z</time>
      </trkpt>
      <trkpt lat="44.91927" lon="5.35455">
        <ele>1451.73</ele>
        <time>2014-07-04T10:22:18Z</time>
      </trkpt>
      <trkpt lat="44.91927" lon="5.35455">
        <ele>1440.19</ele>
        <time>2014-07-04T10:22:19Z</time>
      </trkpt>
      <trkpt lat="44.91927" lon="5.35455">
        <ele>1444.52</ele>
        <time>2014-07-04T10:22:20Z</time>
      </trkpt>
      <trkpt lat="44.91927" lon="5.35455">
        <ele>1440.19</ele>
        <time>2014-07-04T10:22:22Z</time>
      </trkpt>
      <trkpt lat="44.91927" lon="5.35455">
        <ele>1441.15</ele>
        <time>2014-07-04T10:22:23Z</time>
      </trkpt>
      <trkpt lat="44.91927" lon="5.35455">
        <ele>1448.36</ele>
        <time>2014-07-04T10:22:25Z</time>
      </trkpt>
      <trkpt lat="44.91927" lon="5.35455">
        <ele>1447.88</ele>
        <time>2014-07-04T10:22:26Z</time>
      </trkpt>
      <trkpt lat="44.91927" lon="5.35455">
        <ele>1442.11</ele>
        <time>2014-07-04T10:22:27Z</time>
      </trkpt>
      <trkpt lat="44.91927" lon="5.35455">
        <ele>1446.44</ele>
        <time>2014-07-04T10:22:28Z</time>
      </trkpt>
      <trkpt lat="44.91928" lon="5.35455">
        <ele>1447.88</ele>
        <time>2014-07-04T10:22:56Z</time>
      </trkpt>
      <trkpt lat="44.91928" lon="5.35454">
        <ele>1447.4</ele>
        <time>2014-07-04T10:23:07Z</time>
      </trkpt>
      <trkpt lat="44.91928" lon="5.35454">
        <ele>1446.92</ele>
        <time>2014-07-04T10:23:33Z</time>
      </trkpt>
      <trkpt lat="44.91928" lon="5.35451">
        <ele>1447.4</ele>
        <time>2014-07-04T10:23:57Z</time>
      </trkpt>
      <trkpt lat="44.91929" lon="5.35449">
        <ele>1445.96</ele>
        <time>2014-07-04T10:24:06Z</time>
      </trkpt>
      <trkpt lat="44.91929" lon="5.35447">
        <ele>1446.92</ele>
        <time>2014-07-04T10:24:07Z</time>
      </trkpt>
      <trkpt lat="44.91927" lon="5.35442">
        <ele>1446.44</ele>
        <time>2014-07-04T10:24:21Z</time>
      </trkpt>
      <trkpt lat="44.91929" lon="5.35441">
        <ele>1447.88</ele>
        <time>2014-07-04T10:25:01Z</time>
      </trkpt>
      <trkpt lat="44.91929" lon="5.3544">
        <ele>1447.4</ele>
        <time>2014-07-04T10:25:35Z</time>
      </trkpt>
      <trkpt lat="44.91926" lon="5.35438">
        <ele>1446.92</ele>
        <time>2014-07-04T10:26:17Z</time>
      </trkpt>
      <trkpt lat="44.91925" lon="5.35436">
        <ele>1447.4</ele>
        <time>2014-07-04T10:27:00Z</time>
      </trkpt>
      <trkpt lat="44.91926" lon="5.35437">
        <ele>1446.92</ele>
        <time>2014-07-04T10:27:41Z</time>
      </trkpt>
      <trkpt lat="44.91927" lon="5.35437">
        <ele>1447.4</ele>
        <time>2014-07-04T10:28:24Z</time>
      </trkpt>
      <trkpt lat="44.91927" lon="5.35436">
        <ele>1447.88</ele>
        <time>2014-07-04T10:29:00Z</time>
      </trkpt>
      <trkpt lat="44.91927" lon="5.35436">
        <ele>1448.84</ele>
        <time>2014-07-04T10:29:37Z</time>
      </trkpt>
      <trkpt lat="44.91927" lon="5.35436">
        <ele>1447.88</ele>
        <time>2014-07-04T10:29:54Z</time>
      </trkpt>
      <trkpt lat="44.91927" lon="5.35435">
        <ele>1447.4</ele>
        <time>2014-07-04T10:30:33Z</time>
      </trkpt>
      <trkpt lat="44.91928" lon="5.35436">
        <ele>1447.88</ele>
        <time>2014-07-04T10:31:13Z</time>
      </trkpt>
      <trkpt lat="44.91928" lon="5.35437">
        <ele>1447.4</ele>
        <time>2014-07-04T10:31:49Z</time>
      </trkpt>
      <trkpt lat="44.91926" lon="5.35437">
        <ele>1447.88</ele>
        <time>2014-07-04T10:32:28Z</time>
      </trkpt>
      <trkpt lat="44.91926" lon="5.35437">
        <ele>1447.88</ele>
        <time>2014-07-04T10:33:04Z</time>
      </trkpt>
      <trkpt lat="44.91926" lon="5.35437">
        <ele>1447.4</ele>
        <time>2014-07-04T10:33:37Z</time>
      </trkpt>
      <trkpt lat="44.91928" lon="5.35436">
        <ele>1448.36</ele>
        <time>2014-07-04T10:34:11Z</time>
      </trkpt>
      <trkpt lat="44.91928" lon="5.35436">
        <ele>1448.36</ele>
        <time>2014-07-04T10:34:28Z</time>
      </trkpt>
      <trkpt lat="44.91927" lon="5.35434">
        <ele>1448.36</ele>
        <time>2014-07-04T10:35:01Z</time>
      </trkpt>
      <trkpt lat="44.91926" lon="5.35433">
        <ele>1449.81</ele>
        <time>2014-07-04T10:35:14Z</time>
      </trkpt>
      <trkpt lat="44.91925" lon="5.35432">
        <ele>1448.36</ele>
        <time>2014-07-04T10:35:55Z</time>
      </trkpt>
      <trkpt lat="44.91926" lon="5.35433">
        <ele>1448.36</ele>
        <time>2014-07-04T10:36:33Z</time>
      </trkpt>
      <trkpt lat="44.91928" lon="5.35434">
        <ele>1448.84</ele>
        <time>2014-07-04T10:37:09Z</time>
      </trkpt>
      <trkpt lat="44.91928" lon="5.35434">
        <ele>1446.44</ele>
        <time>2014-07-04T10:37:49Z</time>
      </trkpt>
      <trkpt lat="44.91929" lon="5.35435">
        <ele>1447.4</ele>
        <time>2014-07-04T10:38:35Z</time>
      </trkpt>
      <trkpt lat="44.9193" lon="5.35436">
        <ele>1446.92</ele>
        <time>2014-07-04T10:39:11Z</time>
      </trkpt>
      <trkpt lat="44.91931" lon="5.35437">
        <ele>1445.96</ele>
        <time>2014-07-04T10:39:37Z</time>
      </trkpt>
      <trkpt lat="44.9193" lon="5.35437">
        <ele>1446.92</ele>
        <time>2014-07-04T10:39:40Z</time>
      </trkpt>
      <trkpt lat="44.91929" lon="5.35437">
        <ele>1448.36</ele>
        <time>2014-07-04T10:40:16Z</time>
      </trkpt>
      <trkpt lat="44.91929" lon="5.35439">
        <ele>1447.4</ele>
        <time>2014-07-04T10:40:54Z</time>
      </trkpt>
      <trkpt lat="44.91928" lon="5.35437">
        <ele>1446.92</ele>
        <time>2014-07-04T10:41:37Z</time>
      </trkpt>
      <trkpt lat="44.91928" lon="5.35435">
        <ele>1446.92</ele>
        <time>2014-07-04T10:42:14Z</time>
      </trkpt>
      <trkpt lat="44.91927" lon="5.35436">
        <ele>1446.44</ele>
        <time>2014-07-04T10:42:56Z</time>
      </trkpt>
      <trkpt lat="44.91926" lon="5.35437">
        <ele>1447.88</ele>
        <time>2014-07-04T10:43:37Z</time>
      </trkpt>
      <trkpt lat="44.91926" lon="5.35437">
        <ele>1446.92</ele>
        <time>2014-07-04T10:43:42Z</time>
      </trkpt>
      <trkpt lat="44.91927" lon="5.35437">
        <ele>1446.44</ele>
        <time>2014-07-04T10:44:21Z</time>
      </trkpt>
      <trkpt lat="44.91927" lon="5.35438">
        <ele>1445.96</ele>
        <time>2014-07-04T10:45:00Z</time>
      </trkpt>
      <trkpt lat="44.91927" lon="5.35437">
        <ele>1446.92</ele>
        <time>2014-07-04T10:45:38Z</time>
      </trkpt>
      <trkpt lat="44.91926" lon="5.35436">
        <ele>1446.44</ele>
        <time>2014-07-04T10:46:16Z</time>
      </trkpt>
      <trkpt lat="44.91926" lon="5.35434">
        <ele>1445</ele>
        <time>2014-07-04T10:46:53Z</time>
      </trkpt>
      <trkpt lat="44.91927" lon="5.35432">
        <ele>1445.96</ele>
        <time>2014-07-04T10:47:28Z</time>
      </trkpt>
      <trkpt lat="44.91925" lon="5.35435">
        <ele>1445.48</ele>
        <time>2014-07-04T10:48:10Z</time>
      </trkpt>
      <trkpt lat="44.91925" lon="5.35435">
        <ele>1445.96</ele>
        <time>2014-07-04T10:48:46Z</time>
      </trkpt>
      <trkpt lat="44.91925" lon="5.35435">
        <ele>1445</ele>
        <time>2014-07-04T10:49:24Z</time>
      </trkpt>
      <trkpt lat="44.91926" lon="5.35435">
        <ele>1445.48</ele>
        <time>2014-07-04T10:50:02Z</time>
      </trkpt>
      <trkpt lat="44.91926" lon="5.35436">
        <ele>1445.96</ele>
        <time>2014-07-04T10:50:34Z</time>
      </trkpt>
      <trkpt lat="44.91927" lon="5.35436">
        <ele>1446.44</ele>
        <time>2014-07-04T10:51:06Z</time>
      </trkpt>
      <trkpt lat="44.91927" lon="5.35437">
        <ele>1445.96</ele>
        <time>2014-07-04T10:51:42Z</time>
      </trkpt>
      <trkpt lat="44.91928" lon="5.35436">
        <ele>1445.96</ele>
        <time>2014-07-04T10:52:16Z</time>
      </trkpt>
      <trkpt lat="44.91927" lon="5.35436">
        <ele>1445.48</ele>
        <time>2014-07-04T10:52:59Z</time>
      </trkpt>
      <trkpt lat="44.91926" lon="5.35436">
        <ele>1445.48</ele>
        <time>2014-07-04T10:53:34Z</time>
      </trkpt>
      <trkpt lat="44.91927" lon="5.35434">
        <ele>1445.48</ele>
        <time>2014-07-04T10:54:18Z</time>
      </trkpt>
      <trkpt lat="44.91927" lon="5.35439">
        <ele>1445</ele>
        <time>2014-07-04T10:54:57Z</time>
      </trkpt>
      <trkpt lat="44.91928" lon="5.35435">
        <ele>1445.48</ele>
        <time>2014-07-04T10:55:33Z</time>
      </trkpt>
      <trkpt lat="44.91929" lon="5.35437">
        <ele>1445</ele>
        <time>2014-07-04T10:56:14Z</time>
      </trkpt>
      <trkpt lat="44.91931" lon="5.35436">
        <ele>1445.48</ele>
        <time>2014-07-04T10:56:55Z</time>
      </trkpt>
      <trkpt lat="44.91931" lon="5.35435">
        <ele>1444.04</ele>
        <time>2014-07-04T10:57:36Z</time>
      </trkpt>
      <trkpt lat="44.91931" lon="5.35435">
        <ele>1444.52</ele>
        <time>2014-07-04T10:58:22Z</time>
      </trkpt>
      <trkpt lat="44.91931" lon="5.35435">
        <ele>1444.52</ele>
        <time>2014-07-04T10:59:03Z</time>
      </trkpt>
      <trkpt lat="44.9193" lon="5.35436">
        <ele>1444.52</ele>
        <time>2014-07-04T10:59:42Z</time>
      </trkpt>
      <trkpt lat="44.91929" lon="5.35434">
        <ele>1444.04</ele>
        <time>2014-07-04T11:00:22Z</time>
      </trkpt>
      <trkpt lat="44.9193" lon="5.35434">
        <ele>1444.04</ele>
        <time>2014-07-04T11:00:49Z</time>
      </trkpt>
      <trkpt lat="44.9193" lon="5.35436">
        <ele>1444.04</ele>
        <time>2014-07-04T11:01:05Z</time>
      </trkpt>
      <trkpt lat="44.91926" lon="5.35448">
        <ele>1444.52</ele>
        <time>2014-07-04T11:01:18Z</time>
      </trkpt>
      <trkpt lat="44.91926" lon="5.3545">
        <ele>1443.56</ele>
        <time>2014-07-04T11:01:25Z</time>
      </trkpt>
      <trkpt lat="44.91923" lon="5.35451">
        <ele>1443.56</ele>
        <time>2014-07-04T11:01:27Z</time>
      </trkpt>
      <trkpt lat="44.91922" lon="5.35452">
        <ele>1443.56</ele>
        <time>2014-07-04T11:01:28Z</time>
      </trkpt>
      <trkpt lat="44.91922" lon="5.35453">
        <ele>1443.56</ele>
        <time>2014-07-04T11:01:29Z</time>
      </trkpt>
      <trkpt lat="44.91921" lon="5.35455">
        <ele>1443.56</ele>
        <time>2014-07-04T11:01:30Z</time>
      </trkpt>
      <trkpt lat="44.9192" lon="5.35457">
        <ele>1443.56</ele>
        <time>2014-07-04T11:01:31Z</time>
      </trkpt>
      <trkpt lat="44.91913" lon="5.35494">
        <ele>1442.6</ele>
        <time>2014-07-04T11:01:42Z</time>
      </trkpt>
      <trkpt lat="44.91912" lon="5.35512">
        <ele>1440.67</ele>
        <time>2014-07-04T11:01:45Z</time>
      </trkpt>
      <trkpt lat="44.91912" lon="5.35518">
        <ele>1440.67</ele>
        <time>2014-07-04T11:01:46Z</time>
      </trkpt>
      <trkpt lat="44.91917" lon="5.35544">
        <ele>1439.23</ele>
        <time>2014-07-04T11:01:50Z</time>
      </trkpt>
      <trkpt lat="44.91923" lon="5.35568">
        <ele>1437.31</ele>
        <time>2014-07-04T11:01:53Z</time>
      </trkpt>
      <trkpt lat="44.91924" lon="5.35576">
        <ele>1436.83</ele>
        <time>2014-07-04T11:01:54Z</time>
      </trkpt>
      <trkpt lat="44.91931" lon="5.35603">
        <ele>1435.39</ele>
        <time>2014-07-04T11:02:00Z</time>
      </trkpt>
      <trkpt lat="44.91935" lon="5.35608">
        <ele>1434.42</ele>
        <time>2014-07-04T11:02:01Z</time>
      </trkpt>
      <trkpt lat="44.91938" lon="5.35614">
        <ele>1434.42</ele>
        <time>2014-07-04T11:02:02Z</time>
      </trkpt>
      <trkpt lat="44.91941" lon="5.35617">
        <ele>1434.42</ele>
        <time>2014-07-04T11:02:03Z</time>
      </trkpt>
      <trkpt lat="44.91943" lon="5.35618">
        <ele>1433.46</ele>
        <time>2014-07-04T11:02:04Z</time>
      </trkpt>
      <trkpt lat="44.91954" lon="5.35618">
        <ele>1432.5</ele>
        <time>2014-07-04T11:02:12Z</time>
      </trkpt>
      <trkpt lat="44.91967" lon="5.35612">
        <ele>1430.58</ele>
        <time>2014-07-04T11:02:15Z</time>
      </trkpt>
      <trkpt lat="44.91972" lon="5.3561">
        <ele>1429.14</ele>
        <time>2014-07-04T11:02:16Z</time>
      </trkpt>
      <trkpt lat="44.91978" lon="5.35608">
        <ele>1428.18</ele>
        <time>2014-07-04T11:02:17Z</time>
      </trkpt>
      <trkpt lat="44.91999" lon="5.35599">
        <ele>1423.85</ele>
        <time>2014-07-04T11:02:20Z</time>
      </trkpt>
      <trkpt lat="44.92007" lon="5.35597">
        <ele>1423.85</ele>
        <time>2014-07-04T11:02:21Z</time>
      </trkpt>
      <trkpt lat="44.92069" lon="5.35569">
        <ele>1423.85</ele>
        <time>2014-07-04T11:02:32Z</time>
      </trkpt>
      <trkpt lat="44.92085" lon="5.35566">
        <ele>1422.41</ele>
        <time>2014-07-04T11:02:35Z</time>
      </trkpt>
      <trkpt lat="44.92092" lon="5.35566">
        <ele>1421.93</ele>
        <time>2014-07-04T11:02:36Z</time>
      </trkpt>
      <trkpt lat="44.92099" lon="5.35567">
        <ele>1420.49</ele>
        <time>2014-07-04T11:02:37Z</time>
      </trkpt>
      <trkpt lat="44.92106" lon="5.35569">
        <ele>1419.52</ele>
        <time>2014-07-04T11:02:38Z</time>
      </trkpt>
      <trkpt lat="44.92114" lon="5.35573">
        <ele>1419.04</ele>
        <time>2014-07-04T11:02:39Z</time>
      </trkpt>
      <trkpt lat="44.92122" lon="5.35577">
        <ele>1418.08</ele>
        <time>2014-07-04T11:02:40Z</time>
      </trkpt>
      <trkpt lat="44.92129" lon="5.35583">
        <ele>1417.12</ele>
        <time>2014-07-04T11:02:41Z</time>
      </trkpt>
      <trkpt lat="44.92135" lon="5.3559">
        <ele>1415.68</ele>
        <time>2014-07-04T11:02:42Z</time>
      </trkpt>
      <trkpt lat="44.92141" lon="5.35597">
        <ele>1414.24</ele>
        <time>2014-07-04T11:02:43Z</time>
      </trkpt>
      <trkpt lat="44.92147" lon="5.35606">
        <ele>1413.76</ele>
        <time>2014-07-04T11:02:44Z</time>
      </trkpt>
      <trkpt lat="44.92178" lon="5.35654">
        <ele>1410.39</ele>
        <time>2014-07-04T11:02:50Z</time>
      </trkpt>
      <trkpt lat="44.92188" lon="5.35667">
        <ele>1411.35</ele>
        <time>2014-07-04T11:02:52Z</time>
      </trkpt>
      <trkpt lat="44.92193" lon="5.35671">
        <ele>1411.35</ele>
        <time>2014-07-04T11:02:53Z</time>
      </trkpt>
      <trkpt lat="44.92198" lon="5.35674">
        <ele>1412.31</ele>
        <time>2014-07-04T11:02:54Z</time>
      </trkpt>
      <trkpt lat="44.92202" lon="5.35675">
        <ele>1412.79</ele>
        <time>2014-07-04T11:02:55Z</time>
      </trkpt>
      <trkpt lat="44.92207" lon="5.35676">
        <ele>1412.79</ele>
        <time>2014-07-04T11:02:56Z</time>
      </trkpt>
      <trkpt lat="44.92211" lon="5.35677">
        <ele>1412.31</ele>
        <time>2014-07-04T11:02:57Z</time>
      </trkpt>
      <trkpt lat="44.92244" lon="5.35684">
        <ele>1413.28</ele>
        <time>2014-07-04T11:03:10Z</time>
      </trkpt>
      <trkpt lat="44.92249" lon="5.35685">
        <ele>1413.76</ele>
        <time>2014-07-04T11:03:13Z</time>
      </trkpt>
      <trkpt lat="44.9225" lon="5.35686">
        <ele>1414.72</ele>
        <time>2014-07-04T11:03:14Z</time>
      </trkpt>
      <trkpt lat="44.92252" lon="5.35686">
        <ele>1415.2</ele>
        <time>2014-07-04T11:03:16Z</time>
      </trkpt>
      <trkpt lat="44.92253" lon="5.35686">
        <ele>1415.2</ele>
        <time>2014-07-04T11:03:17Z</time>
      </trkpt>
      <trkpt lat="44.92257" lon="5.35688">
        <ele>1416.16</ele>
        <time>2014-07-04T11:03:34Z</time>
      </trkpt>
      <trkpt lat="44.92257" lon="5.35687">
        <ele>1416.16</ele>
        <time>2014-07-04T11:03:59Z</time>
      </trkpt>
      <trkpt lat="44.92256" lon="5.35689">
        <ele>1415.2</ele>
        <time>2014-07-04T11:04:11Z</time>
      </trkpt>
      <trkpt lat="44.92254" lon="5.35689">
        <ele>1414.24</ele>
        <time>2014-07-04T11:04:22Z</time>
      </trkpt>
      <trkpt lat="44.92253" lon="5.35688">
        <ele>1415.2</ele>
        <time>2014-07-04T11:05:02Z</time>
      </trkpt>
      <trkpt lat="44.92254" lon="5.35688">
        <ele>1414.72</ele>
        <time>2014-07-04T11:05:23Z</time>
      </trkpt>
      <trkpt lat="44.92254" lon="5.35687">
        <ele>1414.72</ele>
        <time>2014-07-04T11:05:51Z</time>
      </trkpt>
      <trkpt lat="44.92254" lon="5.35688">
        <ele>1414.24</ele>
        <time>2014-07-04T11:06:14Z</time>
      </trkpt>
      <trkpt lat="44.92255" lon="5.35688">
        <ele>1414.24</ele>
        <time>2014-07-04T11:06:48Z</time>
      </trkpt>
      <trkpt lat="44.92255" lon="5.35688">
        <ele>1413.76</ele>
        <time>2014-07-04T11:07:26Z</time>
      </trkpt>
      <trkpt lat="44.92255" lon="5.35688">
        <ele>1413.76</ele>
        <time>2014-07-04T11:08:02Z</time>
      </trkpt>
      <trkpt lat="44.92255" lon="5.35687">
        <ele>1413.76</ele>
        <time>2014-07-04T11:08:35Z</time>
      </trkpt>
      <trkpt lat="44.92256" lon="5.35688">
        <ele>1413.28</ele>
        <time>2014-07-04T11:09:13Z</time>
      </trkpt>
      <trkpt lat="44.92256" lon="5.35688">
        <ele>1413.76</ele>
        <time>2014-07-04T11:09:52Z</time>
      </trkpt>
      <trkpt lat="44.92256" lon="5.35688">
        <ele>1414.72</ele>
        <time>2014-07-04T11:10:26Z</time>
      </trkpt>
      <trkpt lat="44.92257" lon="5.35691">
        <ele>1415.68</ele>
        <time>2014-07-04T11:10:34Z</time>
      </trkpt>
      <trkpt lat="44.92263" lon="5.35694">
        <ele>1415.2</ele>
        <time>2014-07-04T11:10:47Z</time>
      </trkpt>
      <trkpt lat="44.92264" lon="5.35694">
        <ele>1414.24</ele>
        <time>2014-07-04T11:10:49Z</time>
      </trkpt>
      <trkpt lat="44.92265" lon="5.35694">
        <ele>1414.24</ele>
        <time>2014-07-04T11:10:50Z</time>
      </trkpt>
      <trkpt lat="44.92267" lon="5.35695">
        <ele>1413.76</ele>
        <time>2014-07-04T11:10:51Z</time>
      </trkpt>
      <trkpt lat="44.9227" lon="5.35696">
        <ele>1413.76</ele>
        <time>2014-07-04T11:10:52Z</time>
      </trkpt>
      <trkpt lat="44.92273" lon="5.35697">
        <ele>1413.28</ele>
        <time>2014-07-04T11:10:53Z</time>
      </trkpt>
      <trkpt lat="44.92294" lon="5.35706">
        <ele>1413.76</ele>
        <time>2014-07-04T11:11:02Z</time>
      </trkpt>
      <trkpt lat="44.92297" lon="5.3572">
        <ele>1414.24</ele>
        <time>2014-07-04T11:11:11Z</time>
      </trkpt>
      <trkpt lat="44.92298" lon="5.35726">
        <ele>1415.2</ele>
        <time>2014-07-04T11:11:15Z</time>
      </trkpt>
      <trkpt lat="44.92299" lon="5.35732">
        <ele>1415.2</ele>
        <time>2014-07-04T11:11:19Z</time>
      </trkpt>
      <trkpt lat="44.92299" lon="5.35735">
        <ele>1415.2</ele>
        <time>2014-07-04T11:11:21Z</time>
      </trkpt>
      <trkpt lat="44.92301" lon="5.35759">
        <ele>1416.64</ele>
        <time>2014-07-04T11:11:36Z</time>
      </trkpt>
      <trkpt lat="44.92302" lon="5.35769">
        <ele>1416.64</ele>
        <time>2014-07-04T11:11:46Z</time>
      </trkpt>
      <trkpt lat="44.92303" lon="5.3578">
        <ele>1416.64</ele>
        <time>2014-07-04T11:11:52Z</time>
      </trkpt>
      <trkpt lat="44.92308" lon="5.35814">
        <ele>1417.12</ele>
        <time>2014-07-04T11:12:09Z</time>
      </trkpt>
      <trkpt lat="44.92309" lon="5.35843">
        <ele>1417.6</ele>
        <time>2014-07-04T11:12:23Z</time>
      </trkpt>
      <trkpt lat="44.92312" lon="5.35872">
        <ele>1419.04</ele>
        <time>2014-07-04T11:12:38Z</time>
      </trkpt>
      <trkpt lat="44.92315" lon="5.35901">
        <ele>1420.49</ele>
        <time>2014-07-04T11:12:53Z</time>
      </trkpt>
      <trkpt lat="44.92324" lon="5.35931">
        <ele>1422.89</ele>
        <time>2014-07-04T11:13:10Z</time>
      </trkpt>
      <trkpt lat="44.92329" lon="5.35941">
        <ele>1425.77</ele>
        <time>2014-07-04T11:13:17Z</time>
      </trkpt>
      <trkpt lat="44.9233" lon="5.35942">
        <ele>1425.77</ele>
        <time>2014-07-04T11:13:18Z</time>
      </trkpt>
      <trkpt lat="44.92331" lon="5.35943">
        <ele>1425.77</ele>
        <time>2014-07-04T11:13:19Z</time>
      </trkpt>
      <trkpt lat="44.92333" lon="5.35951">
        <ele>1426.25</ele>
        <time>2014-07-04T11:13:24Z</time>
      </trkpt>
      <trkpt lat="44.92334" lon="5.35971">
        <ele>1427.21</ele>
        <time>2014-07-04T11:13:35Z</time>
      </trkpt>
      <trkpt lat="44.92333" lon="5.35985">
        <ele>1427.7</ele>
        <time>2014-07-04T11:13:46Z</time>
      </trkpt>
      <trkpt lat="44.92332" lon="5.35991">
        <ele>1428.66</ele>
        <time>2014-07-04T11:13:50Z</time>
      </trkpt>
      <trkpt lat="44.92329" lon="5.36016">
        <ele>1429.14</ele>
        <time>2014-07-04T11:14:06Z</time>
      </trkpt>
      <trkpt lat="44.92329" lon="5.36027">
        <ele>1430.1</ele>
        <time>2014-07-04T11:14:14Z</time>
      </trkpt>
      <trkpt lat="44.92328" lon="5.36037">
        <ele>1431.06</ele>
        <time>2014-07-04T11:14:21Z</time>
      </trkpt>
      <trkpt lat="44.92326" lon="5.36051">
        <ele>1431.54</ele>
        <time>2014-07-04T11:14:29Z</time>
      </trkpt>
      <trkpt lat="44.92326" lon="5.3606">
        <ele>1433.46</ele>
        <time>2014-07-04T11:14:33Z</time>
      </trkpt>
      <trkpt lat="44.92326" lon="5.3607">
        <ele>1435.39</ele>
        <time>2014-07-04T11:14:38Z</time>
      </trkpt>
      <trkpt lat="44.92323" lon="5.36092">
        <ele>1436.83</ele>
        <time>2014-07-04T11:14:52Z</time>
      </trkpt>
      <trkpt lat="44.92323" lon="5.36096">
        <ele>1437.31</ele>
        <time>2014-07-04T11:14:55Z</time>
      </trkpt>
      <trkpt lat="44.92321" lon="5.36113">
        <ele>1438.27</ele>
        <time>2014-07-04T11:15:08Z</time>
      </trkpt>
      <trkpt lat="44.92321" lon="5.36131">
        <ele>1438.27</ele>
        <time>2014-07-04T11:15:19Z</time>
      </trkpt>
      <trkpt lat="44.92321" lon="5.36138">
        <ele>1438.75</ele>
        <time>2014-07-04T11:15:23Z</time>
      </trkpt>
      <trkpt lat="44.92322" lon="5.36145">
        <ele>1439.23</ele>
        <time>2014-07-04T11:15:27Z</time>
      </trkpt>
      <trkpt lat="44.92321" lon="5.36152">
        <ele>1440.19</ele>
        <time>2014-07-04T11:15:32Z</time>
      </trkpt>
      <trkpt lat="44.92322" lon="5.36159">
        <ele>1440.67</ele>
        <time>2014-07-04T11:15:36Z</time>
      </trkpt>
      <trkpt lat="44.92325" lon="5.36166">
        <ele>1440.67</ele>
        <time>2014-07-04T11:15:39Z</time>
      </trkpt>
      <trkpt lat="44.9233" lon="5.36185">
        <ele>1442.6</ele>
        <time>2014-07-04T11:15:49Z</time>
      </trkpt>
      <trkpt lat="44.92335" lon="5.36204">
        <ele>1444.04</ele>
        <time>2014-07-04T11:16:02Z</time>
      </trkpt>
      <trkpt lat="44.92339" lon="5.36224">
        <ele>1445</ele>
        <time>2014-07-04T11:16:14Z</time>
      </trkpt>
      <trkpt lat="44.92345" lon="5.36245">
        <ele>1447.88</ele>
        <time>2014-07-04T11:16:28Z</time>
      </trkpt>
      <trkpt lat="44.92346" lon="5.36246">
        <ele>1447.88</ele>
        <time>2014-07-04T11:16:29Z</time>
      </trkpt>
      <trkpt lat="44.92348" lon="5.36253">
        <ele>1448.36</ele>
        <time>2014-07-04T11:16:34Z</time>
      </trkpt>
      <trkpt lat="44.92353" lon="5.36265">
        <ele>1449.32</ele>
        <time>2014-07-04T11:16:42Z</time>
      </trkpt>
      <trkpt lat="44.92357" lon="5.36287">
        <ele>1450.77</ele>
        <time>2014-07-04T11:16:53Z</time>
      </trkpt>
      <trkpt lat="44.92362" lon="5.36315">
        <ele>1451.25</ele>
        <time>2014-07-04T11:17:05Z</time>
      </trkpt>
      <trkpt lat="44.92364" lon="5.36327">
        <ele>1451.73</ele>
        <time>2014-07-04T11:17:10Z</time>
      </trkpt>
      <trkpt lat="44.92381" lon="5.36368">
        <ele>1453.17</ele>
        <time>2014-07-04T11:17:24Z</time>
      </trkpt>
      <trkpt lat="44.92393" lon="5.36384">
        <ele>1453.65</ele>
        <time>2014-07-04T11:17:32Z</time>
      </trkpt>
      <trkpt lat="44.924" lon="5.36398">
        <ele>1455.09</ele>
        <time>2014-07-04T11:17:40Z</time>
      </trkpt>
      <trkpt lat="44.92403" lon="5.36403">
        <ele>1455.09</ele>
        <time>2014-07-04T11:17:53Z</time>
      </trkpt>
      <trkpt lat="44.92407" lon="5.3641">
        <ele>1455.09</ele>
        <time>2014-07-04T11:17:57Z</time>
      </trkpt>
      <trkpt lat="44.92427" lon="5.36458">
        <ele>1453.17</ele>
        <time>2014-07-04T11:18:09Z</time>
      </trkpt>
      <trkpt lat="44.92438" lon="5.36489">
        <ele>1453.17</ele>
        <time>2014-07-04T11:18:17Z</time>
      </trkpt>
      <trkpt lat="44.92445" lon="5.36503">
        <ele>1453.17</ele>
        <time>2014-07-04T11:18:31Z</time>
      </trkpt>
      <trkpt lat="44.92446" lon="5.36507">
        <ele>1452.69</ele>
        <time>2014-07-04T11:18:36Z</time>
      </trkpt>
      <trkpt lat="44.9245" lon="5.36518">
        <ele>1451.73</ele>
        <time>2014-07-04T11:18:38Z</time>
      </trkpt>
      <trkpt lat="44.92452" lon="5.36526">
        <ele>1450.77</ele>
        <time>2014-07-04T11:18:39Z</time>
      </trkpt>
      <trkpt lat="44.9246" lon="5.3655">
        <ele>1447.4</ele>
        <time>2014-07-04T11:18:42Z</time>
      </trkpt>
      <trkpt lat="44.92461" lon="5.36556">
        <ele>1446.44</ele>
        <time>2014-07-04T11:18:43Z</time>
      </trkpt>
      <trkpt lat="44.92462" lon="5.36561">
        <ele>1446.44</ele>
        <time>2014-07-04T11:18:44Z</time>
      </trkpt>
      <trkpt lat="44.92464" lon="5.36567">
        <ele>1445.96</ele>
        <time>2014-07-04T11:18:45Z</time>
      </trkpt>
      <trkpt lat="44.92469" lon="5.36587">
        <ele>1442.11</ele>
        <time>2014-07-04T11:18:48Z</time>
      </trkpt>
      <trkpt lat="44.92475" lon="5.36607">
        <ele>1438.27</ele>
        <time>2014-07-04T11:18:50Z</time>
      </trkpt>
      <trkpt lat="44.92479" lon="5.36619">
        <ele>1436.83</ele>
        <time>2014-07-04T11:18:51Z</time>
      </trkpt>
      <trkpt lat="44.9249" lon="5.36644">
        <ele>1433.46</ele>
        <time>2014-07-04T11:18:53Z</time>
      </trkpt>
      <trkpt lat="44.92496" lon="5.36656">
        <ele>1432.5</ele>
        <time>2014-07-04T11:18:54Z</time>
      </trkpt>
      <trkpt lat="44.92503" lon="5.36665">
        <ele>1432.5</ele>
        <time>2014-07-04T11:18:55Z</time>
      </trkpt>
      <trkpt lat="44.9251" lon="5.36672">
        <ele>1432.98</ele>
        <time>2014-07-04T11:18:56Z</time>
      </trkpt>
      <trkpt lat="44.92518" lon="5.36679">
        <ele>1432.98</ele>
        <time>2014-07-04T11:18:57Z</time>
      </trkpt>
      <trkpt lat="44.92526" lon="5.36683">
        <ele>1433.94</ele>
        <time>2014-07-04T11:18:58Z</time>
      </trkpt>
      <trkpt lat="44.92533" lon="5.36684">
        <ele>1434.42</ele>
        <time>2014-07-04T11:18:59Z</time>
      </trkpt>
      <trkpt lat="44.9254" lon="5.36684">
        <ele>1433.94</ele>
        <time>2014-07-04T11:19:00Z</time>
      </trkpt>
      <trkpt lat="44.92547" lon="5.36683">
        <ele>1433.94</ele>
        <time>2014-07-04T11:19:01Z</time>
      </trkpt>
      <trkpt lat="44.92553" lon="5.36681">
        <ele>1433.94</ele>
        <time>2014-07-04T11:19:02Z</time>
      </trkpt>
      <trkpt lat="44.92559" lon="5.36678">
        <ele>1433.94</ele>
        <time>2014-07-04T11:19:03Z</time>
      </trkpt>
      <trkpt lat="44.92565" lon="5.36674">
        <ele>1434.42</ele>
        <time>2014-07-04T11:19:04Z</time>
      </trkpt>
      <trkpt lat="44.9257" lon="5.36671">
        <ele>1433.94</ele>
        <time>2014-07-04T11:19:05Z</time>
      </trkpt>
      <trkpt lat="44.92604" lon="5.36641">
        <ele>1431.54</ele>
        <time>2014-07-04T11:19:12Z</time>
      </trkpt>
      <trkpt lat="44.92608" lon="5.36635">
        <ele>1431.54</ele>
        <time>2014-07-04T11:19:13Z</time>
      </trkpt>
      <trkpt lat="44.92621" lon="5.36597">
        <ele>1434.91</ele>
        <time>2014-07-04T11:19:21Z</time>
      </trkpt>
      <trkpt lat="44.92622" lon="5.36593">
        <ele>1434.91</ele>
        <time>2014-07-04T11:19:22Z</time>
      </trkpt>
      <trkpt lat="44.92641" lon="5.3656">
        <ele>1437.31</ele>
        <time>2014-07-04T11:19:34Z</time>
      </trkpt>
      <trkpt lat="44.92667" lon="5.36532">
        <ele>1434.91</ele>
        <time>2014-07-04T11:19:44Z</time>
      </trkpt>
      <trkpt lat="44.92684" lon="5.36517">
        <ele>1432.98</ele>
        <time>2014-07-04T11:19:47Z</time>
      </trkpt>
      <trkpt lat="44.92697" lon="5.36508">
        <ele>1435.39</ele>
        <time>2014-07-04T11:19:50Z</time>
      </trkpt>
      <trkpt lat="44.92719" lon="5.36499">
        <ele>1436.83</ele>
        <time>2014-07-04T11:19:59Z</time>
      </trkpt>
      <trkpt lat="44.92732" lon="5.36499">
        <ele>1438.27</ele>
        <time>2014-07-04T11:20:07Z</time>
      </trkpt>
      <trkpt lat="44.92734" lon="5.36499">
        <ele>1438.27</ele>
        <time>2014-07-04T11:20:08Z</time>
      </trkpt>
      <trkpt lat="44.92742" lon="5.36496">
        <ele>1439.71</ele>
        <time>2014-07-04T11:20:20Z</time>
      </trkpt>
      <trkpt lat="44.92748" lon="5.36485">
        <ele>1441.63</ele>
        <time>2014-07-04T11:20:36Z</time>
      </trkpt>
      <trkpt lat="44.92752" lon="5.36476">
        <ele>1443.08</ele>
        <time>2014-07-04T11:20:49Z</time>
      </trkpt>
      <trkpt lat="44.92752" lon="5.36475">
        <ele>1443.56</ele>
        <time>2014-07-04T11:20:51Z</time>
      </trkpt>
      <trkpt lat="44.92757" lon="5.36462">
        <ele>1445.96</ele>
        <time>2014-07-04T11:21:03Z</time>
      </trkpt>
      <trkpt lat="44.92759" lon="5.36455">
        <ele>1446.92</ele>
        <time>2014-07-04T11:21:14Z</time>
      </trkpt>
      <trkpt lat="44.9276" lon="5.36453">
        <ele>1447.4</ele>
        <time>2014-07-04T11:21:16Z</time>
      </trkpt>
      <trkpt lat="44.9276" lon="5.36451">
        <ele>1447.4</ele>
        <time>2014-07-04T11:21:17Z</time>
      </trkpt>
      <trkpt lat="44.92761" lon="5.36449">
        <ele>1446.92</ele>
        <time>2014-07-04T11:21:18Z</time>
      </trkpt>
      <trkpt lat="44.92769" lon="5.36427">
        <ele>1447.88</ele>
        <time>2014-07-04T11:21:30Z</time>
      </trkpt>
      <trkpt lat="44.92772" lon="5.36421">
        <ele>1448.36</ele>
        <time>2014-07-04T11:21:33Z</time>
      </trkpt>
      <trkpt lat="44.92773" lon="5.36419">
        <ele>1447.88</ele>
        <time>2014-07-04T11:21:34Z</time>
      </trkpt>
      <trkpt lat="44.92774" lon="5.36416">
        <ele>1448.36</ele>
        <time>2014-07-04T11:21:35Z</time>
      </trkpt>
      <trkpt lat="44.92775" lon="5.36414">
        <ele>1448.36</ele>
        <time>2014-07-04T11:21:36Z</time>
      </trkpt>
      <trkpt lat="44.92776" lon="5.36411">
        <ele>1448.36</ele>
        <time>2014-07-04T11:21:37Z</time>
      </trkpt>
      <trkpt lat="44.92787" lon="5.36379">
        <ele>1449.81</ele>
        <time>2014-07-04T11:21:49Z</time>
      </trkpt>
      <trkpt lat="44.92797" lon="5.36346">
        <ele>1449.81</ele>
        <time>2014-07-04T11:21:59Z</time>
      </trkpt>
      <trkpt lat="44.92797" lon="5.36344">
        <ele>1450.29</ele>
        <time>2014-07-04T11:22:00Z</time>
      </trkpt>
      <trkpt lat="44.92799" lon="5.36338">
        <ele>1450.29</ele>
        <time>2014-07-04T11:22:02Z</time>
      </trkpt>
      <trkpt lat="44.92799" lon="5.36334">
        <ele>1450.29</ele>
        <time>2014-07-04T11:22:03Z</time>
      </trkpt>
      <trkpt lat="44.928" lon="5.3633">
        <ele>1450.77</ele>
        <time>2014-07-04T11:22:04Z</time>
      </trkpt>
      <trkpt lat="44.92803" lon="5.3631">
        <ele>1452.21</ele>
        <time>2014-07-04T11:22:09Z</time>
      </trkpt>
      <trkpt lat="44.92808" lon="5.36284">
        <ele>1454.13</ele>
        <time>2014-07-04T11:22:18Z</time>
      </trkpt>
      <trkpt lat="44.92808" lon="5.36282">
        <ele>1454.13</ele>
        <time>2014-07-04T11:22:19Z</time>
      </trkpt>
      <trkpt lat="44.92808" lon="5.36279">
        <ele>1454.61</ele>
        <time>2014-07-04T11:22:20Z</time>
      </trkpt>
      <trkpt lat="44.92808" lon="5.36276">
        <ele>1455.09</ele>
        <time>2014-07-04T11:22:21Z</time>
      </trkpt>
      <trkpt lat="44.92808" lon="5.36274">
        <ele>1454.61</ele>
        <time>2014-07-04T11:22:22Z</time>
      </trkpt>
      <trkpt lat="44.92809" lon="5.36271">
        <ele>1455.09</ele>
        <time>2014-07-04T11:22:23Z</time>
      </trkpt>
      <trkpt lat="44.92816" lon="5.36243">
        <ele>1454.61</ele>
        <time>2014-07-04T11:22:33Z</time>
      </trkpt>
      <trkpt lat="44.92817" lon="5.36241">
        <ele>1455.09</ele>
        <time>2014-07-04T11:22:34Z</time>
      </trkpt>
      <trkpt lat="44.92817" lon="5.36238">
        <ele>1454.61</ele>
        <time>2014-07-04T11:22:35Z</time>
      </trkpt>
      <trkpt lat="44.92818" lon="5.36237">
        <ele>1455.09</ele>
        <time>2014-07-04T11:22:36Z</time>
      </trkpt>
      <trkpt lat="44.92819" lon="5.36235">
        <ele>1455.09</ele>
        <time>2014-07-04T11:22:37Z</time>
      </trkpt>
      <trkpt lat="44.9282" lon="5.36233">
        <ele>1455.09</ele>
        <time>2014-07-04T11:22:38Z</time>
      </trkpt>
      <trkpt lat="44.92828" lon="5.36202">
        <ele>1454.61</ele>
        <time>2014-07-04T11:22:51Z</time>
      </trkpt>
      <trkpt lat="44.92828" lon="5.3619">
        <ele>1456.53</ele>
        <time>2014-07-04T11:22:58Z</time>
      </trkpt>
      <trkpt lat="44.92828" lon="5.36174">
        <ele>1457.5</ele>
        <time>2014-07-04T11:23:07Z</time>
      </trkpt>
      <trkpt lat="44.92828" lon="5.36172">
        <ele>1457.98</ele>
        <time>2014-07-04T11:23:08Z</time>
      </trkpt>
      <trkpt lat="44.92828" lon="5.36171">
        <ele>1458.46</ele>
        <time>2014-07-04T11:23:09Z</time>
      </trkpt>
      <trkpt lat="44.92828" lon="5.36169">
        <ele>1458.46</ele>
        <time>2014-07-04T11:23:10Z</time>
      </trkpt>
      <trkpt lat="44.92828" lon="5.36166">
        <ele>1458.46</ele>
        <time>2014-07-04T11:23:11Z</time>
      </trkpt>
      <trkpt lat="44.92828" lon="5.36164">
        <ele>1458.94</ele>
        <time>2014-07-04T11:23:12Z</time>
      </trkpt>
      <trkpt lat="44.92828" lon="5.36159">
        <ele>1459.42</ele>
        <time>2014-07-04T11:23:14Z</time>
      </trkpt>
      <trkpt lat="44.92827" lon="5.36157">
        <ele>1459.42</ele>
        <time>2014-07-04T11:23:15Z</time>
      </trkpt>
      <trkpt lat="44.92827" lon="5.36155">
        <ele>1459.42</ele>
        <time>2014-07-04T11:23:16Z</time>
      </trkpt>
      <trkpt lat="44.92827" lon="5.36153">
        <ele>1459.9</ele>
        <time>2014-07-04T11:23:17Z</time>
      </trkpt>
      <trkpt lat="44.92827" lon="5.36151">
        <ele>1459.9</ele>
        <time>2014-07-04T11:23:18Z</time>
      </trkpt>
      <trkpt lat="44.92827" lon="5.36149">
        <ele>1459.9</ele>
        <time>2014-07-04T11:23:19Z</time>
      </trkpt>
      <trkpt lat="44.92827" lon="5.36139">
        <ele>1461.34</ele>
        <time>2014-07-04T11:23:24Z</time>
      </trkpt>
      <trkpt lat="44.92827" lon="5.36135">
        <ele>1461.82</ele>
        <time>2014-07-04T11:23:26Z</time>
      </trkpt>
      <trkpt lat="44.92827" lon="5.36133">
        <ele>1462.3</ele>
        <time>2014-07-04T11:23:27Z</time>
      </trkpt>
      <trkpt lat="44.92826" lon="5.36131">
        <ele>1462.3</ele>
        <time>2014-07-04T11:23:28Z</time>
      </trkpt>
      <trkpt lat="44.92827" lon="5.3613">
        <ele>1462.3</ele>
        <time>2014-07-04T11:23:29Z</time>
      </trkpt>
      <trkpt lat="44.92827" lon="5.36118">
        <ele>1463.26</ele>
        <time>2014-07-04T11:23:36Z</time>
      </trkpt>
      <trkpt lat="44.92827" lon="5.36116">
        <ele>1463.26</ele>
        <time>2014-07-04T11:23:37Z</time>
      </trkpt>
      <trkpt lat="44.92827" lon="5.36114">
        <ele>1463.26</ele>
        <time>2014-07-04T11:23:38Z</time>
      </trkpt>
      <trkpt lat="44.92827" lon="5.36112">
        <ele>1463.26</ele>
        <time>2014-07-04T11:23:39Z</time>
      </trkpt>
      <trkpt lat="44.92828" lon="5.3611">
        <ele>1463.26</ele>
        <time>2014-07-04T11:23:40Z</time>
      </trkpt>
      <trkpt lat="44.92841" lon="5.36078">
        <ele>1463.74</ele>
        <time>2014-07-04T11:23:54Z</time>
      </trkpt>
      <trkpt lat="44.9285" lon="5.36051">
        <ele>1463.26</ele>
        <time>2014-07-04T11:24:04Z</time>
      </trkpt>
      <trkpt lat="44.92851" lon="5.36047">
        <ele>1462.3</ele>
        <time>2014-07-04T11:24:06Z</time>
      </trkpt>
      <trkpt lat="44.92851" lon="5.36044">
        <ele>1461.82</ele>
        <time>2014-07-04T11:24:07Z</time>
      </trkpt>
      <trkpt lat="44.92849" lon="5.36039">
        <ele>1461.34</ele>
        <time>2014-07-04T11:24:08Z</time>
      </trkpt>
      <trkpt lat="44.92847" lon="5.36033">
        <ele>1460.86</ele>
        <time>2014-07-04T11:24:09Z</time>
      </trkpt>
      <trkpt lat="44.92847" lon="5.36025">
        <ele>1460.86</ele>
        <time>2014-07-04T11:24:10Z</time>
      </trkpt>
      <trkpt lat="44.92846" lon="5.36019">
        <ele>1460.38</ele>
        <time>2014-07-04T11:24:11Z</time>
      </trkpt>
      <trkpt lat="44.92846" lon="5.36012">
        <ele>1460.38</ele>
        <time>2014-07-04T11:24:12Z</time>
      </trkpt>
      <trkpt lat="44.92845" lon="5.36004">
        <ele>1459.9</ele>
        <time>2014-07-04T11:24:13Z</time>
      </trkpt>
      <trkpt lat="44.92845" lon="5.35997">
        <ele>1459.42</ele>
        <time>2014-07-04T11:24:14Z</time>
      </trkpt>
      <trkpt lat="44.92845" lon="5.35989">
        <ele>1459.42</ele>
        <time>2014-07-04T11:24:15Z</time>
      </trkpt>
      <trkpt lat="44.92845" lon="5.3598">
        <ele>1458.94</ele>
        <time>2014-07-04T11:24:16Z</time>
      </trkpt>
      <trkpt lat="44.92846" lon="5.35972">
        <ele>1458.46</ele>
        <time>2014-07-04T11:24:17Z</time>
      </trkpt>
      <trkpt lat="44.92847" lon="5.35964">
        <ele>1458.46</ele>
        <time>2014-07-04T11:24:18Z</time>
      </trkpt>
      <trkpt lat="44.92848" lon="5.35955">
        <ele>1458.46</ele>
        <time>2014-07-04T11:24:19Z</time>
      </trkpt>
      <trkpt lat="44.92849" lon="5.35945">
        <ele>1457.98</ele>
        <time>2014-07-04T11:24:20Z</time>
      </trkpt>
      <trkpt lat="44.92849" lon="5.35935">
        <ele>1457.02</ele>
        <time>2014-07-04T11:24:21Z</time>
      </trkpt>
      <trkpt lat="44.92849" lon="5.35925">
        <ele>1456.53</ele>
        <time>2014-07-04T11:24:22Z</time>
      </trkpt>
      <trkpt lat="44.9285" lon="5.35914">
        <ele>1456.05</ele>
        <time>2014-07-04T11:24:23Z</time>
      </trkpt>
      <trkpt lat="44.92853" lon="5.35905">
        <ele>1455.57</ele>
        <time>2014-07-04T11:24:24Z</time>
      </trkpt>
      <trkpt lat="44.92856" lon="5.35897">
        <ele>1455.09</ele>
        <time>2014-07-04T11:24:25Z</time>
      </trkpt>
      <trkpt lat="44.9286" lon="5.3589">
        <ele>1455.09</ele>
        <time>2014-07-04T11:24:26Z</time>
      </trkpt>
      <trkpt lat="44.92865" lon="5.35885">
        <ele>1454.61</ele>
        <time>2014-07-04T11:24:27Z</time>
      </trkpt>
      <trkpt lat="44.92869" lon="5.35881">
        <ele>1455.09</ele>
        <time>2014-07-04T11:24:28Z</time>
      </trkpt>
      <trkpt lat="44.92876" lon="5.35873">
        <ele>1453.65</ele>
        <time>2014-07-04T11:24:30Z</time>
      </trkpt>
      <trkpt lat="44.92878" lon="5.35868">
        <ele>1452.69</ele>
        <time>2014-07-04T11:24:31Z</time>
      </trkpt>
      <trkpt lat="44.92883" lon="5.3585">
        <ele>1451.73</ele>
        <time>2014-07-04T11:24:33Z</time>
      </trkpt>
      <trkpt lat="44.92883" lon="5.3584">
        <ele>1451.73</ele>
        <time>2014-07-04T11:24:34Z</time>
      </trkpt>
      <trkpt lat="44.92884" lon="5.35832">
        <ele>1452.21</ele>
        <time>2014-07-04T11:24:35Z</time>
      </trkpt>
      <trkpt lat="44.92885" lon="5.35825">
        <ele>1452.69</ele>
        <time>2014-07-04T11:24:36Z</time>
      </trkpt>
      <trkpt lat="44.92886" lon="5.35818">
        <ele>1453.17</ele>
        <time>2014-07-04T11:24:37Z</time>
      </trkpt>
      <trkpt lat="44.92888" lon="5.35812">
        <ele>1453.17</ele>
        <time>2014-07-04T11:24:38Z</time>
      </trkpt>
      <trkpt lat="44.9289" lon="5.35806">
        <ele>1453.17</ele>
        <time>2014-07-04T11:24:39Z</time>
      </trkpt>
      <trkpt lat="44.92898" lon="5.35784">
        <ele>1456.05</ele>
        <time>2014-07-04T11:24:44Z</time>
      </trkpt>
      <trkpt lat="44.92916" lon="5.3578">
        <ele>1457.02</ele>
        <time>2014-07-04T11:24:55Z</time>
      </trkpt>
      <trkpt lat="44.92932" lon="5.35784">
        <ele>1456.53</ele>
        <time>2014-07-04T11:25:02Z</time>
      </trkpt>
      <trkpt lat="44.92934" lon="5.35785">
        <ele>1456.53</ele>
        <time>2014-07-04T11:25:03Z</time>
      </trkpt>
      <trkpt lat="44.92937" lon="5.35785">
        <ele>1457.02</ele>
        <time>2014-07-04T11:25:04Z</time>
      </trkpt>
      <trkpt lat="44.9294" lon="5.35785">
        <ele>1457.02</ele>
        <time>2014-07-04T11:25:05Z</time>
      </trkpt>
      <trkpt lat="44.92943" lon="5.35785">
        <ele>1457.5</ele>
        <time>2014-07-04T11:25:06Z</time>
      </trkpt>
      <trkpt lat="44.92946" lon="5.35785">
        <ele>1457.02</ele>
        <time>2014-07-04T11:25:07Z</time>
      </trkpt>
      <trkpt lat="44.92949" lon="5.35785">
        <ele>1457.02</ele>
        <time>2014-07-04T11:25:08Z</time>
      </trkpt>
      <trkpt lat="44.92988" lon="5.35785">
        <ele>1457.5</ele>
        <time>2014-07-04T11:25:21Z</time>
      </trkpt>
      <trkpt lat="44.93006" lon="5.3579">
        <ele>1456.05</ele>
        <time>2014-07-04T11:25:25Z</time>
      </trkpt>
      <trkpt lat="44.93011" lon="5.35794">
        <ele>1454.61</ele>
        <time>2014-07-04T11:25:26Z</time>
      </trkpt>
      <trkpt lat="44.93017" lon="5.35798">
        <ele>1454.61</ele>
        <time>2014-07-04T11:25:27Z</time>
      </trkpt>
      <trkpt lat="44.93062" lon="5.35824">
        <ele>1456.05</ele>
        <time>2014-07-04T11:25:37Z</time>
      </trkpt>
      <trkpt lat="44.93089" lon="5.3585">
        <ele>1457.98</ele>
        <time>2014-07-04T11:25:48Z</time>
      </trkpt>
      <trkpt lat="44.9311" lon="5.3587">
        <ele>1459.42</ele>
        <time>2014-07-04T11:25:58Z</time>
      </trkpt>
      <trkpt lat="44.93129" lon="5.35905">
        <ele>1456.05</ele>
        <time>2014-07-04T11:26:08Z</time>
      </trkpt>
      <trkpt lat="44.93134" lon="5.35913">
        <ele>1454.13</ele>
        <time>2014-07-04T11:26:09Z</time>
      </trkpt>
      <trkpt lat="44.93183" lon="5.3599">
        <ele>1452.69</ele>
        <time>2014-07-04T11:26:18Z</time>
      </trkpt>
      <trkpt lat="44.93187" lon="5.35995">
        <ele>1453.17</ele>
        <time>2014-07-04T11:26:19Z</time>
      </trkpt>
      <trkpt lat="44.93193" lon="5.36">
        <ele>1452.21</ele>
        <time>2014-07-04T11:26:20Z</time>
      </trkpt>
      <trkpt lat="44.93199" lon="5.36004">
        <ele>1451.25</ele>
        <time>2014-07-04T11:26:21Z</time>
      </trkpt>
      <trkpt lat="44.93206" lon="5.36009">
        <ele>1450.77</ele>
        <time>2014-07-04T11:26:22Z</time>
      </trkpt>
      <trkpt lat="44.93231" lon="5.36023">
        <ele>1445.96</ele>
        <time>2014-07-04T11:26:25Z</time>
      </trkpt>
      <trkpt lat="44.93279" lon="5.36045">
        <ele>1442.6</ele>
        <time>2014-07-04T11:26:30Z</time>
      </trkpt>
      <trkpt lat="44.93288" lon="5.36049">
        <ele>1443.08</ele>
        <time>2014-07-04T11:26:31Z</time>
      </trkpt>
      <trkpt lat="44.93323" lon="5.36058">
        <ele>1441.15</ele>
        <time>2014-07-04T11:26:36Z</time>
      </trkpt>
      <trkpt lat="44.93329" lon="5.36058">
        <ele>1441.63</ele>
        <time>2014-07-04T11:26:37Z</time>
      </trkpt>
      <trkpt lat="44.93334" lon="5.36056">
        <ele>1440.67</ele>
        <time>2014-07-04T11:26:38Z</time>
      </trkpt>
      <trkpt lat="44.9334" lon="5.36054">
        <ele>1441.15</ele>
        <time>2014-07-04T11:26:39Z</time>
      </trkpt>
      <trkpt lat="44.93345" lon="5.36053">
        <ele>1440.67</ele>
        <time>2014-07-04T11:26:40Z</time>
      </trkpt>
      <trkpt lat="44.93388" lon="5.36049">
        <ele>1440.67</ele>
        <time>2014-07-04T11:26:50Z</time>
      </trkpt>
      <trkpt lat="44.93392" lon="5.36047">
        <ele>1440.19</ele>
        <time>2014-07-04T11:26:51Z</time>
      </trkpt>
      <trkpt lat="44.93396" lon="5.36046">
        <ele>1441.15</ele>
        <time>2014-07-04T11:26:52Z</time>
      </trkpt>
      <trkpt lat="44.93449" lon="5.36022">
        <ele>1439.23</ele>
        <time>2014-07-04T11:27:05Z</time>
      </trkpt>
      <trkpt lat="44.93454" lon="5.36022">
        <ele>1439.71</ele>
        <time>2014-07-04T11:27:06Z</time>
      </trkpt>
      <trkpt lat="44.93459" lon="5.36022">
        <ele>1439.23</ele>
        <time>2014-07-04T11:27:07Z</time>
      </trkpt>
      <trkpt lat="44.93464" lon="5.36024">
        <ele>1439.23</ele>
        <time>2014-07-04T11:27:08Z</time>
      </trkpt>
      <trkpt lat="44.93468" lon="5.36026">
        <ele>1439.23</ele>
        <time>2014-07-04T11:27:09Z</time>
      </trkpt>
      <trkpt lat="44.93473" lon="5.36029">
        <ele>1439.23</ele>
        <time>2014-07-04T11:27:10Z</time>
      </trkpt>
      <trkpt lat="44.93503" lon="5.36049">
        <ele>1439.23</ele>
        <time>2014-07-04T11:27:17Z</time>
      </trkpt>
      <trkpt lat="44.93519" lon="5.36068">
        <ele>1438.27</ele>
        <time>2014-07-04T11:27:21Z</time>
      </trkpt>
      <trkpt lat="44.93534" lon="5.36087">
        <ele>1439.23</ele>
        <time>2014-07-04T11:27:25Z</time>
      </trkpt>
      <trkpt lat="44.93537" lon="5.36092">
        <ele>1439.23</ele>
        <time>2014-07-04T11:27:26Z</time>
      </trkpt>
      <trkpt lat="44.93541" lon="5.36096">
        <ele>1438.75</ele>
        <time>2014-07-04T11:27:27Z</time>
      </trkpt>
      <trkpt lat="44.93544" lon="5.36101">
        <ele>1439.23</ele>
        <time>2014-07-04T11:27:28Z</time>
      </trkpt>
      <trkpt lat="44.93548" lon="5.36107">
        <ele>1438.75</ele>
        <time>2014-07-04T11:27:29Z</time>
      </trkpt>
      <trkpt lat="44.93596" lon="5.36169">
        <ele>1439.23</ele>
        <time>2014-07-04T11:27:42Z</time>
      </trkpt>
      <trkpt lat="44.93603" lon="5.36177">
        <ele>1439.71</ele>
        <time>2014-07-04T11:27:44Z</time>
      </trkpt>
      <trkpt lat="44.9363" lon="5.362">
        <ele>1437.79</ele>
        <time>2014-07-04T11:27:51Z</time>
      </trkpt>
      <trkpt lat="44.93634" lon="5.36206">
        <ele>1436.83</ele>
        <time>2014-07-04T11:27:52Z</time>
      </trkpt>
      <trkpt lat="44.93638" lon="5.36212">
        <ele>1436.35</ele>
        <time>2014-07-04T11:27:53Z</time>
      </trkpt>
      <trkpt lat="44.93643" lon="5.3622">
        <ele>1435.87</ele>
        <time>2014-07-04T11:27:54Z</time>
      </trkpt>
      <trkpt lat="44.93647" lon="5.36229">
        <ele>1435.39</ele>
        <time>2014-07-04T11:27:55Z</time>
      </trkpt>
      <trkpt lat="44.93649" lon="5.36239">
        <ele>1434.42</ele>
        <time>2014-07-04T11:27:56Z</time>
      </trkpt>
      <trkpt lat="44.93651" lon="5.3625">
        <ele>1434.42</ele>
        <time>2014-07-04T11:27:57Z</time>
      </trkpt>
      <trkpt lat="44.93651" lon="5.36261">
        <ele>1433.46</ele>
        <time>2014-07-04T11:27:58Z</time>
      </trkpt>
      <trkpt lat="44.93651" lon="5.36272">
        <ele>1433.46</ele>
        <time>2014-07-04T11:27:59Z</time>
      </trkpt>
      <trkpt lat="44.93651" lon="5.36283">
        <ele>1432.98</ele>
        <time>2014-07-04T11:28:00Z</time>
      </trkpt>
      <trkpt lat="44.93653" lon="5.36293">
        <ele>1432.5</ele>
        <time>2014-07-04T11:28:01Z</time>
      </trkpt>
      <trkpt lat="44.93658" lon="5.36301">
        <ele>1432.98</ele>
        <time>2014-07-04T11:28:02Z</time>
      </trkpt>
      <trkpt lat="44.93663" lon="5.36308">
        <ele>1432.98</ele>
        <time>2014-07-04T11:28:03Z</time>
      </trkpt>
      <trkpt lat="44.93668" lon="5.36312">
        <ele>1434.42</ele>
        <time>2014-07-04T11:28:04Z</time>
      </trkpt>
      <trkpt lat="44.93674" lon="5.36315">
        <ele>1434.42</ele>
        <time>2014-07-04T11:28:05Z</time>
      </trkpt>
      <trkpt lat="44.93684" lon="5.36321">
        <ele>1434.42</ele>
        <time>2014-07-04T11:28:07Z</time>
      </trkpt>
      <trkpt lat="44.93688" lon="5.36322">
        <ele>1434.42</ele>
        <time>2014-07-04T11:28:08Z</time>
      </trkpt>
      <trkpt lat="44.93697" lon="5.36324">
        <ele>1434.91</ele>
        <time>2014-07-04T11:28:10Z</time>
      </trkpt>
      <trkpt lat="44.93701" lon="5.36327">
        <ele>1434.91</ele>
        <time>2014-07-04T11:28:11Z</time>
      </trkpt>
      <trkpt lat="44.93704" lon="5.3633">
        <ele>1434.42</ele>
        <time>2014-07-04T11:28:12Z</time>
      </trkpt>
      <trkpt lat="44.93707" lon="5.36334">
        <ele>1434.91</ele>
        <time>2014-07-04T11:28:13Z</time>
      </trkpt>
      <trkpt lat="44.9371" lon="5.36337">
        <ele>1434.91</ele>
        <time>2014-07-04T11:28:14Z</time>
      </trkpt>
      <trkpt lat="44.93712" lon="5.36342">
        <ele>1434.91</ele>
        <time>2014-07-04T11:28:15Z</time>
      </trkpt>
      <trkpt lat="44.93713" lon="5.36346">
        <ele>1435.39</ele>
        <time>2014-07-04T11:28:16Z</time>
      </trkpt>
      <trkpt lat="44.93725" lon="5.36383">
        <ele>1435.87</ele>
        <time>2014-07-04T11:28:27Z</time>
      </trkpt>
      <trkpt lat="44.9373" lon="5.36393">
        <ele>1435.39</ele>
        <time>2014-07-04T11:28:30Z</time>
      </trkpt>
      <trkpt lat="44.93732" lon="5.36399">
        <ele>1435.39</ele>
        <time>2014-07-04T11:28:31Z</time>
      </trkpt>
      <trkpt lat="44.93733" lon="5.36404">
        <ele>1435.39</ele>
        <time>2014-07-04T11:28:32Z</time>
      </trkpt>
      <trkpt lat="44.93734" lon="5.36409">
        <ele>1434.42</ele>
        <time>2014-07-04T11:28:33Z</time>
      </trkpt>
      <trkpt lat="44.93735" lon="5.36415">
        <ele>1435.39</ele>
        <time>2014-07-04T11:28:34Z</time>
      </trkpt>
      <trkpt lat="44.93736" lon="5.3642">
        <ele>1435.39</ele>
        <time>2014-07-04T11:28:35Z</time>
      </trkpt>
      <trkpt lat="44.93737" lon="5.36425">
        <ele>1435.39</ele>
        <time>2014-07-04T11:28:36Z</time>
      </trkpt>
      <trkpt lat="44.93738" lon="5.3643">
        <ele>1435.39</ele>
        <time>2014-07-04T11:28:37Z</time>
      </trkpt>
      <trkpt lat="44.93739" lon="5.36436">
        <ele>1434.42</ele>
        <time>2014-07-04T11:28:38Z</time>
      </trkpt>
      <trkpt lat="44.93743" lon="5.36457">
        <ele>1434.42</ele>
        <time>2014-07-04T11:28:41Z</time>
      </trkpt>
      <trkpt lat="44.93744" lon="5.36463">
        <ele>1433.94</ele>
        <time>2014-07-04T11:28:42Z</time>
      </trkpt>
      <trkpt lat="44.9375" lon="5.36492">
        <ele>1432.98</ele>
        <time>2014-07-04T11:28:46Z</time>
      </trkpt>
      <trkpt lat="44.93751" lon="5.36509">
        <ele>1432.5</ele>
        <time>2014-07-04T11:28:48Z</time>
      </trkpt>
      <trkpt lat="44.93752" lon="5.36516">
        <ele>1432.98</ele>
        <time>2014-07-04T11:28:49Z</time>
      </trkpt>
      <trkpt lat="44.93755" lon="5.36522">
        <ele>1432.02</ele>
        <time>2014-07-04T11:28:50Z</time>
      </trkpt>
      <trkpt lat="44.93758" lon="5.36527">
        <ele>1432.5</ele>
        <time>2014-07-04T11:28:51Z</time>
      </trkpt>
      <trkpt lat="44.93763" lon="5.36531">
        <ele>1432.02</ele>
        <time>2014-07-04T11:28:52Z</time>
      </trkpt>
      <trkpt lat="44.93766" lon="5.36533">
        <ele>1432.02</ele>
        <time>2014-07-04T11:28:53Z</time>
      </trkpt>
      <trkpt lat="44.93777" lon="5.3654">
        <ele>1431.06</ele>
        <time>2014-07-04T11:28:56Z</time>
      </trkpt>
      <trkpt lat="44.93781" lon="5.36542">
        <ele>1430.58</ele>
        <time>2014-07-04T11:28:57Z</time>
      </trkpt>
      <trkpt lat="44.93786" lon="5.36545">
        <ele>1430.58</ele>
        <time>2014-07-04T11:28:58Z</time>
      </trkpt>
      <trkpt lat="44.93798" lon="5.36549">
        <ele>1429.62</ele>
        <time>2014-07-04T11:29:00Z</time>
      </trkpt>
      <trkpt lat="44.93803" lon="5.36553">
        <ele>1429.62</ele>
        <time>2014-07-04T11:29:01Z</time>
      </trkpt>
      <trkpt lat="44.93808" lon="5.36558">
        <ele>1429.62</ele>
        <time>2014-07-04T11:29:02Z</time>
      </trkpt>
      <trkpt lat="44.93813" lon="5.36564">
        <ele>1430.1</ele>
        <time>2014-07-04T11:29:03Z</time>
      </trkpt>
      <trkpt lat="44.93816" lon="5.36571">
        <ele>1429.62</ele>
        <time>2014-07-04T11:29:04Z</time>
      </trkpt>
      <trkpt lat="44.93819" lon="5.36578">
        <ele>1430.58</ele>
        <time>2014-07-04T11:29:05Z</time>
      </trkpt>
      <trkpt lat="44.93821" lon="5.36585">
        <ele>1430.58</ele>
        <time>2014-07-04T11:29:06Z</time>
      </trkpt>
      <trkpt lat="44.93822" lon="5.36592">
        <ele>1430.58</ele>
        <time>2014-07-04T11:29:07Z</time>
      </trkpt>
      <trkpt lat="44.93824" lon="5.36599">
        <ele>1431.06</ele>
        <time>2014-07-04T11:29:08Z</time>
      </trkpt>
      <trkpt lat="44.93824" lon="5.36606">
        <ele>1431.06</ele>
        <time>2014-07-04T11:29:09Z</time>
      </trkpt>
      <trkpt lat="44.93824" lon="5.36612">
        <ele>1431.54</ele>
        <time>2014-07-04T11:29:10Z</time>
      </trkpt>
      <trkpt lat="44.93823" lon="5.36618">
        <ele>1431.54</ele>
        <time>2014-07-04T11:29:11Z</time>
      </trkpt>
      <trkpt lat="44.93822" lon="5.36624">
        <ele>1431.54</ele>
        <time>2014-07-04T11:29:12Z</time>
      </trkpt>
      <trkpt lat="44.9382" lon="5.3663">
        <ele>1431.06</ele>
        <time>2014-07-04T11:29:13Z</time>
      </trkpt>
      <trkpt lat="44.93816" lon="5.36644">
        <ele>1429.62</ele>
        <time>2014-07-04T11:29:15Z</time>
      </trkpt>
      <trkpt lat="44.9381" lon="5.3666">
        <ele>1428.66</ele>
        <time>2014-07-04T11:29:17Z</time>
      </trkpt>
      <trkpt lat="44.93807" lon="5.36669">
        <ele>1427.7</ele>
        <time>2014-07-04T11:29:18Z</time>
      </trkpt>
      <trkpt lat="44.93786" lon="5.3672">
        <ele>1424.33</ele>
        <time>2014-07-04T11:29:23Z</time>
      </trkpt>
      <trkpt lat="44.93782" lon="5.3673">
        <ele>1423.85</ele>
        <time>2014-07-04T11:29:24Z</time>
      </trkpt>
      <trkpt lat="44.9378" lon="5.36741">
        <ele>1423.85</ele>
        <time>2014-07-04T11:29:25Z</time>
      </trkpt>
      <trkpt lat="44.93779" lon="5.36752">
        <ele>1423.85</ele>
        <time>2014-07-04T11:29:26Z</time>
      </trkpt>
      <trkpt lat="44.9378" lon="5.36763">
        <ele>1422.89</ele>
        <time>2014-07-04T11:29:27Z</time>
      </trkpt>
      <trkpt lat="44.93782" lon="5.36774">
        <ele>1423.37</ele>
        <time>2014-07-04T11:29:28Z</time>
      </trkpt>
      <trkpt lat="44.93785" lon="5.36784">
        <ele>1423.37</ele>
        <time>2014-07-04T11:29:29Z</time>
      </trkpt>
      <trkpt lat="44.93788" lon="5.36793">
        <ele>1422.89</ele>
        <time>2014-07-04T11:29:30Z</time>
      </trkpt>
      <trkpt lat="44.93792" lon="5.368">
        <ele>1423.37</ele>
        <time>2014-07-04T11:29:31Z</time>
      </trkpt>
      <trkpt lat="44.93796" lon="5.36806">
        <ele>1423.85</ele>
        <time>2014-07-04T11:29:32Z</time>
      </trkpt>
      <trkpt lat="44.938" lon="5.36812">
        <ele>1423.85</ele>
        <time>2014-07-04T11:29:33Z</time>
      </trkpt>
      <trkpt lat="44.93804" lon="5.36816">
        <ele>1423.85</ele>
        <time>2014-07-04T11:29:34Z</time>
      </trkpt>
      <trkpt lat="44.93809" lon="5.3682">
        <ele>1424.33</ele>
        <time>2014-07-04T11:29:35Z</time>
      </trkpt>
      <trkpt lat="44.93817" lon="5.36828">
        <ele>1423.85</ele>
        <time>2014-07-04T11:29:37Z</time>
      </trkpt>
      <trkpt lat="44.93821" lon="5.36831">
        <ele>1424.33</ele>
        <time>2014-07-04T11:29:38Z</time>
      </trkpt>
      <trkpt lat="44.93836" lon="5.36842">
        <ele>1424.33</ele>
        <time>2014-07-04T11:29:42Z</time>
      </trkpt>
      <trkpt lat="44.93852" lon="5.36851">
        <ele>1422.89</ele>
        <time>2014-07-04T11:29:45Z</time>
      </trkpt>
      <trkpt lat="44.93864" lon="5.3686">
        <ele>1423.37</ele>
        <time>2014-07-04T11:29:47Z</time>
      </trkpt>
      <trkpt lat="44.93875" lon="5.36871">
        <ele>1422.89</ele>
        <time>2014-07-04T11:29:49Z</time>
      </trkpt>
      <trkpt lat="44.93883" lon="5.36882">
        <ele>1423.37</ele>
        <time>2014-07-04T11:29:51Z</time>
      </trkpt>
      <trkpt lat="44.93888" lon="5.36887">
        <ele>1423.85</ele>
        <time>2014-07-04T11:29:52Z</time>
      </trkpt>
      <trkpt lat="44.93892" lon="5.3689">
        <ele>1423.85</ele>
        <time>2014-07-04T11:29:53Z</time>
      </trkpt>
      <trkpt lat="44.93896" lon="5.36889">
        <ele>1424.33</ele>
        <time>2014-07-04T11:29:54Z</time>
      </trkpt>
      <trkpt lat="44.939" lon="5.36885">
        <ele>1423.85</ele>
        <time>2014-07-04T11:29:55Z</time>
      </trkpt>
      <trkpt lat="44.93903" lon="5.36878">
        <ele>1423.37</ele>
        <time>2014-07-04T11:29:56Z</time>
      </trkpt>
      <trkpt lat="44.93905" lon="5.36872">
        <ele>1423.37</ele>
        <time>2014-07-04T11:29:57Z</time>
      </trkpt>
      <trkpt lat="44.93908" lon="5.36865">
        <ele>1422.41</ele>
        <time>2014-07-04T11:29:58Z</time>
      </trkpt>
      <trkpt lat="44.9391" lon="5.36859">
        <ele>1422.41</ele>
        <time>2014-07-04T11:29:59Z</time>
      </trkpt>
      <trkpt lat="44.93912" lon="5.36854">
        <ele>1421.93</ele>
        <time>2014-07-04T11:30:00Z</time>
      </trkpt>
      <trkpt lat="44.93916" lon="5.36851">
        <ele>1420.97</ele>
        <time>2014-07-04T11:30:01Z</time>
      </trkpt>
      <trkpt lat="44.93919" lon="5.3685">
        <ele>1420.97</ele>
        <time>2014-07-04T11:30:02Z</time>
      </trkpt>
      <trkpt lat="44.93923" lon="5.3685">
        <ele>1420.97</ele>
        <time>2014-07-04T11:30:03Z</time>
      </trkpt>
      <trkpt lat="44.93925" lon="5.36851">
        <ele>1420.97</ele>
        <time>2014-07-04T11:30:04Z</time>
      </trkpt>
      <trkpt lat="44.93925" lon="5.3685">
        <ele>1420.49</ele>
        <time>2014-07-04T11:30:19Z</time>
      </trkpt>
      <trkpt lat="44.93926" lon="5.36848">
        <ele>1420.97</ele>
        <time>2014-07-04T11:30:56Z</time>
      </trkpt>
      <trkpt lat="44.93929" lon="5.36847">
        <ele>1420.97</ele>
        <time>2014-07-04T11:31:32Z</time>
      </trkpt>
      <trkpt lat="44.93931" lon="5.3685">
        <ele>1421.45</ele>
        <time>2014-07-04T11:32:12Z</time>
      </trkpt>
      <trkpt lat="44.93931" lon="5.36849">
        <ele>1421.45</ele>
        <time>2014-07-04T11:32:44Z</time>
      </trkpt>
      <trkpt lat="44.93932" lon="5.36851">
        <ele>1421.45</ele>
        <time>2014-07-04T11:33:16Z</time>
      </trkpt>
      <trkpt lat="44.93931" lon="5.36852">
        <ele>1421.93</ele>
        <time>2014-07-04T11:33:48Z</time>
      </trkpt>
      <trkpt lat="44.93931" lon="5.36851">
        <ele>1421.45</ele>
        <time>2014-07-04T11:34:18Z</time>
      </trkpt>
      <trkpt lat="44.93932" lon="5.3686">
        <ele>1421.93</ele>
        <time>2014-07-04T11:34:25Z</time>
      </trkpt>
      <trkpt lat="44.93931" lon="5.36864">
        <ele>1421.45</ele>
        <time>2014-07-04T11:34:26Z</time>
      </trkpt>
      <trkpt lat="44.93928" lon="5.36882">
        <ele>1420</ele>
        <time>2014-07-04T11:34:29Z</time>
      </trkpt>
      <trkpt lat="44.93928" lon="5.36889">
        <ele>1419.52</ele>
        <time>2014-07-04T11:34:30Z</time>
      </trkpt>
      <trkpt lat="44.93929" lon="5.36897">
        <ele>1419.04</ele>
        <time>2014-07-04T11:34:31Z</time>
      </trkpt>
      <trkpt lat="44.93932" lon="5.36914">
        <ele>1418.08</ele>
        <time>2014-07-04T11:34:33Z</time>
      </trkpt>
      <trkpt lat="44.93938" lon="5.36942">
        <ele>1414.72</ele>
        <time>2014-07-04T11:34:36Z</time>
      </trkpt>
      <trkpt lat="44.93944" lon="5.36992">
        <ele>1410.87</ele>
        <time>2014-07-04T11:34:40Z</time>
      </trkpt>
      <trkpt lat="44.93947" lon="5.37047">
        <ele>1407.51</ele>
        <time>2014-07-04T11:34:44Z</time>
      </trkpt>
      <trkpt lat="44.93947" lon="5.3706">
        <ele>1407.03</ele>
        <time>2014-07-04T11:34:45Z</time>
      </trkpt>
      <trkpt lat="44.93946" lon="5.37073">
        <ele>1406.07</ele>
        <time>2014-07-04T11:34:46Z</time>
      </trkpt>
      <trkpt lat="44.93944" lon="5.37085">
        <ele>1405.58</ele>
        <time>2014-07-04T11:34:47Z</time>
      </trkpt>
      <trkpt lat="44.93937" lon="5.37138">
        <ele>1403.18</ele>
        <time>2014-07-04T11:34:52Z</time>
      </trkpt>
      <trkpt lat="44.93934" lon="5.37158">
        <ele>1401.26</ele>
        <time>2014-07-04T11:34:54Z</time>
      </trkpt>
      <trkpt lat="44.93934" lon="5.37169">
        <ele>1400.78</ele>
        <time>2014-07-04T11:34:55Z</time>
      </trkpt>
      <trkpt lat="44.93934" lon="5.37179">
        <ele>1400.3</ele>
        <time>2014-07-04T11:34:56Z</time>
      </trkpt>
      <trkpt lat="44.93935" lon="5.37188">
        <ele>1399.34</ele>
        <time>2014-07-04T11:34:57Z</time>
      </trkpt>
      <trkpt lat="44.93937" lon="5.37196">
        <ele>1398.86</ele>
        <time>2014-07-04T11:34:58Z</time>
      </trkpt>
      <trkpt lat="44.93939" lon="5.37203">
        <ele>1399.34</ele>
        <time>2014-07-04T11:34:59Z</time>
      </trkpt>
      <trkpt lat="44.93941" lon="5.37209">
        <ele>1398.86</ele>
        <time>2014-07-04T11:35:00Z</time>
      </trkpt>
      <trkpt lat="44.93943" lon="5.37215">
        <ele>1398.37</ele>
        <time>2014-07-04T11:35:01Z</time>
      </trkpt>
      <trkpt lat="44.9395" lon="5.37226">
        <ele>1398.37</ele>
        <time>2014-07-04T11:35:10Z</time>
      </trkpt>
      <trkpt lat="44.93953" lon="5.37229">
        <ele>1398.37</ele>
        <time>2014-07-04T11:35:28Z</time>
      </trkpt>
      <trkpt lat="44.93955" lon="5.3723">
        <ele>1398.37</ele>
        <time>2014-07-04T11:35:58Z</time>
      </trkpt>
      <trkpt lat="44.93958" lon="5.37228">
        <ele>1398.37</ele>
        <time>2014-07-04T11:36:28Z</time>
      </trkpt>
      <trkpt lat="44.9396" lon="5.37229">
        <ele>1398.37</ele>
        <time>2014-07-04T11:36:43Z</time>
      </trkpt>
      <trkpt lat="44.93966" lon="5.37241">
        <ele>1395.97</ele>
        <time>2014-07-04T11:36:47Z</time>
      </trkpt>
      <trkpt lat="44.93975" lon="5.37257">
        <ele>1393.09</ele>
        <time>2014-07-04T11:36:50Z</time>
      </trkpt>
      <trkpt lat="44.93982" lon="5.37271">
        <ele>1391.17</ele>
        <time>2014-07-04T11:36:53Z</time>
      </trkpt>
      <trkpt lat="44.93996" lon="5.37292">
        <ele>1388.76</ele>
        <time>2014-07-04T11:36:57Z</time>
      </trkpt>
      <trkpt lat="44.94001" lon="5.37298">
        <ele>1387.32</ele>
        <time>2014-07-04T11:36:58Z</time>
      </trkpt>
      <trkpt lat="44.94016" lon="5.37317">
        <ele>1383.47</ele>
        <time>2014-07-04T11:37:01Z</time>
      </trkpt>
      <trkpt lat="44.94041" lon="5.37348">
        <ele>1380.59</ele>
        <time>2014-07-04T11:37:05Z</time>
      </trkpt>
      <trkpt lat="44.9405" lon="5.37363">
        <ele>1379.63</ele>
        <time>2014-07-04T11:37:07Z</time>
      </trkpt>
      <trkpt lat="44.94052" lon="5.37369">
        <ele>1378.67</ele>
        <time>2014-07-04T11:37:08Z</time>
      </trkpt>
      <trkpt lat="44.94055" lon="5.37378">
        <ele>1378.19</ele>
        <time>2014-07-04T11:37:10Z</time>
      </trkpt>
      <trkpt lat="44.94055" lon="5.37381">
        <ele>1377.23</ele>
        <time>2014-07-04T11:37:11Z</time>
      </trkpt>
      <trkpt lat="44.9406" lon="5.3739">
        <ele>1375.78</ele>
        <time>2014-07-04T11:37:14Z</time>
      </trkpt>
      <trkpt lat="44.9407" lon="5.37401">
        <ele>1373.38</ele>
        <time>2014-07-04T11:37:18Z</time>
      </trkpt>
      <trkpt lat="44.94079" lon="5.37413">
        <ele>1370.5</ele>
        <time>2014-07-04T11:37:22Z</time>
      </trkpt>
      <trkpt lat="44.94087" lon="5.37419">
        <ele>1367.61</ele>
        <time>2014-07-04T11:37:26Z</time>
      </trkpt>
      <trkpt lat="44.94089" lon="5.37419">
        <ele>1366.17</ele>
        <time>2014-07-04T11:37:27Z</time>
      </trkpt>
      <trkpt lat="44.94092" lon="5.3742">
        <ele>1365.69</ele>
        <time>2014-07-04T11:37:28Z</time>
      </trkpt>
      <trkpt lat="44.94097" lon="5.37419">
        <ele>1364.73</ele>
        <time>2014-07-04T11:37:30Z</time>
      </trkpt>
      <trkpt lat="44.94105" lon="5.37416">
        <ele>1364.25</ele>
        <time>2014-07-04T11:37:34Z</time>
      </trkpt>
      <trkpt lat="44.94113" lon="5.37407">
        <ele>1363.77</ele>
        <time>2014-07-04T11:37:37Z</time>
      </trkpt>
      <trkpt lat="44.94117" lon="5.37404">
        <ele>1363.29</ele>
        <time>2014-07-04T11:37:38Z</time>
      </trkpt>
      <trkpt lat="44.94119" lon="5.37402">
        <ele>1363.29</ele>
        <time>2014-07-04T11:37:39Z</time>
      </trkpt>
      <trkpt lat="44.94121" lon="5.37399">
        <ele>1362.33</ele>
        <time>2014-07-04T11:37:40Z</time>
      </trkpt>
      <trkpt lat="44.94122" lon="5.37395">
        <ele>1361.84</ele>
        <time>2014-07-04T11:37:41Z</time>
      </trkpt>
      <trkpt lat="44.94122" lon="5.37391">
        <ele>1361.36</ele>
        <time>2014-07-04T11:37:42Z</time>
      </trkpt>
      <trkpt lat="44.94122" lon="5.37387">
        <ele>1360.88</ele>
        <time>2014-07-04T11:37:43Z</time>
      </trkpt>
      <trkpt lat="44.94123" lon="5.37381">
        <ele>1360.4</ele>
        <time>2014-07-04T11:37:44Z</time>
      </trkpt>
      <trkpt lat="44.94123" lon="5.37368">
        <ele>1359.44</ele>
        <time>2014-07-04T11:37:46Z</time>
      </trkpt>
      <trkpt lat="44.94123" lon="5.3736">
        <ele>1358.48</ele>
        <time>2014-07-04T11:37:47Z</time>
      </trkpt>
      <trkpt lat="44.94123" lon="5.37352">
        <ele>1358.48</ele>
        <time>2014-07-04T11:37:48Z</time>
      </trkpt>
      <trkpt lat="44.94125" lon="5.37328">
        <ele>1357.52</ele>
        <time>2014-07-04T11:37:51Z</time>
      </trkpt>
      <trkpt lat="44.94128" lon="5.3732">
        <ele>1356.56</ele>
        <time>2014-07-04T11:37:52Z</time>
      </trkpt>
      <trkpt lat="44.94131" lon="5.37313">
        <ele>1357.04</ele>
        <time>2014-07-04T11:37:53Z</time>
      </trkpt>
      <trkpt lat="44.94134" lon="5.37306">
        <ele>1355.6</ele>
        <time>2014-07-04T11:37:54Z</time>
      </trkpt>
      <trkpt lat="44.94135" lon="5.37298">
        <ele>1355.12</ele>
        <time>2014-07-04T11:37:55Z</time>
      </trkpt>
      <trkpt lat="44.94135" lon="5.37289">
        <ele>1354.63</ele>
        <time>2014-07-04T11:37:56Z</time>
      </trkpt>
      <trkpt lat="44.94135" lon="5.37279">
        <ele>1353.67</ele>
        <time>2014-07-04T11:37:57Z</time>
      </trkpt>
      <trkpt lat="44.94135" lon="5.3727">
        <ele>1353.19</ele>
        <time>2014-07-04T11:37:58Z</time>
      </trkpt>
      <trkpt lat="44.94133" lon="5.37251">
        <ele>1351.27</ele>
        <time>2014-07-04T11:38:00Z</time>
      </trkpt>
      <trkpt lat="44.94129" lon="5.37232">
        <ele>1350.31</ele>
        <time>2014-07-04T11:38:02Z</time>
      </trkpt>
      <trkpt lat="44.94124" lon="5.37215">
        <ele>1348.87</ele>
        <time>2014-07-04T11:38:04Z</time>
      </trkpt>
      <trkpt lat="44.9412" lon="5.37209">
        <ele>1348.39</ele>
        <time>2014-07-04T11:38:05Z</time>
      </trkpt>
      <trkpt lat="44.94116" lon="5.37203">
        <ele>1347.91</ele>
        <time>2014-07-04T11:38:06Z</time>
      </trkpt>
      <trkpt lat="44.9411" lon="5.37198">
        <ele>1346.94</ele>
        <time>2014-07-04T11:38:07Z</time>
      </trkpt>
      <trkpt lat="44.94104" lon="5.37194">
        <ele>1345.98</ele>
        <time>2014-07-04T11:38:08Z</time>
      </trkpt>
      <trkpt lat="44.94098" lon="5.37191">
        <ele>1346.46</ele>
        <time>2014-07-04T11:38:09Z</time>
      </trkpt>
      <trkpt lat="44.94092" lon="5.37188">
        <ele>1345.02</ele>
        <time>2014-07-04T11:38:10Z</time>
      </trkpt>
      <trkpt lat="44.94086" lon="5.37184">
        <ele>1344.54</ele>
        <time>2014-07-04T11:38:11Z</time>
      </trkpt>
      <trkpt lat="44.94082" lon="5.37179">
        <ele>1344.06</ele>
        <time>2014-07-04T11:38:12Z</time>
      </trkpt>
      <trkpt lat="44.94079" lon="5.37174">
        <ele>1344.06</ele>
        <time>2014-07-04T11:38:13Z</time>
      </trkpt>
      <trkpt lat="44.94076" lon="5.37169">
        <ele>1343.58</ele>
        <time>2014-07-04T11:38:14Z</time>
      </trkpt>
      <trkpt lat="44.94074" lon="5.37164">
        <ele>1343.1</ele>
        <time>2014-07-04T11:38:15Z</time>
      </trkpt>
      <trkpt lat="44.94069" lon="5.37142">
        <ele>1340.7</ele>
        <time>2014-07-04T11:38:19Z</time>
      </trkpt>
      <trkpt lat="44.94069" lon="5.37135">
        <ele>1340.22</ele>
        <time>2014-07-04T11:38:20Z</time>
      </trkpt>
      <trkpt lat="44.94065" lon="5.37097">
        <ele>1336.37</ele>
        <time>2014-07-04T11:38:24Z</time>
      </trkpt>
      <trkpt lat="44.94064" lon="5.37088">
        <ele>1336.37</ele>
        <time>2014-07-04T11:38:25Z</time>
      </trkpt>
      <trkpt lat="44.94067" lon="5.37055">
        <ele>1333.97</ele>
        <time>2014-07-04T11:38:30Z</time>
      </trkpt>
      <trkpt lat="44.94068" lon="5.37051">
        <ele>1333.97</ele>
        <time>2014-07-04T11:38:31Z</time>
      </trkpt>
      <trkpt lat="44.94084" lon="5.37052">
        <ele>1332.04</ele>
        <time>2014-07-04T11:38:36Z</time>
      </trkpt>
      <trkpt lat="44.94088" lon="5.37057">
        <ele>1331.08</ele>
        <time>2014-07-04T11:38:37Z</time>
      </trkpt>
      <trkpt lat="44.94091" lon="5.37063">
        <ele>1330.12</ele>
        <time>2014-07-04T11:38:38Z</time>
      </trkpt>
      <trkpt lat="44.94093" lon="5.3707">
        <ele>1329.64</ele>
        <time>2014-07-04T11:38:39Z</time>
      </trkpt>
      <trkpt lat="44.94095" lon="5.37078">
        <ele>1329.16</ele>
        <time>2014-07-04T11:38:40Z</time>
      </trkpt>
      <trkpt lat="44.94097" lon="5.37085">
        <ele>1328.2</ele>
        <time>2014-07-04T11:38:41Z</time>
      </trkpt>
      <trkpt lat="44.94101" lon="5.37101">
        <ele>1326.76</ele>
        <time>2014-07-04T11:38:43Z</time>
      </trkpt>
      <trkpt lat="44.94103" lon="5.37108">
        <ele>1326.28</ele>
        <time>2014-07-04T11:38:44Z</time>
      </trkpt>
      <trkpt lat="44.94107" lon="5.37112">
        <ele>1325.31</ele>
        <time>2014-07-04T11:38:45Z</time>
      </trkpt>
      <trkpt lat="44.9411" lon="5.37116">
        <ele>1324.83</ele>
        <time>2014-07-04T11:38:46Z</time>
      </trkpt>
      <trkpt lat="44.94114" lon="5.3712">
        <ele>1324.35</ele>
        <time>2014-07-04T11:38:47Z</time>
      </trkpt>
      <trkpt lat="44.94117" lon="5.37125">
        <ele>1323.39</ele>
        <time>2014-07-04T11:38:48Z</time>
      </trkpt>
      <trkpt lat="44.94121" lon="5.37129">
        <ele>1322.91</ele>
        <time>2014-07-04T11:38:49Z</time>
      </trkpt>
      <trkpt lat="44.94125" lon="5.37134">
        <ele>1322.43</ele>
        <time>2014-07-04T11:38:50Z</time>
      </trkpt>
      <trkpt lat="44.9413" lon="5.37138">
        <ele>1321.47</ele>
        <time>2014-07-04T11:38:51Z</time>
      </trkpt>
      <trkpt lat="44.94141" lon="5.3715">
        <ele>1320.03</ele>
        <time>2014-07-04T11:38:53Z</time>
      </trkpt>
      <trkpt lat="44.94146" lon="5.37157">
        <ele>1319.55</ele>
        <time>2014-07-04T11:38:54Z</time>
      </trkpt>
      <trkpt lat="44.94168" lon="5.37195">
        <ele>1315.7</ele>
        <time>2014-07-04T11:38:58Z</time>
      </trkpt>
      <trkpt lat="44.94186" lon="5.37235">
        <ele>1312.34</ele>
        <time>2014-07-04T11:39:02Z</time>
      </trkpt>
      <trkpt lat="44.94202" lon="5.3728">
        <ele>1308.97</ele>
        <time>2014-07-04T11:39:06Z</time>
      </trkpt>
      <trkpt lat="44.94211" lon="5.37307">
        <ele>1307.05</ele>
        <time>2014-07-04T11:39:08Z</time>
      </trkpt>
      <trkpt lat="44.94224" lon="5.37361">
        <ele>1303.69</ele>
        <time>2014-07-04T11:39:12Z</time>
      </trkpt>
      <trkpt lat="44.9423" lon="5.37388">
        <ele>1301.76</ele>
        <time>2014-07-04T11:39:14Z</time>
      </trkpt>
      <trkpt lat="44.9423" lon="5.37402">
        <ele>1300.8</ele>
        <time>2014-07-04T11:39:15Z</time>
      </trkpt>
      <trkpt lat="44.94231" lon="5.37415">
        <ele>1300.8</ele>
        <time>2014-07-04T11:39:16Z</time>
      </trkpt>
      <trkpt lat="44.94231" lon="5.37428">
        <ele>1299.84</ele>
        <time>2014-07-04T11:39:17Z</time>
      </trkpt>
      <trkpt lat="44.9423" lon="5.3744">
        <ele>1298.88</ele>
        <time>2014-07-04T11:39:18Z</time>
      </trkpt>
      <trkpt lat="44.94228" lon="5.37477">
        <ele>1297.44</ele>
        <time>2014-07-04T11:39:22Z</time>
      </trkpt>
      <trkpt lat="44.94227" lon="5.37484">
        <ele>1296.96</ele>
        <time>2014-07-04T11:39:23Z</time>
      </trkpt>
      <trkpt lat="44.94227" lon="5.37491">
        <ele>1296.48</ele>
        <time>2014-07-04T11:39:25Z</time>
      </trkpt>
      <trkpt lat="44.9423" lon="5.3747">
        <ele>1295.03</ele>
        <time>2014-07-04T11:39:32Z</time>
      </trkpt>
      <trkpt lat="44.94229" lon="5.37439">
        <ele>1292.15</ele>
        <time>2014-07-04T11:39:37Z</time>
      </trkpt>
      <trkpt lat="44.94229" lon="5.3743">
        <ele>1291.19</ele>
        <time>2014-07-04T11:39:38Z</time>
      </trkpt>
      <trkpt lat="44.9423" lon="5.3742">
        <ele>1291.19</ele>
        <time>2014-07-04T11:39:39Z</time>
      </trkpt>
      <trkpt lat="44.94231" lon="5.3741">
        <ele>1290.23</ele>
        <time>2014-07-04T11:39:40Z</time>
      </trkpt>
      <trkpt lat="44.94239" lon="5.37363">
        <ele>1287.34</ele>
        <time>2014-07-04T11:39:44Z</time>
      </trkpt>
      <trkpt lat="44.94241" lon="5.3735">
        <ele>1285.9</ele>
        <time>2014-07-04T11:39:45Z</time>
      </trkpt>
      <trkpt lat="44.94246" lon="5.37274">
        <ele>1282.54</ele>
        <time>2014-07-04T11:39:52Z</time>
      </trkpt>
      <trkpt lat="44.94247" lon="5.37265">
        <ele>1282.06</ele>
        <time>2014-07-04T11:39:53Z</time>
      </trkpt>
      <trkpt lat="44.94247" lon="5.37209">
        <ele>1278.69</ele>
        <time>2014-07-04T11:39:59Z</time>
      </trkpt>
      <trkpt lat="44.94234" lon="5.37163">
        <ele>1275.81</ele>
        <time>2014-07-04T11:40:04Z</time>
      </trkpt>
      <trkpt lat="44.9423" lon="5.37146">
        <ele>1274.85</ele>
        <time>2014-07-04T11:40:06Z</time>
      </trkpt>
      <trkpt lat="44.94229" lon="5.37137">
        <ele>1273.88</ele>
        <time>2014-07-04T11:40:07Z</time>
      </trkpt>
      <trkpt lat="44.94227" lon="5.37119">
        <ele>1272.44</ele>
        <time>2014-07-04T11:40:09Z</time>
      </trkpt>
      <trkpt lat="44.94213" lon="5.37069">
        <ele>1269.08</ele>
        <time>2014-07-04T11:40:14Z</time>
      </trkpt>
      <trkpt lat="44.94198" lon="5.37024">
        <ele>1265.71</ele>
        <time>2014-07-04T11:40:18Z</time>
      </trkpt>
      <trkpt lat="44.94185" lon="5.36975">
        <ele>1262.83</ele>
        <time>2014-07-04T11:40:22Z</time>
      </trkpt>
      <trkpt lat="44.94178" lon="5.36935">
        <ele>1260.43</ele>
        <time>2014-07-04T11:40:25Z</time>
      </trkpt>
      <trkpt lat="44.94178" lon="5.36919">
        <ele>1258.98</ele>
        <time>2014-07-04T11:40:26Z</time>
      </trkpt>
      <trkpt lat="44.94181" lon="5.36902">
        <ele>1257.54</ele>
        <time>2014-07-04T11:40:27Z</time>
      </trkpt>
      <trkpt lat="44.94184" lon="5.36885">
        <ele>1256.58</ele>
        <time>2014-07-04T11:40:28Z</time>
      </trkpt>
      <trkpt lat="44.9419" lon="5.36869">
        <ele>1255.62</ele>
        <time>2014-07-04T11:40:29Z</time>
      </trkpt>
      <trkpt lat="44.94197" lon="5.36852">
        <ele>1255.14</ele>
        <time>2014-07-04T11:40:30Z</time>
      </trkpt>
      <trkpt lat="44.94198" lon="5.36838">
        <ele>1254.66</ele>
        <time>2014-07-04T11:40:31Z</time>
      </trkpt>
      <trkpt lat="44.94198" lon="5.36824">
        <ele>1253.7</ele>
        <time>2014-07-04T11:40:32Z</time>
      </trkpt>
      <trkpt lat="44.94195" lon="5.36811">
        <ele>1253.22</ele>
        <time>2014-07-04T11:40:33Z</time>
      </trkpt>
      <trkpt lat="44.9419" lon="5.36784">
        <ele>1252.25</ele>
        <time>2014-07-04T11:40:35Z</time>
      </trkpt>
      <trkpt lat="44.94189" lon="5.36771">
        <ele>1251.77</ele>
        <time>2014-07-04T11:40:36Z</time>
      </trkpt>
      <trkpt lat="44.9419" lon="5.36759">
        <ele>1251.29</ele>
        <time>2014-07-04T11:40:37Z</time>
      </trkpt>
      <trkpt lat="44.94194" lon="5.36734">
        <ele>1250.81</ele>
        <time>2014-07-04T11:40:39Z</time>
      </trkpt>
      <trkpt lat="44.94206" lon="5.36678">
        <ele>1246.97</ele>
        <time>2014-07-04T11:40:43Z</time>
      </trkpt>
      <trkpt lat="44.94211" lon="5.36648">
        <ele>1246.01</ele>
        <time>2014-07-04T11:40:45Z</time>
      </trkpt>
      <trkpt lat="44.94218" lon="5.36604">
        <ele>1244.08</ele>
        <time>2014-07-04T11:40:48Z</time>
      </trkpt>
      <trkpt lat="44.94226" lon="5.36511">
        <ele>1240.72</ele>
        <time>2014-07-04T11:40:55Z</time>
      </trkpt>
      <trkpt lat="44.94233" lon="5.36459">
        <ele>1237.35</ele>
        <time>2014-07-04T11:40:59Z</time>
      </trkpt>
      <trkpt lat="44.94238" lon="5.36431">
        <ele>1235.91</ele>
        <time>2014-07-04T11:41:01Z</time>
      </trkpt>
      <trkpt lat="44.94241" lon="5.36418">
        <ele>1234.95</ele>
        <time>2014-07-04T11:41:02Z</time>
      </trkpt>
      <trkpt lat="44.94245" lon="5.36406">
        <ele>1233.51</ele>
        <time>2014-07-04T11:41:03Z</time>
      </trkpt>
      <trkpt lat="44.94266" lon="5.36352">
        <ele>1230.14</ele>
        <time>2014-07-04T11:41:07Z</time>
      </trkpt>
      <trkpt lat="44.94291" lon="5.36283">
        <ele>1227.26</ele>
        <time>2014-07-04T11:41:13Z</time>
      </trkpt>
      <trkpt lat="44.94294" lon="5.36277">
        <ele>1226.3</ele>
        <time>2014-07-04T11:41:14Z</time>
      </trkpt>
      <trkpt lat="44.94299" lon="5.36272">
        <ele>1225.34</ele>
        <time>2014-07-04T11:41:15Z</time>
      </trkpt>
      <trkpt lat="44.94305" lon="5.36269">
        <ele>1224.86</ele>
        <time>2014-07-04T11:41:16Z</time>
      </trkpt>
      <trkpt lat="44.94312" lon="5.36268">
        <ele>1223.9</ele>
        <time>2014-07-04T11:41:17Z</time>
      </trkpt>
      <trkpt lat="44.9432" lon="5.36266">
        <ele>1222.93</ele>
        <time>2014-07-04T11:41:18Z</time>
      </trkpt>
      <trkpt lat="44.94328" lon="5.36265">
        <ele>1222.45</ele>
        <time>2014-07-04T11:41:19Z</time>
      </trkpt>
      <trkpt lat="44.94346" lon="5.3626">
        <ele>1221.97</ele>
        <time>2014-07-04T11:41:21Z</time>
      </trkpt>
      <trkpt lat="44.94353" lon="5.36255">
        <ele>1221.97</ele>
        <time>2014-07-04T11:41:22Z</time>
      </trkpt>
      <trkpt lat="44.94366" lon="5.36244">
        <ele>1221.01</ele>
        <time>2014-07-04T11:41:24Z</time>
      </trkpt>
      <trkpt lat="44.94371" lon="5.36242">
        <ele>1221.01</ele>
        <time>2014-07-04T11:41:25Z</time>
      </trkpt>
      <trkpt lat="44.94376" lon="5.36241">
        <ele>1220.53</ele>
        <time>2014-07-04T11:41:26Z</time>
      </trkpt>
      <trkpt lat="44.94384" lon="5.36238">
        <ele>1219.57</ele>
        <time>2014-07-04T11:41:28Z</time>
      </trkpt>
      <trkpt lat="44.94407" lon="5.36239">
        <ele>1215.72</ele>
        <time>2014-07-04T11:41:38Z</time>
      </trkpt>
      <trkpt lat="44.94408" lon="5.36238">
        <ele>1219.09</ele>
        <time>2014-07-04T11:41:39Z</time>
      </trkpt>
      <trkpt lat="44.9441" lon="5.36237">
        <ele>1217.17</ele>
        <time>2014-07-04T11:41:59Z</time>
      </trkpt>
      <trkpt lat="44.94415" lon="5.36239">
        <ele>1217.65</ele>
        <time>2014-07-04T11:42:19Z</time>
      </trkpt>
      <trkpt lat="44.94418" lon="5.36238">
        <ele>1218.13</ele>
        <time>2014-07-04T11:42:20Z</time>
      </trkpt>
      <trkpt lat="44.9442" lon="5.36236">
        <ele>1218.13</ele>
        <time>2014-07-04T11:42:21Z</time>
      </trkpt>
      <trkpt lat="44.94421" lon="5.36234">
        <ele>1217.65</ele>
        <time>2014-07-04T11:42:22Z</time>
      </trkpt>
      <trkpt lat="44.94431" lon="5.36215">
        <ele>1217.65</ele>
        <time>2014-07-04T11:42:32Z</time>
      </trkpt>
      <trkpt lat="44.94432" lon="5.36207">
        <ele>1216.69</ele>
        <time>2014-07-04T11:42:37Z</time>
      </trkpt>
      <trkpt lat="44.94436" lon="5.36196">
        <ele>1215.24</ele>
        <time>2014-07-04T11:42:40Z</time>
      </trkpt>
      <trkpt lat="44.94437" lon="5.36178">
        <ele>1213.8</ele>
        <time>2014-07-04T11:42:44Z</time>
      </trkpt>
      <trkpt lat="44.94441" lon="5.36153">
        <ele>1213.8</ele>
        <time>2014-07-04T11:42:55Z</time>
      </trkpt>
      <trkpt lat="44.9444" lon="5.36147">
        <ele>1213.8</ele>
        <time>2014-07-04T11:42:58Z</time>
      </trkpt>
      <trkpt lat="44.9444" lon="5.36146">
        <ele>1213.8</ele>
        <time>2014-07-04T11:42:59Z</time>
      </trkpt>
      <trkpt lat="44.94439" lon="5.36144">
        <ele>1213.8</ele>
        <time>2014-07-04T11:43:00Z</time>
      </trkpt>
      <trkpt lat="44.94438" lon="5.36141">
        <ele>1213.8</ele>
        <time>2014-07-04T11:43:01Z</time>
      </trkpt>
      <trkpt lat="44.94437" lon="5.36139">
        <ele>1213.8</ele>
        <time>2014-07-04T11:43:02Z</time>
      </trkpt>
      <trkpt lat="44.9443" lon="5.36128">
        <ele>1213.8</ele>
        <time>2014-07-04T11:43:13Z</time>
      </trkpt>
      <trkpt lat="44.9443" lon="5.36128">
        <ele>1212.84</ele>
        <time>2014-07-04T11:43:15Z</time>
      </trkpt>
      <trkpt lat="44.9443" lon="5.36128">
        <ele>1214.76</ele>
        <time>2014-07-04T11:43:17Z</time>
      </trkpt>
      <trkpt lat="44.9443" lon="5.36128">
        <ele>1214.28</ele>
        <time>2014-07-04T11:43:19Z</time>
      </trkpt>
      <trkpt lat="44.94427" lon="5.36127">
        <ele>1213.32</ele>
        <time>2014-07-04T11:43:48Z</time>
      </trkpt>
      <trkpt lat="44.94426" lon="5.36129">
        <ele>1212.36</ele>
        <time>2014-07-04T11:44:15Z</time>
      </trkpt>
      <trkpt lat="44.94425" lon="5.36131">
        <ele>1213.32</ele>
        <time>2014-07-04T11:44:43Z</time>
      </trkpt>
      <trkpt lat="44.94426" lon="5.36131">
        <ele>1212.84</ele>
        <time>2014-07-04T11:45:14Z</time>
      </trkpt>
      <trkpt lat="44.94426" lon="5.36131">
        <ele>1213.32</ele>
        <time>2014-07-04T11:45:37Z</time>
      </trkpt>
      <trkpt lat="44.94424" lon="5.36127">
        <ele>1212.84</ele>
        <time>2014-07-04T11:45:51Z</time>
      </trkpt>
      <trkpt lat="44.94423" lon="5.36124">
        <ele>1212.84</ele>
        <time>2014-07-04T11:45:53Z</time>
      </trkpt>
      <trkpt lat="44.94423" lon="5.36122">
        <ele>1213.32</ele>
        <time>2014-07-04T11:45:54Z</time>
      </trkpt>
      <trkpt lat="44.94422" lon="5.36121">
        <ele>1212.84</ele>
        <time>2014-07-04T11:45:55Z</time>
      </trkpt>
      <trkpt lat="44.94417" lon="5.36106">
        <ele>1214.76</ele>
        <time>2014-07-04T11:46:05Z</time>
      </trkpt>
      <trkpt lat="44.94416" lon="5.36105">
        <ele>1214.76</ele>
        <time>2014-07-04T11:46:06Z</time>
      </trkpt>
      <trkpt lat="44.94414" lon="5.36099">
        <ele>1215.24</ele>
        <time>2014-07-04T11:46:10Z</time>
      </trkpt>
      <trkpt lat="44.94414" lon="5.36097">
        <ele>1215.72</ele>
        <time>2014-07-04T11:46:11Z</time>
      </trkpt>
      <trkpt lat="44.9441" lon="5.36082">
        <ele>1217.65</ele>
        <time>2014-07-04T11:46:24Z</time>
      </trkpt>
      <trkpt lat="44.94403" lon="5.36069">
        <ele>1219.57</ele>
        <time>2014-07-04T11:46:36Z</time>
      </trkpt>
      <trkpt lat="44.94396" lon="5.36056">
        <ele>1221.01</ele>
        <time>2014-07-04T11:46:46Z</time>
      </trkpt>
      <trkpt lat="44.94395" lon="5.36055">
        <ele>1221.49</ele>
        <time>2014-07-04T11:46:47Z</time>
      </trkpt>
      <trkpt lat="44.94393" lon="5.36053">
        <ele>1221.49</ele>
        <time>2014-07-04T11:46:49Z</time>
      </trkpt>
      <trkpt lat="44.94385" lon="5.36037">
        <ele>1222.45</ele>
        <time>2014-07-04T11:47:03Z</time>
      </trkpt>
      <trkpt lat="44.94376" lon="5.36022">
        <ele>1221.49</ele>
        <time>2014-07-04T11:47:16Z</time>
      </trkpt>
      <trkpt lat="44.94375" lon="5.3602">
        <ele>1222.45</ele>
        <time>2014-07-04T11:47:35Z</time>
      </trkpt>
      <trkpt lat="44.94375" lon="5.36021">
        <ele>1221.49</ele>
        <time>2014-07-04T11:48:02Z</time>
      </trkpt>
      <trkpt lat="44.94375" lon="5.36019">
        <ele>1221.01</ele>
        <time>2014-07-04T11:48:03Z</time>
      </trkpt>
      <trkpt lat="44.94373" lon="5.36009">
        <ele>1220.05</ele>
        <time>2014-07-04T11:48:06Z</time>
      </trkpt>
      <trkpt lat="44.94372" lon="5.36003">
        <ele>1219.57</ele>
        <time>2014-07-04T11:48:07Z</time>
      </trkpt>
      <trkpt lat="44.94371" lon="5.35995">
        <ele>1219.09</ele>
        <time>2014-07-04T11:48:08Z</time>
      </trkpt>
      <trkpt lat="44.94369" lon="5.35987">
        <ele>1218.13</ele>
        <time>2014-07-04T11:48:09Z</time>
      </trkpt>
      <trkpt lat="44.94369" lon="5.35978">
        <ele>1217.17</ele>
        <time>2014-07-04T11:48:10Z</time>
      </trkpt>
      <trkpt lat="44.9437" lon="5.35968">
        <ele>1215.72</ele>
        <time>2014-07-04T11:48:11Z</time>
      </trkpt>
      <trkpt lat="44.94372" lon="5.35959">
        <ele>1214.76</ele>
        <time>2014-07-04T11:48:12Z</time>
      </trkpt>
      <trkpt lat="44.94376" lon="5.3595">
        <ele>1213.8</ele>
        <time>2014-07-04T11:48:13Z</time>
      </trkpt>
      <trkpt lat="44.9438" lon="5.35942">
        <ele>1212.84</ele>
        <time>2014-07-04T11:48:14Z</time>
      </trkpt>
      <trkpt lat="44.94385" lon="5.35935">
        <ele>1213.32</ele>
        <time>2014-07-04T11:48:15Z</time>
      </trkpt>
      <trkpt lat="44.94396" lon="5.35919">
        <ele>1211.88</ele>
        <time>2014-07-04T11:48:17Z</time>
      </trkpt>
      <trkpt lat="44.944" lon="5.3591">
        <ele>1211.88</ele>
        <time>2014-07-04T11:48:18Z</time>
      </trkpt>
      <trkpt lat="44.94404" lon="5.35901">
        <ele>1211.4</ele>
        <time>2014-07-04T11:48:19Z</time>
      </trkpt>
      <trkpt lat="44.94409" lon="5.35884">
        <ele>1210.44</ele>
        <time>2014-07-04T11:48:21Z</time>
      </trkpt>
      <trkpt lat="44.94419" lon="5.35859">
        <ele>1209.96</ele>
        <time>2014-07-04T11:48:24Z</time>
      </trkpt>
      <trkpt lat="44.94423" lon="5.35851">
        <ele>1210.44</ele>
        <time>2014-07-04T11:48:25Z</time>
      </trkpt>
      <trkpt lat="44.94438" lon="5.35804">
        <ele>1210.44</ele>
        <time>2014-07-04T11:48:32Z</time>
      </trkpt>
      <trkpt lat="44.94439" lon="5.35799">
        <ele>1210.44</ele>
        <time>2014-07-04T11:48:33Z</time>
      </trkpt>
      <trkpt lat="44.94447" lon="5.35757">
        <ele>1211.4</ele>
        <time>2014-07-04T11:48:44Z</time>
      </trkpt>
      <trkpt lat="44.94452" lon="5.35708">
        <ele>1212.36</ele>
        <time>2014-07-04T11:48:57Z</time>
      </trkpt>
      <trkpt lat="44.94459" lon="5.35676">
        <ele>1213.8</ele>
        <time>2014-07-04T11:49:08Z</time>
      </trkpt>
      <trkpt lat="44.94471" lon="5.3563">
        <ele>1213.8</ele>
        <time>2014-07-04T11:49:23Z</time>
      </trkpt>
      <trkpt lat="44.9447" lon="5.35587">
        <ele>1213.8</ele>
        <time>2014-07-04T11:49:37Z</time>
      </trkpt>
      <trkpt lat="44.94459" lon="5.3556">
        <ele>1215.24</ele>
        <time>2014-07-04T11:49:48Z</time>
      </trkpt>
      <trkpt lat="44.94446" lon="5.35535">
        <ele>1217.17</ele>
        <time>2014-07-04T11:50:01Z</time>
      </trkpt>
      <trkpt lat="44.94441" lon="5.35519">
        <ele>1218.13</ele>
        <time>2014-07-04T11:50:11Z</time>
      </trkpt>
      <trkpt lat="44.9444" lon="5.35516">
        <ele>1218.61</ele>
        <time>2014-07-04T11:50:13Z</time>
      </trkpt>
      <trkpt lat="44.94437" lon="5.3551">
        <ele>1218.61</ele>
        <time>2014-07-04T11:50:16Z</time>
      </trkpt>
      <trkpt lat="44.94436" lon="5.35507">
        <ele>1219.57</ele>
        <time>2014-07-04T11:50:17Z</time>
      </trkpt>
      <trkpt lat="44.94428" lon="5.35475">
        <ele>1220.53</ele>
        <time>2014-07-04T11:50:28Z</time>
      </trkpt>
      <trkpt lat="44.94415" lon="5.35452">
        <ele>1221.97</ele>
        <time>2014-07-04T11:50:41Z</time>
      </trkpt>
      <trkpt lat="44.94404" lon="5.35439">
        <ele>1222.45</ele>
        <time>2014-07-04T11:50:54Z</time>
      </trkpt>
      <trkpt lat="44.94394" lon="5.35428">
        <ele>1222.93</ele>
        <time>2014-07-04T11:51:06Z</time>
      </trkpt>
      <trkpt lat="44.94381" lon="5.35418">
        <ele>1223.9</ele>
        <time>2014-07-04T11:51:19Z</time>
      </trkpt>
      <trkpt lat="44.94378" lon="5.35414">
        <ele>1224.38</ele>
        <time>2014-07-04T11:51:22Z</time>
      </trkpt>
      <trkpt lat="44.94372" lon="5.35406">
        <ele>1225.34</ele>
        <time>2014-07-04T11:51:28Z</time>
      </trkpt>
      <trkpt lat="44.9437" lon="5.35406">
        <ele>1224.86</ele>
        <time>2014-07-04T11:51:29Z</time>
      </trkpt>
      <trkpt lat="44.94367" lon="5.354">
        <ele>1225.34</ele>
        <time>2014-07-04T11:51:33Z</time>
      </trkpt>
      <trkpt lat="44.94359" lon="5.35387">
        <ele>1227.26</ele>
        <time>2014-07-04T11:51:44Z</time>
      </trkpt>
      <trkpt lat="44.94358" lon="5.35387">
        <ele>1227.26</ele>
        <time>2014-07-04T11:51:45Z</time>
      </trkpt>
      <trkpt lat="44.94345" lon="5.3537">
        <ele>1230.14</ele>
        <time>2014-07-04T11:52:01Z</time>
      </trkpt>
      <trkpt lat="44.94336" lon="5.35352">
        <ele>1233.03</ele>
        <time>2014-07-04T11:52:16Z</time>
      </trkpt>
      <trkpt lat="44.94325" lon="5.35336">
        <ele>1235.43</ele>
        <time>2014-07-04T11:52:30Z</time>
      </trkpt>
      <trkpt lat="44.94314" lon="5.35319">
        <ele>1237.35</ele>
        <time>2014-07-04T11:52:44Z</time>
      </trkpt>
      <trkpt lat="44.94303" lon="5.35309">
        <ele>1238.8</ele>
        <time>2014-07-04T11:52:57Z</time>
      </trkpt>
      <trkpt lat="44.94296" lon="5.353">
        <ele>1239.76</ele>
        <time>2014-07-04T11:53:08Z</time>
      </trkpt>
      <trkpt lat="44.94289" lon="5.35296">
        <ele>1240.72</ele>
        <time>2014-07-04T11:53:14Z</time>
      </trkpt>
      <trkpt lat="44.94276" lon="5.35284">
        <ele>1242.64</ele>
        <time>2014-07-04T11:53:28Z</time>
      </trkpt>
      <trkpt lat="44.94276" lon="5.35282">
        <ele>1242.64</ele>
        <time>2014-07-04T11:53:30Z</time>
      </trkpt>
      <trkpt lat="44.94265" lon="5.35267">
        <ele>1244.56</ele>
        <time>2014-07-04T11:53:42Z</time>
      </trkpt>
      <trkpt lat="44.94252" lon="5.35247">
        <ele>1246.01</ele>
        <time>2014-07-04T11:53:57Z</time>
      </trkpt>
      <trkpt lat="44.94241" lon="5.35227">
        <ele>1247.93</ele>
        <time>2014-07-04T11:54:12Z</time>
      </trkpt>
      <trkpt lat="44.94233" lon="5.35213">
        <ele>1249.85</ele>
        <time>2014-07-04T11:54:22Z</time>
      </trkpt>
      <trkpt lat="44.94231" lon="5.35212">
        <ele>1249.85</ele>
        <time>2014-07-04T11:54:23Z</time>
      </trkpt>
      <trkpt lat="44.94223" lon="5.35201">
        <ele>1251.77</ele>
        <time>2014-07-04T11:54:33Z</time>
      </trkpt>
      <trkpt lat="44.94213" lon="5.35189">
        <ele>1253.22</ele>
        <time>2014-07-04T11:54:45Z</time>
      </trkpt>
      <trkpt lat="44.94201" lon="5.35174">
        <ele>1256.58</ele>
        <time>2014-07-04T11:54:59Z</time>
      </trkpt>
      <trkpt lat="44.94196" lon="5.35161">
        <ele>1259.46</ele>
        <time>2014-07-04T11:55:11Z</time>
      </trkpt>
      <trkpt lat="44.94194" lon="5.35154">
        <ele>1260.43</ele>
        <time>2014-07-04T11:55:16Z</time>
      </trkpt>
      <trkpt lat="44.94193" lon="5.35152">
        <ele>1260.43</ele>
        <time>2014-07-04T11:55:17Z</time>
      </trkpt>
      <trkpt lat="44.94184" lon="5.35137">
        <ele>1263.31</ele>
        <time>2014-07-04T11:55:29Z</time>
      </trkpt>
      <trkpt lat="44.94179" lon="5.35124">
        <ele>1264.75</ele>
        <time>2014-07-04T11:55:40Z</time>
      </trkpt>
      <trkpt lat="44.94171" lon="5.35111">
        <ele>1266.67</ele>
        <time>2014-07-04T11:55:52Z</time>
      </trkpt>
      <trkpt lat="44.9417" lon="5.3511">
        <ele>1266.19</ele>
        <time>2014-07-04T11:55:53Z</time>
      </trkpt>
      <trkpt lat="44.94157" lon="5.35094">
        <ele>1267.16</ele>
        <time>2014-07-04T11:56:07Z</time>
      </trkpt>
      <trkpt lat="44.94149" lon="5.35084">
        <ele>1268.6</ele>
        <time>2014-07-04T11:56:19Z</time>
      </trkpt>
      <trkpt lat="44.94149" lon="5.35083">
        <ele>1269.08</ele>
        <time>2014-07-04T11:56:20Z</time>
      </trkpt>
      <trkpt lat="44.94138" lon="5.35065">
        <ele>1270.52</ele>
        <time>2014-07-04T11:56:33Z</time>
      </trkpt>
      <trkpt lat="44.94138" lon="5.35063">
        <ele>1270.52</ele>
        <time>2014-07-04T11:56:34Z</time>
      </trkpt>
      <trkpt lat="44.94129" lon="5.35048">
        <ele>1272.44</ele>
        <time>2014-07-04T11:56:47Z</time>
      </trkpt>
      <trkpt lat="44.94128" lon="5.35046">
        <ele>1272.92</ele>
        <time>2014-07-04T11:56:48Z</time>
      </trkpt>
      <trkpt lat="44.94119" lon="5.35021">
        <ele>1272.44</ele>
        <time>2014-07-04T11:57:00Z</time>
      </trkpt>
      <trkpt lat="44.94119" lon="5.3502">
        <ele>1272.92</ele>
        <time>2014-07-04T11:57:01Z</time>
      </trkpt>
      <trkpt lat="44.94118" lon="5.35017">
        <ele>1272.92</ele>
        <time>2014-07-04T11:57:02Z</time>
      </trkpt>
      <trkpt lat="44.94116" lon="5.35011">
        <ele>1273.4</ele>
        <time>2014-07-04T11:57:05Z</time>
      </trkpt>
      <trkpt lat="44.9411" lon="5.34998">
        <ele>1273.4</ele>
        <time>2014-07-04T11:57:12Z</time>
      </trkpt>
      <trkpt lat="44.9411" lon="5.34995">
        <ele>1273.4</ele>
        <time>2014-07-04T11:57:13Z</time>
      </trkpt>
      <trkpt lat="44.94103" lon="5.34966">
        <ele>1273.88</ele>
        <time>2014-07-04T11:57:27Z</time>
      </trkpt>
      <trkpt lat="44.94101" lon="5.3495">
        <ele>1274.85</ele>
        <time>2014-07-04T11:57:35Z</time>
      </trkpt>
      <trkpt lat="44.94097" lon="5.34939">
        <ele>1276.29</ele>
        <time>2014-07-04T11:57:41Z</time>
      </trkpt>
      <trkpt lat="44.94096" lon="5.3493">
        <ele>1276.29</ele>
        <time>2014-07-04T11:57:46Z</time>
      </trkpt>
      <trkpt lat="44.94096" lon="5.34928">
        <ele>1276.77</ele>
        <time>2014-07-04T11:57:47Z</time>
      </trkpt>
      <trkpt lat="44.94092" lon="5.34914">
        <ele>1277.25</ele>
        <time>2014-07-04T11:57:54Z</time>
      </trkpt>
      <trkpt lat="44.9409" lon="5.34912">
        <ele>1277.73</ele>
        <time>2014-07-04T11:57:55Z</time>
      </trkpt>
      <trkpt lat="44.9409" lon="5.3491">
        <ele>1278.21</ele>
        <time>2014-07-04T11:57:56Z</time>
      </trkpt>
      <trkpt lat="44.94088" lon="5.34906">
        <ele>1278.21</ele>
        <time>2014-07-04T11:57:58Z</time>
      </trkpt>
      <trkpt lat="44.94087" lon="5.34882">
        <ele>1280.13</ele>
        <time>2014-07-04T11:58:10Z</time>
      </trkpt>
      <trkpt lat="44.94086" lon="5.34877">
        <ele>1280.13</ele>
        <time>2014-07-04T11:58:12Z</time>
      </trkpt>
      <trkpt lat="44.94087" lon="5.34875">
        <ele>1280.61</ele>
        <time>2014-07-04T11:58:13Z</time>
      </trkpt>
      <trkpt lat="44.94087" lon="5.34844">
        <ele>1282.54</ele>
        <time>2014-07-04T11:58:28Z</time>
      </trkpt>
      <trkpt lat="44.94085" lon="5.34833">
        <ele>1283.02</ele>
        <time>2014-07-04T11:58:35Z</time>
      </trkpt>
      <trkpt lat="44.94085" lon="5.34831">
        <ele>1283.02</ele>
        <time>2014-07-04T11:58:36Z</time>
      </trkpt>
      <trkpt lat="44.94085" lon="5.34828">
        <ele>1283.5</ele>
        <time>2014-07-04T11:58:37Z</time>
      </trkpt>
      <trkpt lat="44.94085" lon="5.34826">
        <ele>1283.02</ele>
        <time>2014-07-04T11:58:38Z</time>
      </trkpt>
      <trkpt lat="44.94084" lon="5.34812">
        <ele>1283.98</ele>
        <time>2014-07-04T11:58:46Z</time>
      </trkpt>
      <trkpt lat="44.94083" lon="5.348">
        <ele>1284.46</ele>
        <time>2014-07-04T11:58:53Z</time>
      </trkpt>
      <trkpt lat="44.94082" lon="5.34798">
        <ele>1284.46</ele>
        <time>2014-07-04T11:58:54Z</time>
      </trkpt>
      <trkpt lat="44.94082" lon="5.34796">
        <ele>1284.94</ele>
        <time>2014-07-04T11:58:55Z</time>
      </trkpt>
      <trkpt lat="44.94081" lon="5.34794">
        <ele>1284.46</ele>
        <time>2014-07-04T11:58:56Z</time>
      </trkpt>
      <trkpt lat="44.9408" lon="5.34784">
        <ele>1285.42</ele>
        <time>2014-07-04T11:59:00Z</time>
      </trkpt>
      <trkpt lat="44.9408" lon="5.34782">
        <ele>1284.94</ele>
        <time>2014-07-04T11:59:01Z</time>
      </trkpt>
      <trkpt lat="44.94081" lon="5.34762">
        <ele>1286.86</ele>
        <time>2014-07-04T11:59:12Z</time>
      </trkpt>
      <trkpt lat="44.94081" lon="5.34761">
        <ele>1287.34</ele>
        <time>2014-07-04T11:59:13Z</time>
      </trkpt>
      <trkpt lat="44.94084" lon="5.34733">
        <ele>1288.3</ele>
        <time>2014-07-04T11:59:28Z</time>
      </trkpt>
      <trkpt lat="44.94085" lon="5.34732">
        <ele>1288.78</ele>
        <time>2014-07-04T11:59:29Z</time>
      </trkpt>
      <trkpt lat="44.94086" lon="5.34723">
        <ele>1289.27</ele>
        <time>2014-07-04T11:59:34Z</time>
      </trkpt>
      <trkpt lat="44.94089" lon="5.34698">
        <ele>1290.23</ele>
        <time>2014-07-04T11:59:47Z</time>
      </trkpt>
      <trkpt lat="44.94089" lon="5.34695">
        <ele>1290.71</ele>
        <time>2014-07-04T11:59:49Z</time>
      </trkpt>
      <trkpt lat="44.94089" lon="5.34677">
        <ele>1292.15</ele>
        <time>2014-07-04T12:00:00Z</time>
      </trkpt>
      <trkpt lat="44.94088" lon="5.34675">
        <ele>1292.63</ele>
        <time>2014-07-04T12:00:01Z</time>
      </trkpt>
      <trkpt lat="44.94087" lon="5.34674">
        <ele>1292.63</ele>
        <time>2014-07-04T12:00:02Z</time>
      </trkpt>
      <trkpt lat="44.94087" lon="5.34673">
        <ele>1292.63</ele>
        <time>2014-07-04T12:00:03Z</time>
      </trkpt>
      <trkpt lat="44.94086" lon="5.34671">
        <ele>1292.63</ele>
        <time>2014-07-04T12:00:04Z</time>
      </trkpt>
      <trkpt lat="44.9408" lon="5.34658">
        <ele>1294.07</ele>
        <time>2014-07-04T12:00:15Z</time>
      </trkpt>
      <trkpt lat="44.94068" lon="5.34638">
        <ele>1296.48</ele>
        <time>2014-07-04T12:00:31Z</time>
      </trkpt>
      <trkpt lat="44.94067" lon="5.34636">
        <ele>1296.48</ele>
        <time>2014-07-04T12:00:32Z</time>
      </trkpt>
      <trkpt lat="44.94066" lon="5.34628">
        <ele>1296.96</ele>
        <time>2014-07-04T12:00:44Z</time>
      </trkpt>
      <trkpt lat="44.94061" lon="5.3463">
        <ele>1296.96</ele>
        <time>2014-07-04T12:01:08Z</time>
      </trkpt>
      <trkpt lat="44.9406" lon="5.34629">
        <ele>1296.48</ele>
        <time>2014-07-04T12:01:28Z</time>
      </trkpt>
      <trkpt lat="44.94059" lon="5.34628">
        <ele>1296.48</ele>
        <time>2014-07-04T12:01:45Z</time>
      </trkpt>
      <trkpt lat="44.94058" lon="5.3461">
        <ele>1295.99</ele>
        <time>2014-07-04T12:01:57Z</time>
      </trkpt>
      <trkpt lat="44.94059" lon="5.3461">
        <ele>1295.51</ele>
        <time>2014-07-04T12:02:08Z</time>
      </trkpt>
      <trkpt lat="44.94058" lon="5.34609">
        <ele>1295.51</ele>
        <time>2014-07-04T12:02:31Z</time>
      </trkpt>
      <trkpt lat="44.94058" lon="5.3461">
        <ele>1295.03</ele>
        <time>2014-07-04T12:02:46Z</time>
      </trkpt>
      <trkpt lat="44.94057" lon="5.3461">
        <ele>1295.51</ele>
        <time>2014-07-04T12:03:09Z</time>
      </trkpt>
      <trkpt lat="44.94057" lon="5.34609">
        <ele>1295.99</ele>
        <time>2014-07-04T12:03:39Z</time>
      </trkpt>
      <trkpt lat="44.94057" lon="5.34608">
        <ele>1295.51</ele>
        <time>2014-07-04T12:04:13Z</time>
      </trkpt>
      <trkpt lat="44.94056" lon="5.3461">
        <ele>1295.51</ele>
        <time>2014-07-04T12:04:42Z</time>
      </trkpt>
      <trkpt lat="44.94053" lon="5.34595">
        <ele>1293.59</ele>
        <time>2014-07-04T12:04:59Z</time>
      </trkpt>
      <trkpt lat="44.9405" lon="5.34574">
        <ele>1290.71</ele>
        <time>2014-07-04T12:05:05Z</time>
      </trkpt>
      <trkpt lat="44.94047" lon="5.34556">
        <ele>1288.78</ele>
        <time>2014-07-04T12:05:13Z</time>
      </trkpt>
      <trkpt lat="44.94046" lon="5.34546">
        <ele>1286.86</ele>
        <time>2014-07-04T12:05:17Z</time>
      </trkpt>
      <trkpt lat="44.94046" lon="5.34542">
        <ele>1286.38</ele>
        <time>2014-07-04T12:05:19Z</time>
      </trkpt>
      <trkpt lat="44.94046" lon="5.3454">
        <ele>1285.9</ele>
        <time>2014-07-04T12:05:20Z</time>
      </trkpt>
      <trkpt lat="44.94046" lon="5.34538">
        <ele>1285.9</ele>
        <time>2014-07-04T12:05:21Z</time>
      </trkpt>
      <trkpt lat="44.94046" lon="5.34535">
        <ele>1284.94</ele>
        <time>2014-07-04T12:05:22Z</time>
      </trkpt>
      <trkpt lat="44.94046" lon="5.34532">
        <ele>1284.46</ele>
        <time>2014-07-04T12:05:23Z</time>
      </trkpt>
      <trkpt lat="44.94046" lon="5.3453">
        <ele>1283.98</ele>
        <time>2014-07-04T12:05:24Z</time>
      </trkpt>
      <trkpt lat="44.94047" lon="5.34528">
        <ele>1283.5</ele>
        <time>2014-07-04T12:05:25Z</time>
      </trkpt>
      <trkpt lat="44.94047" lon="5.34526">
        <ele>1283.5</ele>
        <time>2014-07-04T12:05:26Z</time>
      </trkpt>
      <trkpt lat="44.94046" lon="5.34523">
        <ele>1283.5</ele>
        <time>2014-07-04T12:05:27Z</time>
      </trkpt>
      <trkpt lat="44.94046" lon="5.3452">
        <ele>1283.5</ele>
        <time>2014-07-04T12:05:28Z</time>
      </trkpt>
      <trkpt lat="44.94046" lon="5.34518">
        <ele>1283.02</ele>
        <time>2014-07-04T12:05:29Z</time>
      </trkpt>
      <trkpt lat="44.94046" lon="5.34513">
        <ele>1282.06</ele>
        <time>2014-07-04T12:05:31Z</time>
      </trkpt>
      <trkpt lat="44.94046" lon="5.3451">
        <ele>1282.06</ele>
        <time>2014-07-04T12:05:32Z</time>
      </trkpt>
      <trkpt lat="44.94045" lon="5.34508">
        <ele>1282.06</ele>
        <time>2014-07-04T12:05:33Z</time>
      </trkpt>
      <trkpt lat="44.94044" lon="5.34503">
        <ele>1281.57</ele>
        <time>2014-07-04T12:05:42Z</time>
      </trkpt>
      <trkpt lat="44.94045" lon="5.34502">
        <ele>1281.57</ele>
        <time>2014-07-04T12:05:58Z</time>
      </trkpt>
      <trkpt lat="44.94044" lon="5.34491">
        <ele>1278.69</ele>
        <time>2014-07-04T12:06:08Z</time>
      </trkpt>
      <trkpt lat="44.94044" lon="5.34477">
        <ele>1276.29</ele>
        <time>2014-07-04T12:06:22Z</time>
      </trkpt>
      <trkpt lat="44.94044" lon="5.34471">
        <ele>1273.88</ele>
        <time>2014-07-04T12:06:35Z</time>
      </trkpt>
      <trkpt lat="44.94046" lon="5.34452">
        <ele>1271.96</ele>
        <time>2014-07-04T12:06:45Z</time>
      </trkpt>
      <trkpt lat="44.94047" lon="5.34449">
        <ele>1271.48</ele>
        <time>2014-07-04T12:06:58Z</time>
      </trkpt>
      <trkpt lat="44.94047" lon="5.3444">
        <ele>1270.04</ele>
        <time>2014-07-04T12:07:09Z</time>
      </trkpt>
      <trkpt lat="44.94049" lon="5.34434">
        <ele>1270.04</ele>
        <time>2014-07-04T12:07:13Z</time>
      </trkpt>
      <trkpt lat="44.94049" lon="5.34421">
        <ele>1268.12</ele>
        <time>2014-07-04T12:07:24Z</time>
      </trkpt>
      <trkpt lat="44.94048" lon="5.34406">
        <ele>1266.19</ele>
        <time>2014-07-04T12:07:38Z</time>
      </trkpt>
      <trkpt lat="44.94048" lon="5.34392">
        <ele>1264.27</ele>
        <time>2014-07-04T12:07:50Z</time>
      </trkpt>
      <trkpt lat="44.94049" lon="5.34378">
        <ele>1262.83</ele>
        <time>2014-07-04T12:08:01Z</time>
      </trkpt>
      <trkpt lat="44.94049" lon="5.34376">
        <ele>1262.83</ele>
        <time>2014-07-04T12:08:02Z</time>
      </trkpt>
      <trkpt lat="44.94049" lon="5.34373">
        <ele>1261.87</ele>
        <time>2014-07-04T12:08:03Z</time>
      </trkpt>
      <trkpt lat="44.94049" lon="5.3437">
        <ele>1261.39</ele>
        <time>2014-07-04T12:08:04Z</time>
      </trkpt>
      <trkpt lat="44.94049" lon="5.34368">
        <ele>1261.39</ele>
        <time>2014-07-04T12:08:05Z</time>
      </trkpt>
      <trkpt lat="44.94049" lon="5.34365">
        <ele>1260.91</ele>
        <time>2014-07-04T12:08:06Z</time>
      </trkpt>
      <trkpt lat="44.94047" lon="5.34348">
        <ele>1258.02</ele>
        <time>2014-07-04T12:08:16Z</time>
      </trkpt>
      <trkpt lat="44.94047" lon="5.34347">
        <ele>1257.54</ele>
        <time>2014-07-04T12:08:17Z</time>
      </trkpt>
      <trkpt lat="44.94046" lon="5.34346">
        <ele>1257.06</ele>
        <time>2014-07-04T12:08:18Z</time>
      </trkpt>
      <trkpt lat="44.94046" lon="5.34342">
        <ele>1257.06</ele>
        <time>2014-07-04T12:08:19Z</time>
      </trkpt>
      <trkpt lat="44.94047" lon="5.3434">
        <ele>1256.58</ele>
        <time>2014-07-04T12:08:20Z</time>
      </trkpt>
      <trkpt lat="44.94047" lon="5.34336">
        <ele>1256.58</ele>
        <time>2014-07-04T12:08:21Z</time>
      </trkpt>
      <trkpt lat="44.9405" lon="5.34327">
        <ele>1256.1</ele>
        <time>2014-07-04T12:08:25Z</time>
      </trkpt>
      <trkpt lat="44.9405" lon="5.34325">
        <ele>1255.62</ele>
        <time>2014-07-04T12:08:26Z</time>
      </trkpt>
      <trkpt lat="44.9405" lon="5.34323">
        <ele>1255.62</ele>
        <time>2014-07-04T12:08:27Z</time>
      </trkpt>
      <trkpt lat="44.9405" lon="5.34321">
        <ele>1255.14</ele>
        <time>2014-07-04T12:08:28Z</time>
      </trkpt>
      <trkpt lat="44.9405" lon="5.3431">
        <ele>1253.22</ele>
        <time>2014-07-04T12:08:39Z</time>
      </trkpt>
      <trkpt lat="44.94052" lon="5.34299">
        <ele>1250.81</ele>
        <time>2014-07-04T12:08:56Z</time>
      </trkpt>
      <trkpt lat="44.94056" lon="5.34292">
        <ele>1248.89</ele>
        <time>2014-07-04T12:09:05Z</time>
      </trkpt>
      <trkpt lat="44.94057" lon="5.34289">
        <ele>1248.41</ele>
        <time>2014-07-04T12:09:06Z</time>
      </trkpt>
      <trkpt lat="44.94058" lon="5.34285">
        <ele>1247.93</ele>
        <time>2014-07-04T12:09:07Z</time>
      </trkpt>
      <trkpt lat="44.94059" lon="5.34282">
        <ele>1247.45</ele>
        <time>2014-07-04T12:09:08Z</time>
      </trkpt>
      <trkpt lat="44.9406" lon="5.34278">
        <ele>1246.97</ele>
        <time>2014-07-04T12:09:09Z</time>
      </trkpt>
      <trkpt lat="44.94061" lon="5.34275">
        <ele>1246.49</ele>
        <time>2014-07-04T12:09:10Z</time>
      </trkpt>
      <trkpt lat="44.94063" lon="5.34268">
        <ele>1245.53</ele>
        <time>2014-07-04T12:09:12Z</time>
      </trkpt>
      <trkpt lat="44.94064" lon="5.34266">
        <ele>1246.01</ele>
        <time>2014-07-04T12:09:13Z</time>
      </trkpt>
      <trkpt lat="44.94067" lon="5.34258">
        <ele>1244.56</ele>
        <time>2014-07-04T12:09:17Z</time>
      </trkpt>
      <trkpt lat="44.94075" lon="5.34223">
        <ele>1241.2</ele>
        <time>2014-07-04T12:09:26Z</time>
      </trkpt>
      <trkpt lat="44.94081" lon="5.34191">
        <ele>1237.83</ele>
        <time>2014-07-04T12:09:35Z</time>
      </trkpt>
      <trkpt lat="44.94088" lon="5.34163">
        <ele>1234.95</ele>
        <time>2014-07-04T12:09:44Z</time>
      </trkpt>
      <trkpt lat="44.94092" lon="5.34158">
        <ele>1234.47</ele>
        <time>2014-07-04T12:09:46Z</time>
      </trkpt>
      <trkpt lat="44.94094" lon="5.34157">
        <ele>1233.99</ele>
        <time>2014-07-04T12:09:47Z</time>
      </trkpt>
      <trkpt lat="44.94095" lon="5.34154">
        <ele>1233.99</ele>
        <time>2014-07-04T12:09:48Z</time>
      </trkpt>
      <trkpt lat="44.94096" lon="5.3415">
        <ele>1233.99</ele>
        <time>2014-07-04T12:09:49Z</time>
      </trkpt>
      <trkpt lat="44.94097" lon="5.34145">
        <ele>1233.51</ele>
        <time>2014-07-04T12:09:50Z</time>
      </trkpt>
      <trkpt lat="44.94099" lon="5.34139">
        <ele>1232.55</ele>
        <time>2014-07-04T12:09:51Z</time>
      </trkpt>
      <trkpt lat="44.94111" lon="5.34106">
        <ele>1230.14</ele>
        <time>2014-07-04T12:09:58Z</time>
      </trkpt>
      <trkpt lat="44.94113" lon="5.34102">
        <ele>1230.14</ele>
        <time>2014-07-04T12:09:59Z</time>
      </trkpt>
      <trkpt lat="44.94128" lon="5.34073">
        <ele>1226.78</ele>
        <time>2014-07-04T12:10:06Z</time>
      </trkpt>
      <trkpt lat="44.94131" lon="5.34069">
        <ele>1226.78</ele>
        <time>2014-07-04T12:10:07Z</time>
      </trkpt>
      <trkpt lat="44.94145" lon="5.34046">
        <ele>1224.86</ele>
        <time>2014-07-04T12:10:15Z</time>
      </trkpt>
      <trkpt lat="44.94172" lon="5.34024">
        <ele>1223.9</ele>
        <time>2014-07-04T12:10:24Z</time>
      </trkpt>
      <trkpt lat="44.94173" lon="5.34022">
        <ele>1223.9</ele>
        <time>2014-07-04T12:10:25Z</time>
      </trkpt>
      <trkpt lat="44.94174" lon="5.34021">
        <ele>1223.42</ele>
        <time>2014-07-04T12:10:26Z</time>
      </trkpt>
      <trkpt lat="44.94175" lon="5.34019">
        <ele>1223.9</ele>
        <time>2014-07-04T12:10:27Z</time>
      </trkpt>
      <trkpt lat="44.94179" lon="5.34012">
        <ele>1222.45</ele>
        <time>2014-07-04T12:10:32Z</time>
      </trkpt>
      <trkpt lat="44.9418" lon="5.3401">
        <ele>1221.97</ele>
        <time>2014-07-04T12:10:33Z</time>
      </trkpt>
      <trkpt lat="44.94182" lon="5.34007">
        <ele>1221.01</ele>
        <time>2014-07-04T12:10:34Z</time>
      </trkpt>
      <trkpt lat="44.94184" lon="5.34005">
        <ele>1220.53</ele>
        <time>2014-07-04T12:10:35Z</time>
      </trkpt>
      <trkpt lat="44.94187" lon="5.34004">
        <ele>1221.01</ele>
        <time>2014-07-04T12:10:36Z</time>
      </trkpt>
      <trkpt lat="44.9419" lon="5.34004">
        <ele>1220.53</ele>
        <time>2014-07-04T12:10:37Z</time>
      </trkpt>
      <trkpt lat="44.94192" lon="5.34005">
        <ele>1220.05</ele>
        <time>2014-07-04T12:10:38Z</time>
      </trkpt>
      <trkpt lat="44.94195" lon="5.34003">
        <ele>1220.53</ele>
        <time>2014-07-04T12:10:39Z</time>
      </trkpt>
      <trkpt lat="44.94208" lon="5.33992">
        <ele>1220.53</ele>
        <time>2014-07-04T12:10:51Z</time>
      </trkpt>
      <trkpt lat="44.94221" lon="5.33985">
        <ele>1221.01</ele>
        <time>2014-07-04T12:11:10Z</time>
      </trkpt>
      <trkpt lat="44.94227" lon="5.33982">
        <ele>1221.01</ele>
        <time>2014-07-04T12:11:38Z</time>
      </trkpt>
      <trkpt lat="44.94228" lon="5.33981">
        <ele>1221.97</ele>
        <time>2014-07-04T12:11:58Z</time>
      </trkpt>
      <trkpt lat="44.94227" lon="5.33981">
        <ele>1221.97</ele>
        <time>2014-07-04T12:12:14Z</time>
      </trkpt>
      <trkpt lat="44.94225" lon="5.33982">
        <ele>1221.97</ele>
        <time>2014-07-04T12:12:37Z</time>
      </trkpt>
      <trkpt lat="44.94225" lon="5.33983">
        <ele>1222.45</ele>
        <time>2014-07-04T12:12:55Z</time>
      </trkpt>
      <trkpt lat="44.94234" lon="5.3398">
        <ele>1221.49</ele>
        <time>2014-07-04T12:13:07Z</time>
      </trkpt>
      <trkpt lat="44.94237" lon="5.33978">
        <ele>1221.01</ele>
        <time>2014-07-04T12:13:09Z</time>
      </trkpt>
      <trkpt lat="44.94238" lon="5.33979">
        <ele>1220.53</ele>
        <time>2014-07-04T12:13:10Z</time>
      </trkpt>
      <trkpt lat="44.94241" lon="5.33979">
        <ele>1220.05</ele>
        <time>2014-07-04T12:13:11Z</time>
      </trkpt>
      <trkpt lat="44.94243" lon="5.33978">
        <ele>1219.57</ele>
        <time>2014-07-04T12:13:12Z</time>
      </trkpt>
      <trkpt lat="44.94245" lon="5.33977">
        <ele>1219.57</ele>
        <time>2014-07-04T12:13:13Z</time>
      </trkpt>
      <trkpt lat="44.94246" lon="5.33974">
        <ele>1219.09</ele>
        <time>2014-07-04T12:13:14Z</time>
      </trkpt>
      <trkpt lat="44.94247" lon="5.33972">
        <ele>1219.57</ele>
        <time>2014-07-04T12:13:15Z</time>
      </trkpt>
      <trkpt lat="44.94247" lon="5.3397">
        <ele>1219.57</ele>
        <time>2014-07-04T12:13:16Z</time>
      </trkpt>
      <trkpt lat="44.94248" lon="5.33968">
        <ele>1220.05</ele>
        <time>2014-07-04T12:13:17Z</time>
      </trkpt>
      <trkpt lat="44.94253" lon="5.33958">
        <ele>1219.57</ele>
        <time>2014-07-04T12:13:24Z</time>
      </trkpt>
      <trkpt lat="44.94254" lon="5.33956">
        <ele>1219.57</ele>
        <time>2014-07-04T12:13:25Z</time>
      </trkpt>
      <trkpt lat="44.94255" lon="5.33954">
        <ele>1220.05</ele>
        <time>2014-07-04T12:13:26Z</time>
      </trkpt>
      <trkpt lat="44.94257" lon="5.33951">
        <ele>1219.57</ele>
        <time>2014-07-04T12:13:27Z</time>
      </trkpt>
      <trkpt lat="44.94274" lon="5.3392">
        <ele>1219.57</ele>
        <time>2014-07-04T12:13:36Z</time>
      </trkpt>
      <trkpt lat="44.94285" lon="5.33896">
        <ele>1219.57</ele>
        <time>2014-07-04T12:13:41Z</time>
      </trkpt>
      <trkpt lat="44.94287" lon="5.33891">
        <ele>1219.57</ele>
        <time>2014-07-04T12:13:42Z</time>
      </trkpt>
      <trkpt lat="44.94289" lon="5.33887">
        <ele>1219.57</ele>
        <time>2014-07-04T12:13:43Z</time>
      </trkpt>
      <trkpt lat="44.94299" lon="5.33868">
        <ele>1220.53</ele>
        <time>2014-07-04T12:13:48Z</time>
      </trkpt>
      <trkpt lat="44.943" lon="5.33863">
        <ele>1220.05</ele>
        <time>2014-07-04T12:13:49Z</time>
      </trkpt>
      <trkpt lat="44.943" lon="5.33859">
        <ele>1220.05</ele>
        <time>2014-07-04T12:13:50Z</time>
      </trkpt>
      <trkpt lat="44.943" lon="5.33853">
        <ele>1220.05</ele>
        <time>2014-07-04T12:13:51Z</time>
      </trkpt>
      <trkpt lat="44.94301" lon="5.33847">
        <ele>1219.57</ele>
        <time>2014-07-04T12:13:52Z</time>
      </trkpt>
      <trkpt lat="44.94301" lon="5.33842">
        <ele>1220.05</ele>
        <time>2014-07-04T12:13:53Z</time>
      </trkpt>
      <trkpt lat="44.94299" lon="5.33837">
        <ele>1220.05</ele>
        <time>2014-07-04T12:13:54Z</time>
      </trkpt>
      <trkpt lat="44.94297" lon="5.33833">
        <ele>1220.05</ele>
        <time>2014-07-04T12:13:55Z</time>
      </trkpt>
      <trkpt lat="44.94295" lon="5.33829">
        <ele>1220.05</ele>
        <time>2014-07-04T12:13:56Z</time>
      </trkpt>
      <trkpt lat="44.94293" lon="5.33825">
        <ele>1220.05</ele>
        <time>2014-07-04T12:13:57Z</time>
      </trkpt>
      <trkpt lat="44.9429" lon="5.33822">
        <ele>1220.05</ele>
        <time>2014-07-04T12:13:58Z</time>
      </trkpt>
      <trkpt lat="44.94264" lon="5.33794">
        <ele>1220.05</ele>
        <time>2014-07-04T12:14:07Z</time>
      </trkpt>
      <trkpt lat="44.94219" lon="5.33746">
        <ele>1220.05</ele>
        <time>2014-07-04T12:14:22Z</time>
      </trkpt>
      <trkpt lat="44.9419" lon="5.33712">
        <ele>1218.61</ele>
        <time>2014-07-04T12:14:31Z</time>
      </trkpt>
      <trkpt lat="44.94184" lon="5.33699">
        <ele>1217.65</ele>
        <time>2014-07-04T12:14:33Z</time>
      </trkpt>
      <trkpt lat="44.94182" lon="5.33691">
        <ele>1216.69</ele>
        <time>2014-07-04T12:14:34Z</time>
      </trkpt>
      <trkpt lat="44.94173" lon="5.33667">
        <ele>1215.24</ele>
        <time>2014-07-04T12:14:37Z</time>
      </trkpt>
      <trkpt lat="44.94171" lon="5.33648">
        <ele>1214.28</ele>
        <time>2014-07-04T12:14:39Z</time>
      </trkpt>
      <trkpt lat="44.94161" lon="5.33597">
        <ele>1210.44</ele>
        <time>2014-07-04T12:14:44Z</time>
      </trkpt>
      <trkpt lat="44.94158" lon="5.33578">
        <ele>1209.96</ele>
        <time>2014-07-04T12:14:46Z</time>
      </trkpt>
      <trkpt lat="44.94156" lon="5.33568">
        <ele>1209</ele>
        <time>2014-07-04T12:14:47Z</time>
      </trkpt>
      <trkpt lat="44.94153" lon="5.3356">
        <ele>1208.51</ele>
        <time>2014-07-04T12:14:48Z</time>
      </trkpt>
      <trkpt lat="44.9415" lon="5.33552">
        <ele>1208.03</ele>
        <time>2014-07-04T12:14:49Z</time>
      </trkpt>
      <trkpt lat="44.94143" lon="5.3354">
        <ele>1207.07</ele>
        <time>2014-07-04T12:14:51Z</time>
      </trkpt>
      <trkpt lat="44.94131" lon="5.33521">
        <ele>1205.63</ele>
        <time>2014-07-04T12:14:56Z</time>
      </trkpt>
      <trkpt lat="44.94131" lon="5.33516">
        <ele>1205.15</ele>
        <time>2014-07-04T12:14:57Z</time>
      </trkpt>
      <trkpt lat="44.94133" lon="5.33512">
        <ele>1204.67</ele>
        <time>2014-07-04T12:14:58Z</time>
      </trkpt>
      <trkpt lat="44.94157" lon="5.33478">
        <ele>1201.79</ele>
        <time>2014-07-04T12:15:06Z</time>
      </trkpt>
      <trkpt lat="44.9421" lon="5.33427">
        <ele>1198.42</ele>
        <time>2014-07-04T12:15:17Z</time>
      </trkpt>
      <trkpt lat="44.94215" lon="5.33422">
        <ele>1198.9</ele>
        <time>2014-07-04T12:15:18Z</time>
      </trkpt>
      <trkpt lat="44.94221" lon="5.33417">
        <ele>1198.42</ele>
        <time>2014-07-04T12:15:19Z</time>
      </trkpt>
      <trkpt lat="44.94227" lon="5.33413">
        <ele>1198.42</ele>
        <time>2014-07-04T12:15:20Z</time>
      </trkpt>
      <trkpt lat="44.94233" lon="5.33409">
        <ele>1198.42</ele>
        <time>2014-07-04T12:15:21Z</time>
      </trkpt>
      <trkpt lat="44.9424" lon="5.33405">
        <ele>1198.42</ele>
        <time>2014-07-04T12:15:22Z</time>
      </trkpt>
      <trkpt lat="44.94252" lon="5.33397">
        <ele>1197.46</ele>
        <time>2014-07-04T12:15:24Z</time>
      </trkpt>
      <trkpt lat="44.94296" lon="5.33358">
        <ele>1196.02</ele>
        <time>2014-07-04T12:15:33Z</time>
      </trkpt>
      <trkpt lat="44.9433" lon="5.33326">
        <ele>1194.58</ele>
        <time>2014-07-04T12:15:41Z</time>
      </trkpt>
      <trkpt lat="44.94336" lon="5.33322">
        <ele>1194.09</ele>
        <time>2014-07-04T12:15:42Z</time>
      </trkpt>
      <trkpt lat="44.94343" lon="5.33317">
        <ele>1194.09</ele>
        <time>2014-07-04T12:15:43Z</time>
      </trkpt>
      <trkpt lat="44.94376" lon="5.33291">
        <ele>1191.21</ele>
        <time>2014-07-04T12:15:48Z</time>
      </trkpt>
      <trkpt lat="44.944" lon="5.33271">
        <ele>1189.77</ele>
        <time>2014-07-04T12:15:52Z</time>
      </trkpt>
      <trkpt lat="44.94406" lon="5.33266">
        <ele>1189.29</ele>
        <time>2014-07-04T12:15:53Z</time>
      </trkpt>
      <trkpt lat="44.94421" lon="5.33257">
        <ele>1187.37</ele>
        <time>2014-07-04T12:15:55Z</time>
      </trkpt>
      <trkpt lat="44.94457" lon="5.33239">
        <ele>1184.96</ele>
        <time>2014-07-04T12:16:00Z</time>
      </trkpt>
      <trkpt lat="44.94463" lon="5.33235">
        <ele>1184</ele>
        <time>2014-07-04T12:16:01Z</time>
      </trkpt>
      <trkpt lat="44.94491" lon="5.33218">
        <ele>1181.12</ele>
        <time>2014-07-04T12:16:05Z</time>
      </trkpt>
      <trkpt lat="44.94513" lon="5.33199">
        <ele>1178.23</ele>
        <time>2014-07-04T12:16:08Z</time>
      </trkpt>
      <trkpt lat="44.94542" lon="5.33168">
        <ele>1174.87</ele>
        <time>2014-07-04T12:16:12Z</time>
      </trkpt>
      <trkpt lat="44.94569" lon="5.33132">
        <ele>1172.47</ele>
        <time>2014-07-04T12:16:16Z</time>
      </trkpt>
      <trkpt lat="44.94575" lon="5.33123">
        <ele>1171.98</ele>
        <time>2014-07-04T12:16:17Z</time>
      </trkpt>
      <trkpt lat="44.94596" lon="5.33085">
        <ele>1169.1</ele>
        <time>2014-07-04T12:16:21Z</time>
      </trkpt>
      <trkpt lat="44.94618" lon="5.33036">
        <ele>1166.22</ele>
        <time>2014-07-04T12:16:26Z</time>
      </trkpt>
      <trkpt lat="44.94626" lon="5.33015">
        <ele>1164.77</ele>
        <time>2014-07-04T12:16:28Z</time>
      </trkpt>
      <trkpt lat="44.94631" lon="5.33005">
        <ele>1164.29</ele>
        <time>2014-07-04T12:16:29Z</time>
      </trkpt>
      <trkpt lat="44.94636" lon="5.32995">
        <ele>1162.85</ele>
        <time>2014-07-04T12:16:30Z</time>
      </trkpt>
      <trkpt lat="44.94641" lon="5.32985">
        <ele>1162.85</ele>
        <time>2014-07-04T12:16:31Z</time>
      </trkpt>
      <trkpt lat="44.94662" lon="5.32947">
        <ele>1159.49</ele>
        <time>2014-07-04T12:16:35Z</time>
      </trkpt>
      <trkpt lat="44.94677" lon="5.3292">
        <ele>1156.6</ele>
        <time>2014-07-04T12:16:38Z</time>
      </trkpt>
      <trkpt lat="44.94688" lon="5.32906">
        <ele>1154.68</ele>
        <time>2014-07-04T12:16:40Z</time>
      </trkpt>
      <trkpt lat="44.94694" lon="5.32899">
        <ele>1154.2</ele>
        <time>2014-07-04T12:16:41Z</time>
      </trkpt>
      <trkpt lat="44.9473" lon="5.32864">
        <ele>1150.84</ele>
        <time>2014-07-04T12:16:46Z</time>
      </trkpt>
      <trkpt lat="44.94753" lon="5.32848">
        <ele>1148.91</ele>
        <time>2014-07-04T12:16:49Z</time>
      </trkpt>
      <trkpt lat="44.94761" lon="5.32846">
        <ele>1147.95</ele>
        <time>2014-07-04T12:16:50Z</time>
      </trkpt>
      <trkpt lat="44.94768" lon="5.32845">
        <ele>1146.99</ele>
        <time>2014-07-04T12:16:51Z</time>
      </trkpt>
      <trkpt lat="44.94775" lon="5.32844">
        <ele>1146.03</ele>
        <time>2014-07-04T12:16:52Z</time>
      </trkpt>
      <trkpt lat="44.94781" lon="5.32845">
        <ele>1146.03</ele>
        <time>2014-07-04T12:16:53Z</time>
      </trkpt>
      <trkpt lat="44.94807" lon="5.32845">
        <ele>1142.66</ele>
        <time>2014-07-04T12:16:57Z</time>
      </trkpt>
      <trkpt lat="44.94814" lon="5.32846">
        <ele>1142.18</ele>
        <time>2014-07-04T12:16:58Z</time>
      </trkpt>
      <trkpt lat="44.9482" lon="5.32845">
        <ele>1142.18</ele>
        <time>2014-07-04T12:16:59Z</time>
      </trkpt>
      <trkpt lat="44.94827" lon="5.32845">
        <ele>1142.66</ele>
        <time>2014-07-04T12:17:00Z</time>
      </trkpt>
      <trkpt lat="44.94834" lon="5.32845">
        <ele>1141.7</ele>
        <time>2014-07-04T12:17:01Z</time>
      </trkpt>
      <trkpt lat="44.94841" lon="5.32846">
        <ele>1141.22</ele>
        <time>2014-07-04T12:17:02Z</time>
      </trkpt>
      <trkpt lat="44.94863" lon="5.32855">
        <ele>1139.78</ele>
        <time>2014-07-04T12:17:05Z</time>
      </trkpt>
      <trkpt lat="44.94894" lon="5.3287">
        <ele>1137.86</ele>
        <time>2014-07-04T12:17:09Z</time>
      </trkpt>
      <trkpt lat="44.9491" lon="5.32877">
        <ele>1137.38</ele>
        <time>2014-07-04T12:17:11Z</time>
      </trkpt>
      <trkpt lat="44.94918" lon="5.32878">
        <ele>1136.42</ele>
        <time>2014-07-04T12:17:12Z</time>
      </trkpt>
      <trkpt lat="44.94948" lon="5.32876">
        <ele>1134.49</ele>
        <time>2014-07-04T12:17:16Z</time>
      </trkpt>
      <trkpt lat="44.94972" lon="5.32869">
        <ele>1133.05</ele>
        <time>2014-07-04T12:17:19Z</time>
      </trkpt>
      <trkpt lat="44.95004" lon="5.32854">
        <ele>1130.65</ele>
        <time>2014-07-04T12:17:23Z</time>
      </trkpt>
      <trkpt lat="44.95032" lon="5.32842">
        <ele>1128.73</ele>
        <time>2014-07-04T12:17:26Z</time>
      </trkpt>
      <trkpt lat="44.95057" lon="5.32827">
        <ele>1126.32</ele>
        <time>2014-07-04T12:17:29Z</time>
      </trkpt>
      <trkpt lat="44.95089" lon="5.3281">
        <ele>1123.44</ele>
        <time>2014-07-04T12:17:33Z</time>
      </trkpt>
      <trkpt lat="44.95105" lon="5.32802">
        <ele>1122</ele>
        <time>2014-07-04T12:17:35Z</time>
      </trkpt>
      <trkpt lat="44.95113" lon="5.32803">
        <ele>1121.03</ele>
        <time>2014-07-04T12:17:36Z</time>
      </trkpt>
      <trkpt lat="44.95121" lon="5.32806">
        <ele>1120.07</ele>
        <time>2014-07-04T12:17:37Z</time>
      </trkpt>
      <trkpt lat="44.95128" lon="5.32812">
        <ele>1119.59</ele>
        <time>2014-07-04T12:17:38Z</time>
      </trkpt>
      <trkpt lat="44.95134" lon="5.32821">
        <ele>1118.63</ele>
        <time>2014-07-04T12:17:39Z</time>
      </trkpt>
      <trkpt lat="44.95139" lon="5.3283">
        <ele>1117.67</ele>
        <time>2014-07-04T12:17:40Z</time>
      </trkpt>
      <trkpt lat="44.95143" lon="5.3284">
        <ele>1117.19</ele>
        <time>2014-07-04T12:17:41Z</time>
      </trkpt>
      <trkpt lat="44.95146" lon="5.3285">
        <ele>1117.19</ele>
        <time>2014-07-04T12:17:42Z</time>
      </trkpt>
      <trkpt lat="44.9515" lon="5.32859">
        <ele>1116.23</ele>
        <time>2014-07-04T12:17:43Z</time>
      </trkpt>
      <trkpt lat="44.95153" lon="5.32865">
        <ele>1115.27</ele>
        <time>2014-07-04T12:17:44Z</time>
      </trkpt>
      <trkpt lat="44.95158" lon="5.3287">
        <ele>1114.31</ele>
        <time>2014-07-04T12:17:45Z</time>
      </trkpt>
      <trkpt lat="44.95163" lon="5.32874">
        <ele>1113.34</ele>
        <time>2014-07-04T12:17:46Z</time>
      </trkpt>
      <trkpt lat="44.95192" lon="5.3289">
        <ele>1110.94</ele>
        <time>2014-07-04T12:17:50Z</time>
      </trkpt>
      <trkpt lat="44.95198" lon="5.32896">
        <ele>1110.46</ele>
        <time>2014-07-04T12:17:51Z</time>
      </trkpt>
      <trkpt lat="44.95203" lon="5.32906">
        <ele>1109.5</ele>
        <time>2014-07-04T12:17:52Z</time>
      </trkpt>
      <trkpt lat="44.95206" lon="5.32916">
        <ele>1109.5</ele>
        <time>2014-07-04T12:17:53Z</time>
      </trkpt>
      <trkpt lat="44.95206" lon="5.32926">
        <ele>1108.54</ele>
        <time>2014-07-04T12:17:54Z</time>
      </trkpt>
      <trkpt lat="44.95204" lon="5.32937">
        <ele>1108.06</ele>
        <time>2014-07-04T12:17:55Z</time>
      </trkpt>
      <trkpt lat="44.95202" lon="5.32947">
        <ele>1108.06</ele>
        <time>2014-07-04T12:17:56Z</time>
      </trkpt>
      <trkpt lat="44.95197" lon="5.32966">
        <ele>1107.1</ele>
        <time>2014-07-04T12:17:58Z</time>
      </trkpt>
      <trkpt lat="44.95198" lon="5.32985">
        <ele>1105.17</ele>
        <time>2014-07-04T12:18:01Z</time>
      </trkpt>
      <trkpt lat="44.952" lon="5.32987">
        <ele>1106.13</ele>
        <time>2014-07-04T12:18:02Z</time>
      </trkpt>
      <trkpt lat="44.95229" lon="5.32998">
        <ele>1103.25</ele>
        <time>2014-07-04T12:18:07Z</time>
      </trkpt>
      <trkpt lat="44.9526" lon="5.33017">
        <ele>1100.37</ele>
        <time>2014-07-04T12:18:11Z</time>
      </trkpt>
      <trkpt lat="44.95304" lon="5.33038">
        <ele>1097.96</ele>
        <time>2014-07-04T12:18:16Z</time>
      </trkpt>
      <trkpt lat="44.9531" lon="5.33043">
        <ele>1096.52</ele>
        <time>2014-07-04T12:18:17Z</time>
      </trkpt>
      <trkpt lat="44.95316" lon="5.3305">
        <ele>1095.56</ele>
        <time>2014-07-04T12:18:18Z</time>
      </trkpt>
      <trkpt lat="44.95321" lon="5.33059">
        <ele>1095.08</ele>
        <time>2014-07-04T12:18:19Z</time>
      </trkpt>
      <trkpt lat="44.95325" lon="5.33069">
        <ele>1094.6</ele>
        <time>2014-07-04T12:18:20Z</time>
      </trkpt>
      <trkpt lat="44.95328" lon="5.3308">
        <ele>1093.64</ele>
        <time>2014-07-04T12:18:21Z</time>
      </trkpt>
      <trkpt lat="44.95337" lon="5.33123">
        <ele>1091.71</ele>
        <time>2014-07-04T12:18:26Z</time>
      </trkpt>
      <trkpt lat="44.95339" lon="5.33126">
        <ele>1090.75</ele>
        <time>2014-07-04T12:18:27Z</time>
      </trkpt>
      <trkpt lat="44.9534" lon="5.33128">
        <ele>1090.75</ele>
        <time>2014-07-04T12:18:28Z</time>
      </trkpt>
      <trkpt lat="44.95344" lon="5.3313">
        <ele>1089.79</ele>
        <time>2014-07-04T12:18:29Z</time>
      </trkpt>
      <trkpt lat="44.9535" lon="5.3313">
        <ele>1089.79</ele>
        <time>2014-07-04T12:18:30Z</time>
      </trkpt>
      <trkpt lat="44.95359" lon="5.33129">
        <ele>1088.83</ele>
        <time>2014-07-04T12:18:31Z</time>
      </trkpt>
      <trkpt lat="44.95387" lon="5.33126">
        <ele>1085.95</ele>
        <time>2014-07-04T12:18:34Z</time>
      </trkpt>
      <trkpt lat="44.95438" lon="5.33127">
        <ele>1082.58</ele>
        <time>2014-07-04T12:18:39Z</time>
      </trkpt>
      <trkpt lat="44.95447" lon="5.33128">
        <ele>1082.1</ele>
        <time>2014-07-04T12:18:40Z</time>
      </trkpt>
      <trkpt lat="44.95455" lon="5.33129">
        <ele>1081.62</ele>
        <time>2014-07-04T12:18:41Z</time>
      </trkpt>
      <trkpt lat="44.95462" lon="5.33132">
        <ele>1081.14</ele>
        <time>2014-07-04T12:18:42Z</time>
      </trkpt>
      <trkpt lat="44.9547" lon="5.33135">
        <ele>1080.66</ele>
        <time>2014-07-04T12:18:43Z</time>
      </trkpt>
      <trkpt lat="44.95477" lon="5.33141">
        <ele>1079.7</ele>
        <time>2014-07-04T12:18:44Z</time>
      </trkpt>
      <trkpt lat="44.95483" lon="5.33149">
        <ele>1079.22</ele>
        <time>2014-07-04T12:18:45Z</time>
      </trkpt>
      <trkpt lat="44.95488" lon="5.33158">
        <ele>1077.78</ele>
        <time>2014-07-04T12:18:46Z</time>
      </trkpt>
      <trkpt lat="44.95509" lon="5.33192">
        <ele>1074.89</ele>
        <time>2014-07-04T12:18:50Z</time>
      </trkpt>
      <trkpt lat="44.95515" lon="5.33199">
        <ele>1073.93</ele>
        <time>2014-07-04T12:18:51Z</time>
      </trkpt>
      <trkpt lat="44.95521" lon="5.33205">
        <ele>1073.93</ele>
        <time>2014-07-04T12:18:52Z</time>
      </trkpt>
      <trkpt lat="44.95527" lon="5.33209">
        <ele>1073.93</ele>
        <time>2014-07-04T12:18:53Z</time>
      </trkpt>
      <trkpt lat="44.95541" lon="5.33218">
        <ele>1073.45</ele>
        <time>2014-07-04T12:18:55Z</time>
      </trkpt>
      <trkpt lat="44.95625" lon="5.33227">
        <ele>1073.45</ele>
        <time>2014-07-04T12:19:06Z</time>
      </trkpt>
      <trkpt lat="44.95631" lon="5.33227">
        <ele>1073.93</ele>
        <time>2014-07-04T12:19:07Z</time>
      </trkpt>
      <trkpt lat="44.95696" lon="5.33214">
        <ele>1073.45</ele>
        <time>2014-07-04T12:19:19Z</time>
      </trkpt>
      <trkpt lat="44.95746" lon="5.33198">
        <ele>1073.45</ele>
        <time>2014-07-04T12:19:30Z</time>
      </trkpt>
      <trkpt lat="44.95754" lon="5.33192">
        <ele>1072.97</ele>
        <time>2014-07-04T12:19:32Z</time>
      </trkpt>
      <trkpt lat="44.95758" lon="5.33188">
        <ele>1072.97</ele>
        <time>2014-07-04T12:19:33Z</time>
      </trkpt>
      <trkpt lat="44.95761" lon="5.33183">
        <ele>1072.49</ele>
        <time>2014-07-04T12:19:34Z</time>
      </trkpt>
      <trkpt lat="44.95813" lon="5.33118">
        <ele>1073.45</ele>
        <time>2014-07-04T12:19:49Z</time>
      </trkpt>
      <trkpt lat="44.95848" lon="5.33073">
        <ele>1075.37</ele>
        <time>2014-07-04T12:20:02Z</time>
      </trkpt>
      <trkpt lat="44.9587" lon="5.3304">
        <ele>1077.29</ele>
        <time>2014-07-04T12:20:15Z</time>
      </trkpt>
      <trkpt lat="44.95871" lon="5.33039">
        <ele>1077.29</ele>
        <time>2014-07-04T12:20:35Z</time>
      </trkpt>
      <trkpt lat="44.95872" lon="5.33039">
        <ele>1076.33</ele>
        <time>2014-07-04T12:21:03Z</time>
      </trkpt>
      <trkpt lat="44.9587" lon="5.33036">
        <ele>1076.33</ele>
        <time>2014-07-04T12:21:16Z</time>
      </trkpt>
      <trkpt lat="44.95869" lon="5.33035">
        <ele>1076.33</ele>
        <time>2014-07-04T12:21:17Z</time>
      </trkpt>
      <trkpt lat="44.95866" lon="5.33035">
        <ele>1076.33</ele>
        <time>2014-07-04T12:21:18Z</time>
      </trkpt>
      <trkpt lat="44.95864" lon="5.33035">
        <ele>1076.33</ele>
        <time>2014-07-04T12:21:19Z</time>
      </trkpt>
      <trkpt lat="44.95862" lon="5.33037">
        <ele>1076.81</ele>
        <time>2014-07-04T12:21:20Z</time>
      </trkpt>
      <trkpt lat="44.95859" lon="5.33039">
        <ele>1076.81</ele>
        <time>2014-07-04T12:21:21Z</time>
      </trkpt>
      <trkpt lat="44.95856" lon="5.3304">
        <ele>1076.81</ele>
        <time>2014-07-04T12:21:22Z</time>
      </trkpt>
      <trkpt lat="44.95853" lon="5.33042">
        <ele>1076.33</ele>
        <time>2014-07-04T12:21:23Z</time>
      </trkpt>
      <trkpt lat="44.9585" lon="5.33043">
        <ele>1076.33</ele>
        <time>2014-07-04T12:21:24Z</time>
      </trkpt>
      <trkpt lat="44.95833" lon="5.3305">
        <ele>1076.81</ele>
        <time>2014-07-04T12:21:29Z</time>
      </trkpt>
      <trkpt lat="44.95828" lon="5.33051">
        <ele>1076.81</ele>
        <time>2014-07-04T12:21:30Z</time>
      </trkpt>
      <trkpt lat="44.9578" lon="5.3305">
        <ele>1077.78</ele>
        <time>2014-07-04T12:21:42Z</time>
      </trkpt>
      <trkpt lat="44.95744" lon="5.33042">
        <ele>1077.78</ele>
        <time>2014-07-04T12:21:50Z</time>
      </trkpt>
      <trkpt lat="44.9574" lon="5.33042">
        <ele>1077.78</ele>
        <time>2014-07-04T12:21:51Z</time>
      </trkpt>
      <trkpt lat="44.95682" lon="5.33029">
        <ele>1078.74</ele>
        <time>2014-07-04T12:22:06Z</time>
      </trkpt>
      <trkpt lat="44.95653" lon="5.3301">
        <ele>1079.22</ele>
        <time>2014-07-04T12:22:14Z</time>
      </trkpt>
      <trkpt lat="44.9565" lon="5.33006">
        <ele>1079.7</ele>
        <time>2014-07-04T12:22:15Z</time>
      </trkpt>
      <trkpt lat="44.95648" lon="5.33001">
        <ele>1079.22</ele>
        <time>2014-07-04T12:22:16Z</time>
      </trkpt>
      <trkpt lat="44.95646" lon="5.32996">
        <ele>1079.7</ele>
        <time>2014-07-04T12:22:17Z</time>
      </trkpt>
      <trkpt lat="44.95644" lon="5.32992">
        <ele>1079.22</ele>
        <time>2014-07-04T12:22:18Z</time>
      </trkpt>
      <trkpt lat="44.95629" lon="5.32924">
        <ele>1081.62</ele>
        <time>2014-07-04T12:22:31Z</time>
      </trkpt>
      <trkpt lat="44.9562" lon="5.32897">
        <ele>1080.66</ele>
        <time>2014-07-04T12:22:43Z</time>
      </trkpt>
      <trkpt lat="44.9562" lon="5.32897">
        <ele>1077.29</ele>
        <time>2014-07-04T12:22:46Z</time>
      </trkpt>
      <trkpt lat="44.9562" lon="5.32898">
        <ele>1080.66</ele>
        <time>2014-07-04T12:22:49Z</time>
      </trkpt>
      <trkpt lat="44.95619" lon="5.32897">
        <ele>1080.18</ele>
        <time>2014-07-04T12:23:12Z</time>
      </trkpt>
      <trkpt lat="44.95619" lon="5.32896">
        <ele>1080.18</ele>
        <time>2014-07-04T12:23:43Z</time>
      </trkpt>
      <trkpt lat="44.95619" lon="5.32895">
        <ele>1080.66</ele>
        <time>2014-07-04T12:24:12Z</time>
      </trkpt>
      <trkpt lat="44.95619" lon="5.32895">
        <ele>1080.18</ele>
        <time>2014-07-04T12:24:40Z</time>
      </trkpt>
      <trkpt lat="44.95618" lon="5.32894">
        <ele>1080.18</ele>
        <time>2014-07-04T12:25:11Z</time>
      </trkpt>
      <trkpt lat="44.95618" lon="5.32894">
        <ele>1080.66</ele>
        <time>2014-07-04T12:25:41Z</time>
      </trkpt>
      <trkpt lat="44.95618" lon="5.32895">
        <ele>1080.66</ele>
        <time>2014-07-04T12:26:07Z</time>
      </trkpt>
      <trkpt lat="44.95607" lon="5.32875">
        <ele>1080.66</ele>
        <time>2014-07-04T12:26:18Z</time>
      </trkpt>
      <trkpt lat="44.95576" lon="5.32844">
        <ele>1082.58</ele>
        <time>2014-07-04T12:26:30Z</time>
      </trkpt>
      <trkpt lat="44.95566" lon="5.32831">
        <ele>1081.14</ele>
        <time>2014-07-04T12:26:36Z</time>
      </trkpt>
      <trkpt lat="44.95565" lon="5.32828">
        <ele>1081.14</ele>
        <time>2014-07-04T12:26:37Z</time>
      </trkpt>
      <trkpt lat="44.95543" lon="5.32796">
        <ele>1083.06</ele>
        <time>2014-07-04T12:26:50Z</time>
      </trkpt>
      <trkpt lat="44.95536" lon="5.32787">
        <ele>1083.54</ele>
        <time>2014-07-04T12:26:54Z</time>
      </trkpt>
      <trkpt lat="44.95535" lon="5.32785">
        <ele>1084.02</ele>
        <time>2014-07-04T12:26:55Z</time>
      </trkpt>
      <trkpt lat="44.95534" lon="5.32782">
        <ele>1084.02</ele>
        <time>2014-07-04T12:26:56Z</time>
      </trkpt>
      <trkpt lat="44.95532" lon="5.3278">
        <ele>1084.02</ele>
        <time>2014-07-04T12:26:57Z</time>
      </trkpt>
      <trkpt lat="44.95531" lon="5.32777">
        <ele>1084.5</ele>
        <time>2014-07-04T12:26:58Z</time>
      </trkpt>
      <trkpt lat="44.95512" lon="5.32734">
        <ele>1085.95</ele>
        <time>2014-07-04T12:27:13Z</time>
      </trkpt>
      <trkpt lat="44.95511" lon="5.32685">
        <ele>1088.35</ele>
        <time>2014-07-04T12:27:29Z</time>
      </trkpt>
      <trkpt lat="44.95528" lon="5.32647">
        <ele>1090.27</ele>
        <time>2014-07-04T12:27:44Z</time>
      </trkpt>
      <trkpt lat="44.95548" lon="5.32611">
        <ele>1090.75</ele>
        <time>2014-07-04T12:27:57Z</time>
      </trkpt>
      <trkpt lat="44.9555" lon="5.32609">
        <ele>1090.75</ele>
        <time>2014-07-04T12:27:58Z</time>
      </trkpt>
      <trkpt lat="44.95552" lon="5.32606">
        <ele>1090.75</ele>
        <time>2014-07-04T12:27:59Z</time>
      </trkpt>
      <trkpt lat="44.95553" lon="5.32604">
        <ele>1090.75</ele>
        <time>2014-07-04T12:28:00Z</time>
      </trkpt>
      <trkpt lat="44.95555" lon="5.32601">
        <ele>1090.75</ele>
        <time>2014-07-04T12:28:01Z</time>
      </trkpt>
      <trkpt lat="44.9558" lon="5.32567">
        <ele>1092.2</ele>
        <time>2014-07-04T12:28:16Z</time>
      </trkpt>
      <trkpt lat="44.95604" lon="5.32539">
        <ele>1091.71</ele>
        <time>2014-07-04T12:28:27Z</time>
      </trkpt>
      <trkpt lat="44.95614" lon="5.32496">
        <ele>1092.2</ele>
        <time>2014-07-04T12:28:39Z</time>
      </trkpt>
      <trkpt lat="44.95623" lon="5.32476">
        <ele>1093.64</ele>
        <time>2014-07-04T12:28:51Z</time>
      </trkpt>
      <trkpt lat="44.95624" lon="5.3247">
        <ele>1093.64</ele>
        <time>2014-07-04T12:28:55Z</time>
      </trkpt>
      <trkpt lat="44.95626" lon="5.32469">
        <ele>1093.64</ele>
        <time>2014-07-04T12:28:56Z</time>
      </trkpt>
      <trkpt lat="44.95644" lon="5.32461">
        <ele>1097</ele>
        <time>2014-07-04T12:29:08Z</time>
      </trkpt>
      <trkpt lat="44.9565" lon="5.32463">
        <ele>1097.48</ele>
        <time>2014-07-04T12:29:12Z</time>
      </trkpt>
      <trkpt lat="44.95655" lon="5.32468">
        <ele>1097.48</ele>
        <time>2014-07-04T12:29:17Z</time>
      </trkpt>
      <trkpt lat="44.95656" lon="5.32469">
        <ele>1097.96</ele>
        <time>2014-07-04T12:29:18Z</time>
      </trkpt>
      <trkpt lat="44.95657" lon="5.3247">
        <ele>1098.44</ele>
        <time>2014-07-04T12:29:19Z</time>
      </trkpt>
      <trkpt lat="44.95666" lon="5.32476">
        <ele>1099.4</ele>
        <time>2014-07-04T12:29:26Z</time>
      </trkpt>
      <trkpt lat="44.95668" lon="5.32476">
        <ele>1098.92</ele>
        <time>2014-07-04T12:29:28Z</time>
      </trkpt>
      <trkpt lat="44.95669" lon="5.32477">
        <ele>1099.4</ele>
        <time>2014-07-04T12:29:29Z</time>
      </trkpt>
      <trkpt lat="44.9567" lon="5.32478">
        <ele>1099.4</ele>
        <time>2014-07-04T12:29:30Z</time>
      </trkpt>
      <trkpt lat="44.95672" lon="5.32479">
        <ele>1099.89</ele>
        <time>2014-07-04T12:29:31Z</time>
      </trkpt>
      <trkpt lat="44.95673" lon="5.32479">
        <ele>1100.37</ele>
        <time>2014-07-04T12:29:32Z</time>
      </trkpt>
      <trkpt lat="44.95679" lon="5.32484">
        <ele>1100.37</ele>
        <time>2014-07-04T12:29:37Z</time>
      </trkpt>
      <trkpt lat="44.95692" lon="5.32492">
        <ele>1102.29</ele>
        <time>2014-07-04T12:29:49Z</time>
      </trkpt>
      <trkpt lat="44.95701" lon="5.32505">
        <ele>1103.25</ele>
        <time>2014-07-04T12:29:59Z</time>
      </trkpt>
      <trkpt lat="44.95702" lon="5.32506">
        <ele>1103.25</ele>
        <time>2014-07-04T12:30:00Z</time>
      </trkpt>
      <trkpt lat="44.95703" lon="5.32507">
        <ele>1103.25</ele>
        <time>2014-07-04T12:30:01Z</time>
      </trkpt>
      <trkpt lat="44.95703" lon="5.32509">
        <ele>1103.73</ele>
        <time>2014-07-04T12:30:02Z</time>
      </trkpt>
      <trkpt lat="44.95704" lon="5.3251">
        <ele>1104.21</ele>
        <time>2014-07-04T12:30:03Z</time>
      </trkpt>
      <trkpt lat="44.95705" lon="5.32511">
        <ele>1103.73</ele>
        <time>2014-07-04T12:30:04Z</time>
      </trkpt>
      <trkpt lat="44.95706" lon="5.32512">
        <ele>1104.69</ele>
        <time>2014-07-04T12:30:05Z</time>
      </trkpt>
      <trkpt lat="44.95707" lon="5.32518">
        <ele>1105.17</ele>
        <time>2014-07-04T12:30:09Z</time>
      </trkpt>
      <trkpt lat="44.95708" lon="5.32534">
        <ele>1106.13</ele>
        <time>2014-07-04T12:30:18Z</time>
      </trkpt>
      <trkpt lat="44.95709" lon="5.32535">
        <ele>1106.13</ele>
        <time>2014-07-04T12:30:19Z</time>
      </trkpt>
      <trkpt lat="44.9571" lon="5.32538">
        <ele>1106.13</ele>
        <time>2014-07-04T12:30:22Z</time>
      </trkpt>
      <trkpt lat="44.95713" lon="5.32551">
        <ele>1107.58</ele>
        <time>2014-07-04T12:30:34Z</time>
      </trkpt>
      <trkpt lat="44.95717" lon="5.32566">
        <ele>1108.54</ele>
        <time>2014-07-04T12:30:42Z</time>
      </trkpt>
      <trkpt lat="44.95718" lon="5.32567">
        <ele>1108.54</ele>
        <time>2014-07-04T12:30:43Z</time>
      </trkpt>
      <trkpt lat="44.95719" lon="5.32569">
        <ele>1108.54</ele>
        <time>2014-07-04T12:30:44Z</time>
      </trkpt>
      <trkpt lat="44.95719" lon="5.3257">
        <ele>1109.02</ele>
        <time>2014-07-04T12:30:45Z</time>
      </trkpt>
      <trkpt lat="44.95721" lon="5.32571">
        <ele>1109.02</ele>
        <time>2014-07-04T12:30:46Z</time>
      </trkpt>
      <trkpt lat="44.95722" lon="5.32571">
        <ele>1109.02</ele>
        <time>2014-07-04T12:30:47Z</time>
      </trkpt>
      <trkpt lat="44.95723" lon="5.32571">
        <ele>1109.02</ele>
        <time>2014-07-04T12:30:48Z</time>
      </trkpt>
      <trkpt lat="44.95724" lon="5.3257">
        <ele>1109.5</ele>
        <time>2014-07-04T12:30:49Z</time>
      </trkpt>
      <trkpt lat="44.95725" lon="5.32569">
        <ele>1109.98</ele>
        <time>2014-07-04T12:30:51Z</time>
      </trkpt>
      <trkpt lat="44.95726" lon="5.32568">
        <ele>1109.98</ele>
        <time>2014-07-04T12:30:52Z</time>
      </trkpt>
      <trkpt lat="44.95727" lon="5.32567">
        <ele>1109.98</ele>
        <time>2014-07-04T12:30:53Z</time>
      </trkpt>
      <trkpt lat="44.9573" lon="5.32559">
        <ele>1111.9</ele>
        <time>2014-07-04T12:31:03Z</time>
      </trkpt>
      <trkpt lat="44.95732" lon="5.32554">
        <ele>1111.9</ele>
        <time>2014-07-04T12:31:10Z</time>
      </trkpt>
      <trkpt lat="44.95733" lon="5.32551">
        <ele>1111.9</ele>
        <time>2014-07-04T12:31:23Z</time>
      </trkpt>
      <trkpt lat="44.95735" lon="5.32553">
        <ele>1111.42</ele>
        <time>2014-07-04T12:31:42Z</time>
      </trkpt>
      <trkpt lat="44.95734" lon="5.32555">
        <ele>1111.9</ele>
        <time>2014-07-04T12:31:43Z</time>
      </trkpt>
      <trkpt lat="44.95733" lon="5.32557">
        <ele>1111.42</ele>
        <time>2014-07-04T12:31:44Z</time>
      </trkpt>
      <trkpt lat="44.95731" lon="5.3256">
        <ele>1110.94</ele>
        <time>2014-07-04T12:31:45Z</time>
      </trkpt>
      <trkpt lat="44.95729" lon="5.32562">
        <ele>1110.46</ele>
        <time>2014-07-04T12:31:46Z</time>
      </trkpt>
      <trkpt lat="44.95727" lon="5.32564">
        <ele>1110.94</ele>
        <time>2014-07-04T12:31:47Z</time>
      </trkpt>
      <trkpt lat="44.95725" lon="5.32566">
        <ele>1110.94</ele>
        <time>2014-07-04T12:31:48Z</time>
      </trkpt>
      <trkpt lat="44.95724" lon="5.32568">
        <ele>1109.98</ele>
        <time>2014-07-04T12:31:49Z</time>
      </trkpt>
      <trkpt lat="44.95723" lon="5.3257">
        <ele>1109.5</ele>
        <time>2014-07-04T12:31:50Z</time>
      </trkpt>
      <trkpt lat="44.95722" lon="5.32572">
        <ele>1109.5</ele>
        <time>2014-07-04T12:31:51Z</time>
      </trkpt>
      <trkpt lat="44.95719" lon="5.32575">
        <ele>1109.02</ele>
        <time>2014-07-04T12:31:54Z</time>
      </trkpt>
      <trkpt lat="44.95717" lon="5.32575">
        <ele>1109.02</ele>
        <time>2014-07-04T12:31:55Z</time>
      </trkpt>
      <trkpt lat="44.95716" lon="5.32576">
        <ele>1109.02</ele>
        <time>2014-07-04T12:31:56Z</time>
      </trkpt>
      <trkpt lat="44.95715" lon="5.3258">
        <ele>1109.02</ele>
        <time>2014-07-04T12:31:58Z</time>
      </trkpt>
      <trkpt lat="44.95716" lon="5.32581">
        <ele>1109.5</ele>
        <time>2014-07-04T12:31:59Z</time>
      </trkpt>
      <trkpt lat="44.95717" lon="5.32586">
        <ele>1109.5</ele>
        <time>2014-07-04T12:32:02Z</time>
      </trkpt>
      <trkpt lat="44.95718" lon="5.32587">
        <ele>1109.02</ele>
        <time>2014-07-04T12:32:03Z</time>
      </trkpt>
      <trkpt lat="44.95719" lon="5.32589">
        <ele>1109.5</ele>
        <time>2014-07-04T12:32:04Z</time>
      </trkpt>
      <trkpt lat="44.95718" lon="5.32593">
        <ele>1109.98</ele>
        <time>2014-07-04T12:32:13Z</time>
      </trkpt>
      <trkpt lat="44.95719" lon="5.32587">
        <ele>1109.02</ele>
        <time>2014-07-04T12:32:28Z</time>
      </trkpt>
      <trkpt lat="44.9572" lon="5.32586">
        <ele>1109.5</ele>
        <time>2014-07-04T12:32:29Z</time>
      </trkpt>
      <trkpt lat="44.95731" lon="5.32577">
        <ele>1111.9</ele>
        <time>2014-07-04T12:32:43Z</time>
      </trkpt>
      <trkpt lat="44.95733" lon="5.32575">
        <ele>1111.9</ele>
        <time>2014-07-04T12:32:58Z</time>
      </trkpt>
      <trkpt lat="44.95743" lon="5.32573">
        <ele>1112.86</ele>
        <time>2014-07-04T12:33:10Z</time>
      </trkpt>
      <trkpt lat="44.95753" lon="5.32566">
        <ele>1114.31</ele>
        <time>2014-07-04T12:33:20Z</time>
      </trkpt>
      <trkpt lat="44.95762" lon="5.32556">
        <ele>1114.79</ele>
        <time>2014-07-04T12:33:33Z</time>
      </trkpt>
      <trkpt lat="44.95772" lon="5.32547">
        <ele>1115.75</ele>
        <time>2014-07-04T12:33:45Z</time>
      </trkpt>
      <trkpt lat="44.95778" lon="5.32545">
        <ele>1115.27</ele>
        <time>2014-07-04T12:33:49Z</time>
      </trkpt>
      <trkpt lat="44.95788" lon="5.32548">
        <ele>1116.23</ele>
        <time>2014-07-04T12:34:03Z</time>
      </trkpt>
      <trkpt lat="44.95798" lon="5.32549">
        <ele>1116.71</ele>
        <time>2014-07-04T12:34:15Z</time>
      </trkpt>
      <trkpt lat="44.95808" lon="5.32556">
        <ele>1116.71</ele>
        <time>2014-07-04T12:34:26Z</time>
      </trkpt>
      <trkpt lat="44.95813" lon="5.32558">
        <ele>1116.71</ele>
        <time>2014-07-04T12:34:34Z</time>
      </trkpt>
      <trkpt lat="44.95815" lon="5.32561">
        <ele>1117.19</ele>
        <time>2014-07-04T12:34:43Z</time>
      </trkpt>
      <trkpt lat="44.95844" lon="5.32567">
        <ele>1117.67</ele>
        <time>2014-07-04T12:34:53Z</time>
      </trkpt>
      <trkpt lat="44.95854" lon="5.32565">
        <ele>1119.59</ele>
        <time>2014-07-04T12:35:05Z</time>
      </trkpt>
      <trkpt lat="44.95863" lon="5.32562">
        <ele>1120.55</ele>
        <time>2014-07-04T12:35:16Z</time>
      </trkpt>
      <trkpt lat="44.95872" lon="5.3256">
        <ele>1120.55</ele>
        <time>2014-07-04T12:35:23Z</time>
      </trkpt>
      <trkpt lat="44.95876" lon="5.3256">
        <ele>1120.55</ele>
        <time>2014-07-04T12:35:26Z</time>
      </trkpt>
      <trkpt lat="44.95882" lon="5.32559">
        <ele>1121.52</ele>
        <time>2014-07-04T12:35:32Z</time>
      </trkpt>
      <trkpt lat="44.95894" lon="5.3256">
        <ele>1122</ele>
        <time>2014-07-04T12:35:43Z</time>
      </trkpt>
      <trkpt lat="44.95898" lon="5.32562">
        <ele>1122.48</ele>
        <time>2014-07-04T12:35:55Z</time>
      </trkpt>
      <trkpt lat="44.95911" lon="5.32569">
        <ele>1123.44</ele>
        <time>2014-07-04T12:36:09Z</time>
      </trkpt>
      <trkpt lat="44.95922" lon="5.32572">
        <ele>1123.44</ele>
        <time>2014-07-04T12:36:18Z</time>
      </trkpt>
      <trkpt lat="44.95936" lon="5.32569">
        <ele>1124.4</ele>
        <time>2014-07-04T12:36:30Z</time>
      </trkpt>
      <trkpt lat="44.95946" lon="5.32565">
        <ele>1125.84</ele>
        <time>2014-07-04T12:36:39Z</time>
      </trkpt>
      <trkpt lat="44.95955" lon="5.32559">
        <ele>1127.76</ele>
        <time>2014-07-04T12:36:52Z</time>
      </trkpt>
      <trkpt lat="44.95959" lon="5.32557">
        <ele>1129.21</ele>
        <time>2014-07-04T12:37:02Z</time>
      </trkpt>
      <trkpt lat="44.9597" lon="5.32556">
        <ele>1129.69</ele>
        <time>2014-07-04T12:37:14Z</time>
      </trkpt>
      <trkpt lat="44.95981" lon="5.32551">
        <ele>1131.13</ele>
        <time>2014-07-04T12:37:27Z</time>
      </trkpt>
      <trkpt lat="44.95994" lon="5.32553">
        <ele>1131.61</ele>
        <time>2014-07-04T12:37:43Z</time>
      </trkpt>
      <trkpt lat="44.95999" lon="5.32553">
        <ele>1132.09</ele>
        <time>2014-07-04T12:37:54Z</time>
      </trkpt>
      <trkpt lat="44.96" lon="5.32554">
        <ele>1132.09</ele>
        <time>2014-07-04T12:37:55Z</time>
      </trkpt>
      <trkpt lat="44.96011" lon="5.32561">
        <ele>1132.57</ele>
        <time>2014-07-04T12:38:07Z</time>
      </trkpt>
      <trkpt lat="44.96028" lon="5.32566">
        <ele>1133.05</ele>
        <time>2014-07-04T12:38:18Z</time>
      </trkpt>
      <trkpt lat="44.96057" lon="5.32576">
        <ele>1131.13</ele>
        <time>2014-07-04T12:38:28Z</time>
      </trkpt>
      <trkpt lat="44.961" lon="5.32607">
        <ele>1130.17</ele>
        <time>2014-07-04T12:38:40Z</time>
      </trkpt>
      <trkpt lat="44.96126" lon="5.32632">
        <ele>1128.73</ele>
        <time>2014-07-04T12:38:47Z</time>
      </trkpt>
      <trkpt lat="44.96142" lon="5.32645">
        <ele>1128.24</ele>
        <time>2014-07-04T12:38:51Z</time>
      </trkpt>
      <trkpt lat="44.96146" lon="5.32649">
        <ele>1127.76</ele>
        <time>2014-07-04T12:38:52Z</time>
      </trkpt>
      <trkpt lat="44.9615" lon="5.32654">
        <ele>1127.76</ele>
        <time>2014-07-04T12:38:53Z</time>
      </trkpt>
      <trkpt lat="44.96153" lon="5.32659">
        <ele>1127.28</ele>
        <time>2014-07-04T12:38:54Z</time>
      </trkpt>
      <trkpt lat="44.96157" lon="5.32664">
        <ele>1127.76</ele>
        <time>2014-07-04T12:38:55Z</time>
      </trkpt>
      <trkpt lat="44.9617" lon="5.32685">
        <ele>1127.28</ele>
        <time>2014-07-04T12:38:59Z</time>
      </trkpt>
      <trkpt lat="44.96173" lon="5.32689">
        <ele>1127.28</ele>
        <time>2014-07-04T12:39:00Z</time>
      </trkpt>
      <trkpt lat="44.96177" lon="5.32694">
        <ele>1127.28</ele>
        <time>2014-07-04T12:39:01Z</time>
      </trkpt>
      <trkpt lat="44.96184" lon="5.32703">
        <ele>1127.28</ele>
        <time>2014-07-04T12:39:03Z</time>
      </trkpt>
      <trkpt lat="44.96188" lon="5.32707">
        <ele>1127.28</ele>
        <time>2014-07-04T12:39:04Z</time>
      </trkpt>
      <trkpt lat="44.96209" lon="5.32725">
        <ele>1126.8</ele>
        <time>2014-07-04T12:39:09Z</time>
      </trkpt>
      <trkpt lat="44.96213" lon="5.32728">
        <ele>1125.84</ele>
        <time>2014-07-04T12:39:10Z</time>
      </trkpt>
      <trkpt lat="44.96233" lon="5.32752">
        <ele>1124.4</ele>
        <time>2014-07-04T12:39:15Z</time>
      </trkpt>
      <trkpt lat="44.96238" lon="5.32757">
        <ele>1124.4</ele>
        <time>2014-07-04T12:39:16Z</time>
      </trkpt>
      <trkpt lat="44.96253" lon="5.32771">
        <ele>1123.92</ele>
        <time>2014-07-04T12:39:19Z</time>
      </trkpt>
      <trkpt lat="44.96258" lon="5.32776">
        <ele>1123.44</ele>
        <time>2014-07-04T12:39:20Z</time>
      </trkpt>
      <trkpt lat="44.96261" lon="5.32782">
        <ele>1123.44</ele>
        <time>2014-07-04T12:39:21Z</time>
      </trkpt>
      <trkpt lat="44.96263" lon="5.3279">
        <ele>1122.96</ele>
        <time>2014-07-04T12:39:22Z</time>
      </trkpt>
      <trkpt lat="44.96264" lon="5.32797">
        <ele>1122.96</ele>
        <time>2014-07-04T12:39:23Z</time>
      </trkpt>
      <trkpt lat="44.96265" lon="5.32805">
        <ele>1122.48</ele>
        <time>2014-07-04T12:39:24Z</time>
      </trkpt>
      <trkpt lat="44.96264" lon="5.32813">
        <ele>1122</ele>
        <time>2014-07-04T12:39:25Z</time>
      </trkpt>
      <trkpt lat="44.96264" lon="5.32822">
        <ele>1122</ele>
        <time>2014-07-04T12:39:26Z</time>
      </trkpt>
      <trkpt lat="44.96257" lon="5.32863">
        <ele>1121.52</ele>
        <time>2014-07-04T12:39:31Z</time>
      </trkpt>
      <trkpt lat="44.96255" lon="5.32881">
        <ele>1121.52</ele>
        <time>2014-07-04T12:39:33Z</time>
      </trkpt>
      <trkpt lat="44.96255" lon="5.32889">
        <ele>1121.03</ele>
        <time>2014-07-04T12:39:34Z</time>
      </trkpt>
      <trkpt lat="44.96256" lon="5.32897">
        <ele>1120.55</ele>
        <time>2014-07-04T12:39:35Z</time>
      </trkpt>
      <trkpt lat="44.96257" lon="5.32903">
        <ele>1119.59</ele>
        <time>2014-07-04T12:39:36Z</time>
      </trkpt>
      <trkpt lat="44.96259" lon="5.32908">
        <ele>1119.59</ele>
        <time>2014-07-04T12:39:37Z</time>
      </trkpt>
      <trkpt lat="44.96261" lon="5.32912">
        <ele>1119.11</ele>
        <time>2014-07-04T12:39:38Z</time>
      </trkpt>
      <trkpt lat="44.96266" lon="5.32915">
        <ele>1118.63</ele>
        <time>2014-07-04T12:39:39Z</time>
      </trkpt>
      <trkpt lat="44.96271" lon="5.32918">
        <ele>1117.67</ele>
        <time>2014-07-04T12:39:40Z</time>
      </trkpt>
      <trkpt lat="44.96278" lon="5.32921">
        <ele>1117.19</ele>
        <time>2014-07-04T12:39:41Z</time>
      </trkpt>
      <trkpt lat="44.96292" lon="5.32925">
        <ele>1116.23</ele>
        <time>2014-07-04T12:39:43Z</time>
      </trkpt>
      <trkpt lat="44.96299" lon="5.32926">
        <ele>1115.27</ele>
        <time>2014-07-04T12:39:44Z</time>
      </trkpt>
      <trkpt lat="44.96306" lon="5.32928">
        <ele>1114.31</ele>
        <time>2014-07-04T12:39:45Z</time>
      </trkpt>
      <trkpt lat="44.96347" lon="5.32931">
        <ele>1110.94</ele>
        <time>2014-07-04T12:39:50Z</time>
      </trkpt>
      <trkpt lat="44.96374" lon="5.32935">
        <ele>1109.5</ele>
        <time>2014-07-04T12:39:53Z</time>
      </trkpt>
      <trkpt lat="44.96413" lon="5.3294">
        <ele>1108.06</ele>
        <time>2014-07-04T12:39:58Z</time>
      </trkpt>
      <trkpt lat="44.9642" lon="5.32943">
        <ele>1108.54</ele>
        <time>2014-07-04T12:39:59Z</time>
      </trkpt>
      <trkpt lat="44.9644" lon="5.32952">
        <ele>1108.06</ele>
        <time>2014-07-04T12:40:02Z</time>
      </trkpt>
      <trkpt lat="44.96446" lon="5.32956">
        <ele>1108.54</ele>
        <time>2014-07-04T12:40:03Z</time>
      </trkpt>
      <trkpt lat="44.96451" lon="5.32962">
        <ele>1109.02</ele>
        <time>2014-07-04T12:40:04Z</time>
      </trkpt>
      <trkpt lat="44.96456" lon="5.32968">
        <ele>1109.02</ele>
        <time>2014-07-04T12:40:05Z</time>
      </trkpt>
      <trkpt lat="44.9646" lon="5.32976">
        <ele>1108.54</ele>
        <time>2014-07-04T12:40:06Z</time>
      </trkpt>
      <trkpt lat="44.96463" lon="5.32985">
        <ele>1108.06</ele>
        <time>2014-07-04T12:40:07Z</time>
      </trkpt>
      <trkpt lat="44.96466" lon="5.32994">
        <ele>1108.06</ele>
        <time>2014-07-04T12:40:08Z</time>
      </trkpt>
      <trkpt lat="44.96474" lon="5.33018">
        <ele>1106.13</ele>
        <time>2014-07-04T12:40:11Z</time>
      </trkpt>
      <trkpt lat="44.96476" lon="5.33026">
        <ele>1105.17</ele>
        <time>2014-07-04T12:40:12Z</time>
      </trkpt>
      <trkpt lat="44.9648" lon="5.33034">
        <ele>1104.21</ele>
        <time>2014-07-04T12:40:13Z</time>
      </trkpt>
      <trkpt lat="44.96483" lon="5.3304">
        <ele>1104.69</ele>
        <time>2014-07-04T12:40:14Z</time>
      </trkpt>
      <trkpt lat="44.96488" lon="5.33045">
        <ele>1104.21</ele>
        <time>2014-07-04T12:40:15Z</time>
      </trkpt>
      <trkpt lat="44.96492" lon="5.33049">
        <ele>1103.25</ele>
        <time>2014-07-04T12:40:16Z</time>
      </trkpt>
      <trkpt lat="44.96497" lon="5.3305">
        <ele>1102.77</ele>
        <time>2014-07-04T12:40:17Z</time>
      </trkpt>
      <trkpt lat="44.96502" lon="5.3305">
        <ele>1102.29</ele>
        <time>2014-07-04T12:40:18Z</time>
      </trkpt>
      <trkpt lat="44.96517" lon="5.33048">
        <ele>1099.89</ele>
        <time>2014-07-04T12:40:21Z</time>
      </trkpt>
      <trkpt lat="44.96522" lon="5.33046">
        <ele>1099.4</ele>
        <time>2014-07-04T12:40:22Z</time>
      </trkpt>
      <trkpt lat="44.96529" lon="5.33041">
        <ele>1098.92</ele>
        <time>2014-07-04T12:40:23Z</time>
      </trkpt>
      <trkpt lat="44.96536" lon="5.33033">
        <ele>1098.44</ele>
        <time>2014-07-04T12:40:24Z</time>
      </trkpt>
      <trkpt lat="44.96542" lon="5.33024">
        <ele>1097.48</ele>
        <time>2014-07-04T12:40:25Z</time>
      </trkpt>
      <trkpt lat="44.9656" lon="5.32998">
        <ele>1096.04</ele>
        <time>2014-07-04T12:40:28Z</time>
      </trkpt>
      <trkpt lat="44.96576" lon="5.32975">
        <ele>1095.08</ele>
        <time>2014-07-04T12:40:31Z</time>
      </trkpt>
      <trkpt lat="44.96579" lon="5.32968">
        <ele>1094.6</ele>
        <time>2014-07-04T12:40:32Z</time>
      </trkpt>
      <trkpt lat="44.96582" lon="5.32951">
        <ele>1093.64</ele>
        <time>2014-07-04T12:40:34Z</time>
      </trkpt>
      <trkpt lat="44.96584" lon="5.32933">
        <ele>1092.2</ele>
        <time>2014-07-04T12:40:36Z</time>
      </trkpt>
      <trkpt lat="44.9659" lon="5.32896">
        <ele>1089.79</ele>
        <time>2014-07-04T12:40:40Z</time>
      </trkpt>
      <trkpt lat="44.96594" lon="5.32885">
        <ele>1089.31</ele>
        <time>2014-07-04T12:40:41Z</time>
      </trkpt>
      <trkpt lat="44.96613" lon="5.32834">
        <ele>1085.95</ele>
        <time>2014-07-04T12:40:46Z</time>
      </trkpt>
      <trkpt lat="44.96619" lon="5.32827">
        <ele>1085.95</ele>
        <time>2014-07-04T12:40:47Z</time>
      </trkpt>
      <trkpt lat="44.96627" lon="5.32818">
        <ele>1086.91</ele>
        <time>2014-07-04T12:40:49Z</time>
      </trkpt>
      <trkpt lat="44.9663" lon="5.32814">
        <ele>1086.43</ele>
        <time>2014-07-04T12:40:50Z</time>
      </trkpt>
      <trkpt lat="44.96632" lon="5.3281">
        <ele>1085.95</ele>
        <time>2014-07-04T12:40:51Z</time>
      </trkpt>
      <trkpt lat="44.96635" lon="5.32806">
        <ele>1085.47</ele>
        <time>2014-07-04T12:40:52Z</time>
      </trkpt>
      <trkpt lat="44.96639" lon="5.32802">
        <ele>1085.95</ele>
        <time>2014-07-04T12:40:53Z</time>
      </trkpt>
      <trkpt lat="44.96647" lon="5.32793">
        <ele>1085.95</ele>
        <time>2014-07-04T12:40:55Z</time>
      </trkpt>
      <trkpt lat="44.96651" lon="5.32788">
        <ele>1085.95</ele>
        <time>2014-07-04T12:40:56Z</time>
      </trkpt>
      <trkpt lat="44.96698" lon="5.32756">
        <ele>1087.39</ele>
        <time>2014-07-04T12:41:07Z</time>
      </trkpt>
      <trkpt lat="44.96741" lon="5.32756">
        <ele>1089.31</ele>
        <time>2014-07-04T12:41:19Z</time>
      </trkpt>
      <trkpt lat="44.96758" lon="5.32762">
        <ele>1090.75</ele>
        <time>2014-07-04T12:41:29Z</time>
      </trkpt>
      <trkpt lat="44.96775" lon="5.32765">
        <ele>1092.2</ele>
        <time>2014-07-04T12:41:40Z</time>
      </trkpt>
      <trkpt lat="44.9678" lon="5.32765">
        <ele>1092.2</ele>
        <time>2014-07-04T12:41:44Z</time>
      </trkpt>
      <trkpt lat="44.9679" lon="5.32761">
        <ele>1093.16</ele>
        <time>2014-07-04T12:41:54Z</time>
      </trkpt>
      <trkpt lat="44.96798" lon="5.32762">
        <ele>1093.64</ele>
        <time>2014-07-04T12:42:08Z</time>
      </trkpt>
      <trkpt lat="44.96798" lon="5.32763">
        <ele>1093.16</ele>
        <time>2014-07-04T12:42:27Z</time>
      </trkpt>
      <trkpt lat="44.96809" lon="5.3276">
        <ele>1094.6</ele>
        <time>2014-07-04T12:42:39Z</time>
      </trkpt>
      <trkpt lat="44.96816" lon="5.32758">
        <ele>1094.6</ele>
        <time>2014-07-04T12:42:44Z</time>
      </trkpt>
      <trkpt lat="44.96822" lon="5.32757">
        <ele>1095.08</ele>
        <time>2014-07-04T12:42:49Z</time>
      </trkpt>
      <trkpt lat="44.96832" lon="5.32749">
        <ele>1095.56</ele>
        <time>2014-07-04T12:42:56Z</time>
      </trkpt>
      <trkpt lat="44.96849" lon="5.32732">
        <ele>1096.04</ele>
        <time>2014-07-04T12:43:07Z</time>
      </trkpt>
      <trkpt lat="44.96866" lon="5.32719">
        <ele>1096.52</ele>
        <time>2014-07-04T12:43:17Z</time>
      </trkpt>
      <trkpt lat="44.96868" lon="5.32718">
        <ele>1096.52</ele>
        <time>2014-07-04T12:43:18Z</time>
      </trkpt>
      <trkpt lat="44.96871" lon="5.32715">
        <ele>1097</ele>
        <time>2014-07-04T12:43:20Z</time>
      </trkpt>
      <trkpt lat="44.96873" lon="5.32715">
        <ele>1097</ele>
        <time>2014-07-04T12:43:21Z</time>
      </trkpt>
      <trkpt lat="44.96874" lon="5.32715">
        <ele>1097.48</ele>
        <time>2014-07-04T12:43:22Z</time>
      </trkpt>
      <trkpt lat="44.96877" lon="5.32714">
        <ele>1097.48</ele>
        <time>2014-07-04T12:43:23Z</time>
      </trkpt>
      <trkpt lat="44.96879" lon="5.32712">
        <ele>1097.48</ele>
        <time>2014-07-04T12:43:24Z</time>
      </trkpt>
      <trkpt lat="44.96881" lon="5.32711">
        <ele>1097.48</ele>
        <time>2014-07-04T12:43:25Z</time>
      </trkpt>
      <trkpt lat="44.96895" lon="5.32701">
        <ele>1098.92</ele>
        <time>2014-07-04T12:43:32Z</time>
      </trkpt>
      <trkpt lat="44.9691" lon="5.32695">
        <ele>1099.4</ele>
        <time>2014-07-04T12:43:41Z</time>
      </trkpt>
      <trkpt lat="44.96915" lon="5.32687">
        <ele>1099.4</ele>
        <time>2014-07-04T12:43:51Z</time>
      </trkpt>
      <trkpt lat="44.96918" lon="5.32688">
        <ele>1099.4</ele>
        <time>2014-07-04T12:44:09Z</time>
      </trkpt>
      <trkpt lat="44.96916" lon="5.3269">
        <ele>1099.4</ele>
        <time>2014-07-04T12:44:25Z</time>
      </trkpt>
      <trkpt lat="44.96916" lon="5.32689">
        <ele>1098.92</ele>
        <time>2014-07-04T12:44:41Z</time>
      </trkpt>
      <trkpt lat="44.96916" lon="5.3269">
        <ele>1098.92</ele>
        <time>2014-07-04T12:44:42Z</time>
      </trkpt>
      <trkpt lat="44.96916" lon="5.32694">
        <ele>1098.92</ele>
        <time>2014-07-04T12:44:45Z</time>
      </trkpt>
      <trkpt lat="44.96918" lon="5.32694">
        <ele>1098.92</ele>
        <time>2014-07-04T12:44:46Z</time>
      </trkpt>
      <trkpt lat="44.96919" lon="5.32694">
        <ele>1097.96</ele>
        <time>2014-07-04T12:44:47Z</time>
      </trkpt>
      <trkpt lat="44.96921" lon="5.32693">
        <ele>1097.96</ele>
        <time>2014-07-04T12:44:48Z</time>
      </trkpt>
      <trkpt lat="44.96923" lon="5.32693">
        <ele>1097.96</ele>
        <time>2014-07-04T12:44:49Z</time>
      </trkpt>
      <trkpt lat="44.96925" lon="5.32692">
        <ele>1097.48</ele>
        <time>2014-07-04T12:44:50Z</time>
      </trkpt>
      <trkpt lat="44.96938" lon="5.32697">
        <ele>1095.56</ele>
        <time>2014-07-04T12:45:01Z</time>
      </trkpt>
      <trkpt lat="44.96946" lon="5.327">
        <ele>1095.56</ele>
        <time>2014-07-04T12:45:07Z</time>
      </trkpt>
      <trkpt lat="44.96963" lon="5.32715">
        <ele>1094.6</ele>
        <time>2014-07-04T12:45:18Z</time>
      </trkpt>
      <trkpt lat="44.96972" lon="5.32726">
        <ele>1095.56</ele>
        <time>2014-07-04T12:45:28Z</time>
      </trkpt>
      <trkpt lat="44.96976" lon="5.32737">
        <ele>1095.08</ele>
        <time>2014-07-04T12:45:40Z</time>
      </trkpt>
      <trkpt lat="44.96981" lon="5.32745">
        <ele>1095.08</ele>
        <time>2014-07-04T12:45:52Z</time>
      </trkpt>
      <trkpt lat="44.96989" lon="5.32747">
        <ele>1095.08</ele>
        <time>2014-07-04T12:46:01Z</time>
      </trkpt>
      <trkpt lat="44.96993" lon="5.32752">
        <ele>1093.64</ele>
        <time>2014-07-04T12:46:13Z</time>
      </trkpt>
      <trkpt lat="44.96994" lon="5.32754">
        <ele>1094.12</ele>
        <time>2014-07-04T12:46:14Z</time>
      </trkpt>
      <trkpt lat="44.96994" lon="5.32757">
        <ele>1093.64</ele>
        <time>2014-07-04T12:46:15Z</time>
      </trkpt>
      <trkpt lat="44.96994" lon="5.3276">
        <ele>1093.16</ele>
        <time>2014-07-04T12:46:16Z</time>
      </trkpt>
      <trkpt lat="44.96995" lon="5.32763">
        <ele>1093.16</ele>
        <time>2014-07-04T12:46:17Z</time>
      </trkpt>
      <trkpt lat="44.96995" lon="5.32766">
        <ele>1092.68</ele>
        <time>2014-07-04T12:46:18Z</time>
      </trkpt>
      <trkpt lat="44.96997" lon="5.32769">
        <ele>1092.2</ele>
        <time>2014-07-04T12:46:19Z</time>
      </trkpt>
      <trkpt lat="44.96998" lon="5.32771">
        <ele>1092.2</ele>
        <time>2014-07-04T12:46:20Z</time>
      </trkpt>
      <trkpt lat="44.96999" lon="5.32772">
        <ele>1091.23</ele>
        <time>2014-07-04T12:46:21Z</time>
      </trkpt>
      <trkpt lat="44.97" lon="5.32775">
        <ele>1091.23</ele>
        <time>2014-07-04T12:46:22Z</time>
      </trkpt>
      <trkpt lat="44.96999" lon="5.32777">
        <ele>1090.75</ele>
        <time>2014-07-04T12:46:23Z</time>
      </trkpt>
      <trkpt lat="44.96989" lon="5.32783">
        <ele>1090.27</ele>
        <time>2014-07-04T12:46:31Z</time>
      </trkpt>
      <trkpt lat="44.96989" lon="5.32784">
        <ele>1090.75</ele>
        <time>2014-07-04T12:46:32Z</time>
      </trkpt>
      <trkpt lat="44.96997" lon="5.32795">
        <ele>1090.27</ele>
        <time>2014-07-04T12:46:41Z</time>
      </trkpt>
      <trkpt lat="44.97012" lon="5.32814">
        <ele>1090.27</ele>
        <time>2014-07-04T12:46:50Z</time>
      </trkpt>
      <trkpt lat="44.97015" lon="5.32827">
        <ele>1089.31</ele>
        <time>2014-07-04T12:46:57Z</time>
      </trkpt>
      <trkpt lat="44.97013" lon="5.32831">
        <ele>1089.79</ele>
        <time>2014-07-04T12:47:01Z</time>
      </trkpt>
      <trkpt lat="44.97011" lon="5.32838">
        <ele>1089.79</ele>
        <time>2014-07-04T12:47:06Z</time>
      </trkpt>
      <trkpt lat="44.97011" lon="5.32844">
        <ele>1089.31</ele>
        <time>2014-07-04T12:47:12Z</time>
      </trkpt>
      <trkpt lat="44.97025" lon="5.32853">
        <ele>1089.79</ele>
        <time>2014-07-04T12:47:14Z</time>
      </trkpt>
      <trkpt lat="44.97027" lon="5.3286">
        <ele>1090.27</ele>
        <time>2014-07-04T12:47:17Z</time>
      </trkpt>
      <trkpt lat="44.97036" lon="5.32869">
        <ele>1090.75</ele>
        <time>2014-07-04T12:47:22Z</time>
      </trkpt>
      <trkpt lat="44.97044" lon="5.32875">
        <ele>1091.23</ele>
        <time>2014-07-04T12:47:25Z</time>
      </trkpt>
      <trkpt lat="44.9705" lon="5.3288">
        <ele>1091.71</ele>
        <time>2014-07-04T12:47:27Z</time>
      </trkpt>
      <trkpt lat="44.97063" lon="5.32892">
        <ele>1091.23</ele>
        <time>2014-07-04T12:47:32Z</time>
      </trkpt>
      <trkpt lat="44.97076" lon="5.32902">
        <ele>1091.23</ele>
        <time>2014-07-04T12:47:38Z</time>
      </trkpt>
      <trkpt lat="44.9709" lon="5.32907">
        <ele>1090.75</ele>
        <time>2014-07-04T12:47:43Z</time>
      </trkpt>
      <trkpt lat="44.97112" lon="5.32923">
        <ele>1087.39</ele>
        <time>2014-07-04T12:47:50Z</time>
      </trkpt>
      <trkpt lat="44.97114" lon="5.32924">
        <ele>1087.39</ele>
        <time>2014-07-04T12:47:51Z</time>
      </trkpt>
      <trkpt lat="44.97137" lon="5.32931">
        <ele>1085.95</ele>
        <time>2014-07-04T12:47:59Z</time>
      </trkpt>
      <trkpt lat="44.9716" lon="5.32922">
        <ele>1085.47</ele>
        <time>2014-07-04T12:48:11Z</time>
      </trkpt>
      <trkpt lat="44.97176" lon="5.32912">
        <ele>1085.47</ele>
        <time>2014-07-04T12:48:23Z</time>
      </trkpt>
      <trkpt lat="44.9718" lon="5.32906">
        <ele>1084.99</ele>
        <time>2014-07-04T12:48:28Z</time>
      </trkpt>
      <trkpt lat="44.97191" lon="5.329">
        <ele>1084.99</ele>
        <time>2014-07-04T12:48:32Z</time>
      </trkpt>
      <trkpt lat="44.97206" lon="5.32884">
        <ele>1084.5</ele>
        <time>2014-07-04T12:48:38Z</time>
      </trkpt>
      <trkpt lat="44.97214" lon="5.32866">
        <ele>1084.5</ele>
        <time>2014-07-04T12:48:44Z</time>
      </trkpt>
      <trkpt lat="44.97239" lon="5.32833">
        <ele>1085.95</ele>
        <time>2014-07-04T12:48:54Z</time>
      </trkpt>
      <trkpt lat="44.97246" lon="5.32817">
        <ele>1085.95</ele>
        <time>2014-07-04T12:48:58Z</time>
      </trkpt>
      <trkpt lat="44.97255" lon="5.32796">
        <ele>1087.39</ele>
        <time>2014-07-04T12:49:05Z</time>
      </trkpt>
      <trkpt lat="44.97272" lon="5.32768">
        <ele>1088.35</ele>
        <time>2014-07-04T12:49:15Z</time>
      </trkpt>
      <trkpt lat="44.97293" lon="5.32742">
        <ele>1089.79</ele>
        <time>2014-07-04T12:49:26Z</time>
      </trkpt>
      <trkpt lat="44.97296" lon="5.32737">
        <ele>1090.27</ele>
        <time>2014-07-04T12:49:28Z</time>
      </trkpt>
      <trkpt lat="44.97303" lon="5.32727">
        <ele>1089.31</ele>
        <time>2014-07-04T12:49:33Z</time>
      </trkpt>
      <trkpt lat="44.97323" lon="5.32722">
        <ele>1087.39</ele>
        <time>2014-07-04T12:49:40Z</time>
      </trkpt>
      <trkpt lat="44.97361" lon="5.32718">
        <ele>1088.83</ele>
        <time>2014-07-04T12:49:51Z</time>
      </trkpt>
      <trkpt lat="44.97379" lon="5.32714">
        <ele>1091.71</ele>
        <time>2014-07-04T12:50:00Z</time>
      </trkpt>
      <trkpt lat="44.97381" lon="5.32715">
        <ele>1091.23</ele>
        <time>2014-07-04T12:50:01Z</time>
      </trkpt>
      <trkpt lat="44.974" lon="5.32716">
        <ele>1092.68</ele>
        <time>2014-07-04T12:50:12Z</time>
      </trkpt>
      <trkpt lat="44.97402" lon="5.32717">
        <ele>1092.68</ele>
        <time>2014-07-04T12:50:14Z</time>
      </trkpt>
      <trkpt lat="44.97406" lon="5.32717">
        <ele>1092.68</ele>
        <time>2014-07-04T12:50:16Z</time>
      </trkpt>
      <trkpt lat="44.97408" lon="5.32718">
        <ele>1092.68</ele>
        <time>2014-07-04T12:50:17Z</time>
      </trkpt>
      <trkpt lat="44.97413" lon="5.32719">
        <ele>1092.68</ele>
        <time>2014-07-04T12:50:29Z</time>
      </trkpt>
      <trkpt lat="44.9742" lon="5.32721">
        <ele>1093.16</ele>
        <time>2014-07-04T12:50:39Z</time>
      </trkpt>
      <trkpt lat="44.97421" lon="5.32722">
        <ele>1094.12</ele>
        <time>2014-07-04T12:50:51Z</time>
      </trkpt>
      <trkpt lat="44.9743" lon="5.32722">
        <ele>1094.6</ele>
        <time>2014-07-04T12:51:03Z</time>
      </trkpt>
      <trkpt lat="44.97435" lon="5.32724">
        <ele>1094.12</ele>
        <time>2014-07-04T12:51:21Z</time>
      </trkpt>
      <trkpt lat="44.97439" lon="5.32726">
        <ele>1094.6</ele>
        <time>2014-07-04T12:51:24Z</time>
      </trkpt>
      <trkpt lat="44.9744" lon="5.32727">
        <ele>1095.08</ele>
        <time>2014-07-04T12:51:25Z</time>
      </trkpt>
      <trkpt lat="44.97442" lon="5.32728">
        <ele>1094.6</ele>
        <time>2014-07-04T12:51:26Z</time>
      </trkpt>
      <trkpt lat="44.97443" lon="5.32729">
        <ele>1095.08</ele>
        <time>2014-07-04T12:51:27Z</time>
      </trkpt>
      <trkpt lat="44.97446" lon="5.32729">
        <ele>1095.08</ele>
        <time>2014-07-04T12:51:28Z</time>
      </trkpt>
      <trkpt lat="44.97448" lon="5.32729">
        <ele>1095.56</ele>
        <time>2014-07-04T12:51:29Z</time>
      </trkpt>
      <trkpt lat="44.9746" lon="5.32733">
        <ele>1096.04</ele>
        <time>2014-07-04T12:51:38Z</time>
      </trkpt>
      <trkpt lat="44.97462" lon="5.32734">
        <ele>1097</ele>
        <time>2014-07-04T12:51:39Z</time>
      </trkpt>
      <trkpt lat="44.97464" lon="5.32734">
        <ele>1097</ele>
        <time>2014-07-04T12:51:40Z</time>
      </trkpt>
      <trkpt lat="44.97465" lon="5.32734">
        <ele>1097</ele>
        <time>2014-07-04T12:51:41Z</time>
      </trkpt>
      <trkpt lat="44.97467" lon="5.32734">
        <ele>1097.48</ele>
        <time>2014-07-04T12:51:42Z</time>
      </trkpt>
      <trkpt lat="44.97469" lon="5.32733">
        <ele>1097.96</ele>
        <time>2014-07-04T12:51:43Z</time>
      </trkpt>
      <trkpt lat="44.97471" lon="5.32732">
        <ele>1098.44</ele>
        <time>2014-07-04T12:51:44Z</time>
      </trkpt>
      <trkpt lat="44.97476" lon="5.3273">
        <ele>1098.44</ele>
        <time>2014-07-04T12:51:48Z</time>
      </trkpt>
      <trkpt lat="44.97481" lon="5.3273">
        <ele>1098.44</ele>
        <time>2014-07-04T12:51:53Z</time>
      </trkpt>
      <trkpt lat="44.97483" lon="5.3273">
        <ele>1098.92</ele>
        <time>2014-07-04T12:51:54Z</time>
      </trkpt>
      <trkpt lat="44.97484" lon="5.3273">
        <ele>1098.92</ele>
        <time>2014-07-04T12:51:55Z</time>
      </trkpt>
      <trkpt lat="44.97486" lon="5.3273">
        <ele>1098.92</ele>
        <time>2014-07-04T12:51:56Z</time>
      </trkpt>
      <trkpt lat="44.97487" lon="5.32731">
        <ele>1099.4</ele>
        <time>2014-07-04T12:51:57Z</time>
      </trkpt>
      <trkpt lat="44.97499" lon="5.32735">
        <ele>1099.89</ele>
        <time>2014-07-04T12:52:09Z</time>
      </trkpt>
      <trkpt lat="44.97501" lon="5.32737">
        <ele>1099.4</ele>
        <time>2014-07-04T12:52:11Z</time>
      </trkpt>
      <trkpt lat="44.9751" lon="5.32743">
        <ele>1099.4</ele>
        <time>2014-07-04T12:52:19Z</time>
      </trkpt>
      <trkpt lat="44.97525" lon="5.32737">
        <ele>1099.4</ele>
        <time>2014-07-04T12:52:32Z</time>
      </trkpt>
      <trkpt lat="44.97524" lon="5.32735">
        <ele>1099.89</ele>
        <time>2014-07-04T12:52:38Z</time>
      </trkpt>
      <trkpt lat="44.97516" lon="5.32725">
        <ele>1101.81</ele>
        <time>2014-07-04T12:52:48Z</time>
      </trkpt>
      <trkpt lat="44.97506" lon="5.32713">
        <ele>1103.25</ele>
        <time>2014-07-04T12:53:01Z</time>
      </trkpt>
      <trkpt lat="44.97505" lon="5.32712">
        <ele>1103.73</ele>
        <time>2014-07-04T12:53:03Z</time>
      </trkpt>
      <trkpt lat="44.97496" lon="5.32704">
        <ele>1105.17</ele>
        <time>2014-07-04T12:53:13Z</time>
      </trkpt>
      <trkpt lat="44.97487" lon="5.32696">
        <ele>1106.13</ele>
        <time>2014-07-04T12:53:23Z</time>
      </trkpt>
      <trkpt lat="44.97486" lon="5.32696">
        <ele>1106.13</ele>
        <time>2014-07-04T12:53:24Z</time>
      </trkpt>
      <trkpt lat="44.97485" lon="5.32695">
        <ele>1106.13</ele>
        <time>2014-07-04T12:53:25Z</time>
      </trkpt>
      <trkpt lat="44.97483" lon="5.32695">
        <ele>1106.13</ele>
        <time>2014-07-04T12:53:26Z</time>
      </trkpt>
      <trkpt lat="44.97476" lon="5.32684">
        <ele>1108.06</ele>
        <time>2014-07-04T12:53:36Z</time>
      </trkpt>
      <trkpt lat="44.97464" lon="5.32675">
        <ele>1110.46</ele>
        <time>2014-07-04T12:53:50Z</time>
      </trkpt>
      <trkpt lat="44.97455" lon="5.32665">
        <ele>1111.42</ele>
        <time>2014-07-04T12:54:02Z</time>
      </trkpt>
      <trkpt lat="44.97447" lon="5.32651">
        <ele>1113.34</ele>
        <time>2014-07-04T12:54:15Z</time>
      </trkpt>
      <trkpt lat="44.97438" lon="5.32637">
        <ele>1116.23</ele>
        <time>2014-07-04T12:54:28Z</time>
      </trkpt>
      <trkpt lat="44.97431" lon="5.32623">
        <ele>1117.67</ele>
        <time>2014-07-04T12:54:39Z</time>
      </trkpt>
      <trkpt lat="44.97425" lon="5.3261">
        <ele>1119.59</ele>
        <time>2014-07-04T12:54:50Z</time>
      </trkpt>
      <trkpt lat="44.9742" lon="5.32606">
        <ele>1120.07</ele>
        <time>2014-07-04T12:54:56Z</time>
      </trkpt>
      <trkpt lat="44.97415" lon="5.32603">
        <ele>1121.03</ele>
        <time>2014-07-04T12:55:00Z</time>
      </trkpt>
      <trkpt lat="44.97414" lon="5.32602">
        <ele>1121.52</ele>
        <time>2014-07-04T12:55:01Z</time>
      </trkpt>
      <trkpt lat="44.97414" lon="5.32599">
        <ele>1122</ele>
        <time>2014-07-04T12:55:04Z</time>
      </trkpt>
      <trkpt lat="44.97416" lon="5.32598">
        <ele>1122</ele>
        <time>2014-07-04T12:55:06Z</time>
      </trkpt>
      <trkpt lat="44.97418" lon="5.32598">
        <ele>1122</ele>
        <time>2014-07-04T12:55:08Z</time>
      </trkpt>
      <trkpt lat="44.9742" lon="5.32598">
        <ele>1122</ele>
        <time>2014-07-04T12:55:11Z</time>
      </trkpt>
      <trkpt lat="44.97431" lon="5.32603">
        <ele>1122.96</ele>
        <time>2014-07-04T12:55:23Z</time>
      </trkpt>
      <trkpt lat="44.9744" lon="5.32607">
        <ele>1123.44</ele>
        <time>2014-07-04T12:55:32Z</time>
      </trkpt>
      <trkpt lat="44.97442" lon="5.3261">
        <ele>1123.44</ele>
        <time>2014-07-04T12:55:34Z</time>
      </trkpt>
      <trkpt lat="44.97451" lon="5.32607">
        <ele>1123.92</ele>
        <time>2014-07-04T12:55:45Z</time>
      </trkpt>
      <trkpt lat="44.9745" lon="5.32611">
        <ele>1122.48</ele>
        <time>2014-07-04T12:56:05Z</time>
      </trkpt>
      <trkpt lat="44.9745" lon="5.32611">
        <ele>1124.4</ele>
        <time>2014-07-04T12:56:08Z</time>
      </trkpt>
      <trkpt lat="44.97452" lon="5.32612">
        <ele>1123.92</ele>
        <time>2014-07-04T12:56:21Z</time>
      </trkpt>
      <trkpt lat="44.9746" lon="5.32614">
        <ele>1124.4</ele>
        <time>2014-07-04T12:56:27Z</time>
      </trkpt>
      <trkpt lat="44.97475" lon="5.32615">
        <ele>1125.84</ele>
        <time>2014-07-04T12:56:37Z</time>
      </trkpt>
      <trkpt lat="44.97477" lon="5.32614">
        <ele>1125.84</ele>
        <time>2014-07-04T12:56:38Z</time>
      </trkpt>
      <trkpt lat="44.97479" lon="5.32613">
        <ele>1125.84</ele>
        <time>2014-07-04T12:56:39Z</time>
      </trkpt>
      <trkpt lat="44.97481" lon="5.32613">
        <ele>1125.36</ele>
        <time>2014-07-04T12:56:40Z</time>
      </trkpt>
      <trkpt lat="44.97483" lon="5.32613">
        <ele>1125.84</ele>
        <time>2014-07-04T12:56:41Z</time>
      </trkpt>
      <trkpt lat="44.97485" lon="5.32613">
        <ele>1125.36</ele>
        <time>2014-07-04T12:56:42Z</time>
      </trkpt>
      <trkpt lat="44.97487" lon="5.32613">
        <ele>1125.84</ele>
        <time>2014-07-04T12:56:43Z</time>
      </trkpt>
      <trkpt lat="44.97507" lon="5.32606">
        <ele>1124.4</ele>
        <time>2014-07-04T12:56:54Z</time>
      </trkpt>
      <trkpt lat="44.97508" lon="5.32604">
        <ele>1126.8</ele>
        <time>2014-07-04T12:56:55Z</time>
      </trkpt>
      <trkpt lat="44.97509" lon="5.32603">
        <ele>1126.32</ele>
        <time>2014-07-04T12:56:56Z</time>
      </trkpt>
      <trkpt lat="44.9751" lon="5.32601">
        <ele>1126.8</ele>
        <time>2014-07-04T12:56:57Z</time>
      </trkpt>
      <trkpt lat="44.97511" lon="5.32599">
        <ele>1126.8</ele>
        <time>2014-07-04T12:56:58Z</time>
      </trkpt>
      <trkpt lat="44.97512" lon="5.32596">
        <ele>1126.8</ele>
        <time>2014-07-04T12:57:00Z</time>
      </trkpt>
      <trkpt lat="44.97513" lon="5.32594">
        <ele>1126.8</ele>
        <time>2014-07-04T12:57:01Z</time>
      </trkpt>
      <trkpt lat="44.97513" lon="5.32592">
        <ele>1127.28</ele>
        <time>2014-07-04T12:57:02Z</time>
      </trkpt>
      <trkpt lat="44.97513" lon="5.3259">
        <ele>1127.28</ele>
        <time>2014-07-04T12:57:03Z</time>
      </trkpt>
      <trkpt lat="44.97515" lon="5.32582">
        <ele>1127.28</ele>
        <time>2014-07-04T12:57:07Z</time>
      </trkpt>
      <trkpt lat="44.97515" lon="5.3258">
        <ele>1127.76</ele>
        <time>2014-07-04T12:57:08Z</time>
      </trkpt>
      <trkpt lat="44.97514" lon="5.32578">
        <ele>1127.28</ele>
        <time>2014-07-04T12:57:09Z</time>
      </trkpt>
      <trkpt lat="44.97513" lon="5.32575">
        <ele>1127.28</ele>
        <time>2014-07-04T12:57:10Z</time>
      </trkpt>
      <trkpt lat="44.97512" lon="5.32571">
        <ele>1127.76</ele>
        <time>2014-07-04T12:57:11Z</time>
      </trkpt>
      <trkpt lat="44.97512" lon="5.32568">
        <ele>1127.76</ele>
        <time>2014-07-04T12:57:12Z</time>
      </trkpt>
      <trkpt lat="44.97511" lon="5.32566">
        <ele>1127.76</ele>
        <time>2014-07-04T12:57:13Z</time>
      </trkpt>
      <trkpt lat="44.9751" lon="5.3256">
        <ele>1127.76</ele>
        <time>2014-07-04T12:57:15Z</time>
      </trkpt>
      <trkpt lat="44.97509" lon="5.32557">
        <ele>1127.76</ele>
        <time>2014-07-04T12:57:16Z</time>
      </trkpt>
      <trkpt lat="44.97507" lon="5.32555">
        <ele>1128.24</ele>
        <time>2014-07-04T12:57:17Z</time>
      </trkpt>
      <trkpt lat="44.97492" lon="5.3252">
        <ele>1129.69</ele>
        <time>2014-07-04T12:57:30Z</time>
      </trkpt>
      <trkpt lat="44.97475" lon="5.32486">
        <ele>1130.17</ele>
        <time>2014-07-04T12:57:43Z</time>
      </trkpt>
      <trkpt lat="44.97458" lon="5.3245">
        <ele>1131.61</ele>
        <time>2014-07-04T12:57:55Z</time>
      </trkpt>
      <trkpt lat="44.97456" lon="5.32409">
        <ele>1132.09</ele>
        <time>2014-07-04T12:58:07Z</time>
      </trkpt>
      <trkpt lat="44.97482" lon="5.3239">
        <ele>1133.53</ele>
        <time>2014-07-04T12:58:18Z</time>
      </trkpt>
      <trkpt lat="44.97514" lon="5.32396">
        <ele>1134.01</ele>
        <time>2014-07-04T12:58:31Z</time>
      </trkpt>
      <trkpt lat="44.9752" lon="5.32397">
        <ele>1134.97</ele>
        <time>2014-07-04T12:58:34Z</time>
      </trkpt>
      <trkpt lat="44.97531" lon="5.32392">
        <ele>1135.45</ele>
        <time>2014-07-04T12:58:39Z</time>
      </trkpt>
      <trkpt lat="44.97534" lon="5.32391">
        <ele>1135.45</ele>
        <time>2014-07-04T12:58:40Z</time>
      </trkpt>
      <trkpt lat="44.97537" lon="5.3239">
        <ele>1135.45</ele>
        <time>2014-07-04T12:58:41Z</time>
      </trkpt>
      <trkpt lat="44.9754" lon="5.32388">
        <ele>1135.45</ele>
        <time>2014-07-04T12:58:42Z</time>
      </trkpt>
      <trkpt lat="44.97543" lon="5.32387">
        <ele>1135.45</ele>
        <time>2014-07-04T12:58:43Z</time>
      </trkpt>
      <trkpt lat="44.97546" lon="5.32387">
        <ele>1135.45</ele>
        <time>2014-07-04T12:58:44Z</time>
      </trkpt>
      <trkpt lat="44.97549" lon="5.32386">
        <ele>1135.45</ele>
        <time>2014-07-04T12:58:45Z</time>
      </trkpt>
      <trkpt lat="44.97551" lon="5.32387">
        <ele>1135.94</ele>
        <time>2014-07-04T12:58:46Z</time>
      </trkpt>
      <trkpt lat="44.97554" lon="5.32387">
        <ele>1135.45</ele>
        <time>2014-07-04T12:58:47Z</time>
      </trkpt>
      <trkpt lat="44.97566" lon="5.32403">
        <ele>1136.9</ele>
        <time>2014-07-04T12:58:54Z</time>
      </trkpt>
      <trkpt lat="44.97568" lon="5.32406">
        <ele>1136.9</ele>
        <time>2014-07-04T12:58:55Z</time>
      </trkpt>
      <trkpt lat="44.9757" lon="5.32409">
        <ele>1136.9</ele>
        <time>2014-07-04T12:58:56Z</time>
      </trkpt>
      <trkpt lat="44.97571" lon="5.32412">
        <ele>1137.38</ele>
        <time>2014-07-04T12:58:57Z</time>
      </trkpt>
      <trkpt lat="44.97573" lon="5.32415">
        <ele>1136.9</ele>
        <time>2014-07-04T12:58:58Z</time>
      </trkpt>
      <trkpt lat="44.97588" lon="5.32435">
        <ele>1138.34</ele>
        <time>2014-07-04T12:59:06Z</time>
      </trkpt>
      <trkpt lat="44.97591" lon="5.32438">
        <ele>1138.34</ele>
        <time>2014-07-04T12:59:07Z</time>
      </trkpt>
      <trkpt lat="44.97593" lon="5.32441">
        <ele>1138.34</ele>
        <time>2014-07-04T12:59:08Z</time>
      </trkpt>
      <trkpt lat="44.97595" lon="5.32443">
        <ele>1138.34</ele>
        <time>2014-07-04T12:59:09Z</time>
      </trkpt>
      <trkpt lat="44.97597" lon="5.32446">
        <ele>1138.34</ele>
        <time>2014-07-04T12:59:10Z</time>
      </trkpt>
      <trkpt lat="44.97599" lon="5.32449">
        <ele>1138.34</ele>
        <time>2014-07-04T12:59:11Z</time>
      </trkpt>
      <trkpt lat="44.97605" lon="5.32456">
        <ele>1138.82</ele>
        <time>2014-07-04T12:59:14Z</time>
      </trkpt>
      <trkpt lat="44.97607" lon="5.32457">
        <ele>1138.82</ele>
        <time>2014-07-04T12:59:15Z</time>
      </trkpt>
      <trkpt lat="44.9761" lon="5.32459">
        <ele>1139.3</ele>
        <time>2014-07-04T12:59:16Z</time>
      </trkpt>
      <trkpt lat="44.97613" lon="5.32461">
        <ele>1138.82</ele>
        <time>2014-07-04T12:59:17Z</time>
      </trkpt>
      <trkpt lat="44.97615" lon="5.32463">
        <ele>1138.82</ele>
        <time>2014-07-04T12:59:18Z</time>
      </trkpt>
      <trkpt lat="44.97618" lon="5.32465">
        <ele>1139.3</ele>
        <time>2014-07-04T12:59:19Z</time>
      </trkpt>
      <trkpt lat="44.9762" lon="5.32467">
        <ele>1139.3</ele>
        <time>2014-07-04T12:59:20Z</time>
      </trkpt>
      <trkpt lat="44.97622" lon="5.3247">
        <ele>1139.78</ele>
        <time>2014-07-04T12:59:21Z</time>
      </trkpt>
      <trkpt lat="44.97624" lon="5.32473">
        <ele>1139.3</ele>
        <time>2014-07-04T12:59:22Z</time>
      </trkpt>
      <trkpt lat="44.97626" lon="5.32476">
        <ele>1139.3</ele>
        <time>2014-07-04T12:59:23Z</time>
      </trkpt>
      <trkpt lat="44.97648" lon="5.32508">
        <ele>1140.74</ele>
        <time>2014-07-04T12:59:34Z</time>
      </trkpt>
      <trkpt lat="44.9766" lon="5.32528">
        <ele>1141.7</ele>
        <time>2014-07-04T12:59:41Z</time>
      </trkpt>
      <trkpt lat="44.97661" lon="5.32531">
        <ele>1141.7</ele>
        <time>2014-07-04T12:59:42Z</time>
      </trkpt>
      <trkpt lat="44.97666" lon="5.3255">
        <ele>1141.7</ele>
        <time>2014-07-04T12:59:47Z</time>
      </trkpt>
      <trkpt lat="44.97684" lon="5.32584">
        <ele>1143.63</ele>
        <time>2014-07-04T12:59:58Z</time>
      </trkpt>
      <trkpt lat="44.9771" lon="5.32625">
        <ele>1145.07</ele>
        <time>2014-07-04T13:00:12Z</time>
      </trkpt>
      <trkpt lat="44.97738" lon="5.3267">
        <ele>1146.51</ele>
        <time>2014-07-04T13:00:28Z</time>
      </trkpt>
      <trkpt lat="44.97773" lon="5.32698">
        <ele>1148.43</ele>
        <time>2014-07-04T13:00:44Z</time>
      </trkpt>
      <trkpt lat="44.97801" lon="5.32683">
        <ele>1149.87</ele>
        <time>2014-07-04T13:00:57Z</time>
      </trkpt>
      <trkpt lat="44.97825" lon="5.3265">
        <ele>1151.32</ele>
        <time>2014-07-04T13:01:10Z</time>
      </trkpt>
      <trkpt lat="44.97836" lon="5.32634">
        <ele>1152.28</ele>
        <time>2014-07-04T13:01:16Z</time>
      </trkpt>
      <trkpt lat="44.97838" lon="5.32632">
        <ele>1152.28</ele>
        <time>2014-07-04T13:01:17Z</time>
      </trkpt>
      <trkpt lat="44.97839" lon="5.3263">
        <ele>1152.76</ele>
        <time>2014-07-04T13:01:18Z</time>
      </trkpt>
      <trkpt lat="44.97867" lon="5.3261">
        <ele>1153.72</ele>
        <time>2014-07-04T13:01:31Z</time>
      </trkpt>
      <trkpt lat="44.979" lon="5.32595">
        <ele>1154.68</ele>
        <time>2014-07-04T13:01:43Z</time>
      </trkpt>
      <trkpt lat="44.97942" lon="5.3257">
        <ele>1156.6</ele>
        <time>2014-07-04T13:01:59Z</time>
      </trkpt>
      <trkpt lat="44.97961" lon="5.32523">
        <ele>1155.64</ele>
        <time>2014-07-04T13:02:12Z</time>
      </trkpt>
      <trkpt lat="44.97964" lon="5.32505">
        <ele>1155.64</ele>
        <time>2014-07-04T13:02:26Z</time>
      </trkpt>
      <trkpt lat="44.97965" lon="5.325">
        <ele>1154.68</ele>
        <time>2014-07-04T13:02:38Z</time>
      </trkpt>
      <trkpt lat="44.97967" lon="5.32497">
        <ele>1154.68</ele>
        <time>2014-07-04T13:02:40Z</time>
      </trkpt>
      <trkpt lat="44.97968" lon="5.32496">
        <ele>1154.2</ele>
        <time>2014-07-04T13:02:41Z</time>
      </trkpt>
      <trkpt lat="44.9797" lon="5.32494">
        <ele>1154.2</ele>
        <time>2014-07-04T13:02:42Z</time>
      </trkpt>
      <trkpt lat="44.97971" lon="5.32493">
        <ele>1154.68</ele>
        <time>2014-07-04T13:02:51Z</time>
      </trkpt>
      <trkpt lat="44.97972" lon="5.32493">
        <ele>1154.68</ele>
        <time>2014-07-04T13:02:54Z</time>
      </trkpt>
      <trkpt lat="44.97979" lon="5.32498">
        <ele>1154.68</ele>
        <time>2014-07-04T13:03:00Z</time>
      </trkpt>
      <trkpt lat="44.97983" lon="5.32496">
        <ele>1154.68</ele>
        <time>2014-07-04T13:03:05Z</time>
      </trkpt>
      <trkpt lat="44.97984" lon="5.32495">
        <ele>1154.2</ele>
        <time>2014-07-04T13:03:06Z</time>
      </trkpt>
      <trkpt lat="44.98002" lon="5.32476">
        <ele>1152.28</ele>
        <time>2014-07-04T13:03:15Z</time>
      </trkpt>
      <trkpt lat="44.9802" lon="5.32469">
        <ele>1153.24</ele>
        <time>2014-07-04T13:03:25Z</time>
      </trkpt>
      <trkpt lat="44.98032" lon="5.32462">
        <ele>1152.76</ele>
        <time>2014-07-04T13:03:32Z</time>
      </trkpt>
      <trkpt lat="44.98034" lon="5.3246">
        <ele>1151.8</ele>
        <time>2014-07-04T13:03:33Z</time>
      </trkpt>
      <trkpt lat="44.98036" lon="5.32458">
        <ele>1152.28</ele>
        <time>2014-07-04T13:03:34Z</time>
      </trkpt>
      <trkpt lat="44.9804" lon="5.32456">
        <ele>1151.8</ele>
        <time>2014-07-04T13:03:35Z</time>
      </trkpt>
      <trkpt lat="44.98042" lon="5.32454">
        <ele>1151.8</ele>
        <time>2014-07-04T13:03:36Z</time>
      </trkpt>
      <trkpt lat="44.98066" lon="5.3243">
        <ele>1149.39</ele>
        <time>2014-07-04T13:03:43Z</time>
      </trkpt>
      <trkpt lat="44.9807" lon="5.32427">
        <ele>1149.39</ele>
        <time>2014-07-04T13:03:44Z</time>
      </trkpt>
      <trkpt lat="44.98073" lon="5.32426">
        <ele>1149.39</ele>
        <time>2014-07-04T13:03:45Z</time>
      </trkpt>
      <trkpt lat="44.981" lon="5.32417">
        <ele>1150.35</ele>
        <time>2014-07-04T13:03:55Z</time>
      </trkpt>
      <trkpt lat="44.98104" lon="5.32415">
        <ele>1150.84</ele>
        <time>2014-07-04T13:03:58Z</time>
      </trkpt>
      <trkpt lat="44.98106" lon="5.32414">
        <ele>1150.84</ele>
        <time>2014-07-04T13:03:59Z</time>
      </trkpt>
      <trkpt lat="44.98129" lon="5.32405">
        <ele>1152.28</ele>
        <time>2014-07-04T13:04:11Z</time>
      </trkpt>
      <trkpt lat="44.98131" lon="5.32405">
        <ele>1152.28</ele>
        <time>2014-07-04T13:04:12Z</time>
      </trkpt>
      <trkpt lat="44.98133" lon="5.32404">
        <ele>1152.28</ele>
        <time>2014-07-04T13:04:14Z</time>
      </trkpt>
      <trkpt lat="44.9815" lon="5.32396">
        <ele>1152.28</ele>
        <time>2014-07-04T13:04:24Z</time>
      </trkpt>
      <trkpt lat="44.98174" lon="5.32394">
        <ele>1151.8</ele>
        <time>2014-07-04T13:04:36Z</time>
      </trkpt>
      <trkpt lat="44.9818" lon="5.32392">
        <ele>1151.32</ele>
        <time>2014-07-04T13:04:38Z</time>
      </trkpt>
      <trkpt lat="44.98212" lon="5.32381">
        <ele>1148.91</ele>
        <time>2014-07-04T13:04:47Z</time>
      </trkpt>
      <trkpt lat="44.9822" lon="5.32377">
        <ele>1148.43</ele>
        <time>2014-07-04T13:04:49Z</time>
      </trkpt>
      <trkpt lat="44.98264" lon="5.32351">
        <ele>1145.55</ele>
        <time>2014-07-04T13:05:00Z</time>
      </trkpt>
      <trkpt lat="44.98269" lon="5.32349">
        <ele>1145.07</ele>
        <time>2014-07-04T13:05:02Z</time>
      </trkpt>
      <trkpt lat="44.98274" lon="5.32346">
        <ele>1145.07</ele>
        <time>2014-07-04T13:05:14Z</time>
      </trkpt>
      <trkpt lat="44.98273" lon="5.32341">
        <ele>1144.59</ele>
        <time>2014-07-04T13:05:24Z</time>
      </trkpt>
      <trkpt lat="44.98273" lon="5.32341">
        <ele>1144.59</ele>
        <time>2014-07-04T13:05:30Z</time>
      </trkpt>
      <trkpt lat="44.98269" lon="5.32349">
        <ele>1145.07</ele>
        <time>2014-07-04T13:05:39Z</time>
      </trkpt>
      <trkpt lat="44.98262" lon="5.32355">
        <ele>1146.51</ele>
        <time>2014-07-04T13:05:50Z</time>
      </trkpt>
      <trkpt lat="44.98255" lon="5.3236">
        <ele>1146.51</ele>
        <time>2014-07-04T13:06:02Z</time>
      </trkpt>
      <trkpt lat="44.98245" lon="5.32368">
        <ele>1147.47</ele>
        <time>2014-07-04T13:06:15Z</time>
      </trkpt>
      <trkpt lat="44.98239" lon="5.32373">
        <ele>1147.47</ele>
        <time>2014-07-04T13:06:24Z</time>
      </trkpt>
      <trkpt lat="44.98236" lon="5.32374">
        <ele>1147.95</ele>
        <time>2014-07-04T13:06:33Z</time>
      </trkpt>
      <trkpt lat="44.98223" lon="5.32376">
        <ele>1147.95</ele>
        <time>2014-07-04T13:06:46Z</time>
      </trkpt>
      <trkpt lat="44.98216" lon="5.32374">
        <ele>1147.47</ele>
        <time>2014-07-04T13:06:59Z</time>
      </trkpt>
      <trkpt lat="44.98204" lon="5.3237">
        <ele>1146.51</ele>
        <time>2014-07-04T13:07:10Z</time>
      </trkpt>
      <trkpt lat="44.98195" lon="5.32358">
        <ele>1144.59</ele>
        <time>2014-07-04T13:07:23Z</time>
      </trkpt>
      <trkpt lat="44.98192" lon="5.32357">
        <ele>1146.03</ele>
        <time>2014-07-04T13:07:43Z</time>
      </trkpt>
      <trkpt lat="44.98189" lon="5.32353">
        <ele>1143.63</ele>
        <time>2014-07-04T13:08:02Z</time>
      </trkpt>
      <trkpt lat="44.98187" lon="5.32353">
        <ele>1143.63</ele>
        <time>2014-07-04T13:08:25Z</time>
      </trkpt>
      <trkpt lat="44.98187" lon="5.32354">
        <ele>1144.11</ele>
        <time>2014-07-04T13:08:27Z</time>
      </trkpt>
      <trkpt lat="44.9819" lon="5.32356">
        <ele>1144.59</ele>
        <time>2014-07-04T13:08:31Z</time>
      </trkpt>
      <trkpt lat="44.98195" lon="5.32365">
        <ele>1145.07</ele>
        <time>2014-07-04T13:08:40Z</time>
      </trkpt>
      <trkpt lat="44.98203" lon="5.32372">
        <ele>1146.03</ele>
        <time>2014-07-04T13:08:55Z</time>
      </trkpt>
      <trkpt lat="44.98205" lon="5.32375">
        <ele>1146.51</ele>
        <time>2014-07-04T13:09:00Z</time>
      </trkpt>
      <trkpt lat="44.98207" lon="5.32379">
        <ele>1147.47</ele>
        <time>2014-07-04T13:09:10Z</time>
      </trkpt>
      <trkpt lat="44.98214" lon="5.32379">
        <ele>1146.51</ele>
        <time>2014-07-04T13:09:21Z</time>
      </trkpt>
      <trkpt lat="44.98236" lon="5.32369">
        <ele>1144.59</ele>
        <time>2014-07-04T13:09:32Z</time>
      </trkpt>
      <trkpt lat="44.98266" lon="5.32351">
        <ele>1143.14</ele>
        <time>2014-07-04T13:09:41Z</time>
      </trkpt>
      <trkpt lat="44.98274" lon="5.32348">
        <ele>1142.66</ele>
        <time>2014-07-04T13:09:43Z</time>
      </trkpt>
      <trkpt lat="44.98302" lon="5.32356">
        <ele>1140.26</ele>
        <time>2014-07-04T13:09:52Z</time>
      </trkpt>
      <trkpt lat="44.98308" lon="5.32361">
        <ele>1139.78</ele>
        <time>2014-07-04T13:10:02Z</time>
      </trkpt>
      <trkpt lat="44.98307" lon="5.32361">
        <ele>1139.78</ele>
        <time>2014-07-04T13:10:15Z</time>
      </trkpt>
      <trkpt lat="44.98305" lon="5.3236">
        <ele>1139.78</ele>
        <time>2014-07-04T13:10:20Z</time>
      </trkpt>
      <trkpt lat="44.98304" lon="5.32359">
        <ele>1139.3</ele>
        <time>2014-07-04T13:10:21Z</time>
      </trkpt>
      <trkpt lat="44.98303" lon="5.32357">
        <ele>1139.3</ele>
        <time>2014-07-04T13:10:22Z</time>
      </trkpt>
      <trkpt lat="44.98302" lon="5.32355">
        <ele>1139.3</ele>
        <time>2014-07-04T13:10:23Z</time>
      </trkpt>
      <trkpt lat="44.983" lon="5.32352">
        <ele>1139.3</ele>
        <time>2014-07-04T13:10:24Z</time>
      </trkpt>
      <trkpt lat="44.98298" lon="5.32348">
        <ele>1138.82</ele>
        <time>2014-07-04T13:10:25Z</time>
      </trkpt>
      <trkpt lat="44.98284" lon="5.32322">
        <ele>1137.38</ele>
        <time>2014-07-04T13:10:31Z</time>
      </trkpt>
      <trkpt lat="44.98257" lon="5.32292">
        <ele>1134.01</ele>
        <time>2014-07-04T13:10:41Z</time>
      </trkpt>
      <trkpt lat="44.98247" lon="5.32245">
        <ele>1132.09</ele>
        <time>2014-07-04T13:10:51Z</time>
      </trkpt>
      <trkpt lat="44.98245" lon="5.32226">
        <ele>1131.61</ele>
        <time>2014-07-04T13:10:54Z</time>
      </trkpt>
      <trkpt lat="44.98244" lon="5.32207">
        <ele>1129.69</ele>
        <time>2014-07-04T13:10:56Z</time>
      </trkpt>
      <trkpt lat="44.98235" lon="5.32143">
        <ele>1129.69</ele>
        <time>2014-07-04T13:11:03Z</time>
      </trkpt>
      <trkpt lat="44.98218" lon="5.32114">
        <ele>1130.65</ele>
        <time>2014-07-04T13:11:12Z</time>
      </trkpt>
      <trkpt lat="44.98214" lon="5.32111">
        <ele>1129.69</ele>
        <time>2014-07-04T13:11:13Z</time>
      </trkpt>
      <trkpt lat="44.98209" lon="5.32108">
        <ele>1129.69</ele>
        <time>2014-07-04T13:11:14Z</time>
      </trkpt>
      <trkpt lat="44.98205" lon="5.32104">
        <ele>1129.21</ele>
        <time>2014-07-04T13:11:15Z</time>
      </trkpt>
      <trkpt lat="44.982" lon="5.321">
        <ele>1129.21</ele>
        <time>2014-07-04T13:11:16Z</time>
      </trkpt>
      <trkpt lat="44.98196" lon="5.32095">
        <ele>1128.73</ele>
        <time>2014-07-04T13:11:17Z</time>
      </trkpt>
      <trkpt lat="44.98192" lon="5.3209">
        <ele>1128.73</ele>
        <time>2014-07-04T13:11:18Z</time>
      </trkpt>
      <trkpt lat="44.98188" lon="5.32084">
        <ele>1128.73</ele>
        <time>2014-07-04T13:11:19Z</time>
      </trkpt>
      <trkpt lat="44.98169" lon="5.32051">
        <ele>1128.24</ele>
        <time>2014-07-04T13:11:25Z</time>
      </trkpt>
      <trkpt lat="44.98165" lon="5.32044">
        <ele>1127.76</ele>
        <time>2014-07-04T13:11:26Z</time>
      </trkpt>
      <trkpt lat="44.98163" lon="5.32036">
        <ele>1126.8</ele>
        <time>2014-07-04T13:11:27Z</time>
      </trkpt>
      <trkpt lat="44.98161" lon="5.32028">
        <ele>1126.8</ele>
        <time>2014-07-04T13:11:28Z</time>
      </trkpt>
      <trkpt lat="44.98159" lon="5.3202">
        <ele>1126.8</ele>
        <time>2014-07-04T13:11:29Z</time>
      </trkpt>
      <trkpt lat="44.98158" lon="5.32003">
        <ele>1126.32</ele>
        <time>2014-07-04T13:11:31Z</time>
      </trkpt>
      <trkpt lat="44.98159" lon="5.31994">
        <ele>1125.84</ele>
        <time>2014-07-04T13:11:32Z</time>
      </trkpt>
      <trkpt lat="44.98161" lon="5.31975">
        <ele>1124.88</ele>
        <time>2014-07-04T13:11:34Z</time>
      </trkpt>
      <trkpt lat="44.9816" lon="5.31966">
        <ele>1124.4</ele>
        <time>2014-07-04T13:11:35Z</time>
      </trkpt>
      <trkpt lat="44.98151" lon="5.31942">
        <ele>1125.84</ele>
        <time>2014-07-04T13:11:41Z</time>
      </trkpt>
      <trkpt lat="44.98149" lon="5.31939">
        <ele>1125.36</ele>
        <time>2014-07-04T13:11:43Z</time>
      </trkpt>
      <trkpt lat="44.9815" lon="5.31937">
        <ele>1126.8</ele>
        <time>2014-07-04T13:11:46Z</time>
      </trkpt>
      <trkpt lat="44.98151" lon="5.31935">
        <ele>1126.8</ele>
        <time>2014-07-04T13:11:57Z</time>
      </trkpt>
      <trkpt lat="44.98146" lon="5.31935">
        <ele>1125.84</ele>
        <time>2014-07-04T13:12:05Z</time>
      </trkpt>
      <trkpt lat="44.98144" lon="5.31933">
        <ele>1125.36</ele>
        <time>2014-07-04T13:12:07Z</time>
      </trkpt>
      <trkpt lat="44.98143" lon="5.31931">
        <ele>1125.36</ele>
        <time>2014-07-04T13:12:08Z</time>
      </trkpt>
      <trkpt lat="44.98141" lon="5.31929">
        <ele>1125.36</ele>
        <time>2014-07-04T13:12:09Z</time>
      </trkpt>
      <trkpt lat="44.98139" lon="5.31926">
        <ele>1125.36</ele>
        <time>2014-07-04T13:12:10Z</time>
      </trkpt>
      <trkpt lat="44.98138" lon="5.31923">
        <ele>1125.36</ele>
        <time>2014-07-04T13:12:11Z</time>
      </trkpt>
      <trkpt lat="44.98137" lon="5.3192">
        <ele>1125.36</ele>
        <time>2014-07-04T13:12:12Z</time>
      </trkpt>
      <trkpt lat="44.98134" lon="5.31898">
        <ele>1124.88</ele>
        <time>2014-07-04T13:12:17Z</time>
      </trkpt>
      <trkpt lat="44.98136" lon="5.31893">
        <ele>1124.4</ele>
        <time>2014-07-04T13:12:18Z</time>
      </trkpt>
      <trkpt lat="44.98139" lon="5.31889">
        <ele>1124.4</ele>
        <time>2014-07-04T13:12:19Z</time>
      </trkpt>
      <trkpt lat="44.98144" lon="5.31887">
        <ele>1123.92</ele>
        <time>2014-07-04T13:12:20Z</time>
      </trkpt>
      <trkpt lat="44.98148" lon="5.31886">
        <ele>1124.4</ele>
        <time>2014-07-04T13:12:21Z</time>
      </trkpt>
      <trkpt lat="44.98153" lon="5.31886">
        <ele>1123.92</ele>
        <time>2014-07-04T13:12:22Z</time>
      </trkpt>
      <trkpt lat="44.98158" lon="5.31886">
        <ele>1123.44</ele>
        <time>2014-07-04T13:12:23Z</time>
      </trkpt>
      <trkpt lat="44.98164" lon="5.31886">
        <ele>1122.96</ele>
        <time>2014-07-04T13:12:24Z</time>
      </trkpt>
      <trkpt lat="44.98176" lon="5.31886">
        <ele>1121.52</ele>
        <time>2014-07-04T13:12:26Z</time>
      </trkpt>
      <trkpt lat="44.98183" lon="5.31886">
        <ele>1121.52</ele>
        <time>2014-07-04T13:12:27Z</time>
      </trkpt>
      <trkpt lat="44.98238" lon="5.3188">
        <ele>1118.63</ele>
        <time>2014-07-04T13:12:34Z</time>
      </trkpt>
      <trkpt lat="44.98275" lon="5.31881">
        <ele>1115.27</ele>
        <time>2014-07-04T13:12:38Z</time>
      </trkpt>
      <trkpt lat="44.98315" lon="5.31889">
        <ele>1112.38</ele>
        <time>2014-07-04T13:12:42Z</time>
      </trkpt>
      <trkpt lat="44.98325" lon="5.31888">
        <ele>1111.9</ele>
        <time>2014-07-04T13:12:43Z</time>
      </trkpt>
      <trkpt lat="44.98344" lon="5.31885">
        <ele>1109.98</ele>
        <time>2014-07-04T13:12:45Z</time>
      </trkpt>
      <trkpt lat="44.98354" lon="5.31886">
        <ele>1109.02</ele>
        <time>2014-07-04T13:12:46Z</time>
      </trkpt>
      <trkpt lat="44.98364" lon="5.3189">
        <ele>1108.06</ele>
        <time>2014-07-04T13:12:47Z</time>
      </trkpt>
      <trkpt lat="44.98373" lon="5.31896">
        <ele>1108.06</ele>
        <time>2014-07-04T13:12:48Z</time>
      </trkpt>
      <trkpt lat="44.98381" lon="5.31904">
        <ele>1106.61</ele>
        <time>2014-07-04T13:12:49Z</time>
      </trkpt>
      <trkpt lat="44.98428" lon="5.31943">
        <ele>1102.77</ele>
        <time>2014-07-04T13:12:54Z</time>
      </trkpt>
      <trkpt lat="44.98466" lon="5.31981">
        <ele>1098.92</ele>
        <time>2014-07-04T13:12:58Z</time>
      </trkpt>
      <trkpt lat="44.98503" lon="5.32026">
        <ele>1096.04</ele>
        <time>2014-07-04T13:13:02Z</time>
      </trkpt>
      <trkpt lat="44.9851" lon="5.32041">
        <ele>1094.6</ele>
        <time>2014-07-04T13:13:03Z</time>
      </trkpt>
      <trkpt lat="44.98524" lon="5.32071">
        <ele>1093.16</ele>
        <time>2014-07-04T13:13:05Z</time>
      </trkpt>
      <trkpt lat="44.98533" lon="5.32083">
        <ele>1092.2</ele>
        <time>2014-07-04T13:13:06Z</time>
      </trkpt>
      <trkpt lat="44.98544" lon="5.32095">
        <ele>1090.75</ele>
        <time>2014-07-04T13:13:07Z</time>
      </trkpt>
      <trkpt lat="44.98553" lon="5.32107">
        <ele>1089.31</ele>
        <time>2014-07-04T13:13:08Z</time>
      </trkpt>
      <trkpt lat="44.98562" lon="5.32121">
        <ele>1089.31</ele>
        <time>2014-07-04T13:13:09Z</time>
      </trkpt>
      <trkpt lat="44.98568" lon="5.32136">
        <ele>1087.87</ele>
        <time>2014-07-04T13:13:10Z</time>
      </trkpt>
      <trkpt lat="44.98574" lon="5.3215">
        <ele>1087.39</ele>
        <time>2014-07-04T13:13:11Z</time>
      </trkpt>
      <trkpt lat="44.98579" lon="5.32163">
        <ele>1086.91</ele>
        <time>2014-07-04T13:13:12Z</time>
      </trkpt>
      <trkpt lat="44.98585" lon="5.32175">
        <ele>1086.43</ele>
        <time>2014-07-04T13:13:13Z</time>
      </trkpt>
      <trkpt lat="44.98591" lon="5.32184">
        <ele>1085.47</ele>
        <time>2014-07-04T13:13:14Z</time>
      </trkpt>
      <trkpt lat="44.98599" lon="5.32191">
        <ele>1084.99</ele>
        <time>2014-07-04T13:13:15Z</time>
      </trkpt>
      <trkpt lat="44.98609" lon="5.32194">
        <ele>1083.54</ele>
        <time>2014-07-04T13:13:16Z</time>
      </trkpt>
      <trkpt lat="44.9862" lon="5.32196">
        <ele>1082.1</ele>
        <time>2014-07-04T13:13:17Z</time>
      </trkpt>
      <trkpt lat="44.9863" lon="5.32197">
        <ele>1081.14</ele>
        <time>2014-07-04T13:13:18Z</time>
      </trkpt>
      <trkpt lat="44.98642" lon="5.32196">
        <ele>1080.66</ele>
        <time>2014-07-04T13:13:19Z</time>
      </trkpt>
      <trkpt lat="44.98654" lon="5.32193">
        <ele>1079.22</ele>
        <time>2014-07-04T13:13:20Z</time>
      </trkpt>
      <trkpt lat="44.98665" lon="5.32191">
        <ele>1078.74</ele>
        <time>2014-07-04T13:13:21Z</time>
      </trkpt>
      <trkpt lat="44.98677" lon="5.32194">
        <ele>1078.26</ele>
        <time>2014-07-04T13:13:22Z</time>
      </trkpt>
      <trkpt lat="44.98687" lon="5.32201">
        <ele>1077.29</ele>
        <time>2014-07-04T13:13:23Z</time>
      </trkpt>
      <trkpt lat="44.98708" lon="5.32216">
        <ele>1075.37</ele>
        <time>2014-07-04T13:13:25Z</time>
      </trkpt>
      <trkpt lat="44.98717" lon="5.32225">
        <ele>1074.41</ele>
        <time>2014-07-04T13:13:26Z</time>
      </trkpt>
      <trkpt lat="44.98727" lon="5.32234">
        <ele>1073.45</ele>
        <time>2014-07-04T13:13:27Z</time>
      </trkpt>
      <trkpt lat="44.98736" lon="5.32243">
        <ele>1072.01</ele>
        <time>2014-07-04T13:13:28Z</time>
      </trkpt>
      <trkpt lat="44.98744" lon="5.32251">
        <ele>1071.53</ele>
        <time>2014-07-04T13:13:29Z</time>
      </trkpt>
      <trkpt lat="44.98751" lon="5.3226">
        <ele>1071.05</ele>
        <time>2014-07-04T13:13:30Z</time>
      </trkpt>
      <trkpt lat="44.98755" lon="5.32264">
        <ele>1070.08</ele>
        <time>2014-07-04T13:13:31Z</time>
      </trkpt>
      <trkpt lat="44.98773" lon="5.3227">
        <ele>1068.64</ele>
        <time>2014-07-04T13:13:32Z</time>
      </trkpt>
      <trkpt lat="44.98787" lon="5.32274">
        <ele>1068.16</ele>
        <time>2014-07-04T13:13:33Z</time>
      </trkpt>
      <trkpt lat="44.988" lon="5.32278">
        <ele>1067.2</ele>
        <time>2014-07-04T13:13:34Z</time>
      </trkpt>
      <trkpt lat="44.98811" lon="5.3228">
        <ele>1066.24</ele>
        <time>2014-07-04T13:13:35Z</time>
      </trkpt>
      <trkpt lat="44.9884" lon="5.32272">
        <ele>1064.8</ele>
        <time>2014-07-04T13:13:37Z</time>
      </trkpt>
      <trkpt lat="44.98855" lon="5.32267">
        <ele>1063.36</ele>
        <time>2014-07-04T13:13:38Z</time>
      </trkpt>
      <trkpt lat="44.98869" lon="5.32263">
        <ele>1062.87</ele>
        <time>2014-07-04T13:13:39Z</time>
      </trkpt>
      <trkpt lat="44.98883" lon="5.32261">
        <ele>1062.39</ele>
        <time>2014-07-04T13:13:40Z</time>
      </trkpt>
      <trkpt lat="44.98889" lon="5.32244">
        <ele>1061.43</ele>
        <time>2014-07-04T13:13:41Z</time>
      </trkpt>
      <trkpt lat="44.98896" lon="5.32233">
        <ele>1060.95</ele>
        <time>2014-07-04T13:13:42Z</time>
      </trkpt>
      <trkpt lat="44.98905" lon="5.32228">
        <ele>1060.47</ele>
        <time>2014-07-04T13:13:43Z</time>
      </trkpt>
      <trkpt lat="44.98915" lon="5.32225">
        <ele>1059.51</ele>
        <time>2014-07-04T13:13:44Z</time>
      </trkpt>
      <trkpt lat="44.98948" lon="5.32221">
        <ele>1055.18</ele>
        <time>2014-07-04T13:13:47Z</time>
      </trkpt>
      <trkpt lat="44.98984" lon="5.32223">
        <ele>1052.3</ele>
        <time>2014-07-04T13:13:50Z</time>
      </trkpt>
      <trkpt lat="44.98996" lon="5.32224">
        <ele>1052.78</ele>
        <time>2014-07-04T13:13:51Z</time>
      </trkpt>
      <trkpt lat="44.99032" lon="5.32224">
        <ele>1049.42</ele>
        <time>2014-07-04T13:13:54Z</time>
      </trkpt>
      <trkpt lat="44.99044" lon="5.32226">
        <ele>1048.94</ele>
        <time>2014-07-04T13:13:55Z</time>
      </trkpt>
      <trkpt lat="44.99092" lon="5.32239">
        <ele>1045.57</ele>
        <time>2014-07-04T13:13:59Z</time>
      </trkpt>
      <trkpt lat="44.99139" lon="5.32253">
        <ele>1041.73</ele>
        <time>2014-07-04T13:14:03Z</time>
      </trkpt>
      <trkpt lat="44.99149" lon="5.32261">
        <ele>1040.28</ele>
        <time>2014-07-04T13:14:04Z</time>
      </trkpt>
      <trkpt lat="44.99167" lon="5.3228">
        <ele>1038.84</ele>
        <time>2014-07-04T13:14:06Z</time>
      </trkpt>
      <trkpt lat="44.99188" lon="5.32295">
        <ele>1037.88</ele>
        <time>2014-07-04T13:14:08Z</time>
      </trkpt>
      <trkpt lat="44.99209" lon="5.32314">
        <ele>1035.48</ele>
        <time>2014-07-04T13:14:10Z</time>
      </trkpt>
      <trkpt lat="44.99218" lon="5.32326">
        <ele>1034.52</ele>
        <time>2014-07-04T13:14:11Z</time>
      </trkpt>
      <trkpt lat="44.99226" lon="5.32339">
        <ele>1033.07</ele>
        <time>2014-07-04T13:14:12Z</time>
      </trkpt>
      <trkpt lat="44.99234" lon="5.32351">
        <ele>1032.59</ele>
        <time>2014-07-04T13:14:13Z</time>
      </trkpt>
      <trkpt lat="44.99241" lon="5.32363">
        <ele>1032.59</ele>
        <time>2014-07-04T13:14:14Z</time>
      </trkpt>
      <trkpt lat="44.99246" lon="5.32375">
        <ele>1031.63</ele>
        <time>2014-07-04T13:14:15Z</time>
      </trkpt>
      <trkpt lat="44.99256" lon="5.324">
        <ele>1030.19</ele>
        <time>2014-07-04T13:14:17Z</time>
      </trkpt>
      <trkpt lat="44.99257" lon="5.32414">
        <ele>1029.23</ele>
        <time>2014-07-04T13:14:18Z</time>
      </trkpt>
      <trkpt lat="44.99257" lon="5.32429">
        <ele>1028.75</ele>
        <time>2014-07-04T13:14:19Z</time>
      </trkpt>
      <trkpt lat="44.99255" lon="5.32444">
        <ele>1027.79</ele>
        <time>2014-07-04T13:14:20Z</time>
      </trkpt>
      <trkpt lat="44.99252" lon="5.32457">
        <ele>1027.79</ele>
        <time>2014-07-04T13:14:21Z</time>
      </trkpt>
      <trkpt lat="44.99248" lon="5.32469">
        <ele>1026.34</ele>
        <time>2014-07-04T13:14:22Z</time>
      </trkpt>
      <trkpt lat="44.99241" lon="5.3248">
        <ele>1025.86</ele>
        <time>2014-07-04T13:14:23Z</time>
      </trkpt>
      <trkpt lat="44.99234" lon="5.32489">
        <ele>1025.86</ele>
        <time>2014-07-04T13:14:24Z</time>
      </trkpt>
      <trkpt lat="44.99226" lon="5.32498">
        <ele>1024.42</ele>
        <time>2014-07-04T13:14:25Z</time>
      </trkpt>
      <trkpt lat="44.9922" lon="5.32505">
        <ele>1024.42</ele>
        <time>2014-07-04T13:14:26Z</time>
      </trkpt>
      <trkpt lat="44.99215" lon="5.32512">
        <ele>1024.42</ele>
        <time>2014-07-04T13:14:27Z</time>
      </trkpt>
      <trkpt lat="44.99212" lon="5.32516">
        <ele>1023.94</ele>
        <time>2014-07-04T13:14:28Z</time>
      </trkpt>
      <trkpt lat="44.99211" lon="5.32519">
        <ele>1023.94</ele>
        <time>2014-07-04T13:14:29Z</time>
      </trkpt>
      <trkpt lat="44.9921" lon="5.32521">
        <ele>1023.46</ele>
        <time>2014-07-04T13:14:30Z</time>
      </trkpt>
      <trkpt lat="44.99205" lon="5.32526">
        <ele>1023.46</ele>
        <time>2014-07-04T13:14:45Z</time>
      </trkpt>
      <trkpt lat="44.99209" lon="5.32525">
        <ele>1023.46</ele>
        <time>2014-07-04T13:15:06Z</time>
      </trkpt>
      <trkpt lat="44.9921" lon="5.32524">
        <ele>1023.46</ele>
        <time>2014-07-04T13:15:35Z</time>
      </trkpt>
      <trkpt lat="44.9921" lon="5.32524">
        <ele>1022.98</ele>
        <time>2014-07-04T13:15:48Z</time>
      </trkpt>
      <trkpt lat="44.99211" lon="5.32526">
        <ele>1022.98</ele>
        <time>2014-07-04T13:15:59Z</time>
      </trkpt>
      <trkpt lat="44.99211" lon="5.32527">
        <ele>1022.5</ele>
        <time>2014-07-04T13:16:09Z</time>
      </trkpt>
      <trkpt lat="44.99211" lon="5.32527">
        <ele>1023.46</ele>
        <time>2014-07-04T13:16:11Z</time>
      </trkpt>
      <trkpt lat="44.99212" lon="5.32528">
        <ele>1023.94</ele>
        <time>2014-07-04T13:16:43Z</time>
      </trkpt>
      <trkpt lat="44.99211" lon="5.32529">
        <ele>1022.5</ele>
        <time>2014-07-04T13:17:02Z</time>
      </trkpt>
      <trkpt lat="44.9921" lon="5.32529">
        <ele>1023.94</ele>
        <time>2014-07-04T13:17:27Z</time>
      </trkpt>
      <trkpt lat="44.99211" lon="5.32529">
        <ele>1020.58</ele>
        <time>2014-07-04T13:17:39Z</time>
      </trkpt>
      <trkpt lat="44.99211" lon="5.32529">
        <ele>1027.31</ele>
        <time>2014-07-04T13:17:40Z</time>
      </trkpt>
      <trkpt lat="44.99211" lon="5.32529">
        <ele>1023.94</ele>
        <time>2014-07-04T13:17:41Z</time>
      </trkpt>
      <trkpt lat="44.99211" lon="5.32529">
        <ele>1018.17</ele>
        <time>2014-07-04T13:17:47Z</time>
      </trkpt>
      <trkpt lat="44.99211" lon="5.32529">
        <ele>1027.79</ele>
        <time>2014-07-04T13:17:48Z</time>
      </trkpt>
      <trkpt lat="44.99211" lon="5.32529">
        <ele>1023.94</ele>
        <time>2014-07-04T13:17:50Z</time>
      </trkpt>
      <trkpt lat="44.99211" lon="5.32529">
        <ele>1023.94</ele>
        <time>2014-07-04T13:17:51Z</time>
      </trkpt>
      <trkpt lat="44.9921" lon="5.32528">
        <ele>1023.94</ele>
        <time>2014-07-04T13:18:16Z</time>
      </trkpt>
      <trkpt lat="44.99209" lon="5.32526">
        <ele>1024.42</ele>
        <time>2014-07-04T13:18:27Z</time>
      </trkpt>
      <trkpt lat="44.99209" lon="5.32525">
        <ele>1015.77</ele>
        <time>2014-07-04T13:18:32Z</time>
      </trkpt>
      <trkpt lat="44.9921" lon="5.32525">
        <ele>1022.98</ele>
        <time>2014-07-04T13:18:33Z</time>
      </trkpt>
      <trkpt lat="44.99209" lon="5.32525">
        <ele>1019.13</ele>
        <time>2014-07-04T13:18:34Z</time>
      </trkpt>
      <trkpt lat="44.9921" lon="5.32524">
        <ele>1024.42</ele>
        <time>2014-07-04T13:18:35Z</time>
      </trkpt>
      <trkpt lat="44.9921" lon="5.32524">
        <ele>1023.94</ele>
        <time>2014-07-04T13:18:39Z</time>
      </trkpt>
      <trkpt lat="44.99212" lon="5.32525">
        <ele>1028.75</ele>
        <time>2014-07-04T13:18:49Z</time>
      </trkpt>
      <trkpt lat="44.99212" lon="5.32525">
        <ele>1022.98</ele>
        <time>2014-07-04T13:18:50Z</time>
      </trkpt>
      <trkpt lat="44.99212" lon="5.32525">
        <ele>1029.23</ele>
        <time>2014-07-04T13:18:51Z</time>
      </trkpt>
      <trkpt lat="44.99212" lon="5.32525">
        <ele>1024.42</ele>
        <time>2014-07-04T13:18:52Z</time>
      </trkpt>
      <trkpt lat="44.99212" lon="5.32521">
        <ele>1023.46</ele>
        <time>2014-07-04T13:19:10Z</time>
      </trkpt>
      <trkpt lat="44.9921" lon="5.32522">
        <ele>1023.94</ele>
        <time>2014-07-04T13:19:34Z</time>
      </trkpt>
      <trkpt lat="44.99214" lon="5.32524">
        <ele>1023.94</ele>
        <time>2014-07-04T13:20:02Z</time>
      </trkpt>
      <trkpt lat="44.99214" lon="5.32523">
        <ele>1028.75</ele>
        <time>2014-07-04T13:20:15Z</time>
      </trkpt>
      <trkpt lat="44.99214" lon="5.32523">
        <ele>1024.42</ele>
        <time>2014-07-04T13:20:16Z</time>
      </trkpt>
      <trkpt lat="44.99215" lon="5.32523">
        <ele>1019.13</ele>
        <time>2014-07-04T13:20:20Z</time>
      </trkpt>
      <trkpt lat="44.99215" lon="5.32523">
        <ele>1026.34</ele>
        <time>2014-07-04T13:20:21Z</time>
      </trkpt>
      <trkpt lat="44.99217" lon="5.32523">
        <ele>1023.94</ele>
        <time>2014-07-04T13:20:53Z</time>
      </trkpt>
      <trkpt lat="44.99217" lon="5.32521">
        <ele>1024.42</ele>
        <time>2014-07-04T13:21:13Z</time>
      </trkpt>
      <trkpt lat="44.99219" lon="5.32523">
        <ele>1023.94</ele>
        <time>2014-07-04T13:21:16Z</time>
      </trkpt>
      <trkpt lat="44.99223" lon="5.32528">
        <ele>1023.46</ele>
        <time>2014-07-04T13:21:20Z</time>
      </trkpt>
      <trkpt lat="44.99224" lon="5.32529">
        <ele>1023.46</ele>
        <time>2014-07-04T13:21:21Z</time>
      </trkpt>
      <trkpt lat="44.99246" lon="5.32547">
        <ele>1021.06</ele>
        <time>2014-07-04T13:21:31Z</time>
      </trkpt>
      <trkpt lat="44.99251" lon="5.32551">
        <ele>1021.06</ele>
        <time>2014-07-04T13:21:32Z</time>
      </trkpt>
      <trkpt lat="44.99256" lon="5.32554">
        <ele>1021.06</ele>
        <time>2014-07-04T13:21:33Z</time>
      </trkpt>
      <trkpt lat="44.99288" lon="5.3258">
        <ele>1017.21</ele>
        <time>2014-07-04T13:21:38Z</time>
      </trkpt>
      <trkpt lat="44.99295" lon="5.32587">
        <ele>1017.21</ele>
        <time>2014-07-04T13:21:39Z</time>
      </trkpt>
      <trkpt lat="44.99302" lon="5.32595">
        <ele>1016.25</ele>
        <time>2014-07-04T13:21:40Z</time>
      </trkpt>
      <trkpt lat="44.99324" lon="5.3262">
        <ele>1013.85</ele>
        <time>2014-07-04T13:21:43Z</time>
      </trkpt>
      <trkpt lat="44.99333" lon="5.32626">
        <ele>1012.89</ele>
        <time>2014-07-04T13:21:44Z</time>
      </trkpt>
      <trkpt lat="44.99341" lon="5.32629">
        <ele>1012.41</ele>
        <time>2014-07-04T13:21:45Z</time>
      </trkpt>
      <trkpt lat="44.9935" lon="5.3263">
        <ele>1011.44</ele>
        <time>2014-07-04T13:21:46Z</time>
      </trkpt>
      <trkpt lat="44.99358" lon="5.3263">
        <ele>1010.96</ele>
        <time>2014-07-04T13:21:47Z</time>
      </trkpt>
      <trkpt lat="44.99367" lon="5.32629">
        <ele>1011.44</ele>
        <time>2014-07-04T13:21:48Z</time>
      </trkpt>
      <trkpt lat="44.99375" lon="5.3263">
        <ele>1009.52</ele>
        <time>2014-07-04T13:21:49Z</time>
      </trkpt>
      <trkpt lat="44.99384" lon="5.32634">
        <ele>1009.04</ele>
        <time>2014-07-04T13:21:50Z</time>
      </trkpt>
      <trkpt lat="44.99393" lon="5.32638">
        <ele>1008.56</ele>
        <time>2014-07-04T13:21:51Z</time>
      </trkpt>
      <trkpt lat="44.99402" lon="5.32645">
        <ele>1007.12</ele>
        <time>2014-07-04T13:21:52Z</time>
      </trkpt>
      <trkpt lat="44.9941" lon="5.32654">
        <ele>1006.16</ele>
        <time>2014-07-04T13:21:53Z</time>
      </trkpt>
      <trkpt lat="44.99418" lon="5.32663">
        <ele>1004.72</ele>
        <time>2014-07-04T13:21:54Z</time>
      </trkpt>
      <trkpt lat="44.99427" lon="5.32672">
        <ele>1004.72</ele>
        <time>2014-07-04T13:21:55Z</time>
      </trkpt>
      <trkpt lat="44.99436" lon="5.3268">
        <ele>1003.75</ele>
        <time>2014-07-04T13:21:56Z</time>
      </trkpt>
      <trkpt lat="44.99446" lon="5.32687">
        <ele>1002.79</ele>
        <time>2014-07-04T13:21:57Z</time>
      </trkpt>
      <trkpt lat="44.99456" lon="5.32692">
        <ele>1001.83</ele>
        <time>2014-07-04T13:21:58Z</time>
      </trkpt>
      <trkpt lat="44.99467" lon="5.32696">
        <ele>1001.35</ele>
        <time>2014-07-04T13:21:59Z</time>
      </trkpt>
      <trkpt lat="44.99489" lon="5.32709">
        <ele>999.43</ele>
        <time>2014-07-04T13:22:01Z</time>
      </trkpt>
      <trkpt lat="44.99498" lon="5.32718">
        <ele>998.95</ele>
        <time>2014-07-04T13:22:02Z</time>
      </trkpt>
      <trkpt lat="44.99505" lon="5.3273">
        <ele>997.99</ele>
        <time>2014-07-04T13:22:03Z</time>
      </trkpt>
      <trkpt lat="44.9951" lon="5.32745">
        <ele>997.51</ele>
        <time>2014-07-04T13:22:04Z</time>
      </trkpt>
      <trkpt lat="44.99512" lon="5.32758">
        <ele>997.02</ele>
        <time>2014-07-04T13:22:05Z</time>
      </trkpt>
      <trkpt lat="44.99515" lon="5.3277">
        <ele>997.99</ele>
        <time>2014-07-04T13:22:06Z</time>
      </trkpt>
      <trkpt lat="44.99519" lon="5.32781">
        <ele>997.51</ele>
        <time>2014-07-04T13:22:07Z</time>
      </trkpt>
      <trkpt lat="44.99524" lon="5.32791">
        <ele>997.51</ele>
        <time>2014-07-04T13:22:08Z</time>
      </trkpt>
      <trkpt lat="44.99532" lon="5.32797">
        <ele>997.02</ele>
        <time>2014-07-04T13:22:09Z</time>
      </trkpt>
      <trkpt lat="44.9954" lon="5.32801">
        <ele>996.54</ele>
        <time>2014-07-04T13:22:10Z</time>
      </trkpt>
      <trkpt lat="44.99549" lon="5.32803">
        <ele>995.58</ele>
        <time>2014-07-04T13:22:11Z</time>
      </trkpt>
      <trkpt lat="44.99558" lon="5.32803">
        <ele>996.06</ele>
        <time>2014-07-04T13:22:12Z</time>
      </trkpt>
      <trkpt lat="44.99567" lon="5.328">
        <ele>995.1</ele>
        <time>2014-07-04T13:22:13Z</time>
      </trkpt>
      <trkpt lat="44.99576" lon="5.32796">
        <ele>994.62</ele>
        <time>2014-07-04T13:22:14Z</time>
      </trkpt>
      <trkpt lat="44.99583" lon="5.32789">
        <ele>994.62</ele>
        <time>2014-07-04T13:22:15Z</time>
      </trkpt>
      <trkpt lat="44.9959" lon="5.32782">
        <ele>993.66</ele>
        <time>2014-07-04T13:22:16Z</time>
      </trkpt>
      <trkpt lat="44.99597" lon="5.32775">
        <ele>993.66</ele>
        <time>2014-07-04T13:22:17Z</time>
      </trkpt>
      <trkpt lat="44.99604" lon="5.3277">
        <ele>993.18</ele>
        <time>2014-07-04T13:22:18Z</time>
      </trkpt>
      <trkpt lat="44.99619" lon="5.32759">
        <ele>992.22</ele>
        <time>2014-07-04T13:22:20Z</time>
      </trkpt>
      <trkpt lat="44.99647" lon="5.32744">
        <ele>989.33</ele>
        <time>2014-07-04T13:22:23Z</time>
      </trkpt>
      <trkpt lat="44.99678" lon="5.32729">
        <ele>985.49</ele>
        <time>2014-07-04T13:22:26Z</time>
      </trkpt>
      <trkpt lat="44.99689" lon="5.32723">
        <ele>985.01</ele>
        <time>2014-07-04T13:22:27Z</time>
      </trkpt>
      <trkpt lat="44.997" lon="5.32718">
        <ele>982.6</ele>
        <time>2014-07-04T13:22:28Z</time>
      </trkpt>
      <trkpt lat="44.99712" lon="5.32715">
        <ele>982.6</ele>
        <time>2014-07-04T13:22:29Z</time>
      </trkpt>
      <trkpt lat="44.99724" lon="5.32712">
        <ele>981.64</ele>
        <time>2014-07-04T13:22:30Z</time>
      </trkpt>
      <trkpt lat="44.99748" lon="5.3271">
        <ele>978.76</ele>
        <time>2014-07-04T13:22:32Z</time>
      </trkpt>
      <trkpt lat="44.99761" lon="5.32712">
        <ele>977.32</ele>
        <time>2014-07-04T13:22:33Z</time>
      </trkpt>
      <trkpt lat="44.99774" lon="5.32716">
        <ele>976.84</ele>
        <time>2014-07-04T13:22:34Z</time>
      </trkpt>
      <trkpt lat="44.99786" lon="5.32719">
        <ele>975.39</ele>
        <time>2014-07-04T13:22:35Z</time>
      </trkpt>
      <trkpt lat="44.99799" lon="5.3272">
        <ele>974.91</ele>
        <time>2014-07-04T13:22:36Z</time>
      </trkpt>
      <trkpt lat="44.99812" lon="5.32718">
        <ele>973.47</ele>
        <time>2014-07-04T13:22:37Z</time>
      </trkpt>
      <trkpt lat="44.99825" lon="5.32715">
        <ele>971.55</ele>
        <time>2014-07-04T13:22:38Z</time>
      </trkpt>
      <trkpt lat="44.99837" lon="5.32714">
        <ele>971.07</ele>
        <time>2014-07-04T13:22:39Z</time>
      </trkpt>
      <trkpt lat="44.99848" lon="5.32717">
        <ele>970.59</ele>
        <time>2014-07-04T13:22:40Z</time>
      </trkpt>
      <trkpt lat="44.99857" lon="5.32722">
        <ele>970.59</ele>
        <time>2014-07-04T13:22:41Z</time>
      </trkpt>
      <trkpt lat="44.9987" lon="5.32733">
        <ele>970.11</ele>
        <time>2014-07-04T13:22:43Z</time>
      </trkpt>
      <trkpt lat="44.99875" lon="5.32733">
        <ele>970.11</ele>
        <time>2014-07-04T13:22:44Z</time>
      </trkpt>
      <trkpt lat="44.9988" lon="5.32729">
        <ele>970.11</ele>
        <time>2014-07-04T13:22:45Z</time>
      </trkpt>
      <trkpt lat="44.9988" lon="5.32722">
        <ele>969.15</ele>
        <time>2014-07-04T13:22:46Z</time>
      </trkpt>
      <trkpt lat="44.99877" lon="5.32716">
        <ele>969.15</ele>
        <time>2014-07-04T13:22:47Z</time>
      </trkpt>
      <trkpt lat="44.99872" lon="5.3271">
        <ele>968.67</ele>
        <time>2014-07-04T13:22:48Z</time>
      </trkpt>
      <trkpt lat="44.99861" lon="5.32697">
        <ele>967.7</ele>
        <time>2014-07-04T13:22:50Z</time>
      </trkpt>
      <trkpt lat="44.99838" lon="5.32671">
        <ele>966.26</ele>
        <time>2014-07-04T13:22:54Z</time>
      </trkpt>
      <trkpt lat="44.99826" lon="5.32657">
        <ele>965.3</ele>
        <time>2014-07-04T13:22:56Z</time>
      </trkpt>
      <trkpt lat="44.99806" lon="5.32632">
        <ele>961.94</ele>
        <time>2014-07-04T13:22:59Z</time>
      </trkpt>
      <trkpt lat="44.99799" lon="5.32621">
        <ele>960.98</ele>
        <time>2014-07-04T13:23:00Z</time>
      </trkpt>
      <trkpt lat="44.9978" lon="5.32586">
        <ele>959.05</ele>
        <time>2014-07-04T13:23:03Z</time>
      </trkpt>
      <trkpt lat="44.99764" lon="5.32565">
        <ele>957.13</ele>
        <time>2014-07-04T13:23:05Z</time>
      </trkpt>
      <trkpt lat="44.99756" lon="5.32553">
        <ele>955.69</ele>
        <time>2014-07-04T13:23:06Z</time>
      </trkpt>
      <trkpt lat="44.99749" lon="5.3254">
        <ele>955.69</ele>
        <time>2014-07-04T13:23:07Z</time>
      </trkpt>
      <trkpt lat="44.99734" lon="5.32495">
        <ele>952.8</ele>
        <time>2014-07-04T13:23:10Z</time>
      </trkpt>
      <trkpt lat="44.99728" lon="5.32481">
        <ele>951.84</ele>
        <time>2014-07-04T13:23:11Z</time>
      </trkpt>
      <trkpt lat="44.9972" lon="5.32467">
        <ele>951.36</ele>
        <time>2014-07-04T13:23:12Z</time>
      </trkpt>
      <trkpt lat="44.99706" lon="5.32441">
        <ele>949.44</ele>
        <time>2014-07-04T13:23:14Z</time>
      </trkpt>
      <trkpt lat="44.99698" lon="5.32431">
        <ele>948.48</ele>
        <time>2014-07-04T13:23:15Z</time>
      </trkpt>
      <trkpt lat="44.9969" lon="5.32422">
        <ele>948</ele>
        <time>2014-07-04T13:23:16Z</time>
      </trkpt>
      <trkpt lat="44.99683" lon="5.32415">
        <ele>947.52</ele>
        <time>2014-07-04T13:23:17Z</time>
      </trkpt>
      <trkpt lat="44.99677" lon="5.32407">
        <ele>947.52</ele>
        <time>2014-07-04T13:23:18Z</time>
      </trkpt>
      <trkpt lat="44.99672" lon="5.32399">
        <ele>946.56</ele>
        <time>2014-07-04T13:23:19Z</time>
      </trkpt>
      <trkpt lat="44.99668" lon="5.32391">
        <ele>946.07</ele>
        <time>2014-07-04T13:23:20Z</time>
      </trkpt>
      <trkpt lat="44.99662" lon="5.32379">
        <ele>945.59</ele>
        <time>2014-07-04T13:23:22Z</time>
      </trkpt>
      <trkpt lat="44.99651" lon="5.32346">
        <ele>943.67</ele>
        <time>2014-07-04T13:23:33Z</time>
      </trkpt>
      <trkpt lat="44.99651" lon="5.32328">
        <ele>942.23</ele>
        <time>2014-07-04T13:23:48Z</time>
      </trkpt>
      <trkpt lat="44.99651" lon="5.32325">
        <ele>940.31</ele>
        <time>2014-07-04T13:23:49Z</time>
      </trkpt>
      <trkpt lat="44.99652" lon="5.32321">
        <ele>941.75</ele>
        <time>2014-07-04T13:23:50Z</time>
      </trkpt>
      <trkpt lat="44.99662" lon="5.32292">
        <ele>939.83</ele>
        <time>2014-07-04T13:23:56Z</time>
      </trkpt>
      <trkpt lat="44.99666" lon="5.32287">
        <ele>939.83</ele>
        <time>2014-07-04T13:23:57Z</time>
      </trkpt>
      <trkpt lat="44.9967" lon="5.32284">
        <ele>938.86</ele>
        <time>2014-07-04T13:23:58Z</time>
      </trkpt>
      <trkpt lat="44.99711" lon="5.32263">
        <ele>935.5</ele>
        <time>2014-07-04T13:24:04Z</time>
      </trkpt>
      <trkpt lat="44.99719" lon="5.3226">
        <ele>935.5</ele>
        <time>2014-07-04T13:24:05Z</time>
      </trkpt>
      <trkpt lat="44.99766" lon="5.3224">
        <ele>932.14</ele>
        <time>2014-07-04T13:24:10Z</time>
      </trkpt>
      <trkpt lat="44.99808" lon="5.32219">
        <ele>927.81</ele>
        <time>2014-07-04T13:24:14Z</time>
      </trkpt>
      <trkpt lat="44.99853" lon="5.32209">
        <ele>923.96</ele>
        <time>2014-07-04T13:24:18Z</time>
      </trkpt>
      <trkpt lat="44.99876" lon="5.32206">
        <ele>923</ele>
        <time>2014-07-04T13:24:20Z</time>
      </trkpt>
      <trkpt lat="44.99888" lon="5.32201">
        <ele>921.56</ele>
        <time>2014-07-04T13:24:21Z</time>
      </trkpt>
      <trkpt lat="44.99935" lon="5.32176">
        <ele>919.16</ele>
        <time>2014-07-04T13:24:26Z</time>
      </trkpt>
      <trkpt lat="44.99942" lon="5.3217">
        <ele>918.68</ele>
        <time>2014-07-04T13:24:27Z</time>
      </trkpt>
      <trkpt lat="44.9996" lon="5.3215">
        <ele>916.27</ele>
        <time>2014-07-04T13:24:30Z</time>
      </trkpt>
      <trkpt lat="44.99968" lon="5.32138">
        <ele>913.87</ele>
        <time>2014-07-04T13:24:32Z</time>
      </trkpt>
      <trkpt lat="44.99973" lon="5.32124">
        <ele>912.91</ele>
        <time>2014-07-04T13:24:33Z</time>
      </trkpt>
      <trkpt lat="44.99977" lon="5.32112">
        <ele>912.43</ele>
        <time>2014-07-04T13:24:34Z</time>
      </trkpt>
      <trkpt lat="44.99981" lon="5.321">
        <ele>912.91</ele>
        <time>2014-07-04T13:24:35Z</time>
      </trkpt>
      <trkpt lat="44.99986" lon="5.32088">
        <ele>912.91</ele>
        <time>2014-07-04T13:24:36Z</time>
      </trkpt>
      <trkpt lat="44.9999" lon="5.32074">
        <ele>911.95</ele>
        <time>2014-07-04T13:24:37Z</time>
      </trkpt>
      <trkpt lat="45.00002" lon="5.32013">
        <ele>907.62</ele>
        <time>2014-07-04T13:24:41Z</time>
      </trkpt>
      <trkpt lat="45.00006" lon="5.31998">
        <ele>907.14</ele>
        <time>2014-07-04T13:24:42Z</time>
      </trkpt>
      <trkpt lat="45.00012" lon="5.31985">
        <ele>906.18</ele>
        <time>2014-07-04T13:24:43Z</time>
      </trkpt>
      <trkpt lat="45.00018" lon="5.31973">
        <ele>905.22</ele>
        <time>2014-07-04T13:24:44Z</time>
      </trkpt>
      <trkpt lat="45.00025" lon="5.31964">
        <ele>905.22</ele>
        <time>2014-07-04T13:24:45Z</time>
      </trkpt>
      <trkpt lat="45.00033" lon="5.31956">
        <ele>904.74</ele>
        <time>2014-07-04T13:24:46Z</time>
      </trkpt>
      <trkpt lat="45.0004" lon="5.31947">
        <ele>903.78</ele>
        <time>2014-07-04T13:24:47Z</time>
      </trkpt>
      <trkpt lat="45.00047" lon="5.31935">
        <ele>903.3</ele>
        <time>2014-07-04T13:24:48Z</time>
      </trkpt>
      <trkpt lat="45.00054" lon="5.31923">
        <ele>901.85</ele>
        <time>2014-07-04T13:24:49Z</time>
      </trkpt>
      <trkpt lat="45.00069" lon="5.31899">
        <ele>900.41</ele>
        <time>2014-07-04T13:24:51Z</time>
      </trkpt>
      <trkpt lat="45.00077" lon="5.31888">
        <ele>899.45</ele>
        <time>2014-07-04T13:24:52Z</time>
      </trkpt>
      <trkpt lat="45.00086" lon="5.31878">
        <ele>898.97</ele>
        <time>2014-07-04T13:24:53Z</time>
      </trkpt>
      <trkpt lat="45.00115" lon="5.31854">
        <ele>895.12</ele>
        <time>2014-07-04T13:24:56Z</time>
      </trkpt>
      <trkpt lat="45.00125" lon="5.31848">
        <ele>894.16</ele>
        <time>2014-07-04T13:24:57Z</time>
      </trkpt>
      <trkpt lat="45.00153" lon="5.31831">
        <ele>891.28</ele>
        <time>2014-07-04T13:25:00Z</time>
      </trkpt>
      <trkpt lat="45.00162" lon="5.31826">
        <ele>889.84</ele>
        <time>2014-07-04T13:25:01Z</time>
      </trkpt>
      <trkpt lat="45.00172" lon="5.31824">
        <ele>889.36</ele>
        <time>2014-07-04T13:25:02Z</time>
      </trkpt>
      <trkpt lat="45.00182" lon="5.31824">
        <ele>888.88</ele>
        <time>2014-07-04T13:25:03Z</time>
      </trkpt>
      <trkpt lat="45.00201" lon="5.31824">
        <ele>886.95</ele>
        <time>2014-07-04T13:25:05Z</time>
      </trkpt>
      <trkpt lat="45.0021" lon="5.31821">
        <ele>886.95</ele>
        <time>2014-07-04T13:25:06Z</time>
      </trkpt>
      <trkpt lat="45.00218" lon="5.31816">
        <ele>886.47</ele>
        <time>2014-07-04T13:25:07Z</time>
      </trkpt>
      <trkpt lat="45.00225" lon="5.31812">
        <ele>885.99</ele>
        <time>2014-07-04T13:25:08Z</time>
      </trkpt>
      <trkpt lat="45.00232" lon="5.31808">
        <ele>885.03</ele>
        <time>2014-07-04T13:25:09Z</time>
      </trkpt>
      <trkpt lat="45.00238" lon="5.31804">
        <ele>885.51</ele>
        <time>2014-07-04T13:25:10Z</time>
      </trkpt>
      <trkpt lat="45.00243" lon="5.31802">
        <ele>885.03</ele>
        <time>2014-07-04T13:25:11Z</time>
      </trkpt>
      <trkpt lat="45.00249" lon="5.31799">
        <ele>885.03</ele>
        <time>2014-07-04T13:25:12Z</time>
      </trkpt>
      <trkpt lat="45.00253" lon="5.31797">
        <ele>885.03</ele>
        <time>2014-07-04T13:25:13Z</time>
      </trkpt>
      <trkpt lat="45.00256" lon="5.31794">
        <ele>884.55</ele>
        <time>2014-07-04T13:25:14Z</time>
      </trkpt>
      <trkpt lat="45.00264" lon="5.31784">
        <ele>883.59</ele>
        <time>2014-07-04T13:25:24Z</time>
      </trkpt>
      <trkpt lat="45.00258" lon="5.31782">
        <ele>886.95</ele>
        <time>2014-07-04T13:25:43Z</time>
      </trkpt>
      <trkpt lat="45.00258" lon="5.31782">
        <ele>884.07</ele>
        <time>2014-07-04T13:25:44Z</time>
      </trkpt>
      <trkpt lat="45.00258" lon="5.31782">
        <ele>884.07</ele>
        <time>2014-07-04T13:25:45Z</time>
      </trkpt>
      <trkpt lat="45.00257" lon="5.31787">
        <ele>883.11</ele>
        <time>2014-07-04T13:26:01Z</time>
      </trkpt>
      <trkpt lat="45.00258" lon="5.31786">
        <ele>883.11</ele>
        <time>2014-07-04T13:26:26Z</time>
      </trkpt>
      <trkpt lat="45.00257" lon="5.31786">
        <ele>883.11</ele>
        <time>2014-07-04T13:26:31Z</time>
      </trkpt>
      <trkpt lat="45.00262" lon="5.31788">
        <ele>883.59</ele>
        <time>2014-07-04T13:26:34Z</time>
      </trkpt>
      <trkpt lat="45.00265" lon="5.31786">
        <ele>883.11</ele>
        <time>2014-07-04T13:26:37Z</time>
      </trkpt>
      <trkpt lat="45.00269" lon="5.31778">
        <ele>883.59</ele>
        <time>2014-07-04T13:26:41Z</time>
      </trkpt>
      <trkpt lat="45.00286" lon="5.31758">
        <ele>883.11</ele>
        <time>2014-07-04T13:26:49Z</time>
      </trkpt>
      <trkpt lat="45.00271" lon="5.31729">
        <ele>881.19</ele>
        <time>2014-07-04T13:26:56Z</time>
      </trkpt>
      <trkpt lat="45.00229" lon="5.31669">
        <ele>880.22</ele>
        <time>2014-07-04T13:27:09Z</time>
      </trkpt>
      <trkpt lat="45.00226" lon="5.31663">
        <ele>879.74</ele>
        <time>2014-07-04T13:27:10Z</time>
      </trkpt>
      <trkpt lat="45.00224" lon="5.31657">
        <ele>879.74</ele>
        <time>2014-07-04T13:27:11Z</time>
      </trkpt>
      <trkpt lat="45.00222" lon="5.31651">
        <ele>879.74</ele>
        <time>2014-07-04T13:27:12Z</time>
      </trkpt>
      <trkpt lat="45.00222" lon="5.31646">
        <ele>879.74</ele>
        <time>2014-07-04T13:27:13Z</time>
      </trkpt>
      <trkpt lat="45.00222" lon="5.31643">
        <ele>879.74</ele>
        <time>2014-07-04T13:27:14Z</time>
      </trkpt>
      <trkpt lat="45.00221" lon="5.3161">
        <ele>878.78</ele>
        <time>2014-07-04T13:27:21Z</time>
      </trkpt>
      <trkpt lat="45.00219" lon="5.31602">
        <ele>878.78</ele>
        <time>2014-07-04T13:27:22Z</time>
      </trkpt>
      <trkpt lat="45.00219" lon="5.31594">
        <ele>877.82</ele>
        <time>2014-07-04T13:27:23Z</time>
      </trkpt>
      <trkpt lat="45.0022" lon="5.31586">
        <ele>877.34</ele>
        <time>2014-07-04T13:27:24Z</time>
      </trkpt>
      <trkpt lat="45.00225" lon="5.31554">
        <ele>875.42</ele>
        <time>2014-07-04T13:27:30Z</time>
      </trkpt>
      <trkpt lat="45.00224" lon="5.31546">
        <ele>875.42</ele>
        <time>2014-07-04T13:27:31Z</time>
      </trkpt>
      <trkpt lat="45.00223" lon="5.31531">
        <ele>874.46</ele>
        <time>2014-07-04T13:27:33Z</time>
      </trkpt>
      <trkpt lat="45.00225" lon="5.31524">
        <ele>873.98</ele>
        <time>2014-07-04T13:27:34Z</time>
      </trkpt>
      <trkpt lat="45.00233" lon="5.31491">
        <ele>872.05</ele>
        <time>2014-07-04T13:27:38Z</time>
      </trkpt>
      <trkpt lat="45.00235" lon="5.31484">
        <ele>871.57</ele>
        <time>2014-07-04T13:27:39Z</time>
      </trkpt>
      <trkpt lat="45.00237" lon="5.31478">
        <ele>871.57</ele>
        <time>2014-07-04T13:27:40Z</time>
      </trkpt>
      <trkpt lat="45.00245" lon="5.31466">
        <ele>871.09</ele>
        <time>2014-07-04T13:27:42Z</time>
      </trkpt>
      <trkpt lat="45.00248" lon="5.31461">
        <ele>871.09</ele>
        <time>2014-07-04T13:27:43Z</time>
      </trkpt>
      <trkpt lat="45.00251" lon="5.3146">
        <ele>871.57</ele>
        <time>2014-07-04T13:27:44Z</time>
      </trkpt>
      <trkpt lat="45.00254" lon="5.3146">
        <ele>871.57</ele>
        <time>2014-07-04T13:27:45Z</time>
      </trkpt>
      <trkpt lat="45.00266" lon="5.31461">
        <ele>871.57</ele>
        <time>2014-07-04T13:27:48Z</time>
      </trkpt>
      <trkpt lat="45.00271" lon="5.31461">
        <ele>871.57</ele>
        <time>2014-07-04T13:27:49Z</time>
      </trkpt>
      <trkpt lat="45.00299" lon="5.31457">
        <ele>873.5</ele>
        <time>2014-07-04T13:27:57Z</time>
      </trkpt>
      <trkpt lat="45.003" lon="5.31458">
        <ele>873.5</ele>
        <time>2014-07-04T13:27:58Z</time>
      </trkpt>
      <trkpt lat="45.00302" lon="5.31459">
        <ele>873.01</ele>
        <time>2014-07-04T13:27:59Z</time>
      </trkpt>
      <trkpt lat="45.00303" lon="5.31461">
        <ele>872.53</ele>
        <time>2014-07-04T13:28:00Z</time>
      </trkpt>
      <trkpt lat="45.00304" lon="5.31463">
        <ele>873.01</ele>
        <time>2014-07-04T13:28:01Z</time>
      </trkpt>
      <trkpt lat="45.00306" lon="5.31466">
        <ele>872.53</ele>
        <time>2014-07-04T13:28:02Z</time>
      </trkpt>
      <trkpt lat="45.00315" lon="5.31495">
        <ele>870.61</ele>
        <time>2014-07-04T13:28:12Z</time>
      </trkpt>
      <trkpt lat="45.00317" lon="5.31498">
        <ele>870.13</ele>
        <time>2014-07-04T13:28:13Z</time>
      </trkpt>
      <trkpt lat="45.00319" lon="5.31501">
        <ele>870.13</ele>
        <time>2014-07-04T13:28:14Z</time>
      </trkpt>
      <trkpt lat="45.0032" lon="5.31503">
        <ele>870.13</ele>
        <time>2014-07-04T13:28:15Z</time>
      </trkpt>
      <trkpt lat="45.00321" lon="5.31505">
        <ele>870.13</ele>
        <time>2014-07-04T13:28:16Z</time>
      </trkpt>
      <trkpt lat="45.00323" lon="5.31509">
        <ele>869.65</ele>
        <time>2014-07-04T13:28:17Z</time>
      </trkpt>
      <trkpt lat="45.00324" lon="5.31513">
        <ele>869.17</ele>
        <time>2014-07-04T13:28:18Z</time>
      </trkpt>
      <trkpt lat="45.00325" lon="5.31517">
        <ele>869.65</ele>
        <time>2014-07-04T13:28:19Z</time>
      </trkpt>
      <trkpt lat="45.00326" lon="5.31522">
        <ele>868.69</ele>
        <time>2014-07-04T13:28:20Z</time>
      </trkpt>
      <trkpt lat="45.00328" lon="5.31528">
        <ele>869.17</ele>
        <time>2014-07-04T13:28:21Z</time>
      </trkpt>
      <trkpt lat="45.0033" lon="5.31532">
        <ele>868.69</ele>
        <time>2014-07-04T13:28:22Z</time>
      </trkpt>
      <trkpt lat="45.00334" lon="5.31543">
        <ele>869.17</ele>
        <time>2014-07-04T13:28:25Z</time>
      </trkpt>
      <trkpt lat="45.00334" lon="5.31547">
        <ele>869.17</ele>
        <time>2014-07-04T13:28:26Z</time>
      </trkpt>
      <trkpt lat="45.00334" lon="5.31551">
        <ele>869.17</ele>
        <time>2014-07-04T13:28:27Z</time>
      </trkpt>
      <trkpt lat="45.00344" lon="5.31574">
        <ele>869.17</ele>
        <time>2014-07-04T13:28:36Z</time>
      </trkpt>
      <trkpt lat="45.00346" lon="5.31578">
        <ele>869.65</ele>
        <time>2014-07-04T13:28:38Z</time>
      </trkpt>
      <trkpt lat="45.00353" lon="5.31592">
        <ele>870.13</ele>
        <time>2014-07-04T13:28:44Z</time>
      </trkpt>
      <trkpt lat="45.00365" lon="5.31621">
        <ele>870.13</ele>
        <time>2014-07-04T13:28:54Z</time>
      </trkpt>
      <trkpt lat="45.00369" lon="5.31633">
        <ele>870.61</ele>
        <time>2014-07-04T13:28:58Z</time>
      </trkpt>
      <trkpt lat="45.00371" lon="5.31636">
        <ele>870.61</ele>
        <time>2014-07-04T13:28:59Z</time>
      </trkpt>
      <trkpt lat="45.00372" lon="5.31638">
        <ele>871.09</ele>
        <time>2014-07-04T13:29:00Z</time>
      </trkpt>
      <trkpt lat="45.00373" lon="5.3164">
        <ele>871.09</ele>
        <time>2014-07-04T13:29:01Z</time>
      </trkpt>
      <trkpt lat="45.00374" lon="5.31642">
        <ele>871.57</ele>
        <time>2014-07-04T13:29:02Z</time>
      </trkpt>
      <trkpt lat="45.00375" lon="5.31645">
        <ele>871.09</ele>
        <time>2014-07-04T13:29:03Z</time>
      </trkpt>
      <trkpt lat="45.00376" lon="5.31647">
        <ele>871.57</ele>
        <time>2014-07-04T13:29:04Z</time>
      </trkpt>
      <trkpt lat="45.00377" lon="5.3165">
        <ele>872.05</ele>
        <time>2014-07-04T13:29:05Z</time>
      </trkpt>
      <trkpt lat="45.00378" lon="5.31652">
        <ele>871.57</ele>
        <time>2014-07-04T13:29:06Z</time>
      </trkpt>
      <trkpt lat="45.0038" lon="5.31655">
        <ele>872.05</ele>
        <time>2014-07-04T13:29:07Z</time>
      </trkpt>
      <trkpt lat="45.00381" lon="5.31657">
        <ele>871.57</ele>
        <time>2014-07-04T13:29:08Z</time>
      </trkpt>
      <trkpt lat="45.00382" lon="5.31659">
        <ele>871.57</ele>
        <time>2014-07-04T13:29:09Z</time>
      </trkpt>
      <trkpt lat="45.00383" lon="5.31661">
        <ele>871.57</ele>
        <time>2014-07-04T13:29:10Z</time>
      </trkpt>
      <trkpt lat="45.00384" lon="5.31664">
        <ele>871.57</ele>
        <time>2014-07-04T13:29:11Z</time>
      </trkpt>
      <trkpt lat="45.00385" lon="5.31666">
        <ele>872.05</ele>
        <time>2014-07-04T13:29:12Z</time>
      </trkpt>
      <trkpt lat="45.00386" lon="5.31668">
        <ele>872.05</ele>
        <time>2014-07-04T13:29:13Z</time>
      </trkpt>
      <trkpt lat="45.00388" lon="5.3167">
        <ele>872.05</ele>
        <time>2014-07-04T13:29:14Z</time>
      </trkpt>
      <trkpt lat="45.0039" lon="5.31672">
        <ele>872.05</ele>
        <time>2014-07-04T13:29:15Z</time>
      </trkpt>
      <trkpt lat="45.00391" lon="5.31675">
        <ele>872.05</ele>
        <time>2014-07-04T13:29:16Z</time>
      </trkpt>
      <trkpt lat="45.00391" lon="5.31677">
        <ele>872.53</ele>
        <time>2014-07-04T13:29:17Z</time>
      </trkpt>
      <trkpt lat="45.00395" lon="5.31686">
        <ele>872.05</ele>
        <time>2014-07-04T13:29:23Z</time>
      </trkpt>
      <trkpt lat="45.00396" lon="5.31688">
        <ele>872.53</ele>
        <time>2014-07-04T13:29:24Z</time>
      </trkpt>
      <trkpt lat="45.00397" lon="5.3169">
        <ele>872.53</ele>
        <time>2014-07-04T13:29:25Z</time>
      </trkpt>
      <trkpt lat="45.00397" lon="5.31693">
        <ele>872.53</ele>
        <time>2014-07-04T13:29:26Z</time>
      </trkpt>
      <trkpt lat="45.00398" lon="5.31696">
        <ele>872.53</ele>
        <time>2014-07-04T13:29:27Z</time>
      </trkpt>
      <trkpt lat="45.00399" lon="5.317">
        <ele>872.53</ele>
        <time>2014-07-04T13:29:28Z</time>
      </trkpt>
      <trkpt lat="45.00399" lon="5.31703">
        <ele>872.53</ele>
        <time>2014-07-04T13:29:29Z</time>
      </trkpt>
      <trkpt lat="45.00399" lon="5.31706">
        <ele>872.53</ele>
        <time>2014-07-04T13:29:30Z</time>
      </trkpt>
      <trkpt lat="45.00398" lon="5.31721">
        <ele>873.01</ele>
        <time>2014-07-04T13:29:34Z</time>
      </trkpt>
      <trkpt lat="45.00395" lon="5.31733">
        <ele>873.5</ele>
        <time>2014-07-04T13:29:38Z</time>
      </trkpt>
      <trkpt lat="45.00392" lon="5.31754">
        <ele>873.98</ele>
        <time>2014-07-04T13:29:47Z</time>
      </trkpt>
      <trkpt lat="45.00392" lon="5.31758">
        <ele>873.98</ele>
        <time>2014-07-04T13:29:49Z</time>
      </trkpt>
      <trkpt lat="45.00389" lon="5.31772">
        <ele>873.01</ele>
        <time>2014-07-04T13:29:52Z</time>
      </trkpt>
      <trkpt lat="45.00393" lon="5.31784">
        <ele>871.57</ele>
        <time>2014-07-04T13:29:55Z</time>
      </trkpt>
      <trkpt lat="45.00397" lon="5.31793">
        <ele>870.61</ele>
        <time>2014-07-04T13:29:57Z</time>
      </trkpt>
      <trkpt lat="45.00398" lon="5.31797">
        <ele>869.65</ele>
        <time>2014-07-04T13:29:58Z</time>
      </trkpt>
      <trkpt lat="45.00407" lon="5.31811">
        <ele>868.69</ele>
        <time>2014-07-04T13:30:02Z</time>
      </trkpt>
      <trkpt lat="45.00423" lon="5.3183">
        <ele>866.77</ele>
        <time>2014-07-04T13:30:09Z</time>
      </trkpt>
      <trkpt lat="45.00428" lon="5.31833">
        <ele>866.77</ele>
        <time>2014-07-04T13:30:25Z</time>
      </trkpt>
      <trkpt lat="45.00427" lon="5.31834">
        <ele>866.29</ele>
        <time>2014-07-04T13:30:30Z</time>
      </trkpt>
      <trkpt lat="45.00447" lon="5.31855">
        <ele>862.92</ele>
        <time>2014-07-04T13:30:38Z</time>
      </trkpt>
      <trkpt lat="45.00449" lon="5.31858">
        <ele>862.44</ele>
        <time>2014-07-04T13:30:39Z</time>
      </trkpt>
      <trkpt lat="45.0047" lon="5.31881">
        <ele>858.59</ele>
        <time>2014-07-04T13:30:48Z</time>
      </trkpt>
      <trkpt lat="45.00487" lon="5.31896">
        <ele>855.23</ele>
        <time>2014-07-04T13:30:54Z</time>
      </trkpt>
      <trkpt lat="45.00492" lon="5.31899">
        <ele>853.79</ele>
        <time>2014-07-04T13:30:55Z</time>
      </trkpt>
      <trkpt lat="45.0052" lon="5.31912">
        <ele>850.9</ele>
        <time>2014-07-04T13:31:03Z</time>
      </trkpt>
      <trkpt lat="45.00521" lon="5.31913">
        <ele>850.42</ele>
        <time>2014-07-04T13:31:04Z</time>
      </trkpt>
      <trkpt lat="45.00522" lon="5.31915">
        <ele>850.42</ele>
        <time>2014-07-04T13:31:05Z</time>
      </trkpt>
      <trkpt lat="45.00523" lon="5.31916">
        <ele>850.42</ele>
        <time>2014-07-04T13:31:15Z</time>
      </trkpt>
      <trkpt lat="45.00523" lon="5.31915">
        <ele>849.46</ele>
        <time>2014-07-04T13:31:39Z</time>
      </trkpt>
      <trkpt lat="45.00524" lon="5.31918">
        <ele>849.94</ele>
        <time>2014-07-04T13:32:02Z</time>
      </trkpt>
      <trkpt lat="45.00523" lon="5.31921">
        <ele>849.46</ele>
        <time>2014-07-04T13:32:21Z</time>
      </trkpt>
      <trkpt lat="45.00525" lon="5.31922">
        <ele>849.46</ele>
        <time>2014-07-04T13:32:35Z</time>
      </trkpt>
      <trkpt lat="45.00527" lon="5.31924">
        <ele>848.02</ele>
        <time>2014-07-04T13:32:53Z</time>
      </trkpt>
      <trkpt lat="45.00532" lon="5.31927">
        <ele>846.58</ele>
        <time>2014-07-04T13:33:02Z</time>
      </trkpt>
      <trkpt lat="45.00533" lon="5.31927">
        <ele>846.58</ele>
        <time>2014-07-04T13:33:03Z</time>
      </trkpt>
      <trkpt lat="45.00534" lon="5.31936">
        <ele>843.21</ele>
        <time>2014-07-04T13:33:17Z</time>
      </trkpt>
      <trkpt lat="45.00535" lon="5.31937">
        <ele>843.21</ele>
        <time>2014-07-04T13:33:18Z</time>
      </trkpt>
      <trkpt lat="45.00532" lon="5.31944">
        <ele>842.73</ele>
        <time>2014-07-04T13:33:24Z</time>
      </trkpt>
      <trkpt lat="45.00529" lon="5.31947">
        <ele>843.21</ele>
        <time>2014-07-04T13:33:29Z</time>
      </trkpt>
      <trkpt lat="45.00527" lon="5.31947">
        <ele>843.21</ele>
        <time>2014-07-04T13:33:31Z</time>
      </trkpt>
      <trkpt lat="45.00521" lon="5.31948">
        <ele>843.21</ele>
        <time>2014-07-04T13:33:37Z</time>
      </trkpt>
      <trkpt lat="45.00516" lon="5.31952">
        <ele>843.69</ele>
        <time>2014-07-04T13:33:43Z</time>
      </trkpt>
      <trkpt lat="45.00516" lon="5.31956">
        <ele>843.21</ele>
        <time>2014-07-04T13:34:00Z</time>
      </trkpt>
      <trkpt lat="45.00518" lon="5.31955">
        <ele>843.69</ele>
        <time>2014-07-04T13:34:35Z</time>
      </trkpt>
      <trkpt lat="45.00518" lon="5.31956">
        <ele>844.18</ele>
        <time>2014-07-04T13:35:11Z</time>
      </trkpt>
      <trkpt lat="45.00517" lon="5.31956">
        <ele>844.18</ele>
        <time>2014-07-04T13:35:29Z</time>
      </trkpt>
      <trkpt lat="45.00515" lon="5.31961">
        <ele>844.18</ele>
        <time>2014-07-04T13:35:44Z</time>
      </trkpt>
      <trkpt lat="45.0051" lon="5.31973">
        <ele>842.73</ele>
        <time>2014-07-04T13:35:50Z</time>
      </trkpt>
      <trkpt lat="45.00505" lon="5.31988">
        <ele>839.85</ele>
        <time>2014-07-04T13:35:56Z</time>
      </trkpt>
      <trkpt lat="45.00503" lon="5.31993">
        <ele>839.85</ele>
        <time>2014-07-04T13:35:59Z</time>
      </trkpt>
      <trkpt lat="45.00492" lon="5.32022">
        <ele>836.48</ele>
        <time>2014-07-04T13:36:08Z</time>
      </trkpt>
      <trkpt lat="45.0049" lon="5.32042">
        <ele>835.04</ele>
        <time>2014-07-04T13:36:19Z</time>
      </trkpt>
      <trkpt lat="45.00491" lon="5.32045">
        <ele>834.56</ele>
        <time>2014-07-04T13:36:40Z</time>
      </trkpt>
      <trkpt lat="45.00492" lon="5.32047">
        <ele>834.56</ele>
        <time>2014-07-04T13:36:47Z</time>
      </trkpt>
      <trkpt lat="45.00495" lon="5.32045">
        <ele>833.12</ele>
        <time>2014-07-04T13:36:50Z</time>
      </trkpt>
      <trkpt lat="45.00501" lon="5.32045">
        <ele>832.16</ele>
        <time>2014-07-04T13:36:54Z</time>
      </trkpt>
      <trkpt lat="45.00502" lon="5.32045">
        <ele>831.68</ele>
        <time>2014-07-04T13:36:55Z</time>
      </trkpt>
      <trkpt lat="45.00508" lon="5.32045">
        <ele>830.24</ele>
        <time>2014-07-04T13:36:59Z</time>
      </trkpt>
      <trkpt lat="45.00518" lon="5.32051">
        <ele>827.35</ele>
        <time>2014-07-04T13:37:06Z</time>
      </trkpt>
      <trkpt lat="45.00521" lon="5.32048">
        <ele>826.39</ele>
        <time>2014-07-04T13:37:08Z</time>
      </trkpt>
      <trkpt lat="45.00525" lon="5.32046">
        <ele>825.91</ele>
        <time>2014-07-04T13:37:09Z</time>
      </trkpt>
      <trkpt lat="45.00534" lon="5.32037">
        <ele>824.47</ele>
        <time>2014-07-04T13:37:12Z</time>
      </trkpt>
      <trkpt lat="45.00538" lon="5.32031">
        <ele>823.99</ele>
        <time>2014-07-04T13:37:13Z</time>
      </trkpt>
      <trkpt lat="45.00544" lon="5.32021">
        <ele>823.03</ele>
        <time>2014-07-04T13:37:15Z</time>
      </trkpt>
      <trkpt lat="45.00554" lon="5.32011">
        <ele>822.55</ele>
        <time>2014-07-04T13:37:17Z</time>
      </trkpt>
      <trkpt lat="45.00558" lon="5.32008">
        <ele>821.58</ele>
        <time>2014-07-04T13:37:18Z</time>
      </trkpt>
      <trkpt lat="45.00562" lon="5.32008">
        <ele>821.58</ele>
        <time>2014-07-04T13:37:19Z</time>
      </trkpt>
      <trkpt lat="45.00565" lon="5.32009">
        <ele>821.1</ele>
        <time>2014-07-04T13:37:20Z</time>
      </trkpt>
      <trkpt lat="45.00569" lon="5.32012">
        <ele>820.62</ele>
        <time>2014-07-04T13:37:21Z</time>
      </trkpt>
      <trkpt lat="45.00573" lon="5.32015">
        <ele>819.66</ele>
        <time>2014-07-04T13:37:22Z</time>
      </trkpt>
      <trkpt lat="45.00577" lon="5.32018">
        <ele>819.66</ele>
        <time>2014-07-04T13:37:23Z</time>
      </trkpt>
      <trkpt lat="45.00581" lon="5.32023">
        <ele>818.7</ele>
        <time>2014-07-04T13:37:24Z</time>
      </trkpt>
      <trkpt lat="45.00585" lon="5.32029">
        <ele>819.18</ele>
        <time>2014-07-04T13:37:25Z</time>
      </trkpt>
      <trkpt lat="45.00588" lon="5.32033">
        <ele>818.7</ele>
        <time>2014-07-04T13:37:26Z</time>
      </trkpt>
      <trkpt lat="45.00591" lon="5.32036">
        <ele>818.7</ele>
        <time>2014-07-04T13:37:27Z</time>
      </trkpt>
      <trkpt lat="45.00595" lon="5.32038">
        <ele>818.7</ele>
        <time>2014-07-04T13:37:28Z</time>
      </trkpt>
      <trkpt lat="45.00605" lon="5.32046">
        <ele>816.78</ele>
        <time>2014-07-04T13:37:32Z</time>
      </trkpt>
      <trkpt lat="45.0061" lon="5.3205">
        <ele>816.3</ele>
        <time>2014-07-04T13:37:34Z</time>
      </trkpt>
      <trkpt lat="45.00625" lon="5.32053">
        <ele>812.45</ele>
        <time>2014-07-04T13:37:39Z</time>
      </trkpt>
      <trkpt lat="45.00641" lon="5.32055">
        <ele>811.01</ele>
        <time>2014-07-04T13:37:44Z</time>
      </trkpt>
      <trkpt lat="45.00662" lon="5.32065">
        <ele>808.13</ele>
        <time>2014-07-04T13:37:52Z</time>
      </trkpt>
      <trkpt lat="45.00674" lon="5.32076">
        <ele>806.2</ele>
        <time>2014-07-04T13:37:56Z</time>
      </trkpt>
      <trkpt lat="45.00681" lon="5.32084">
        <ele>804.76</ele>
        <time>2014-07-04T13:37:59Z</time>
      </trkpt>
      <trkpt lat="45.00685" lon="5.32089">
        <ele>804.28</ele>
        <time>2014-07-04T13:38:01Z</time>
      </trkpt>
      <trkpt lat="45.00692" lon="5.32092">
        <ele>803.8</ele>
        <time>2014-07-04T13:38:03Z</time>
      </trkpt>
      <trkpt lat="45.00725" lon="5.32093">
        <ele>799.95</ele>
        <time>2014-07-04T13:38:10Z</time>
      </trkpt>
      <trkpt lat="45.00756" lon="5.32091">
        <ele>797.07</ele>
        <time>2014-07-04T13:38:19Z</time>
      </trkpt>
      <trkpt lat="45.0077" lon="5.32089">
        <ele>795.63</ele>
        <time>2014-07-04T13:38:28Z</time>
      </trkpt>
      <trkpt lat="45.00782" lon="5.32086">
        <ele>794.67</ele>
        <time>2014-07-04T13:38:41Z</time>
      </trkpt>
      <trkpt lat="45.00798" lon="5.32086">
        <ele>792.74</ele>
        <time>2014-07-04T13:38:44Z</time>
      </trkpt>
      <trkpt lat="45.00802" lon="5.32086">
        <ele>792.74</ele>
        <time>2014-07-04T13:38:45Z</time>
      </trkpt>
      <trkpt lat="45.00807" lon="5.32087">
        <ele>791.78</ele>
        <time>2014-07-04T13:38:46Z</time>
      </trkpt>
      <trkpt lat="45.00841" lon="5.32074">
        <ele>790.82</ele>
        <time>2014-07-04T13:38:56Z</time>
      </trkpt>
      <trkpt lat="45.00836" lon="5.32069">
        <ele>790.82</ele>
        <time>2014-07-04T13:39:05Z</time>
      </trkpt>
      <trkpt lat="45.00836" lon="5.32069">
        <ele>790.34</ele>
        <time>2014-07-04T13:39:20Z</time>
      </trkpt>
      <trkpt lat="45.00851" lon="5.32065">
        <ele>789.86</ele>
        <time>2014-07-04T13:39:31Z</time>
      </trkpt>
      <trkpt lat="45.00884" lon="5.32053">
        <ele>788.42</ele>
        <time>2014-07-04T13:39:43Z</time>
      </trkpt>
      <trkpt lat="45.00895" lon="5.32048">
        <ele>787.46</ele>
        <time>2014-07-04T13:39:52Z</time>
      </trkpt>
      <trkpt lat="45.00914" lon="5.32037">
        <ele>784.09</ele>
        <time>2014-07-04T13:40:01Z</time>
      </trkpt>
      <trkpt lat="45.00924" lon="5.32028">
        <ele>781.69</ele>
        <time>2014-07-04T13:40:04Z</time>
      </trkpt>
      <trkpt lat="45.00929" lon="5.32025">
        <ele>780.73</ele>
        <time>2014-07-04T13:40:05Z</time>
      </trkpt>
      <trkpt lat="45.00942" lon="5.32014">
        <ele>779.29</ele>
        <time>2014-07-04T13:40:08Z</time>
      </trkpt>
      <trkpt lat="45.00954" lon="5.3201">
        <ele>777.36</ele>
        <time>2014-07-04T13:40:12Z</time>
      </trkpt>
      <trkpt lat="45.0097" lon="5.31997">
        <ele>774</ele>
        <time>2014-07-04T13:40:17Z</time>
      </trkpt>
      <trkpt lat="45.00986" lon="5.31981">
        <ele>771.11</ele>
        <time>2014-07-04T13:40:21Z</time>
      </trkpt>
      <trkpt lat="45.00991" lon="5.31978">
        <ele>770.63</ele>
        <time>2014-07-04T13:40:22Z</time>
      </trkpt>
      <trkpt lat="45.01004" lon="5.31948">
        <ele>767.75</ele>
        <time>2014-07-04T13:40:29Z</time>
      </trkpt>
      <trkpt lat="45.01026" lon="5.31939">
        <ele>765.35</ele>
        <time>2014-07-04T13:40:38Z</time>
      </trkpt>
      <trkpt lat="45.01022" lon="5.31923">
        <ele>763.9</ele>
        <time>2014-07-04T13:40:47Z</time>
      </trkpt>
      <trkpt lat="45.00995" lon="5.31903">
        <ele>765.35</ele>
        <time>2014-07-04T13:41:08Z</time>
      </trkpt>
      <trkpt lat="45.00992" lon="5.31898">
        <ele>765.35</ele>
        <time>2014-07-04T13:41:23Z</time>
      </trkpt>
      <trkpt lat="45.0099" lon="5.31896">
        <ele>763.9</ele>
        <time>2014-07-04T13:41:40Z</time>
      </trkpt>
      <trkpt lat="45.00989" lon="5.31893">
        <ele>764.39</ele>
        <time>2014-07-04T13:41:56Z</time>
      </trkpt>
      <trkpt lat="45.00994" lon="5.31882">
        <ele>761.98</ele>
        <time>2014-07-04T13:42:01Z</time>
      </trkpt>
      <trkpt lat="45.00993" lon="5.31865">
        <ele>759.1</ele>
        <time>2014-07-04T13:42:07Z</time>
      </trkpt>
      <trkpt lat="45.00994" lon="5.31864">
        <ele>759.1</ele>
        <time>2014-07-04T13:42:08Z</time>
      </trkpt>
      <trkpt lat="45.00987" lon="5.31851">
        <ele>758.14</ele>
        <time>2014-07-04T13:42:13Z</time>
      </trkpt>
      <trkpt lat="45.00977" lon="5.31839">
        <ele>756.21</ele>
        <time>2014-07-04T13:42:18Z</time>
      </trkpt>
      <trkpt lat="45.00974" lon="5.31833">
        <ele>755.25</ele>
        <time>2014-07-04T13:42:34Z</time>
      </trkpt>
      <trkpt lat="45.00972" lon="5.31833">
        <ele>756.21</ele>
        <time>2014-07-04T13:42:57Z</time>
      </trkpt>
      <trkpt lat="45.0097" lon="5.31831">
        <ele>756.69</ele>
        <time>2014-07-04T13:43:12Z</time>
      </trkpt>
      <trkpt lat="45.00968" lon="5.31823">
        <ele>754.77</ele>
        <time>2014-07-04T13:43:31Z</time>
      </trkpt>
      <trkpt lat="45.00957" lon="5.31789">
        <ele>750.93</ele>
        <time>2014-07-04T13:43:41Z</time>
      </trkpt>
      <trkpt lat="45.00956" lon="5.31787">
        <ele>750.45</ele>
        <time>2014-07-04T13:43:42Z</time>
      </trkpt>
      <trkpt lat="45.00953" lon="5.3178">
        <ele>750.45</ele>
        <time>2014-07-04T13:43:53Z</time>
      </trkpt>
      <trkpt lat="45.00951" lon="5.31775">
        <ele>749.49</ele>
        <time>2014-07-04T13:44:01Z</time>
      </trkpt>
      <trkpt lat="45.00948" lon="5.31765">
        <ele>748.04</ele>
        <time>2014-07-04T13:44:13Z</time>
      </trkpt>
      <trkpt lat="45.00949" lon="5.3176">
        <ele>746.12</ele>
        <time>2014-07-04T13:44:25Z</time>
      </trkpt>
      <trkpt lat="45.00947" lon="5.31758">
        <ele>745.64</ele>
        <time>2014-07-04T13:44:34Z</time>
      </trkpt>
      <trkpt lat="45.00946" lon="5.3175">
        <ele>744.2</ele>
        <time>2014-07-04T13:44:47Z</time>
      </trkpt>
      <trkpt lat="45.00946" lon="5.31749">
        <ele>744.2</ele>
        <time>2014-07-04T13:44:49Z</time>
      </trkpt>
      <trkpt lat="45.00947" lon="5.31745">
        <ele>743.24</ele>
        <time>2014-07-04T13:44:51Z</time>
      </trkpt>
      <trkpt lat="45.00947" lon="5.31744">
        <ele>742.76</ele>
        <time>2014-07-04T13:44:52Z</time>
      </trkpt>
      <trkpt lat="45.00949" lon="5.31737">
        <ele>741.79</ele>
        <time>2014-07-04T13:45:01Z</time>
      </trkpt>
      <trkpt lat="45.00951" lon="5.31736">
        <ele>741.31</ele>
        <time>2014-07-04T13:45:06Z</time>
      </trkpt>
      <trkpt lat="45.00949" lon="5.31721">
        <ele>739.39</ele>
        <time>2014-07-04T13:45:10Z</time>
      </trkpt>
      <trkpt lat="45.00945" lon="5.31706">
        <ele>737.47</ele>
        <time>2014-07-04T13:45:17Z</time>
      </trkpt>
      <trkpt lat="45.00944" lon="5.31695">
        <ele>735.55</ele>
        <time>2014-07-04T13:45:21Z</time>
      </trkpt>
      <trkpt lat="45.00935" lon="5.31678">
        <ele>731.7</ele>
        <time>2014-07-04T13:45:28Z</time>
      </trkpt>
      <trkpt lat="45.00932" lon="5.31662">
        <ele>728.82</ele>
        <time>2014-07-04T13:45:35Z</time>
      </trkpt>
      <trkpt lat="45.0093" lon="5.3166">
        <ele>727.86</ele>
        <time>2014-07-04T13:45:37Z</time>
      </trkpt>
      <trkpt lat="45.00928" lon="5.31653">
        <ele>726.41</ele>
        <time>2014-07-04T13:45:41Z</time>
      </trkpt>
      <trkpt lat="45.00928" lon="5.3165">
        <ele>725.45</ele>
        <time>2014-07-04T13:45:42Z</time>
      </trkpt>
      <trkpt lat="45.00933" lon="5.3164">
        <ele>722.57</ele>
        <time>2014-07-04T13:45:46Z</time>
      </trkpt>
      <trkpt lat="45.00935" lon="5.31626">
        <ele>719.2</ele>
        <time>2014-07-04T13:45:51Z</time>
      </trkpt>
      <trkpt lat="45.00929" lon="5.3162">
        <ele>717.76</ele>
        <time>2014-07-04T13:45:54Z</time>
      </trkpt>
      <trkpt lat="45.00926" lon="5.31614">
        <ele>716.32</ele>
        <time>2014-07-04T13:45:56Z</time>
      </trkpt>
      <trkpt lat="45.00918" lon="5.31597">
        <ele>712.95</ele>
        <time>2014-07-04T13:46:02Z</time>
      </trkpt>
      <trkpt lat="45.00912" lon="5.31585">
        <ele>711.03</ele>
        <time>2014-07-04T13:46:06Z</time>
      </trkpt>
      <trkpt lat="45.0091" lon="5.31562">
        <ele>707.67</ele>
        <time>2014-07-04T13:46:12Z</time>
      </trkpt>
      <trkpt lat="45.00911" lon="5.31547">
        <ele>704.78</ele>
        <time>2014-07-04T13:46:17Z</time>
      </trkpt>
      <trkpt lat="45.00892" lon="5.31513">
        <ele>702.86</ele>
        <time>2014-07-04T13:46:26Z</time>
      </trkpt>
      <trkpt lat="45.00873" lon="5.31497">
        <ele>699.98</ele>
        <time>2014-07-04T13:46:38Z</time>
      </trkpt>
      <trkpt lat="45.00863" lon="5.31478">
        <ele>697.57</ele>
        <time>2014-07-04T13:46:49Z</time>
      </trkpt>
      <trkpt lat="45.00844" lon="5.31462">
        <ele>696.61</ele>
        <time>2014-07-04T13:47:02Z</time>
      </trkpt>
      <trkpt lat="45.00841" lon="5.31458">
        <ele>695.17</ele>
        <time>2014-07-04T13:47:05Z</time>
      </trkpt>
      <trkpt lat="45.00837" lon="5.31448">
        <ele>693.73</ele>
        <time>2014-07-04T13:47:09Z</time>
      </trkpt>
      <trkpt lat="45.00834" lon="5.31423">
        <ele>690.84</ele>
        <time>2014-07-04T13:47:16Z</time>
      </trkpt>
      <trkpt lat="45.0084" lon="5.31402">
        <ele>687.48</ele>
        <time>2014-07-04T13:47:22Z</time>
      </trkpt>
      <trkpt lat="45.00843" lon="5.31381">
        <ele>684.6</ele>
        <time>2014-07-04T13:47:27Z</time>
      </trkpt>
      <trkpt lat="45.00845" lon="5.31354">
        <ele>681.23</ele>
        <time>2014-07-04T13:47:35Z</time>
      </trkpt>
      <trkpt lat="45.0084" lon="5.31328">
        <ele>678.35</ele>
        <time>2014-07-04T13:47:42Z</time>
      </trkpt>
      <trkpt lat="45.0084" lon="5.31325">
        <ele>677.39</ele>
        <time>2014-07-04T13:47:43Z</time>
      </trkpt>
      <trkpt lat="45.00834" lon="5.31303">
        <ele>674.5</ele>
        <time>2014-07-04T13:47:50Z</time>
      </trkpt>
      <trkpt lat="45.00831" lon="5.31289">
        <ele>672.1</ele>
        <time>2014-07-04T13:47:55Z</time>
      </trkpt>
      <trkpt lat="45.00832" lon="5.31285">
        <ele>671.62</ele>
        <time>2014-07-04T13:47:57Z</time>
      </trkpt>
      <trkpt lat="45.00833" lon="5.31284">
        <ele>671.14</ele>
        <time>2014-07-04T13:47:58Z</time>
      </trkpt>
      <trkpt lat="45.00834" lon="5.31284">
        <ele>671.14</ele>
        <time>2014-07-04T13:47:59Z</time>
      </trkpt>
      <trkpt lat="45.00828" lon="5.31284">
        <ele>670.18</ele>
        <time>2014-07-04T13:48:13Z</time>
      </trkpt>
      <trkpt lat="45.00826" lon="5.31284">
        <ele>670.66</ele>
        <time>2014-07-04T13:48:22Z</time>
      </trkpt>
      <trkpt lat="45.00824" lon="5.31294">
        <ele>669.22</ele>
        <time>2014-07-04T13:48:27Z</time>
      </trkpt>
      <trkpt lat="45.00827" lon="5.31303">
        <ele>667.29</ele>
        <time>2014-07-04T13:48:30Z</time>
      </trkpt>
      <trkpt lat="45.00829" lon="5.31312">
        <ele>665.37</ele>
        <time>2014-07-04T13:48:33Z</time>
      </trkpt>
      <trkpt lat="45.00828" lon="5.31335">
        <ele>662.01</ele>
        <time>2014-07-04T13:48:38Z</time>
      </trkpt>
      <trkpt lat="45.00833" lon="5.31348">
        <ele>662.01</ele>
        <time>2014-07-04T13:48:41Z</time>
      </trkpt>
      <trkpt lat="45.00836" lon="5.31351">
        <ele>661.04</ele>
        <time>2014-07-04T13:48:43Z</time>
      </trkpt>
      <trkpt lat="45.00838" lon="5.31348">
        <ele>658.16</ele>
        <time>2014-07-04T13:48:50Z</time>
      </trkpt>
      <trkpt lat="45.00838" lon="5.31343">
        <ele>657.68</ele>
        <time>2014-07-04T13:48:51Z</time>
      </trkpt>
      <trkpt lat="45.00839" lon="5.31315">
        <ele>654.8</ele>
        <time>2014-07-04T13:48:56Z</time>
      </trkpt>
      <trkpt lat="45.00837" lon="5.31307">
        <ele>652.87</ele>
        <time>2014-07-04T13:48:59Z</time>
      </trkpt>
      <trkpt lat="45.00837" lon="5.31297">
        <ele>651.43</ele>
        <time>2014-07-04T13:49:02Z</time>
      </trkpt>
      <trkpt lat="45.00839" lon="5.31277">
        <ele>649.03</ele>
        <time>2014-07-04T13:49:05Z</time>
      </trkpt>
      <trkpt lat="45.0084" lon="5.3127">
        <ele>647.59</ele>
        <time>2014-07-04T13:49:06Z</time>
      </trkpt>
      <trkpt lat="45.00843" lon="5.31248">
        <ele>645.66</ele>
        <time>2014-07-04T13:49:09Z</time>
      </trkpt>
      <trkpt lat="45.00846" lon="5.31237">
        <ele>643.74</ele>
        <time>2014-07-04T13:49:11Z</time>
      </trkpt>
      <trkpt lat="45.00849" lon="5.31223">
        <ele>642.3</ele>
        <time>2014-07-04T13:49:13Z</time>
      </trkpt>
      <trkpt lat="45.00852" lon="5.31195">
        <ele>638.93</ele>
        <time>2014-07-04T13:49:16Z</time>
      </trkpt>
      <trkpt lat="45.00853" lon="5.31168">
        <ele>635.57</ele>
        <time>2014-07-04T13:49:21Z</time>
      </trkpt>
      <trkpt lat="45.00854" lon="5.31145">
        <ele>632.2</ele>
        <time>2014-07-04T13:49:25Z</time>
      </trkpt>
      <trkpt lat="45.00857" lon="5.31124">
        <ele>628.84</ele>
        <time>2014-07-04T13:49:27Z</time>
      </trkpt>
      <trkpt lat="45.00857" lon="5.3112">
        <ele>628.84</ele>
        <time>2014-07-04T13:49:28Z</time>
      </trkpt>
      <trkpt lat="45.00857" lon="5.31092">
        <ele>625.47</ele>
        <time>2014-07-04T13:49:33Z</time>
      </trkpt>
      <trkpt lat="45.00858" lon="5.31066">
        <ele>623.07</ele>
        <time>2014-07-04T13:49:37Z</time>
      </trkpt>
      <trkpt lat="45.00854" lon="5.31038">
        <ele>619.71</ele>
        <time>2014-07-04T13:49:43Z</time>
      </trkpt>
      <trkpt lat="45.00851" lon="5.31028">
        <ele>618.75</ele>
        <time>2014-07-04T13:49:46Z</time>
      </trkpt>
      <trkpt lat="45.00848" lon="5.31022">
        <ele>617.78</ele>
        <time>2014-07-04T13:49:48Z</time>
      </trkpt>
      <trkpt lat="45.00844" lon="5.31016">
        <ele>617.78</ele>
        <time>2014-07-04T13:49:49Z</time>
      </trkpt>
      <trkpt lat="45.00842" lon="5.31013">
        <ele>617.3</ele>
        <time>2014-07-04T13:49:50Z</time>
      </trkpt>
      <trkpt lat="45.0084" lon="5.31015">
        <ele>616.34</ele>
        <time>2014-07-04T13:49:52Z</time>
      </trkpt>
      <trkpt lat="45.00846" lon="5.31034">
        <ele>613.94</ele>
        <time>2014-07-04T13:49:57Z</time>
      </trkpt>
      <trkpt lat="45.00849" lon="5.31038">
        <ele>613.46</ele>
        <time>2014-07-04T13:49:58Z</time>
      </trkpt>
      <trkpt lat="45.00858" lon="5.31051">
        <ele>611.54</ele>
        <time>2014-07-04T13:50:02Z</time>
      </trkpt>
      <trkpt lat="45.00862" lon="5.31059">
        <ele>610.09</ele>
        <time>2014-07-04T13:50:05Z</time>
      </trkpt>
      <trkpt lat="45.00876" lon="5.31077">
        <ele>606.73</ele>
        <time>2014-07-04T13:50:11Z</time>
      </trkpt>
      <trkpt lat="45.00883" lon="5.31087">
        <ele>604.81</ele>
        <time>2014-07-04T13:50:13Z</time>
      </trkpt>
      <trkpt lat="45.00887" lon="5.31092">
        <ele>604.81</ele>
        <time>2014-07-04T13:50:14Z</time>
      </trkpt>
      <trkpt lat="45.00906" lon="5.31114">
        <ele>602.88</ele>
        <time>2014-07-04T13:50:18Z</time>
      </trkpt>
      <trkpt lat="45.00919" lon="5.31133">
        <ele>600</ele>
        <time>2014-07-04T13:50:26Z</time>
      </trkpt>
      <trkpt lat="45.0092" lon="5.31134">
        <ele>600</ele>
        <time>2014-07-04T13:50:27Z</time>
      </trkpt>
      <trkpt lat="45.00922" lon="5.31134">
        <ele>599.52</ele>
        <time>2014-07-04T13:50:28Z</time>
      </trkpt>
      <trkpt lat="45.00923" lon="5.31133">
        <ele>599.04</ele>
        <time>2014-07-04T13:50:29Z</time>
      </trkpt>
      <trkpt lat="45.00927" lon="5.31126">
        <ele>598.08</ele>
        <time>2014-07-04T13:50:32Z</time>
      </trkpt>
      <trkpt lat="45.00931" lon="5.31114">
        <ele>595.67</ele>
        <time>2014-07-04T13:50:34Z</time>
      </trkpt>
      <trkpt lat="45.00934" lon="5.31103">
        <ele>593.75</ele>
        <time>2014-07-04T13:50:37Z</time>
      </trkpt>
      <trkpt lat="45.0094" lon="5.31078">
        <ele>590.39</ele>
        <time>2014-07-04T13:50:43Z</time>
      </trkpt>
      <trkpt lat="45.00938" lon="5.31048">
        <ele>587.02</ele>
        <time>2014-07-04T13:50:49Z</time>
      </trkpt>
      <trkpt lat="45.00938" lon="5.31043">
        <ele>586.54</ele>
        <time>2014-07-04T13:50:50Z</time>
      </trkpt>
      <trkpt lat="45.00939" lon="5.31037">
        <ele>586.06</ele>
        <time>2014-07-04T13:50:51Z</time>
      </trkpt>
      <trkpt lat="45.0094" lon="5.31025">
        <ele>584.62</ele>
        <time>2014-07-04T13:50:53Z</time>
      </trkpt>
      <trkpt lat="45.00939" lon="5.31019">
        <ele>584.14</ele>
        <time>2014-07-04T13:50:54Z</time>
      </trkpt>
      <trkpt lat="45.00939" lon="5.30984">
        <ele>580.77</ele>
        <time>2014-07-04T13:50:59Z</time>
      </trkpt>
      <trkpt lat="45.00909" lon="5.30939">
        <ele>577.89</ele>
        <time>2014-07-04T13:51:08Z</time>
      </trkpt>
      <trkpt lat="45.00897" lon="5.30901">
        <ele>575.01</ele>
        <time>2014-07-04T13:51:15Z</time>
      </trkpt>
      <trkpt lat="45.00894" lon="5.30889">
        <ele>574.04</ele>
        <time>2014-07-04T13:51:17Z</time>
      </trkpt>
      <trkpt lat="45.00895" lon="5.30864">
        <ele>571.64</ele>
        <time>2014-07-04T13:51:21Z</time>
      </trkpt>
      <trkpt lat="45.00898" lon="5.30834">
        <ele>568.28</ele>
        <time>2014-07-04T13:51:24Z</time>
      </trkpt>
      <trkpt lat="45.00903" lon="5.30798">
        <ele>565.87</ele>
        <time>2014-07-04T13:51:27Z</time>
      </trkpt>
      <trkpt lat="45.00906" lon="5.30763">
        <ele>564.43</ele>
        <time>2014-07-04T13:51:30Z</time>
      </trkpt>
      <trkpt lat="45.0091" lon="5.30753">
        <ele>563.47</ele>
        <time>2014-07-04T13:51:31Z</time>
      </trkpt>
      <trkpt lat="45.00914" lon="5.30744">
        <ele>563.47</ele>
        <time>2014-07-04T13:51:32Z</time>
      </trkpt>
      <trkpt lat="45.00934" lon="5.30696">
        <ele>560.11</ele>
        <time>2014-07-04T13:51:37Z</time>
      </trkpt>
      <trkpt lat="45.00935" lon="5.30687">
        <ele>559.62</ele>
        <time>2014-07-04T13:51:38Z</time>
      </trkpt>
      <trkpt lat="45.00935" lon="5.30676">
        <ele>558.66</ele>
        <time>2014-07-04T13:51:39Z</time>
      </trkpt>
      <trkpt lat="45.00934" lon="5.30666">
        <ele>558.18</ele>
        <time>2014-07-04T13:51:40Z</time>
      </trkpt>
      <trkpt lat="45.00931" lon="5.30657">
        <ele>558.66</ele>
        <time>2014-07-04T13:51:41Z</time>
      </trkpt>
      <trkpt lat="45.00927" lon="5.30651">
        <ele>558.18</ele>
        <time>2014-07-04T13:51:42Z</time>
      </trkpt>
      <trkpt lat="45.00922" lon="5.30647">
        <ele>558.18</ele>
        <time>2014-07-04T13:51:43Z</time>
      </trkpt>
      <trkpt lat="45.00916" lon="5.30644">
        <ele>557.7</ele>
        <time>2014-07-04T13:51:44Z</time>
      </trkpt>
      <trkpt lat="45.00911" lon="5.30642">
        <ele>557.22</ele>
        <time>2014-07-04T13:51:45Z</time>
      </trkpt>
      <trkpt lat="45.00905" lon="5.30641">
        <ele>557.22</ele>
        <time>2014-07-04T13:51:46Z</time>
      </trkpt>
      <trkpt lat="45.009" lon="5.30641">
        <ele>556.74</ele>
        <time>2014-07-04T13:51:47Z</time>
      </trkpt>
      <trkpt lat="45.00894" lon="5.30643">
        <ele>556.26</ele>
        <time>2014-07-04T13:51:48Z</time>
      </trkpt>
      <trkpt lat="45.00888" lon="5.30645">
        <ele>555.78</ele>
        <time>2014-07-04T13:51:49Z</time>
      </trkpt>
      <trkpt lat="45.00882" lon="5.30647">
        <ele>555.3</ele>
        <time>2014-07-04T13:51:50Z</time>
      </trkpt>
      <trkpt lat="45.00876" lon="5.3065">
        <ele>554.82</ele>
        <time>2014-07-04T13:51:51Z</time>
      </trkpt>
      <trkpt lat="45.00854" lon="5.30663">
        <ele>551.45</ele>
        <time>2014-07-04T13:51:55Z</time>
      </trkpt>
      <trkpt lat="45.0085" lon="5.30667">
        <ele>550.49</ele>
        <time>2014-07-04T13:51:56Z</time>
      </trkpt>
      <trkpt lat="45.00846" lon="5.30672">
        <ele>550.49</ele>
        <time>2014-07-04T13:51:57Z</time>
      </trkpt>
      <trkpt lat="45.00835" lon="5.30689">
        <ele>547.61</ele>
        <time>2014-07-04T13:52:00Z</time>
      </trkpt>
      <trkpt lat="45.00829" lon="5.30693">
        <ele>546.17</ele>
        <time>2014-07-04T13:52:01Z</time>
      </trkpt>
      <trkpt lat="45.00822" lon="5.30696">
        <ele>545.69</ele>
        <time>2014-07-04T13:52:02Z</time>
      </trkpt>
      <trkpt lat="45.00815" lon="5.30699">
        <ele>543.76</ele>
        <time>2014-07-04T13:52:03Z</time>
      </trkpt>
      <trkpt lat="45.00808" lon="5.30701">
        <ele>542.8</ele>
        <time>2014-07-04T13:52:04Z</time>
      </trkpt>
      <trkpt lat="45.00787" lon="5.30706">
        <ele>539.92</ele>
        <time>2014-07-04T13:52:07Z</time>
      </trkpt>
      <trkpt lat="45.00776" lon="5.30708">
        <ele>537.51</ele>
        <time>2014-07-04T13:52:09Z</time>
      </trkpt>
      <trkpt lat="45.00751" lon="5.30704">
        <ele>534.15</ele>
        <time>2014-07-04T13:52:12Z</time>
      </trkpt>
      <trkpt lat="45.00735" lon="5.30701">
        <ele>531.27</ele>
        <time>2014-07-04T13:52:14Z</time>
      </trkpt>
      <trkpt lat="45.00726" lon="5.30698">
        <ele>529.34</ele>
        <time>2014-07-04T13:52:15Z</time>
      </trkpt>
      <trkpt lat="45.00718" lon="5.30695">
        <ele>528.86</ele>
        <time>2014-07-04T13:52:16Z</time>
      </trkpt>
      <trkpt lat="45.00685" lon="5.30687">
        <ele>525.5</ele>
        <time>2014-07-04T13:52:20Z</time>
      </trkpt>
      <trkpt lat="45.00662" lon="5.30678">
        <ele>521.65</ele>
        <time>2014-07-04T13:52:23Z</time>
      </trkpt>
      <trkpt lat="45.00647" lon="5.30669">
        <ele>519.25</ele>
        <time>2014-07-04T13:52:25Z</time>
      </trkpt>
      <trkpt lat="45.0064" lon="5.30662">
        <ele>516.85</ele>
        <time>2014-07-04T13:52:26Z</time>
      </trkpt>
      <trkpt lat="45.00633" lon="5.30655">
        <ele>515.4</ele>
        <time>2014-07-04T13:52:27Z</time>
      </trkpt>
      <trkpt lat="45.00625" lon="5.30651">
        <ele>513.96</ele>
        <time>2014-07-04T13:52:28Z</time>
      </trkpt>
      <trkpt lat="45.00602" lon="5.30638">
        <ele>510.6</ele>
        <time>2014-07-04T13:52:31Z</time>
      </trkpt>
      <trkpt lat="45.00591" lon="5.30629">
        <ele>510.12</ele>
        <time>2014-07-04T13:52:32Z</time>
      </trkpt>
      <trkpt lat="45.00572" lon="5.30613">
        <ele>507.71</ele>
        <time>2014-07-04T13:52:34Z</time>
      </trkpt>
      <trkpt lat="45.00538" lon="5.30591">
        <ele>504.83</ele>
        <time>2014-07-04T13:52:37Z</time>
      </trkpt>
      <trkpt lat="45.00527" lon="5.30586">
        <ele>504.35</ele>
        <time>2014-07-04T13:52:38Z</time>
      </trkpt>
      <trkpt lat="45.0048" lon="5.30565">
        <ele>500.98</ele>
        <time>2014-07-04T13:52:42Z</time>
      </trkpt>
      <trkpt lat="45.00464" lon="5.30556">
        <ele>500.02</ele>
        <time>2014-07-04T13:52:43Z</time>
      </trkpt>
      <trkpt lat="45.00452" lon="5.30543">
        <ele>499.06</ele>
        <time>2014-07-04T13:52:44Z</time>
      </trkpt>
      <trkpt lat="45.00441" lon="5.3053">
        <ele>497.62</ele>
        <time>2014-07-04T13:52:45Z</time>
      </trkpt>
      <trkpt lat="45.00431" lon="5.30516">
        <ele>497.14</ele>
        <time>2014-07-04T13:52:46Z</time>
      </trkpt>
      <trkpt lat="45.00415" lon="5.30501">
        <ele>495.7</ele>
        <time>2014-07-04T13:52:47Z</time>
      </trkpt>
      <trkpt lat="45.00365" lon="5.3046">
        <ele>492.33</ele>
        <time>2014-07-04T13:52:50Z</time>
      </trkpt>
      <trkpt lat="45.00347" lon="5.30435">
        <ele>491.85</ele>
        <time>2014-07-04T13:52:52Z</time>
      </trkpt>
      <trkpt lat="45.00356" lon="5.30427">
        <ele>490.89</ele>
        <time>2014-07-04T13:52:53Z</time>
      </trkpt>
      <trkpt lat="45.00364" lon="5.3042">
        <ele>489.93</ele>
        <time>2014-07-04T13:52:54Z</time>
      </trkpt>
      <trkpt lat="45.00369" lon="5.30413">
        <ele>488.97</ele>
        <time>2014-07-04T13:52:55Z</time>
      </trkpt>
      <trkpt lat="45.00369" lon="5.30406">
        <ele>488.01</ele>
        <time>2014-07-04T13:52:56Z</time>
      </trkpt>
      <trkpt lat="45.00369" lon="5.30399">
        <ele>486.56</ele>
        <time>2014-07-04T13:52:57Z</time>
      </trkpt>
      <trkpt lat="45.00368" lon="5.30392">
        <ele>486.08</ele>
        <time>2014-07-04T13:52:58Z</time>
      </trkpt>
      <trkpt lat="45.00364" lon="5.30358">
        <ele>483.68</ele>
        <time>2014-07-04T13:53:02Z</time>
      </trkpt>
      <trkpt lat="45.00371" lon="5.30339">
        <ele>480.32</ele>
        <time>2014-07-04T13:53:06Z</time>
      </trkpt>
      <trkpt lat="45.00376" lon="5.30336">
        <ele>479.35</ele>
        <time>2014-07-04T13:53:07Z</time>
      </trkpt>
      <trkpt lat="45.00384" lon="5.30332">
        <ele>477.91</ele>
        <time>2014-07-04T13:53:08Z</time>
      </trkpt>
      <trkpt lat="45.00391" lon="5.30329">
        <ele>476.47</ele>
        <time>2014-07-04T13:53:09Z</time>
      </trkpt>
      <trkpt lat="45.00399" lon="5.30325">
        <ele>475.03</ele>
        <time>2014-07-04T13:53:10Z</time>
      </trkpt>
      <trkpt lat="45.00408" lon="5.30323">
        <ele>474.55</ele>
        <time>2014-07-04T13:53:11Z</time>
      </trkpt>
      <trkpt lat="45.00418" lon="5.30322">
        <ele>474.55</ele>
        <time>2014-07-04T13:53:12Z</time>
      </trkpt>
      <trkpt lat="45.00427" lon="5.30319">
        <ele>473.59</ele>
        <time>2014-07-04T13:53:13Z</time>
      </trkpt>
      <trkpt lat="45.00435" lon="5.30315">
        <ele>472.63</ele>
        <time>2014-07-04T13:53:14Z</time>
      </trkpt>
      <trkpt lat="45.00442" lon="5.3031">
        <ele>472.14</ele>
        <time>2014-07-04T13:53:15Z</time>
      </trkpt>
      <trkpt lat="45.00449" lon="5.30302">
        <ele>471.18</ele>
        <time>2014-07-04T13:53:16Z</time>
      </trkpt>
      <trkpt lat="45.00456" lon="5.30292">
        <ele>469.26</ele>
        <time>2014-07-04T13:53:17Z</time>
      </trkpt>
      <trkpt lat="45.00461" lon="5.30281">
        <ele>468.3</ele>
        <time>2014-07-04T13:53:18Z</time>
      </trkpt>
      <trkpt lat="45.00466" lon="5.30269">
        <ele>467.34</ele>
        <time>2014-07-04T13:53:19Z</time>
      </trkpt>
      <trkpt lat="45.0047" lon="5.30256">
        <ele>466.86</ele>
        <time>2014-07-04T13:53:20Z</time>
      </trkpt>
      <trkpt lat="45.00474" lon="5.30244">
        <ele>466.38</ele>
        <time>2014-07-04T13:53:21Z</time>
      </trkpt>
      <trkpt lat="45.00478" lon="5.30221">
        <ele>465.9</ele>
        <time>2014-07-04T13:53:23Z</time>
      </trkpt>
      <trkpt lat="45.0048" lon="5.30209">
        <ele>464.45</ele>
        <time>2014-07-04T13:53:24Z</time>
      </trkpt>
      <trkpt lat="45.0048" lon="5.30171">
        <ele>461.09</ele>
        <time>2014-07-04T13:53:27Z</time>
      </trkpt>
      <trkpt lat="45.00479" lon="5.30144">
        <ele>458.21</ele>
        <time>2014-07-04T13:53:29Z</time>
      </trkpt>
      <trkpt lat="45.00482" lon="5.30119">
        <ele>456.28</ele>
        <time>2014-07-04T13:53:31Z</time>
      </trkpt>
      <trkpt lat="45.00547" lon="5.30087">
        <ele>453.4</ele>
        <time>2014-07-04T13:53:35Z</time>
      </trkpt>
      <trkpt lat="45.00595" lon="5.30075">
        <ele>451.48</ele>
        <time>2014-07-04T13:53:37Z</time>
      </trkpt>
      <trkpt lat="45.00597" lon="5.30063">
        <ele>450.03</ele>
        <time>2014-07-04T13:53:38Z</time>
      </trkpt>
      <trkpt lat="45.00599" lon="5.30057">
        <ele>449.07</ele>
        <time>2014-07-04T13:53:39Z</time>
      </trkpt>
      <trkpt lat="45.00603" lon="5.30038">
        <ele>448.11</ele>
        <time>2014-07-04T13:53:40Z</time>
      </trkpt>
      <trkpt lat="45.00605" lon="5.30011">
        <ele>445.23</ele>
        <time>2014-07-04T13:53:42Z</time>
      </trkpt>
      <trkpt lat="45.00607" lon="5.29984">
        <ele>441.86</ele>
        <time>2014-07-04T13:53:44Z</time>
      </trkpt>
      <trkpt lat="45.00605" lon="5.29956">
        <ele>439.94</ele>
        <time>2014-07-04T13:53:46Z</time>
      </trkpt>
      <trkpt lat="45.00601" lon="5.29918">
        <ele>438.02</ele>
        <time>2014-07-04T13:53:49Z</time>
      </trkpt>
      <trkpt lat="45.00597" lon="5.29889">
        <ele>436.1</ele>
        <time>2014-07-04T13:53:52Z</time>
      </trkpt>
      <trkpt lat="45.00587" lon="5.29844">
        <ele>432.73</ele>
        <time>2014-07-04T13:53:57Z</time>
      </trkpt>
      <trkpt lat="45.00588" lon="5.29838">
        <ele>433.21</ele>
        <time>2014-07-04T13:53:58Z</time>
      </trkpt>
      <trkpt lat="45.00607" lon="5.29818">
        <ele>433.21</ele>
        <time>2014-07-04T13:54:06Z</time>
      </trkpt>
      <trkpt lat="45.00621" lon="5.29816">
        <ele>432.73</ele>
        <time>2014-07-04T13:54:30Z</time>
      </trkpt>
      <trkpt lat="45.00618" lon="5.29815">
        <ele>433.21</ele>
        <time>2014-07-04T13:54:51Z</time>
      </trkpt>
      <trkpt lat="45.00618" lon="5.29814">
        <ele>433.21</ele>
        <time>2014-07-04T13:55:16Z</time>
      </trkpt>
      <trkpt lat="45.00619" lon="5.29814">
        <ele>433.69</ele>
        <time>2014-07-04T13:55:18Z</time>
      </trkpt>
      <trkpt lat="45.00622" lon="5.29813">
        <ele>433.21</ele>
        <time>2014-07-04T13:55:20Z</time>
      </trkpt>
      <trkpt lat="45.00624" lon="5.29815">
        <ele>432.73</ele>
        <time>2014-07-04T13:55:21Z</time>
      </trkpt>
      <trkpt lat="45.00626" lon="5.29818">
        <ele>432.73</ele>
        <time>2014-07-04T13:55:22Z</time>
      </trkpt>
      <trkpt lat="45.00629" lon="5.29822">
        <ele>432.25</ele>
        <time>2014-07-04T13:55:23Z</time>
      </trkpt>
      <trkpt lat="45.00631" lon="5.29827">
        <ele>431.77</ele>
        <time>2014-07-04T13:55:24Z</time>
      </trkpt>
      <trkpt lat="45.00633" lon="5.29833">
        <ele>430.81</ele>
        <time>2014-07-04T13:55:25Z</time>
      </trkpt>
      <trkpt lat="45.00642" lon="5.29845">
        <ele>429.85</ele>
        <time>2014-07-04T13:55:27Z</time>
      </trkpt>
      <trkpt lat="45.00673" lon="5.29875">
        <ele>426.96</ele>
        <time>2014-07-04T13:55:32Z</time>
      </trkpt>
      <trkpt lat="45.00679" lon="5.29884">
        <ele>426</ele>
        <time>2014-07-04T13:55:33Z</time>
      </trkpt>
      <trkpt lat="45.00686" lon="5.29893">
        <ele>424.56</ele>
        <time>2014-07-04T13:55:34Z</time>
      </trkpt>
      <trkpt lat="45.00713" lon="5.29937">
        <ele>421.68</ele>
        <time>2014-07-04T13:55:38Z</time>
      </trkpt>
      <trkpt lat="45.00722" lon="5.29948">
        <ele>420.71</ele>
        <time>2014-07-04T13:55:39Z</time>
      </trkpt>
      <trkpt lat="45.00729" lon="5.29958">
        <ele>419.75</ele>
        <time>2014-07-04T13:55:40Z</time>
      </trkpt>
      <trkpt lat="45.00755" lon="5.30002">
        <ele>417.35</ele>
        <time>2014-07-04T13:55:44Z</time>
      </trkpt>
      <trkpt lat="45.00769" lon="5.3003">
        <ele>415.43</ele>
        <time>2014-07-04T13:55:47Z</time>
      </trkpt>
      <trkpt lat="45.00778" lon="5.30055">
        <ele>413.98</ele>
        <time>2014-07-04T13:55:50Z</time>
      </trkpt>
      <trkpt lat="45.00779" lon="5.30064">
        <ele>413.5</ele>
        <time>2014-07-04T13:55:51Z</time>
      </trkpt>
      <trkpt lat="45.00782" lon="5.30082">
        <ele>413.02</ele>
        <time>2014-07-04T13:55:53Z</time>
      </trkpt>
      <trkpt lat="45.00784" lon="5.30089">
        <ele>413.02</ele>
        <time>2014-07-04T13:55:54Z</time>
      </trkpt>
      <trkpt lat="45.00791" lon="5.30088">
        <ele>412.06</ele>
        <time>2014-07-04T13:55:56Z</time>
      </trkpt>
      <trkpt lat="45.00794" lon="5.30084">
        <ele>411.58</ele>
        <time>2014-07-04T13:55:57Z</time>
      </trkpt>
      <trkpt lat="45.00797" lon="5.30078">
        <ele>411.1</ele>
        <time>2014-07-04T13:55:58Z</time>
      </trkpt>
      <trkpt lat="45.008" lon="5.3007">
        <ele>411.1</ele>
        <time>2014-07-04T13:55:59Z</time>
      </trkpt>
      <trkpt lat="45.00802" lon="5.30062">
        <ele>410.62</ele>
        <time>2014-07-04T13:56:00Z</time>
      </trkpt>
      <trkpt lat="45.00804" lon="5.30053">
        <ele>410.14</ele>
        <time>2014-07-04T13:56:01Z</time>
      </trkpt>
      <trkpt lat="45.00804" lon="5.30045">
        <ele>409.18</ele>
        <time>2014-07-04T13:56:02Z</time>
      </trkpt>
      <trkpt lat="45.00807" lon="5.30026">
        <ele>407.74</ele>
        <time>2014-07-04T13:56:04Z</time>
      </trkpt>
      <trkpt lat="45.00805" lon="5.29965">
        <ele>404.85</ele>
        <time>2014-07-04T13:56:09Z</time>
      </trkpt>
      <trkpt lat="45.00805" lon="5.29933">
        <ele>402.45</ele>
        <time>2014-07-04T13:56:11Z</time>
      </trkpt>
      <trkpt lat="45.00803" lon="5.29884">
        <ele>399.08</ele>
        <time>2014-07-04T13:56:15Z</time>
      </trkpt>
      <trkpt lat="45.008" lon="5.29864">
        <ele>398.6</ele>
        <time>2014-07-04T13:56:16Z</time>
      </trkpt>
      <trkpt lat="45.00789" lon="5.2983">
        <ele>395.72</ele>
        <time>2014-07-04T13:56:18Z</time>
      </trkpt>
      <trkpt lat="45.0076" lon="5.29776">
        <ele>392.36</ele>
        <time>2014-07-04T13:56:22Z</time>
      </trkpt>
      <trkpt lat="45.00741" lon="5.2973">
        <ele>388.03</ele>
        <time>2014-07-04T13:56:25Z</time>
      </trkpt>
      <trkpt lat="45.00713" lon="5.29667">
        <ele>384.66</ele>
        <time>2014-07-04T13:56:29Z</time>
      </trkpt>
      <trkpt lat="45.00687" lon="5.29613">
        <ele>381.78</ele>
        <time>2014-07-04T13:56:33Z</time>
      </trkpt>
      <trkpt lat="45.00678" lon="5.29559">
        <ele>378.9</ele>
        <time>2014-07-04T13:56:37Z</time>
      </trkpt>
      <trkpt lat="45.00676" lon="5.29518">
        <ele>376.01</ele>
        <time>2014-07-04T13:56:40Z</time>
      </trkpt>
      <trkpt lat="45.00678" lon="5.29505">
        <ele>375.05</ele>
        <time>2014-07-04T13:56:41Z</time>
      </trkpt>
      <trkpt lat="45.0068" lon="5.29492">
        <ele>374.57</ele>
        <time>2014-07-04T13:56:42Z</time>
      </trkpt>
      <trkpt lat="45.00697" lon="5.29441">
        <ele>371.21</ele>
        <time>2014-07-04T13:56:46Z</time>
      </trkpt>
      <trkpt lat="45.00716" lon="5.29385">
        <ele>368.32</ele>
        <time>2014-07-04T13:56:50Z</time>
      </trkpt>
      <trkpt lat="45.00716" lon="5.29341">
        <ele>364.96</ele>
        <time>2014-07-04T13:56:54Z</time>
      </trkpt>
      <trkpt lat="45.00717" lon="5.2933">
        <ele>363.52</ele>
        <time>2014-07-04T13:56:55Z</time>
      </trkpt>
      <trkpt lat="45.00721" lon="5.2932">
        <ele>362.55</ele>
        <time>2014-07-04T13:56:56Z</time>
      </trkpt>
      <trkpt lat="45.00727" lon="5.29311">
        <ele>361.59</ele>
        <time>2014-07-04T13:56:57Z</time>
      </trkpt>
      <trkpt lat="45.00735" lon="5.29302">
        <ele>360.63</ele>
        <time>2014-07-04T13:56:58Z</time>
      </trkpt>
      <trkpt lat="45.00743" lon="5.29297">
        <ele>359.67</ele>
        <time>2014-07-04T13:56:59Z</time>
      </trkpt>
      <trkpt lat="45.00781" lon="5.2927">
        <ele>355.83</ele>
        <time>2014-07-04T13:57:04Z</time>
      </trkpt>
      <trkpt lat="45.00812" lon="5.29245">
        <ele>351.5</ele>
        <time>2014-07-04T13:57:08Z</time>
      </trkpt>
      <trkpt lat="45.0083" lon="5.29233">
        <ele>350.06</ele>
        <time>2014-07-04T13:57:10Z</time>
      </trkpt>
      <trkpt lat="45.00863" lon="5.29208">
        <ele>345.73</ele>
        <time>2014-07-04T13:57:14Z</time>
      </trkpt>
      <trkpt lat="45.0087" lon="5.29203">
        <ele>345.73</ele>
        <time>2014-07-04T13:57:15Z</time>
      </trkpt>
      <trkpt lat="45.00899" lon="5.29179">
        <ele>342.37</ele>
        <time>2014-07-04T13:57:19Z</time>
      </trkpt>
      <trkpt lat="45.00934" lon="5.29156">
        <ele>338.04</ele>
        <time>2014-07-04T13:57:23Z</time>
      </trkpt>
      <trkpt lat="45.00944" lon="5.2915">
        <ele>338.04</ele>
        <time>2014-07-04T13:57:24Z</time>
      </trkpt>
      <trkpt lat="45.00983" lon="5.29121">
        <ele>334.68</ele>
        <time>2014-07-04T13:57:28Z</time>
      </trkpt>
      <trkpt lat="45.01014" lon="5.29099">
        <ele>332.27</ele>
        <time>2014-07-04T13:57:31Z</time>
      </trkpt>
      <trkpt lat="45.01036" lon="5.29083">
        <ele>328.91</ele>
        <time>2014-07-04T13:57:33Z</time>
      </trkpt>
      <trkpt lat="45.01068" lon="5.29061">
        <ele>326.5</ele>
        <time>2014-07-04T13:57:36Z</time>
      </trkpt>
      <trkpt lat="45.011" lon="5.29046">
        <ele>323.14</ele>
        <time>2014-07-04T13:57:39Z</time>
      </trkpt>
      <trkpt lat="45.01111" lon="5.29044">
        <ele>322.18</ele>
        <time>2014-07-04T13:57:40Z</time>
      </trkpt>
      <trkpt lat="45.01121" lon="5.29043">
        <ele>322.18</ele>
        <time>2014-07-04T13:57:41Z</time>
      </trkpt>
      <trkpt lat="45.01152" lon="5.29045">
        <ele>319.3</ele>
        <time>2014-07-04T13:57:44Z</time>
      </trkpt>
      <trkpt lat="45.01162" lon="5.29048">
        <ele>319.3</ele>
        <time>2014-07-04T13:57:45Z</time>
      </trkpt>
      <trkpt lat="45.012" lon="5.2906">
        <ele>316.41</ele>
        <time>2014-07-04T13:57:49Z</time>
      </trkpt>
      <trkpt lat="45.01246" lon="5.29074">
        <ele>313.05</ele>
        <time>2014-07-04T13:57:55Z</time>
      </trkpt>
      <trkpt lat="45.01283" lon="5.29084">
        <ele>310.16</ele>
        <time>2014-07-04T13:57:59Z</time>
      </trkpt>
      <trkpt lat="45.01336" lon="5.29099">
        <ele>306.8</ele>
        <time>2014-07-04T13:58:05Z</time>
      </trkpt>
      <trkpt lat="45.01382" lon="5.29112">
        <ele>304.39</ele>
        <time>2014-07-04T13:58:11Z</time>
      </trkpt>
      <trkpt lat="45.01412" lon="5.2912">
        <ele>303.91</ele>
        <time>2014-07-04T13:58:15Z</time>
      </trkpt>
      <trkpt lat="45.01446" lon="5.29129">
        <ele>303.91</ele>
        <time>2014-07-04T13:58:22Z</time>
      </trkpt>
      <trkpt lat="45.0145" lon="5.29129">
        <ele>303.91</ele>
        <time>2014-07-04T13:58:23Z</time>
      </trkpt>
      <trkpt lat="45.01468" lon="5.2913">
        <ele>303.91</ele>
        <time>2014-07-04T13:58:28Z</time>
      </trkpt>
      <trkpt lat="45.01512" lon="5.29148">
        <ele>301.99</ele>
        <time>2014-07-04T13:58:40Z</time>
      </trkpt>
      <trkpt lat="45.01525" lon="5.29152">
        <ele>301.99</ele>
        <time>2014-07-04T13:58:47Z</time>
      </trkpt>
      <trkpt lat="45.01531" lon="5.29155">
        <ele>301.99</ele>
        <time>2014-07-04T13:59:03Z</time>
      </trkpt>
      <trkpt lat="45.01536" lon="5.29153">
        <ele>300.55</ele>
        <time>2014-07-04T13:59:26Z</time>
      </trkpt>
      <trkpt lat="45.01562" lon="5.2917">
        <ele>300.07</ele>
        <time>2014-07-04T13:59:40Z</time>
      </trkpt>
      <trkpt lat="45.01592" lon="5.29178">
        <ele>298.15</ele>
        <time>2014-07-04T13:59:51Z</time>
      </trkpt>
      <trkpt lat="45.01646" lon="5.29197">
        <ele>298.15</ele>
        <time>2014-07-04T14:00:03Z</time>
      </trkpt>
      <trkpt lat="45.01652" lon="5.29195">
        <ele>297.67</ele>
        <time>2014-07-04T14:00:04Z</time>
      </trkpt>
      <trkpt lat="45.01655" lon="5.29191">
        <ele>297.67</ele>
        <time>2014-07-04T14:00:05Z</time>
      </trkpt>
      <trkpt lat="45.0167" lon="5.29188">
        <ele>297.67</ele>
        <time>2014-07-04T14:00:06Z</time>
      </trkpt>
      <trkpt lat="45.01672" lon="5.29189">
        <ele>298.15</ele>
        <time>2014-07-04T14:00:07Z</time>
      </trkpt>
      <trkpt lat="45.01673" lon="5.29191">
        <ele>298.15</ele>
        <time>2014-07-04T14:00:17Z</time>
      </trkpt>
      <trkpt lat="45.01673" lon="5.29193">
        <ele>299.59</ele>
        <time>2014-07-04T14:00:24Z</time>
      </trkpt>
      <trkpt lat="45.01674" lon="5.29193">
        <ele>298.15</ele>
        <time>2014-07-04T14:00:25Z</time>
      </trkpt>
      <trkpt lat="45.01674" lon="5.29195">
        <ele>298.15</ele>
        <time>2014-07-04T14:00:43Z</time>
      </trkpt>
      <trkpt lat="45.01676" lon="5.292">
        <ele>297.67</ele>
        <time>2014-07-04T14:00:52Z</time>
      </trkpt>
      <trkpt lat="45.01676" lon="5.29202">
        <ele>297.67</ele>
        <time>2014-07-04T14:00:53Z</time>
      </trkpt>
      <trkpt lat="45.01678" lon="5.29204">
        <ele>297.67</ele>
        <time>2014-07-04T14:00:54Z</time>
      </trkpt>
      <trkpt lat="45.01682" lon="5.29205">
        <ele>297.67</ele>
        <time>2014-07-04T14:00:55Z</time>
      </trkpt>
      <trkpt lat="45.01706" lon="5.29217">
        <ele>298.15</ele>
        <time>2014-07-04T14:01:05Z</time>
      </trkpt>
      <trkpt lat="45.01735" lon="5.29237">
        <ele>299.11</ele>
        <time>2014-07-04T14:01:14Z</time>
      </trkpt>
      <trkpt lat="45.01772" lon="5.29269">
        <ele>299.59</ele>
        <time>2014-07-04T14:01:27Z</time>
      </trkpt>
      <trkpt lat="45.01781" lon="5.29274">
        <ele>299.59</ele>
        <time>2014-07-04T14:01:35Z</time>
      </trkpt>
      <trkpt lat="45.01782" lon="5.29272">
        <ele>299.59</ele>
        <time>2014-07-04T14:01:36Z</time>
      </trkpt>
      <trkpt lat="45.01783" lon="5.2927">
        <ele>299.59</ele>
        <time>2014-07-04T14:01:37Z</time>
      </trkpt>
      <trkpt lat="45.01783" lon="5.29269">
        <ele>299.11</ele>
        <time>2014-07-04T14:01:38Z</time>
      </trkpt>
      <trkpt lat="45.01783" lon="5.29268">
        <ele>299.59</ele>
        <time>2014-07-04T14:01:39Z</time>
      </trkpt>
      <trkpt lat="45.01782" lon="5.29268">
        <ele>299.59</ele>
        <time>2014-07-04T14:01:40Z</time>
      </trkpt>
      <trkpt lat="45.01779" lon="5.29268">
        <ele>299.59</ele>
        <time>2014-07-04T14:01:41Z</time>
      </trkpt>
      <trkpt lat="45.01777" lon="5.29267">
        <ele>299.59</ele>
        <time>2014-07-04T14:01:42Z</time>
      </trkpt>
      <trkpt lat="45.01775" lon="5.29265">
        <ele>299.59</ele>
        <time>2014-07-04T14:01:43Z</time>
      </trkpt>
      <trkpt lat="45.01773" lon="5.29263">
        <ele>299.59</ele>
        <time>2014-07-04T14:01:44Z</time>
      </trkpt>
      <trkpt lat="45.01765" lon="5.29257">
        <ele>299.59</ele>
        <time>2014-07-04T14:01:54Z</time>
      </trkpt>
      <trkpt lat="45.01768" lon="5.29254">
        <ele>299.11</ele>
        <time>2014-07-04T14:02:12Z</time>
      </trkpt>
      <trkpt lat="45.0177" lon="5.29253">
        <ele>298.63</ele>
        <time>2014-07-04T14:02:31Z</time>
      </trkpt>
      <trkpt lat="45.01769" lon="5.29256">
        <ele>299.11</ele>
        <time>2014-07-04T14:02:43Z</time>
      </trkpt>
      <trkpt lat="45.0177" lon="5.29255">
        <ele>299.11</ele>
        <time>2014-07-04T14:03:05Z</time>
      </trkpt>
      <trkpt lat="45.01769" lon="5.29255">
        <ele>299.11</ele>
        <time>2014-07-04T14:03:24Z</time>
      </trkpt>
      <trkpt lat="45.01768" lon="5.29256">
        <ele>299.11</ele>
        <time>2014-07-04T14:03:33Z</time>
      </trkpt>
      <trkpt lat="45.01771" lon="5.29267">
        <ele>299.11</ele>
        <time>2014-07-04T14:03:41Z</time>
      </trkpt>
      <trkpt lat="45.01779" lon="5.29282">
        <ele>299.59</ele>
        <time>2014-07-04T14:03:53Z</time>
      </trkpt>
      <trkpt lat="45.0178" lon="5.29282">
        <ele>299.59</ele>
        <time>2014-07-04T14:03:54Z</time>
      </trkpt>
      <trkpt lat="45.01782" lon="5.29283">
        <ele>299.59</ele>
        <time>2014-07-04T14:03:55Z</time>
      </trkpt>
      <trkpt lat="45.01794" lon="5.29283">
        <ele>299.59</ele>
        <time>2014-07-04T14:04:01Z</time>
      </trkpt>
      <trkpt lat="45.01795" lon="5.29285">
        <ele>299.59</ele>
        <time>2014-07-04T14:04:02Z</time>
      </trkpt>
      <trkpt lat="45.01798" lon="5.29287">
        <ele>299.59</ele>
        <time>2014-07-04T14:04:03Z</time>
      </trkpt>
      <trkpt lat="45.01798" lon="5.2929">
        <ele>300.07</ele>
        <time>2014-07-04T14:04:04Z</time>
      </trkpt>
      <trkpt lat="45.01799" lon="5.29292">
        <ele>300.55</ele>
        <time>2014-07-04T14:04:14Z</time>
      </trkpt>
      <trkpt lat="45.01798" lon="5.29286">
        <ele>299.59</ele>
        <time>2014-07-04T14:04:24Z</time>
      </trkpt>
      <trkpt lat="45.01794" lon="5.29283">
        <ele>299.11</ele>
        <time>2014-07-04T14:04:34Z</time>
      </trkpt>
      <trkpt lat="45.01794" lon="5.29284">
        <ele>299.11</ele>
        <time>2014-07-04T14:04:52Z</time>
      </trkpt>
      <trkpt lat="45.01791" lon="5.29284">
        <ele>298.63</ele>
        <time>2014-07-04T14:04:57Z</time>
      </trkpt>
      <trkpt lat="45.01789" lon="5.2928">
        <ele>299.11</ele>
        <time>2014-07-04T14:05:08Z</time>
      </trkpt>
      <trkpt lat="45.01789" lon="5.2928">
        <ele>298.63</ele>
        <time>2014-07-04T14:05:30Z</time>
      </trkpt>
      <trkpt lat="45.01787" lon="5.29285">
        <ele>298.63</ele>
        <time>2014-07-04T14:06:06Z</time>
      </trkpt>
      <trkpt lat="45.01787" lon="5.29289">
        <ele>298.15</ele>
        <time>2014-07-04T14:06:20Z</time>
      </trkpt>
      <trkpt lat="45.01787" lon="5.29291">
        <ele>297.67</ele>
        <time>2014-07-04T14:06:21Z</time>
      </trkpt>
      <trkpt lat="45.01787" lon="5.29294">
        <ele>297.67</ele>
        <time>2014-07-04T14:06:22Z</time>
      </trkpt>
      <trkpt lat="45.01788" lon="5.29296">
        <ele>297.67</ele>
        <time>2014-07-04T14:06:30Z</time>
      </trkpt>
      <trkpt lat="45.01787" lon="5.29297">
        <ele>297.18</ele>
        <time>2014-07-04T14:06:45Z</time>
      </trkpt>
      <trkpt lat="45.01786" lon="5.29295">
        <ele>296.22</ele>
        <time>2014-07-04T14:07:18Z</time>
      </trkpt>
      <trkpt lat="45.01786" lon="5.29292">
        <ele>296.22</ele>
        <time>2014-07-04T14:07:32Z</time>
      </trkpt>
      <trkpt lat="45.01785" lon="5.29289">
        <ele>295.26</ele>
        <time>2014-07-04T14:08:02Z</time>
      </trkpt>
      <trkpt lat="45.01786" lon="5.2929">
        <ele>293.82</ele>
        <time>2014-07-04T14:08:24Z</time>
      </trkpt>
      <trkpt lat="45.01786" lon="5.29289">
        <ele>293.82</ele>
        <time>2014-07-04T14:08:43Z</time>
      </trkpt>
      <trkpt lat="45.01787" lon="5.29292">
        <ele>293.34</ele>
        <time>2014-07-04T14:09:02Z</time>
      </trkpt>
      <trkpt lat="45.01789" lon="5.29292">
        <ele>293.34</ele>
        <time>2014-07-04T14:09:22Z</time>
      </trkpt>
      <trkpt lat="45.01789" lon="5.29289">
        <ele>291.9</ele>
        <time>2014-07-04T14:09:55Z</time>
      </trkpt>
      <trkpt lat="45.01789" lon="5.2929">
        <ele>291.42</ele>
        <time>2014-07-04T14:10:29Z</time>
      </trkpt>
      <trkpt lat="45.01789" lon="5.29288">
        <ele>290.94</ele>
        <time>2014-07-04T14:10:52Z</time>
      </trkpt>
      <trkpt lat="45.01782" lon="5.29287">
        <ele>288.53</ele>
        <time>2014-07-04T14:11:16Z</time>
      </trkpt>
      <trkpt lat="45.01784" lon="5.2929">
        <ele>290.46</ele>
        <time>2014-07-04T14:11:17Z</time>
      </trkpt>
    </trkseg>
  </trk>
</gpx>